<?xml version='1.0' encoding='UTF-8'?><gpx version="1.1" creator="JPX - https://github.com/jenetics/jpx" xmlns="http://www.topografix.com/GPX/1/1"><trk><trkseg><trkpt lat="44.1507709" lon="10.4124868"><ele>546.0</ele><time>2026-04-29T13:07:13.407Z</time></trkpt><trkpt lat="44.1507926" lon="10.4123684"><ele>546.0</ele><time>2026-04-29T13:07:15.404Z</time></trkpt><trkpt lat="44.1508054" lon="10.4122358"><ele>546.0</ele><time>2026-04-29T13:07:17.406Z</time></trkpt><trkpt lat="44.1508417" lon="10.4121215"><ele>546.0</ele><time>2026-04-29T13:07:19.423Z</time></trkpt><trkpt lat="44.1509147" lon="10.412113"><ele>546.0</ele><time>2026-04-29T13:07:21.41Z</time></trkpt><trkpt lat="44.1509791" lon="10.4121084"><ele>546.0</ele><time>2026-04-29T13:07:23.42Z</time></trkpt><trkpt lat="44.1510563" lon="10.412123"><ele>543.5</ele><time>2026-04-29T13:07:26.411Z</time></trkpt><trkpt lat="44.1510969" lon="10.4120232"><ele>541.0</ele><time>2026-04-29T13:07:29.4Z</time></trkpt><trkpt lat="44.1510385" lon="10.411934"><ele>538.5</ele><time>2026-04-29T13:07:31.399Z</time></trkpt><trkpt lat="44.1509613" lon="10.4118786"><ele>536.0</ele><time>2026-04-29T13:07:33.405Z</time></trkpt><trkpt lat="44.1509274" lon="10.4117826"><ele>533.5</ele><time>2026-04-29T13:07:36.421Z</time></trkpt><trkpt lat="44.1509896" lon="10.4117506"><ele>531.0</ele><time>2026-04-29T13:07:39.412Z</time></trkpt><trkpt lat="44.1510578" lon="10.4117404"><ele>531.0</ele><time>2026-04-29T13:07:42.406Z</time></trkpt><trkpt lat="44.1511303" lon="10.4117287"><ele>531.0</ele><time>2026-04-29T13:07:45.405Z</time></trkpt><trkpt lat="44.1511988" lon="10.4117089"><ele>531.0</ele><time>2026-04-29T13:07:48.418Z</time></trkpt><trkpt lat="44.1512712" lon="10.411694"><ele>531.0</ele><time>2026-04-29T13:07:51.41Z</time></trkpt><trkpt lat="44.1513418" lon="10.4117015"><ele>531.0</ele><time>2026-04-29T13:07:54.408Z</time></trkpt><trkpt lat="44.1514139" lon="10.4116927"><ele>531.0</ele><time>2026-04-29T13:07:57.419Z</time></trkpt><trkpt lat="44.1514868" lon="10.4116792"><ele>531.0</ele><time>2026-04-29T13:08:00.403Z</time></trkpt><trkpt lat="44.151556" lon="10.4116839"><ele>532.2857142857143</ele><time>2026-04-29T13:08:03.404Z</time></trkpt><trkpt lat="44.1516269" lon="10.4116765"><ele>533.5714285714287</ele><time>2026-04-29T13:08:06.423Z</time></trkpt><trkpt lat="44.1516967" lon="10.4116573"><ele>534.8571428571429</ele><time>2026-04-29T13:08:09.403Z</time></trkpt><trkpt lat="44.1517732" lon="10.4116324"><ele>536.1428571428571</ele><time>2026-04-29T13:08:12.408Z</time></trkpt><trkpt lat="44.1518398" lon="10.4116016"><ele>537.4285714285713</ele><time>2026-04-29T13:08:15.415Z</time></trkpt><trkpt lat="44.151903" lon="10.4115652"><ele>538.7142857142857</ele><time>2026-04-29T13:08:18.421Z</time></trkpt><trkpt lat="44.1519669" lon="10.4115173"><ele>540.0</ele><time>2026-04-29T13:08:21.411Z</time></trkpt><trkpt lat="44.152027" lon="10.4114623"><ele>540.0</ele><time>2026-04-29T13:08:24.411Z</time></trkpt><trkpt lat="44.1520873" lon="10.4114118"><ele>540.0</ele><time>2026-04-29T13:08:27.405Z</time></trkpt><trkpt lat="44.1521477" lon="10.411359"><ele>540.0</ele><time>2026-04-29T13:08:30.409Z</time></trkpt><trkpt lat="44.1522104" lon="10.41132"><ele>540.0</ele><time>2026-04-29T13:08:33.414Z</time></trkpt><trkpt lat="44.1522755" lon="10.4112819"><ele>540.0</ele><time>2026-04-29T13:08:36.412Z</time></trkpt><trkpt lat="44.1523402" lon="10.4112441"><ele>540.0</ele><time>2026-04-29T13:08:39.411Z</time></trkpt><trkpt lat="44.1523997" lon="10.4111966"><ele>540.0</ele><time>2026-04-29T13:08:42.404Z</time></trkpt><trkpt lat="44.1524636" lon="10.411164"><ele>540.1428571428571</ele><time>2026-04-29T13:08:45.426Z</time></trkpt><trkpt lat="44.1525281" lon="10.4111296"><ele>540.2857142857142</ele><time>2026-04-29T13:08:48.423Z</time></trkpt><trkpt lat="44.1525959" lon="10.411096"><ele>540.4285714285714</ele><time>2026-04-29T13:08:51.414Z</time></trkpt><trkpt lat="44.1526628" lon="10.4110676"><ele>540.5714285714286</ele><time>2026-04-29T13:08:54.406Z</time></trkpt><trkpt lat="44.1527297" lon="10.4110495"><ele>540.7142857142858</ele><time>2026-04-29T13:08:57.412Z</time></trkpt><trkpt lat="44.1527994" lon="10.4110495"><ele>540.8571428571429</ele><time>2026-04-29T13:09:00.404Z</time></trkpt><trkpt lat="44.1528671" lon="10.4110718"><ele>541.0</ele><time>2026-04-29T13:09:03.411Z</time></trkpt><trkpt lat="44.1529326" lon="10.411109"><ele>541.0000000000001</ele><time>2026-04-29T13:09:06.412Z</time></trkpt><trkpt lat="44.1529971" lon="10.4111388"><ele>541.0</ele><time>2026-04-29T13:09:09.406Z</time></trkpt><trkpt lat="44.1530612" lon="10.411168"><ele>541.0</ele><time>2026-04-29T13:09:12.404Z</time></trkpt><trkpt lat="44.1531241" lon="10.4111968"><ele>541.0</ele><time>2026-04-29T13:09:15.407Z</time></trkpt><trkpt lat="44.1531897" lon="10.4112305"><ele>541.0</ele><time>2026-04-29T13:09:18.412Z</time></trkpt><trkpt lat="44.1532596" lon="10.4112523"><ele>541.0000000000001</ele><time>2026-04-29T13:09:21.403Z</time></trkpt><trkpt lat="44.15333" lon="10.4112751"><ele>541.0</ele><time>2026-04-29T13:09:24.404Z</time></trkpt><trkpt lat="44.1533987" lon="10.4112955"><ele>542.1428571428572</ele><time>2026-04-29T13:09:27.417Z</time></trkpt><trkpt lat="44.1534717" lon="10.4113146"><ele>543.2857142857143</ele><time>2026-04-29T13:09:30.412Z</time></trkpt><trkpt lat="44.1535466" lon="10.4113313"><ele>544.4285714285714</ele><time>2026-04-29T13:09:33.406Z</time></trkpt><trkpt lat="44.1536164" lon="10.4113394"><ele>545.5714285714287</ele><time>2026-04-29T13:09:36.417Z</time></trkpt><trkpt lat="44.1536885" lon="10.4113287"><ele>546.7142857142858</ele><time>2026-04-29T13:09:39.405Z</time></trkpt><trkpt lat="44.1537601" lon="10.4113118"><ele>547.8571428571429</ele><time>2026-04-29T13:09:42.403Z</time></trkpt><trkpt lat="44.1538307" lon="10.4113019"><ele>549.0</ele><time>2026-04-29T13:09:45.408Z</time></trkpt><trkpt lat="44.153899" lon="10.411289"><ele>549.0</ele><time>2026-04-29T13:09:48.415Z</time></trkpt><trkpt lat="44.1539686" lon="10.4112718"><ele>549.0</ele><time>2026-04-29T13:09:51.413Z</time></trkpt><trkpt lat="44.1540427" lon="10.4112565"><ele>549.0</ele><time>2026-04-29T13:09:54.41Z</time></trkpt><trkpt lat="44.1541131" lon="10.4112397"><ele>549.0</ele><time>2026-04-29T13:09:57.413Z</time></trkpt><trkpt lat="44.1541841" lon="10.411223"><ele>549.0</ele><time>2026-04-29T13:10:00.409Z</time></trkpt><trkpt lat="44.1542541" lon="10.411208"><ele>549.0</ele><time>2026-04-29T13:10:03.41Z</time></trkpt><trkpt lat="44.1543221" lon="10.411201"><ele>549.0</ele><time>2026-04-29T13:10:06.419Z</time></trkpt><trkpt lat="44.1543922" lon="10.4111858"><ele>550.8571428571429</ele><time>2026-04-29T13:10:09.415Z</time></trkpt><trkpt lat="44.1544615" lon="10.4111683"><ele>552.7142857142858</ele><time>2026-04-29T13:10:12.41Z</time></trkpt><trkpt lat="44.1545312" lon="10.4111703"><ele>554.5714285714287</ele><time>2026-04-29T13:10:15.412Z</time></trkpt><trkpt lat="44.1546018" lon="10.4111569"><ele>556.4285714285714</ele><time>2026-04-29T13:10:18.412Z</time></trkpt><trkpt lat="44.1546705" lon="10.4111606"><ele>558.2857142857143</ele><time>2026-04-29T13:10:21.407Z</time></trkpt><trkpt lat="44.1547373" lon="10.4111575"><ele>560.1428571428572</ele><time>2026-04-29T13:10:24.41Z</time></trkpt><trkpt lat="44.1548003" lon="10.4111611"><ele>562.0</ele><time>2026-04-29T13:10:27.406Z</time></trkpt><trkpt lat="44.1548646" lon="10.4111493"><ele>562.7142857142858</ele><time>2026-04-29T13:10:30.41Z</time></trkpt><trkpt lat="44.1549331" lon="10.4111483"><ele>563.4285714285714</ele><time>2026-04-29T13:10:33.4Z</time></trkpt><trkpt lat="44.1550025" lon="10.4111463"><ele>564.1428571428571</ele><time>2026-04-29T13:10:36.407Z</time></trkpt><trkpt lat="44.1550782" lon="10.4111476"><ele>564.8571428571429</ele><time>2026-04-29T13:10:39.404Z</time></trkpt><trkpt lat="44.15515" lon="10.4111382"><ele>565.5714285714286</ele><time>2026-04-29T13:10:42.406Z</time></trkpt><trkpt lat="44.1552269" lon="10.4111308"><ele>566.2857142857143</ele><time>2026-04-29T13:10:45.404Z</time></trkpt><trkpt lat="44.1553027" lon="10.4111176"><ele>567.0</ele><time>2026-04-29T13:10:48.418Z</time></trkpt><trkpt lat="44.1553766" lon="10.4111105"><ele>567.0</ele><time>2026-04-29T13:10:51.408Z</time></trkpt><trkpt lat="44.1554503" lon="10.4110967"><ele>567.0</ele><time>2026-04-29T13:10:54.404Z</time></trkpt><trkpt lat="44.1555255" lon="10.4110709"><ele>567.0</ele><time>2026-04-29T13:10:57.414Z</time></trkpt><trkpt lat="44.1555968" lon="10.4110459"><ele>567.0</ele><time>2026-04-29T13:11:00.408Z</time></trkpt><trkpt lat="44.1556684" lon="10.411028"><ele>567.0</ele><time>2026-04-29T13:11:03.413Z</time></trkpt><trkpt lat="44.1557419" lon="10.411011"><ele>567.0</ele><time>2026-04-29T13:11:06.419Z</time></trkpt><trkpt lat="44.155817" lon="10.4109883"><ele>567.0</ele><time>2026-04-29T13:11:09.406Z</time></trkpt><trkpt lat="44.1558884" lon="10.4109668"><ele>568.0</ele><time>2026-04-29T13:11:12.413Z</time></trkpt><trkpt lat="44.1559585" lon="10.4109406"><ele>569.0</ele><time>2026-04-29T13:11:15.416Z</time></trkpt><trkpt lat="44.1560294" lon="10.4109187"><ele>570.0</ele><time>2026-04-29T13:11:18.417Z</time></trkpt><trkpt lat="44.1561016" lon="10.4108967"><ele>571.0</ele><time>2026-04-29T13:11:21.41Z</time></trkpt><trkpt lat="44.156174" lon="10.4108775"><ele>572.0</ele><time>2026-04-29T13:11:24.402Z</time></trkpt><trkpt lat="44.1562463" lon="10.4108572"><ele>573.0</ele><time>2026-04-29T13:11:27.405Z</time></trkpt><trkpt lat="44.1563186" lon="10.4108229"><ele>574.0</ele><time>2026-04-29T13:11:30.419Z</time></trkpt><trkpt lat="44.1563897" lon="10.4107887"><ele>574.0</ele><time>2026-04-29T13:11:33.405Z</time></trkpt><trkpt lat="44.1564578" lon="10.4107553"><ele>574.0</ele><time>2026-04-29T13:11:36.41Z</time></trkpt><trkpt lat="44.1565298" lon="10.4107238"><ele>574.0</ele><time>2026-04-29T13:11:39.413Z</time></trkpt><trkpt lat="44.1566" lon="10.4106948"><ele>574.0</ele><time>2026-04-29T13:11:42.423Z</time></trkpt><trkpt lat="44.156675" lon="10.4106771"><ele>574.0</ele><time>2026-04-29T13:11:45.402Z</time></trkpt><trkpt lat="44.1567477" lon="10.4106791"><ele>574.0</ele><time>2026-04-29T13:11:48.403Z</time></trkpt><trkpt lat="44.1568193" lon="10.4107047"><ele>574.0</ele><time>2026-04-29T13:11:51.405Z</time></trkpt><trkpt lat="44.156848" lon="10.4108051"><ele>574.0</ele><time>2026-04-29T13:11:54.415Z</time></trkpt><trkpt lat="44.1567906" lon="10.4108808"><ele>574.0</ele><time>2026-04-29T13:11:57.412Z</time></trkpt><trkpt lat="44.1567363" lon="10.4109534"><ele>574.0</ele><time>2026-04-29T13:12:00.405Z</time></trkpt><trkpt lat="44.1566792" lon="10.411031"><ele>574.0</ele><time>2026-04-29T13:12:03.401Z</time></trkpt><trkpt lat="44.1566238" lon="10.4111025"><ele>574.0</ele><time>2026-04-29T13:12:06.41Z</time></trkpt><trkpt lat="44.1565689" lon="10.4111749"><ele>574.0</ele><time>2026-04-29T13:12:09.411Z</time></trkpt><trkpt lat="44.1565165" lon="10.4112454"><ele>574.0</ele><time>2026-04-29T13:12:12.415Z</time></trkpt><trkpt lat="44.1564641" lon="10.4113146"><ele>574.0</ele><time>2026-04-29T13:12:15.417Z</time></trkpt><trkpt lat="44.1564057" lon="10.4113837"><ele>574.0</ele><time>2026-04-29T13:12:18.422Z</time></trkpt><trkpt lat="44.1563523" lon="10.4114616"><ele>574.0</ele><time>2026-04-29T13:12:21.41Z</time></trkpt><trkpt lat="44.1562972" lon="10.4115281"><ele>574.0</ele><time>2026-04-29T13:12:24.403Z</time></trkpt><trkpt lat="44.156242" lon="10.4115965"><ele>574.0</ele><time>2026-04-29T13:12:27.413Z</time></trkpt><trkpt lat="44.1561903" lon="10.4116657"><ele>574.0</ele><time>2026-04-29T13:12:30.416Z</time></trkpt><trkpt lat="44.1561321" lon="10.4117359"><ele>576.1428571428571</ele><time>2026-04-29T13:12:33.412Z</time></trkpt><trkpt lat="44.1560797" lon="10.4118014"><ele>578.2857142857142</ele><time>2026-04-29T13:12:36.414Z</time></trkpt><trkpt lat="44.1560237" lon="10.4118538"><ele>580.4285714285714</ele><time>2026-04-29T13:12:39.415Z</time></trkpt><trkpt lat="44.1559538" lon="10.4118857"><ele>582.5714285714286</ele><time>2026-04-29T13:12:42.404Z</time></trkpt><trkpt lat="44.1558789" lon="10.4119024"><ele>584.7142857142857</ele><time>2026-04-29T13:12:45.406Z</time></trkpt><trkpt lat="44.1558048" lon="10.4119167"><ele>586.8571428571429</ele><time>2026-04-29T13:12:48.407Z</time></trkpt><trkpt lat="44.1557306" lon="10.4119213"><ele>589.0</ele><time>2026-04-29T13:12:51.417Z</time></trkpt><trkpt lat="44.1556553" lon="10.411927"><ele>589.0</ele><time>2026-04-29T13:12:54.408Z</time></trkpt><trkpt lat="44.1555779" lon="10.4119307"><ele>589.0</ele><time>2026-04-29T13:12:57.404Z</time></trkpt><trkpt lat="44.1555013" lon="10.4119262"><ele>589.0</ele><time>2026-04-29T13:13:00.412Z</time></trkpt><trkpt lat="44.155427" lon="10.4119203"><ele>589.0</ele><time>2026-04-29T13:13:03.406Z</time></trkpt><trkpt lat="44.1553518" lon="10.4119221"><ele>589.0</ele><time>2026-04-29T13:13:06.402Z</time></trkpt><trkpt lat="44.1552812" lon="10.4119167"><ele>589.0</ele><time>2026-04-29T13:13:09.409Z</time></trkpt><trkpt lat="44.1552085" lon="10.4119149"><ele>589.0</ele><time>2026-04-29T13:13:12.412Z</time></trkpt><trkpt lat="44.1551333" lon="10.4119186"><ele>589.0</ele><time>2026-04-29T13:13:15.411Z</time></trkpt><trkpt lat="44.1550596" lon="10.4119385"><ele>589.0</ele><time>2026-04-29T13:13:18.399Z</time></trkpt><trkpt lat="44.1549898" lon="10.4119808"><ele>589.0</ele><time>2026-04-29T13:13:21.408Z</time></trkpt><trkpt lat="44.1549425" lon="10.4120444"><ele>589.0</ele><time>2026-04-29T13:13:24.409Z</time></trkpt><trkpt lat="44.1548808" lon="10.412114"><ele>589.0</ele><time>2026-04-29T13:13:27.413Z</time></trkpt><trkpt lat="44.154828" lon="10.4121812"><ele>589.0</ele><time>2026-04-29T13:13:30.408Z</time></trkpt><trkpt lat="44.1547778" lon="10.412258"><ele>589.0</ele><time>2026-04-29T13:13:33.411Z</time></trkpt><trkpt lat="44.1547076" lon="10.4123217"><ele>589.5</ele><time>2026-04-29T13:13:37.415Z</time></trkpt><trkpt lat="44.1546581" lon="10.4124028"><ele>590.0</ele><time>2026-04-29T13:13:40.407Z</time></trkpt><trkpt lat="44.154608" lon="10.4124882"><ele>590.5</ele><time>2026-04-29T13:13:43.411Z</time></trkpt><trkpt lat="44.1545666" lon="10.4125726"><ele>591.0</ele><time>2026-04-29T13:13:46.419Z</time></trkpt><trkpt lat="44.1545301" lon="10.4126497"><ele>591.5</ele><time>2026-04-29T13:13:49.412Z</time></trkpt><trkpt lat="44.154485" lon="10.4127335"><ele>592.0</ele><time>2026-04-29T13:13:52.423Z</time></trkpt><trkpt lat="44.1544261" lon="10.412811"><ele>592.0</ele><time>2026-04-29T13:13:56.404Z</time></trkpt><trkpt lat="44.1543677" lon="10.4128868"><ele>592.0</ele><time>2026-04-29T13:13:59.392Z</time></trkpt><trkpt lat="44.1543319" lon="10.4129814"><ele>592.0</ele><time>2026-04-29T13:14:02.414Z</time></trkpt><trkpt lat="44.1543169" lon="10.4130721"><ele>592.0</ele><time>2026-04-29T13:14:05.41Z</time></trkpt><trkpt lat="44.1543015" lon="10.4131774"><ele>592.0</ele><time>2026-04-29T13:14:08.413Z</time></trkpt><trkpt lat="44.15429" lon="10.413291"><ele>592.0</ele><time>2026-04-29T13:14:11.405Z</time></trkpt><trkpt lat="44.154608" lon="10.4124882"><ele>592.0</ele><time>2026-04-29T13:13:43.411Z</time></trkpt><trkpt lat="44.1545666" lon="10.4125726"><ele>592.0</ele><time>2026-04-29T13:13:46.419Z</time></trkpt><trkpt lat="44.1545301" lon="10.4126497"><ele>592.0</ele><time>2026-04-29T13:13:49.412Z</time></trkpt><trkpt lat="44.154485" lon="10.4127335"><ele>592.0</ele><time>2026-04-29T13:13:52.423Z</time></trkpt><trkpt lat="44.1544261" lon="10.412811"><ele>592.0</ele><time>2026-04-29T13:13:56.404Z</time></trkpt><trkpt lat="44.1543677" lon="10.4128868"><ele>592.0</ele><time>2026-04-29T13:13:59.392Z</time></trkpt><trkpt lat="44.1543319" lon="10.4129814"><ele>595.3333333333334</ele><time>2026-04-29T13:14:02.414Z</time></trkpt><trkpt lat="44.1543169" lon="10.4130721"><ele>598.6666666666667</ele><time>2026-04-29T13:14:05.41Z</time></trkpt><trkpt lat="44.1543015" lon="10.4131774"><ele>602.0</ele><time>2026-04-29T13:14:08.413Z</time></trkpt><trkpt lat="44.15429" lon="10.413291"><ele>605.3333333333334</ele><time>2026-04-29T13:14:11.405Z</time></trkpt><trkpt lat="44.15428" lon="10.4134105"><ele>608.6666666666666</ele><time>2026-04-29T13:14:14.414Z</time></trkpt><trkpt lat="44.1542649" lon="10.4135231"><ele>612.0</ele><time>2026-04-29T13:14:17.411Z</time></trkpt><trkpt lat="44.1542474" lon="10.4136356"><ele>612.0</ele><time>2026-04-29T13:14:20.404Z</time></trkpt><trkpt lat="44.1542266" lon="10.4137402"><ele>612.0</ele><time>2026-04-29T13:14:23.416Z</time></trkpt><trkpt lat="44.1541905" lon="10.4138309"><ele>612.0</ele><time>2026-04-29T13:14:26.407Z</time></trkpt><trkpt lat="44.1541361" lon="10.4139112"><ele>612.0</ele><time>2026-04-29T13:14:29.414Z</time></trkpt><trkpt lat="44.154078" lon="10.413979"><ele>612.0</ele><time>2026-04-29T13:14:32.41Z</time></trkpt><trkpt lat="44.154026" lon="10.4140558"><ele>612.0</ele><time>2026-04-29T13:14:35.413Z</time></trkpt><trkpt lat="44.1539665" lon="10.4141191"><ele>611.1666666666666</ele><time>2026-04-29T13:14:38.412Z</time></trkpt><trkpt lat="44.1538993" lon="10.4141713"><ele>610.3333333333334</ele><time>2026-04-29T13:14:41.405Z</time></trkpt><trkpt lat="44.1538374" lon="10.4142461"><ele>609.5</ele><time>2026-04-29T13:14:44.412Z</time></trkpt><trkpt lat="44.1537742" lon="10.414314"><ele>608.6666666666667</ele><time>2026-04-29T13:14:47.412Z</time></trkpt><trkpt lat="44.153709" lon="10.414375"><ele>607.8333333333334</ele><time>2026-04-29T13:14:50.413Z</time></trkpt><trkpt lat="44.1536464" lon="10.4144307"><ele>607.0</ele><time>2026-04-29T13:14:53.376Z</time></trkpt><trkpt lat="44.1535909" lon="10.4144974"><ele>606.9999999999999</ele><time>2026-04-29T13:14:56.336Z</time></trkpt><trkpt lat="44.1535383" lon="10.4145651"><ele>607.0</ele><time>2026-04-29T13:14:59.404Z</time></trkpt><trkpt lat="44.1534936" lon="10.4146438"><ele>607.0</ele><time>2026-04-29T13:15:02.415Z</time></trkpt><trkpt lat="44.1535021" lon="10.4147398"><ele>607.0</ele><time>2026-04-29T13:15:05.405Z</time></trkpt><trkpt lat="44.1535901" lon="10.4147662"><ele>607.0</ele><time>2026-04-29T13:15:08.414Z</time></trkpt><trkpt lat="44.1536453" lon="10.4147237"><ele>606.9999999999999</ele><time>2026-04-29T13:15:10.406Z</time></trkpt><trkpt lat="44.1537193" lon="10.4146717"><ele>607.0</ele><time>2026-04-29T13:15:13.403Z</time></trkpt><trkpt lat="44.1537887" lon="10.4146169"><ele>607.0</ele><time>2026-04-29T13:15:16.401Z</time></trkpt><trkpt lat="44.1538573" lon="10.4145684"><ele>607.0</ele><time>2026-04-29T13:15:19.413Z</time></trkpt><trkpt lat="44.1539285" lon="10.4145299"><ele>607.0</ele><time>2026-04-29T13:15:22.416Z</time></trkpt><trkpt lat="44.1540026" lon="10.4144883"><ele>607.0</ele><time>2026-04-29T13:15:25.419Z</time></trkpt><trkpt lat="44.1540718" lon="10.4144443"><ele>607.0</ele><time>2026-04-29T13:15:28.409Z</time></trkpt><trkpt lat="44.1541354" lon="10.4143933"><ele>607.0</ele><time>2026-04-29T13:15:31.412Z</time></trkpt><trkpt lat="44.1542027" lon="10.4143411"><ele>609.7142857142857</ele><time>2026-04-29T13:15:34.412Z</time></trkpt><trkpt lat="44.1542735" lon="10.4142957"><ele>612.4285714285714</ele><time>2026-04-29T13:15:37.411Z</time></trkpt><trkpt lat="44.1543396" lon="10.4142501"><ele>615.1428571428571</ele><time>2026-04-29T13:15:40.41Z</time></trkpt><trkpt lat="44.1543976" lon="10.4141967"><ele>617.8571428571429</ele><time>2026-04-29T13:15:43.414Z</time></trkpt><trkpt lat="44.1544576" lon="10.4141414"><ele>620.5714285714286</ele><time>2026-04-29T13:15:46.408Z</time></trkpt><trkpt lat="44.1545191" lon="10.4140676"><ele>623.2857142857142</ele><time>2026-04-29T13:15:49.411Z</time></trkpt><trkpt lat="44.1545592" lon="10.4139985"><ele>626.0</ele><time>2026-04-29T13:15:52.417Z</time></trkpt><trkpt lat="44.1545882" lon="10.4139052"><ele>624.0</ele><time>2026-04-29T13:15:55.408Z</time></trkpt><trkpt lat="44.154606" lon="10.4138158"><ele>622.0</ele><time>2026-04-29T13:15:58.414Z</time></trkpt><trkpt lat="44.1546241" lon="10.413707"><ele>620.0</ele><time>2026-04-29T13:16:01.417Z</time></trkpt><trkpt lat="44.1546449" lon="10.4136034"><ele>618.0</ele><time>2026-04-29T13:16:04.402Z</time></trkpt><trkpt lat="44.1546663" lon="10.4134972"><ele>616.0</ele><time>2026-04-29T13:16:07.407Z</time></trkpt><trkpt lat="44.1546846" lon="10.4134082"><ele>614.0</ele><time>2026-04-29T13:16:09.413Z</time></trkpt><trkpt lat="44.1547233" lon="10.4133197"><ele>612.0</ele><time>2026-04-29T13:16:12.416Z</time></trkpt><trkpt lat="44.1547931" lon="10.4132556"><ele>612.0</ele><time>2026-04-29T13:16:15.418Z</time></trkpt><trkpt lat="44.1548613" lon="10.4132121"><ele>612.0</ele><time>2026-04-29T13:16:18.411Z</time></trkpt><trkpt lat="44.1549361" lon="10.4131728"><ele>612.0</ele><time>2026-04-29T13:16:21.412Z</time></trkpt><trkpt lat="44.1549953" lon="10.4131234"><ele>612.0</ele><time>2026-04-29T13:16:24.415Z</time></trkpt><trkpt lat="44.1550693" lon="10.413081"><ele>612.0</ele><time>2026-04-29T13:16:28.402Z</time></trkpt><trkpt lat="44.1551494" lon="10.4130332"><ele>612.0</ele><time>2026-04-29T13:16:31.407Z</time></trkpt><trkpt lat="44.1552255" lon="10.4129924"><ele>613.3333333333334</ele><time>2026-04-29T13:16:34.41Z</time></trkpt><trkpt lat="44.1553013" lon="10.412979"><ele>614.6666666666666</ele><time>2026-04-29T13:16:37.412Z</time></trkpt><trkpt lat="44.1553743" lon="10.4129969"><ele>616.0</ele><time>2026-04-29T13:16:40.413Z</time></trkpt><trkpt lat="44.1554447" lon="10.4130317"><ele>617.3333333333333</ele><time>2026-04-29T13:16:43.413Z</time></trkpt><trkpt lat="44.1555137" lon="10.4130535"><ele>618.6666666666666</ele><time>2026-04-29T13:16:46.417Z</time></trkpt><trkpt lat="44.1555987" lon="10.413071"><ele>620.0</ele><time>2026-04-29T13:16:49.414Z</time></trkpt><trkpt lat="44.1556763" lon="10.4130847"><ele>627.0</ele><time>2026-04-29T13:16:52.407Z</time></trkpt><trkpt lat="44.1557556" lon="10.4130824"><ele>634.0</ele><time>2026-04-29T13:16:55.419Z</time></trkpt><trkpt lat="44.1558325" lon="10.4130836"><ele>641.0</ele><time>2026-04-29T13:16:58.409Z</time></trkpt><trkpt lat="44.1559057" lon="10.413092"><ele>648.0</ele><time>2026-04-29T13:17:01.402Z</time></trkpt><trkpt lat="44.1559845" lon="10.413103"><ele>655.0</ele><time>2026-04-29T13:17:04.408Z</time></trkpt><trkpt lat="44.1560636" lon="10.4131145"><ele>662.0</ele><time>2026-04-29T13:17:07.416Z</time></trkpt><trkpt lat="44.1561415" lon="10.4131385"><ele>662.0</ele><time>2026-04-29T13:17:10.412Z</time></trkpt><trkpt lat="44.1562216" lon="10.4131567"><ele>662.0</ele><time>2026-04-29T13:17:13.416Z</time></trkpt><trkpt lat="44.1562954" lon="10.4131706"><ele>662.0</ele><time>2026-04-29T13:17:16.407Z</time></trkpt><trkpt lat="44.1563755" lon="10.4131879"><ele>662.0</ele><time>2026-04-29T13:17:19.401Z</time></trkpt><trkpt lat="44.1564603" lon="10.4131987"><ele>662.0</ele><time>2026-04-29T13:17:22.414Z</time></trkpt><trkpt lat="44.156536" lon="10.4132115"><ele>662.0</ele><time>2026-04-29T13:17:25.407Z</time></trkpt><trkpt lat="44.1566185" lon="10.4132242"><ele>662.6666666666666</ele><time>2026-04-29T13:17:28.405Z</time></trkpt><trkpt lat="44.1567004" lon="10.4132317"><ele>663.3333333333333</ele><time>2026-04-29T13:17:31.415Z</time></trkpt><trkpt lat="44.1567833" lon="10.413236"><ele>664.0</ele><time>2026-04-29T13:17:34.402Z</time></trkpt><trkpt lat="44.1568617" lon="10.41324"><ele>664.6666666666666</ele><time>2026-04-29T13:17:37.417Z</time></trkpt><trkpt lat="44.156936" lon="10.413238"><ele>665.3333333333334</ele><time>2026-04-29T13:17:40.41Z</time></trkpt><trkpt lat="44.157001" lon="10.4132576"><ele>666.0</ele><time>2026-04-29T13:17:43.426Z</time></trkpt><trkpt lat="44.1570687" lon="10.4132614"><ele>666.0</ele><time>2026-04-29T13:17:46.416Z</time></trkpt><trkpt lat="44.1571312" lon="10.4132802"><ele>666.0</ele><time>2026-04-29T13:17:49.406Z</time></trkpt><trkpt lat="44.1572103" lon="10.4132949"><ele>666.0</ele><time>2026-04-29T13:17:52.411Z</time></trkpt><trkpt lat="44.1572947" lon="10.4133174"><ele>666.0</ele><time>2026-04-29T13:17:55.418Z</time></trkpt><trkpt lat="44.1573741" lon="10.4133478"><ele>666.0</ele><time>2026-04-29T13:17:58.411Z</time></trkpt><trkpt lat="44.1574484" lon="10.413376"><ele>666.0</ele><time>2026-04-29T13:18:01.417Z</time></trkpt><trkpt lat="44.1575352" lon="10.4133922"><ele>666.5</ele><time>2026-04-29T13:18:04.405Z</time></trkpt><trkpt lat="44.1576212" lon="10.4134139"><ele>667.0</ele><time>2026-04-29T13:18:07.404Z</time></trkpt><trkpt lat="44.1577015" lon="10.413434"><ele>667.5</ele><time>2026-04-29T13:18:10.416Z</time></trkpt><trkpt lat="44.1577761" lon="10.4134543"><ele>668.0</ele><time>2026-04-29T13:18:13.418Z</time></trkpt><trkpt lat="44.1578513" lon="10.4134844"><ele>668.5</ele><time>2026-04-29T13:18:16.406Z</time></trkpt><trkpt lat="44.157927" lon="10.4134842"><ele>669.0</ele><time>2026-04-29T13:18:19.413Z</time></trkpt><trkpt lat="44.1579977" lon="10.4134654"><ele>669.0</ele><time>2026-04-29T13:18:22.415Z</time></trkpt><trkpt lat="44.1580665" lon="10.4134099"><ele>669.0</ele><time>2026-04-29T13:18:25.41Z</time></trkpt><trkpt lat="44.1581151" lon="10.4133111"><ele>669.0</ele><time>2026-04-29T13:18:28.425Z</time></trkpt><trkpt lat="44.1581534" lon="10.4132064"><ele>669.0</ele><time>2026-04-29T13:18:31.41Z</time></trkpt><trkpt lat="44.1581926" lon="10.4131012"><ele>669.0</ele><time>2026-04-29T13:18:34.404Z</time></trkpt><trkpt lat="44.1582356" lon="10.4130069"><ele>669.0</ele><time>2026-04-29T13:18:37.401Z</time></trkpt><trkpt lat="44.158299" lon="10.4129269"><ele>668.6</ele><time>2026-04-29T13:18:40.405Z</time></trkpt><trkpt lat="44.1583614" lon="10.41285"><ele>668.2</ele><time>2026-04-29T13:18:43.405Z</time></trkpt><trkpt lat="44.1584372" lon="10.4127713"><ele>667.8000000000001</ele><time>2026-04-29T13:18:46.407Z</time></trkpt><trkpt lat="44.1584969" lon="10.4126759"><ele>667.4000000000001</ele><time>2026-04-29T13:18:49.41Z</time></trkpt><trkpt lat="44.1585531" lon="10.4125734"><ele>667.0</ele><time>2026-04-29T13:18:52.404Z</time></trkpt><trkpt lat="44.1586043" lon="10.4124704"><ele>667.0</ele><time>2026-04-29T13:18:55.401Z</time></trkpt><trkpt lat="44.1586443" lon="10.4123639"><ele>667.0</ele><time>2026-04-29T13:18:58.409Z</time></trkpt><trkpt lat="44.1586923" lon="10.4122629"><ele>667.0</ele><time>2026-04-29T13:19:01.408Z</time></trkpt><trkpt lat="44.1587357" lon="10.4121744"><ele>667.0</ele><time>2026-04-29T13:19:04.316Z</time></trkpt><trkpt lat="44.1587792" lon="10.4121058"><ele>667.0</ele><time>2026-04-29T13:19:06.412Z</time></trkpt><trkpt lat="44.1588262" lon="10.4120431"><ele>667.0</ele><time>2026-04-29T13:19:08.413Z</time></trkpt><trkpt lat="44.1588969" lon="10.4119666"><ele>668.6666666666667</ele><time>2026-04-29T13:19:11.4Z</time></trkpt><trkpt lat="44.1589676" lon="10.4118946"><ele>670.3333333333334</ele><time>2026-04-29T13:19:14.419Z</time></trkpt><trkpt lat="44.1590441" lon="10.4118248"><ele>672.0</ele><time>2026-04-29T13:19:17.418Z</time></trkpt><trkpt lat="44.1591247" lon="10.4117548"><ele>673.6666666666666</ele><time>2026-04-29T13:19:20.407Z</time></trkpt><trkpt lat="44.1591791" lon="10.4117046"><ele>675.3333333333333</ele><time>2026-04-29T13:19:22.418Z</time></trkpt><trkpt lat="44.1592526" lon="10.4116557"><ele>677.0</ele><time>2026-04-29T13:19:25.425Z</time></trkpt><trkpt lat="44.1593347" lon="10.4116257"><ele>676.9999999999999</ele><time>2026-04-29T13:19:28.375Z</time></trkpt><trkpt lat="44.159402" lon="10.4116172"><ele>677.0</ele><time>2026-04-29T13:19:30.415Z</time></trkpt><trkpt lat="44.1594848" lon="10.4116255"><ele>677.0</ele><time>2026-04-29T13:19:33.411Z</time></trkpt><trkpt lat="44.159557" lon="10.4116488"><ele>677.0</ele><time>2026-04-29T13:19:36.407Z</time></trkpt><trkpt lat="44.1596256" lon="10.4116837"><ele>677.0</ele><time>2026-04-29T13:19:39.41Z</time></trkpt><trkpt lat="44.159696" lon="10.4117232"><ele>676.9999999999999</ele><time>2026-04-29T13:19:42.423Z</time></trkpt><trkpt lat="44.1597622" lon="10.4117706"><ele>677.0</ele><time>2026-04-29T13:19:45.405Z</time></trkpt><trkpt lat="44.1598263" lon="10.4118205"><ele>677.6666666666666</ele><time>2026-04-29T13:19:48.411Z</time></trkpt><trkpt lat="44.1599035" lon="10.4118444"><ele>678.3333333333333</ele><time>2026-04-29T13:19:51.405Z</time></trkpt><trkpt lat="44.1599857" lon="10.4118547"><ele>679.0</ele><time>2026-04-29T13:19:54.352Z</time></trkpt><trkpt lat="44.160074" lon="10.4118517"><ele>679.6666666666666</ele><time>2026-04-29T13:19:57.414Z</time></trkpt><trkpt lat="44.1601458" lon="10.4118536"><ele>680.3333333333334</ele><time>2026-04-29T13:20:00.414Z</time></trkpt><trkpt lat="44.1602132" lon="10.4118639"><ele>681.0</ele><time>2026-04-29T13:20:03.408Z</time></trkpt><trkpt lat="44.1602944" lon="10.4118609"><ele>681.0</ele><time>2026-04-29T13:20:06.4Z</time></trkpt><trkpt lat="44.1603762" lon="10.411864"><ele>681.0</ele><time>2026-04-29T13:20:09.407Z</time></trkpt><trkpt lat="44.1604619" lon="10.4118961"><ele>681.0</ele><time>2026-04-29T13:20:12.402Z</time></trkpt><trkpt lat="44.1605407" lon="10.4119494"><ele>681.0</ele><time>2026-04-29T13:20:15.416Z</time></trkpt><trkpt lat="44.1606158" lon="10.4120085"><ele>681.0</ele><time>2026-04-29T13:20:18.404Z</time></trkpt><trkpt lat="44.1606848" lon="10.4120751"><ele>681.0</ele><time>2026-04-29T13:20:21.401Z</time></trkpt><trkpt lat="44.1607564" lon="10.4121297"><ele>685.5</ele><time>2026-04-29T13:20:24.408Z</time></trkpt><trkpt lat="44.1608223" lon="10.4121864"><ele>690.0</ele><time>2026-04-29T13:20:27.404Z</time></trkpt><trkpt lat="44.1608909" lon="10.412234"><ele>694.5</ele><time>2026-04-29T13:20:30.409Z</time></trkpt><trkpt lat="44.160959" lon="10.4122869"><ele>699.0</ele><time>2026-04-29T13:20:33.406Z</time></trkpt><trkpt lat="44.1610261" lon="10.4123308"><ele>703.5</ele><time>2026-04-29T13:20:36.408Z</time></trkpt><trkpt lat="44.1611026" lon="10.41235"><ele>708.0</ele><time>2026-04-29T13:20:39.402Z</time></trkpt><trkpt lat="44.1611794" lon="10.4123533"><ele>708.0</ele><time>2026-04-29T13:20:42.405Z</time></trkpt><trkpt lat="44.1612545" lon="10.4123375"><ele>708.0</ele><time>2026-04-29T13:20:45.406Z</time></trkpt><trkpt lat="44.1613112" lon="10.4122494"><ele>708.0</ele><time>2026-04-29T13:20:48.409Z</time></trkpt><trkpt lat="44.1613523" lon="10.4121552"><ele>708.0</ele><time>2026-04-29T13:20:51.408Z</time></trkpt><trkpt lat="44.1613961" lon="10.4120561"><ele>708.0</ele><time>2026-04-29T13:20:54.41Z</time></trkpt><trkpt lat="44.1614356" lon="10.4119654"><ele>708.0</ele><time>2026-04-29T13:20:57.416Z</time></trkpt><trkpt lat="44.161475" lon="10.4118784"><ele>705.1428571428572</ele><time>2026-04-29T13:21:00.404Z</time></trkpt><trkpt lat="44.1615159" lon="10.4117922"><ele>702.2857142857142</ele><time>2026-04-29T13:21:03.42Z</time></trkpt><trkpt lat="44.1615631" lon="10.4117054"><ele>699.4285714285714</ele><time>2026-04-29T13:21:06.41Z</time></trkpt><trkpt lat="44.1616068" lon="10.411611"><ele>696.5714285714287</ele><time>2026-04-29T13:21:09.404Z</time></trkpt><trkpt lat="44.1616892" lon="10.4115843"><ele>693.7142857142858</ele><time>2026-04-29T13:21:12.41Z</time></trkpt><trkpt lat="44.1617378" lon="10.4116435"><ele>690.8571428571429</ele><time>2026-04-29T13:21:14.414Z</time></trkpt><trkpt lat="44.1617324" lon="10.4117328"><ele>688.0</ele><time>2026-04-29T13:21:16.411Z</time></trkpt><trkpt lat="44.1616634" lon="10.4118151"><ele>688.0</ele><time>2026-04-29T13:21:19.414Z</time></trkpt><trkpt lat="44.1616113" lon="10.4118976"><ele>688.0</ele><time>2026-04-29T13:21:22.415Z</time></trkpt><trkpt lat="44.1615699" lon="10.411991"><ele>688.0</ele><time>2026-04-29T13:21:25.425Z</time></trkpt><trkpt lat="44.1615281" lon="10.4120744"><ele>688.0</ele><time>2026-04-29T13:21:28.41Z</time></trkpt><trkpt lat="44.161485" lon="10.4121627"><ele>688.0</ele><time>2026-04-29T13:21:31.406Z</time></trkpt><trkpt lat="44.1614471" lon="10.4122635"><ele>688.0</ele><time>2026-04-29T13:21:34.405Z</time></trkpt><trkpt lat="44.1614156" lon="10.4123635"><ele>691.3333333333334</ele><time>2026-04-29T13:21:37.402Z</time></trkpt><trkpt lat="44.1613828" lon="10.4124625"><ele>694.6666666666667</ele><time>2026-04-29T13:21:40.412Z</time></trkpt><trkpt lat="44.1613412" lon="10.4125554"><ele>698.0</ele><time>2026-04-29T13:21:43.42Z</time></trkpt><trkpt lat="44.1612866" lon="10.412623"><ele>701.3333333333334</ele><time>2026-04-29T13:21:46.402Z</time></trkpt><trkpt lat="44.1612195" lon="10.4126629"><ele>704.6666666666666</ele><time>2026-04-29T13:21:49.419Z</time></trkpt><trkpt lat="44.1611385" lon="10.4126888"><ele>708.0</ele><time>2026-04-29T13:21:52.412Z</time></trkpt><trkpt lat="44.1610613" lon="10.4127128"><ele>708.0</ele><time>2026-04-29T13:21:55.433Z</time></trkpt><trkpt lat="44.1609906" lon="10.4127267"><ele>708.0</ele><time>2026-04-29T13:21:58.406Z</time></trkpt><trkpt lat="44.1609154" lon="10.412744"><ele>708.0</ele><time>2026-04-29T13:22:01.414Z</time></trkpt><trkpt lat="44.1608385" lon="10.4127581"><ele>708.0</ele><time>2026-04-29T13:22:04.41Z</time></trkpt><trkpt lat="44.1607655" lon="10.4127527"><ele>708.0</ele><time>2026-04-29T13:22:07.399Z</time></trkpt><trkpt lat="44.1606913" lon="10.4127293"><ele>708.0</ele><time>2026-04-29T13:22:10.402Z</time></trkpt><trkpt lat="44.1606106" lon="10.4126995"><ele>707.3333333333334</ele><time>2026-04-29T13:22:13.41Z</time></trkpt><trkpt lat="44.1605394" lon="10.4126656"><ele>706.6666666666666</ele><time>2026-04-29T13:22:16.416Z</time></trkpt><trkpt lat="44.1604703" lon="10.4126301"><ele>706.0</ele><time>2026-04-29T13:22:19.392Z</time></trkpt><trkpt lat="44.1603985" lon="10.4126055"><ele>705.3333333333333</ele><time>2026-04-29T13:22:22.418Z</time></trkpt><trkpt lat="44.1603307" lon="10.4126098"><ele>704.6666666666666</ele><time>2026-04-29T13:22:25.419Z</time></trkpt><trkpt lat="44.160253" lon="10.4126306"><ele>704.0</ele><time>2026-04-29T13:22:28.415Z</time></trkpt><trkpt lat="44.160177" lon="10.4126802"><ele>704.0</ele><time>2026-04-29T13:22:31.419Z</time></trkpt><trkpt lat="44.1601162" lon="10.4127344"><ele>704.0</ele><time>2026-04-29T13:22:34.413Z</time></trkpt><trkpt lat="44.1600602" lon="10.4127867"><ele>704.0</ele><time>2026-04-29T13:22:37.411Z</time></trkpt><trkpt lat="44.1600077" lon="10.4128585"><ele>704.0</ele><time>2026-04-29T13:22:40.41Z</time></trkpt><trkpt lat="44.1599556" lon="10.4129402"><ele>704.0</ele><time>2026-04-29T13:22:43.404Z</time></trkpt><trkpt lat="44.1599055" lon="10.4130349"><ele>704.0</ele><time>2026-04-29T13:22:46.411Z</time></trkpt><trkpt lat="44.1598736" lon="10.4131432"><ele>704.0</ele><time>2026-04-29T13:22:49.415Z</time></trkpt><trkpt lat="44.1598498" lon="10.4132469"><ele>704.0</ele><time>2026-04-29T13:22:52.419Z</time></trkpt><trkpt lat="44.159829" lon="10.4133518"><ele>704.0</ele><time>2026-04-29T13:22:55.409Z</time></trkpt><trkpt lat="44.1598142" lon="10.4134472"><ele>704.0</ele><time>2026-04-29T13:22:58.337Z</time></trkpt><trkpt lat="44.1597964" lon="10.4135504"><ele>704.0</ele><time>2026-04-29T13:23:01.415Z</time></trkpt><trkpt lat="44.1597888" lon="10.4136577"><ele>704.0</ele><time>2026-04-29T13:23:04.412Z</time></trkpt><trkpt lat="44.159783" lon="10.4137546"><ele>704.0</ele><time>2026-04-29T13:23:07.416Z</time></trkpt><trkpt lat="44.1597733" lon="10.4138573"><ele>704.5</ele><time>2026-04-29T13:23:10.404Z</time></trkpt><trkpt lat="44.1597386" lon="10.4139681"><ele>705.0</ele><time>2026-04-29T13:23:13.41Z</time></trkpt><trkpt lat="44.1596974" lon="10.4140687"><ele>705.5</ele><time>2026-04-29T13:23:16.416Z</time></trkpt><trkpt lat="44.1596424" lon="10.4141592"><ele>706.0</ele><time>2026-04-29T13:23:19.413Z</time></trkpt><trkpt lat="44.1595938" lon="10.4142427"><ele>706.5</ele><time>2026-04-29T13:23:22.414Z</time></trkpt><trkpt lat="44.1595519" lon="10.4143239"><ele>707.0</ele><time>2026-04-29T13:23:26.405Z</time></trkpt><trkpt lat="44.1595128" lon="10.4144123"><ele>707.0</ele><time>2026-04-29T13:23:29.398Z</time></trkpt><trkpt lat="44.1594853" lon="10.4145186"><ele>707.0</ele><time>2026-04-29T13:23:32.399Z</time></trkpt><trkpt lat="44.1594747" lon="10.4146305"><ele>707.0</ele><time>2026-04-29T13:23:35.408Z</time></trkpt><trkpt lat="44.1594879" lon="10.4147451"><ele>707.0</ele><time>2026-04-29T13:23:38.399Z</time></trkpt><trkpt lat="44.1595088" lon="10.4148513"><ele>707.0</ele><time>2026-04-29T13:23:41.411Z</time></trkpt><trkpt lat="44.1595459" lon="10.4149417"><ele>707.0</ele><time>2026-04-29T13:23:44.412Z</time></trkpt><trkpt lat="44.159602" lon="10.4150185"><ele>706.7142857142857</ele><time>2026-04-29T13:23:47.412Z</time></trkpt><trkpt lat="44.1596623" lon="10.4150818"><ele>706.4285714285714</ele><time>2026-04-29T13:23:50.408Z</time></trkpt><trkpt lat="44.1597302" lon="10.4151234"><ele>706.1428571428571</ele><time>2026-04-29T13:23:53.408Z</time></trkpt><trkpt lat="44.1598043" lon="10.4151346"><ele>705.8571428571429</ele><time>2026-04-29T13:23:56.402Z</time></trkpt><trkpt lat="44.1598798" lon="10.4151299"><ele>705.5714285714286</ele><time>2026-04-29T13:23:59.407Z</time></trkpt><trkpt lat="44.1599496" lon="10.4151258"><ele>705.2857142857142</ele><time>2026-04-29T13:24:02.408Z</time></trkpt><trkpt lat="44.16002" lon="10.4151101"><ele>705.0</ele><time>2026-04-29T13:24:05.412Z</time></trkpt><trkpt lat="44.1600955" lon="10.4150818"><ele>708.1666666666666</ele><time>2026-04-29T13:24:08.412Z</time></trkpt><trkpt lat="44.1601799" lon="10.415051"><ele>711.3333333333334</ele><time>2026-04-29T13:24:12.402Z</time></trkpt><trkpt lat="44.160261" lon="10.4150347"><ele>714.5</ele><time>2026-04-29T13:24:15.416Z</time></trkpt><trkpt lat="44.1603289" lon="10.4150407"><ele>717.6666666666667</ele><time>2026-04-29T13:24:18.415Z</time></trkpt><trkpt lat="44.1604079" lon="10.4150507"><ele>720.8333333333334</ele><time>2026-04-29T13:24:21.427Z</time></trkpt><trkpt lat="44.1604923" lon="10.4151037"><ele>724.0</ele><time>2026-04-29T13:24:24.43Z</time></trkpt><trkpt lat="44.1605419" lon="10.4151579"><ele>724.0</ele><time>2026-04-29T13:24:26.411Z</time></trkpt><trkpt lat="44.16061" lon="10.4152396"><ele>724.0</ele><time>2026-04-29T13:24:29.407Z</time></trkpt><trkpt lat="44.1606768" lon="10.4153097"><ele>724.0</ele><time>2026-04-29T13:24:32.417Z</time></trkpt><trkpt lat="44.1607389" lon="10.4153831"><ele>724.0</ele><time>2026-04-29T13:24:35.419Z</time></trkpt><trkpt lat="44.1608058" lon="10.4154451"><ele>724.0</ele><time>2026-04-29T13:24:38.418Z</time></trkpt><trkpt lat="44.1608703" lon="10.4155084"><ele>724.0</ele><time>2026-04-29T13:24:41.413Z</time></trkpt><trkpt lat="44.1609236" lon="10.4155791"><ele>723.8333333333334</ele><time>2026-04-29T13:24:44.408Z</time></trkpt><trkpt lat="44.160977" lon="10.4156587"><ele>723.6666666666667</ele><time>2026-04-29T13:24:47.418Z</time></trkpt><trkpt lat="44.1610252" lon="10.4157423"><ele>723.5</ele><time>2026-04-29T13:24:50.427Z</time></trkpt><trkpt lat="44.1610712" lon="10.4158243"><ele>723.3333333333334</ele><time>2026-04-29T13:24:53.424Z</time></trkpt><trkpt lat="44.1611246" lon="10.415904"><ele>723.1666666666666</ele><time>2026-04-29T13:24:56.432Z</time></trkpt><trkpt lat="44.1611782" lon="10.4159812"><ele>723.0</ele><time>2026-04-29T13:24:59.402Z</time></trkpt><trkpt lat="44.161232" lon="10.4160643"><ele>723.0</ele><time>2026-04-29T13:25:02.419Z</time></trkpt><trkpt lat="44.1612877" lon="10.4161407"><ele>723.0</ele><time>2026-04-29T13:25:05.408Z</time></trkpt><trkpt lat="44.1613505" lon="10.416205"><ele>723.0</ele><time>2026-04-29T13:25:08.414Z</time></trkpt><trkpt lat="44.1614123" lon="10.4162626"><ele>723.0</ele><time>2026-04-29T13:25:11.402Z</time></trkpt><trkpt lat="44.1614767" lon="10.4163186"><ele>723.0</ele><time>2026-04-29T13:25:14.412Z</time></trkpt><trkpt lat="44.1615451" lon="10.4163693"><ele>723.0</ele><time>2026-04-29T13:25:17.418Z</time></trkpt><trkpt lat="44.1616108" lon="10.4164183"><ele>724.8333333333334</ele><time>2026-04-29T13:25:20.406Z</time></trkpt><trkpt lat="44.1616775" lon="10.4164727"><ele>726.6666666666666</ele><time>2026-04-29T13:25:23.419Z</time></trkpt><trkpt lat="44.1617427" lon="10.4165298"><ele>728.5</ele><time>2026-04-29T13:25:26.412Z</time></trkpt><trkpt lat="44.1618087" lon="10.416582"><ele>730.3333333333333</ele><time>2026-04-29T13:25:29.416Z</time></trkpt><trkpt lat="44.1618784" lon="10.4166338"><ele>732.1666666666666</ele><time>2026-04-29T13:25:32.441Z</time></trkpt><trkpt lat="44.1619535" lon="10.4166391"><ele>734.0</ele><time>2026-04-29T13:25:35.406Z</time></trkpt><trkpt lat="44.1620223" lon="10.4165832"><ele>734.0</ele><time>2026-04-29T13:25:38.418Z</time></trkpt><trkpt lat="44.1620337" lon="10.4164637"><ele>734.0</ele><time>2026-04-29T13:25:41.402Z</time></trkpt><trkpt lat="44.1619891" lon="10.4163601"><ele>734.0</ele><time>2026-04-29T13:25:44.416Z</time></trkpt><trkpt lat="44.1619146" lon="10.4163096"><ele>734.0</ele><time>2026-04-29T13:25:47.406Z</time></trkpt><trkpt lat="44.1618376" lon="10.4162743"><ele>734.0</ele><time>2026-04-29T13:25:50.408Z</time></trkpt><trkpt lat="44.1617637" lon="10.4162236"><ele>734.0</ele><time>2026-04-29T13:25:53.424Z</time></trkpt><trkpt lat="44.16169" lon="10.4161744"><ele>732.1666666666666</ele><time>2026-04-29T13:25:56.391Z</time></trkpt><trkpt lat="44.1616213" lon="10.416119"><ele>730.3333333333333</ele><time>2026-04-29T13:25:59.425Z</time></trkpt><trkpt lat="44.1615562" lon="10.4160562"><ele>728.5</ele><time>2026-04-29T13:26:02.412Z</time></trkpt><trkpt lat="44.1614904" lon="10.4159855"><ele>726.6666666666666</ele><time>2026-04-29T13:26:05.412Z</time></trkpt><trkpt lat="44.1614368" lon="10.4159069"><ele>724.8333333333334</ele><time>2026-04-29T13:26:08.412Z</time></trkpt><trkpt lat="44.161388" lon="10.415819"><ele>723.0</ele><time>2026-04-29T13:26:11.417Z</time></trkpt><trkpt lat="44.1613385" lon="10.4157277"><ele>723.0</ele><time>2026-04-29T13:26:14.418Z</time></trkpt><trkpt lat="44.1612907" lon="10.415639"><ele>723.0</ele><time>2026-04-29T13:26:17.414Z</time></trkpt><trkpt lat="44.1612339" lon="10.415559"><ele>723.0</ele><time>2026-04-29T13:26:20.408Z</time></trkpt><trkpt lat="44.161187" lon="10.4154777"><ele>723.0</ele><time>2026-04-29T13:26:23.404Z</time></trkpt><trkpt lat="44.1611507" lon="10.415386"><ele>723.0</ele><time>2026-04-29T13:26:26.331Z</time></trkpt><trkpt lat="44.1611147" lon="10.4152858"><ele>723.0</ele><time>2026-04-29T13:26:29.412Z</time></trkpt><trkpt lat="44.1610849" lon="10.4151868"><ele>727.1666666666666</ele><time>2026-04-29T13:26:32.401Z</time></trkpt><trkpt lat="44.1610535" lon="10.415089"><ele>731.3333333333334</ele><time>2026-04-29T13:26:35.406Z</time></trkpt><trkpt lat="44.1610244" lon="10.4149877"><ele>735.5</ele><time>2026-04-29T13:26:38.412Z</time></trkpt><trkpt lat="44.1610017" lon="10.4148831"><ele>739.6666666666667</ele><time>2026-04-29T13:26:41.415Z</time></trkpt><trkpt lat="44.1610013" lon="10.4147713"><ele>743.8333333333334</ele><time>2026-04-29T13:26:44.399Z</time></trkpt><trkpt lat="44.1610336" lon="10.4146634"><ele>748.0</ele><time>2026-04-29T13:26:47.41Z</time></trkpt><trkpt lat="44.1610902" lon="10.4145825"><ele>748.0</ele><time>2026-04-29T13:26:50.413Z</time></trkpt><trkpt lat="44.1611649" lon="10.4145341"><ele>748.0</ele><time>2026-04-29T13:26:53.407Z</time></trkpt><trkpt lat="44.1612396" lon="10.414503"><ele>748.0</ele><time>2026-04-29T13:26:56.355Z</time></trkpt><trkpt lat="44.1613144" lon="10.414484"><ele>748.0</ele><time>2026-04-29T13:26:59.419Z</time></trkpt><trkpt lat="44.1613885" lon="10.414455"><ele>748.0</ele><time>2026-04-29T13:27:02.415Z</time></trkpt><trkpt lat="44.1614607" lon="10.4144085"><ele>748.0</ele><time>2026-04-29T13:27:05.42Z</time></trkpt><trkpt lat="44.1615341" lon="10.4143846"><ele>751.1666666666667</ele><time>2026-04-29T13:27:08.41Z</time></trkpt><trkpt lat="44.1616058" lon="10.414351"><ele>754.3333333333334</ele><time>2026-04-29T13:27:11.413Z</time></trkpt><trkpt lat="44.1616795" lon="10.4142978"><ele>757.5</ele><time>2026-04-29T13:27:14.411Z</time></trkpt><trkpt lat="44.1617495" lon="10.4142407"><ele>760.6666666666666</ele><time>2026-04-29T13:27:17.411Z</time></trkpt><trkpt lat="44.1618166" lon="10.4141711"><ele>763.8333333333333</ele><time>2026-04-29T13:27:20.411Z</time></trkpt><trkpt lat="44.1618772" lon="10.4140918"><ele>767.0</ele><time>2026-04-29T13:27:23.408Z</time></trkpt><trkpt lat="44.1619384" lon="10.414009"><ele>767.0</ele><time>2026-04-29T13:27:26.416Z</time></trkpt><trkpt lat="44.1619963" lon="10.4139201"><ele>767.0</ele><time>2026-04-29T13:27:29.42Z</time></trkpt><trkpt lat="44.16205" lon="10.4138424"><ele>767.0</ele><time>2026-04-29T13:27:32.415Z</time></trkpt><trkpt lat="44.1621134" lon="10.4137551"><ele>767.0</ele><time>2026-04-29T13:27:35.426Z</time></trkpt><trkpt lat="44.162178" lon="10.4136725"><ele>767.0</ele><time>2026-04-29T13:27:38.408Z</time></trkpt><trkpt lat="44.1622495" lon="10.4135971"><ele>767.0</ele><time>2026-04-29T13:27:41.406Z</time></trkpt><trkpt lat="44.1623167" lon="10.4135289"><ele>768.5</ele><time>2026-04-29T13:27:44.413Z</time></trkpt><trkpt lat="44.1623779" lon="10.4134774"><ele>770.0</ele><time>2026-04-29T13:27:46.411Z</time></trkpt><trkpt lat="44.1624516" lon="10.413418"><ele>771.5</ele><time>2026-04-29T13:27:49.419Z</time></trkpt><trkpt lat="44.1625222" lon="10.41336"><ele>773.0</ele><time>2026-04-29T13:27:52.414Z</time></trkpt><trkpt lat="44.1625943" lon="10.4133028"><ele>774.5000000000001</ele><time>2026-04-29T13:27:55.414Z</time></trkpt><trkpt lat="44.1626755" lon="10.4132417"><ele>776.0</ele><time>2026-04-29T13:27:58.412Z</time></trkpt><trkpt lat="44.1627453" lon="10.4131765"><ele>776.0000000000001</ele><time>2026-04-29T13:28:01.414Z</time></trkpt><trkpt lat="44.1628301" lon="10.4131133"><ele>776.0</ele><time>2026-04-29T13:28:04.399Z</time></trkpt><trkpt lat="44.1628877" lon="10.4130778"><ele>776.0</ele><time>2026-04-29T13:28:06.411Z</time></trkpt><trkpt lat="44.1629725" lon="10.4130245"><ele>776.0</ele><time>2026-04-29T13:28:09.414Z</time></trkpt><trkpt lat="44.163031" lon="10.4129865"><ele>776.0000000000001</ele><time>2026-04-29T13:28:11.418Z</time></trkpt><trkpt lat="44.163088" lon="10.4129452"><ele>776.0</ele><time>2026-04-29T13:28:13.416Z</time></trkpt><trkpt lat="44.1631708" lon="10.4128804"><ele>776.5714285714286</ele><time>2026-04-29T13:28:16.414Z</time></trkpt><trkpt lat="44.1632258" lon="10.412834"><ele>777.1428571428572</ele><time>2026-04-29T13:28:18.413Z</time></trkpt><trkpt lat="44.1632758" lon="10.4127772"><ele>777.7142857142858</ele><time>2026-04-29T13:28:20.41Z</time></trkpt><trkpt lat="44.1633135" lon="10.4127069"><ele>778.2857142857142</ele><time>2026-04-29T13:28:22.411Z</time></trkpt><trkpt lat="44.1633425" lon="10.4126281"><ele>778.8571428571429</ele><time>2026-04-29T13:28:24.412Z</time></trkpt><trkpt lat="44.1633805" lon="10.4125099"><ele>779.4285714285714</ele><time>2026-04-29T13:28:27.43Z</time></trkpt><trkpt lat="44.1634135" lon="10.412387"><ele>780.0</ele><time>2026-04-29T13:28:30.407Z</time></trkpt><trkpt lat="44.1634246" lon="10.412295"><ele>780.0</ele><time>2026-04-29T13:28:32.411Z</time></trkpt><trkpt lat="44.1634522" lon="10.4121761"><ele>780.0</ele><time>2026-04-29T13:28:35.414Z</time></trkpt><trkpt lat="44.1634699" lon="10.4120916"><ele>780.0</ele><time>2026-04-29T13:28:37.412Z</time></trkpt><trkpt lat="44.1634933" lon="10.4120096"><ele>780.0</ele><time>2026-04-29T13:28:39.417Z</time></trkpt><trkpt lat="44.1635447" lon="10.4119076"><ele>780.0</ele><time>2026-04-29T13:28:42.419Z</time></trkpt><trkpt lat="44.1636152" lon="10.4118262"><ele>780.0</ele><time>2026-04-29T13:28:45.399Z</time></trkpt><trkpt lat="44.1636713" lon="10.411786"><ele>780.8333333333334</ele><time>2026-04-29T13:28:47.409Z</time></trkpt><trkpt lat="44.1637325" lon="10.4117574"><ele>781.6666666666667</ele><time>2026-04-29T13:28:49.42Z</time></trkpt><trkpt lat="44.1638132" lon="10.4117398"><ele>782.5</ele><time>2026-04-29T13:28:52.409Z</time></trkpt><trkpt lat="44.1638924" lon="10.411731"><ele>783.3333333333334</ele><time>2026-04-29T13:28:55.423Z</time></trkpt><trkpt lat="44.1639728" lon="10.4117451"><ele>784.1666666666667</ele><time>2026-04-29T13:28:58.404Z</time></trkpt><trkpt lat="44.1640587" lon="10.4117712"><ele>785.0</ele><time>2026-04-29T13:29:01.421Z</time></trkpt><trkpt lat="44.1641391" lon="10.4118015"><ele>785.0000000000001</ele><time>2026-04-29T13:29:04.413Z</time></trkpt><trkpt lat="44.1642107" lon="10.4118289"><ele>785.0</ele><time>2026-04-29T13:29:07.422Z</time></trkpt><trkpt lat="44.1642787" lon="10.411848"><ele>785.0</ele><time>2026-04-29T13:29:10.402Z</time></trkpt><trkpt lat="44.1643494" lon="10.4118711"><ele>785.0</ele><time>2026-04-29T13:29:13.406Z</time></trkpt><trkpt lat="44.1644197" lon="10.4119109"><ele>785.0000000000001</ele><time>2026-04-29T13:29:16.413Z</time></trkpt><trkpt lat="44.1644947" lon="10.4119538"><ele>785.0</ele><time>2026-04-29T13:29:19.414Z</time></trkpt><trkpt lat="44.164561" lon="10.4120088"><ele>785.0</ele><time>2026-04-29T13:29:22.409Z</time></trkpt><trkpt lat="44.1646199" lon="10.4120834"><ele>785.0</ele><time>2026-04-29T13:29:25.416Z</time></trkpt><trkpt lat="44.1646695" lon="10.4121639"><ele>785.0</ele><time>2026-04-29T13:29:28.415Z</time></trkpt><trkpt lat="44.1647075" lon="10.4122481"><ele>785.0</ele><time>2026-04-29T13:29:31.415Z</time></trkpt><trkpt lat="44.1647405" lon="10.4123343"><ele>785.0</ele><time>2026-04-29T13:29:34.4Z</time></trkpt><trkpt lat="44.1647763" lon="10.4124287"><ele>785.0</ele><time>2026-04-29T13:29:37.412Z</time></trkpt><trkpt lat="44.1648092" lon="10.4125181"><ele>785.0</ele><time>2026-04-29T13:29:40.413Z</time></trkpt><trkpt lat="44.1648438" lon="10.4126129"><ele>786.1666666666667</ele><time>2026-04-29T13:29:43.408Z</time></trkpt><trkpt lat="44.1648886" lon="10.4127049"><ele>787.3333333333334</ele><time>2026-04-29T13:29:46.406Z</time></trkpt><trkpt lat="44.1649453" lon="10.4127841"><ele>788.5</ele><time>2026-04-29T13:29:49.419Z</time></trkpt><trkpt lat="44.1650149" lon="10.4128368"><ele>789.6666666666667</ele><time>2026-04-29T13:29:52.408Z</time></trkpt><trkpt lat="44.1650871" lon="10.4128488"><ele>790.8333333333334</ele><time>2026-04-29T13:29:55.407Z</time></trkpt><trkpt lat="44.1651599" lon="10.4128243"><ele>792.0</ele><time>2026-04-29T13:29:58.404Z</time></trkpt><trkpt lat="44.1652218" lon="10.4127629"><ele>792.0</ele><time>2026-04-29T13:30:01.411Z</time></trkpt><trkpt lat="44.1652741" lon="10.4126848"><ele>792.0</ele><time>2026-04-29T13:30:04.424Z</time></trkpt><trkpt lat="44.1653144" lon="10.4125892"><ele>792.0</ele><time>2026-04-29T13:30:07.42Z</time></trkpt><trkpt lat="44.1653529" lon="10.4124924"><ele>792.0</ele><time>2026-04-29T13:30:10.419Z</time></trkpt><trkpt lat="44.1653906" lon="10.412384"><ele>792.0</ele><time>2026-04-29T13:30:13.42Z</time></trkpt><trkpt lat="44.1654411" lon="10.4123018"><ele>792.0</ele><time>2026-04-29T13:30:16.415Z</time></trkpt><trkpt lat="44.1654846" lon="10.4122132"><ele>790.8333333333334</ele><time>2026-04-29T13:30:19.407Z</time></trkpt><trkpt lat="44.1655307" lon="10.4121285"><ele>789.6666666666667</ele><time>2026-04-29T13:30:22.399Z</time></trkpt><trkpt lat="44.1655677" lon="10.412036"><ele>788.5</ele><time>2026-04-29T13:30:25.411Z</time></trkpt><trkpt lat="44.1656061" lon="10.411943"><ele>787.3333333333334</ele><time>2026-04-29T13:30:28.406Z</time></trkpt><trkpt lat="44.1656376" lon="10.411846"><ele>786.1666666666667</ele><time>2026-04-29T13:30:31.418Z</time></trkpt><trkpt lat="44.165677" lon="10.4117494"><ele>785.0</ele><time>2026-04-29T13:30:34.411Z</time></trkpt><trkpt lat="44.165724" lon="10.411656"><ele>786.3333333333334</ele><time>2026-04-29T13:30:37.403Z</time></trkpt><trkpt lat="44.1657675" lon="10.4115635"><ele>787.6666666666667</ele><time>2026-04-29T13:30:40.421Z</time></trkpt><trkpt lat="44.1658099" lon="10.4114731"><ele>789.0</ele><time>2026-04-29T13:30:43.418Z</time></trkpt><trkpt lat="44.1658448" lon="10.4113827"><ele>790.3333333333333</ele><time>2026-04-29T13:30:46.411Z</time></trkpt><trkpt lat="44.1658886" lon="10.4112924"><ele>791.6666666666666</ele><time>2026-04-29T13:30:49.327Z</time></trkpt><trkpt lat="44.1659432" lon="10.4112086"><ele>793.0</ele><time>2026-04-29T13:30:52.405Z</time></trkpt><trkpt lat="44.1660089" lon="10.4111564"><ele>793.0000000000001</ele><time>2026-04-29T13:30:55.415Z</time></trkpt><trkpt lat="44.1660824" lon="10.4111306"><ele>793.0</ele><time>2026-04-29T13:30:58.415Z</time></trkpt><trkpt lat="44.1661564" lon="10.4111097"><ele>793.0</ele><time>2026-04-29T13:31:01.413Z</time></trkpt><trkpt lat="44.166233" lon="10.411091"><ele>793.0</ele><time>2026-04-29T13:31:04.401Z</time></trkpt><trkpt lat="44.1663007" lon="10.411082"><ele>793.0</ele><time>2026-04-29T13:31:07.415Z</time></trkpt><trkpt lat="44.1663741" lon="10.4110642"><ele>793.0000000000001</ele><time>2026-04-29T13:31:10.406Z</time></trkpt><trkpt lat="44.1664471" lon="10.4110639"><ele>793.0</ele><time>2026-04-29T13:31:13.41Z</time></trkpt><trkpt lat="44.1665295" lon="10.4110973"><ele>793.1666666666666</ele><time>2026-04-29T13:31:17.402Z</time></trkpt><trkpt lat="44.1666076" lon="10.4111536"><ele>793.3333333333333</ele><time>2026-04-29T13:31:20.403Z</time></trkpt><trkpt lat="44.1666762" lon="10.4112308"><ele>793.5</ele><time>2026-04-29T13:31:23.42Z</time></trkpt><trkpt lat="44.1667402" lon="10.4113001"><ele>793.6666666666667</ele><time>2026-04-29T13:31:26.403Z</time></trkpt><trkpt lat="44.1667942" lon="10.4113849"><ele>793.8333333333334</ele><time>2026-04-29T13:31:29.418Z</time></trkpt><trkpt lat="44.1668467" lon="10.4114657"><ele>794.0</ele><time>2026-04-29T13:31:32.41Z</time></trkpt><trkpt lat="44.1668921" lon="10.4115496"><ele>797.7142857142857</ele><time>2026-04-29T13:31:35.41Z</time></trkpt><trkpt lat="44.1669323" lon="10.4116331"><ele>801.4285714285713</ele><time>2026-04-29T13:31:38.412Z</time></trkpt><trkpt lat="44.1669719" lon="10.4117144"><ele>805.1428571428571</ele><time>2026-04-29T13:31:41.413Z</time></trkpt><trkpt lat="44.1670134" lon="10.4117979"><ele>808.8571428571429</ele><time>2026-04-29T13:31:44.41Z</time></trkpt><trkpt lat="44.1670611" lon="10.411876"><ele>812.5714285714286</ele><time>2026-04-29T13:31:47.404Z</time></trkpt><trkpt lat="44.1671095" lon="10.4119584"><ele>816.2857142857143</ele><time>2026-04-29T13:31:50.416Z</time></trkpt><trkpt lat="44.1671511" lon="10.4120388"><ele>820.0</ele><time>2026-04-29T13:31:53.407Z</time></trkpt><trkpt lat="44.16719" lon="10.4121331"><ele>820.4285714285714</ele><time>2026-04-29T13:31:56.411Z</time></trkpt><trkpt lat="44.1672286" lon="10.4122196"><ele>820.8571428571428</ele><time>2026-04-29T13:31:59.402Z</time></trkpt><trkpt lat="44.1672748" lon="10.412305"><ele>821.2857142857142</ele><time>2026-04-29T13:32:02.424Z</time></trkpt><trkpt lat="44.1673225" lon="10.4123871"><ele>821.7142857142858</ele><time>2026-04-29T13:32:05.419Z</time></trkpt><trkpt lat="44.1673668" lon="10.4124712"><ele>822.1428571428571</ele><time>2026-04-29T13:32:08.416Z</time></trkpt><trkpt lat="44.1674126" lon="10.4125416"><ele>822.5714285714286</ele><time>2026-04-29T13:32:11.401Z</time></trkpt><trkpt lat="44.1674671" lon="10.4126149"><ele>823.0</ele><time>2026-04-29T13:32:14.418Z</time></trkpt><trkpt lat="44.1675169" lon="10.412683"><ele>823.0</ele><time>2026-04-29T13:32:17.414Z</time></trkpt><trkpt lat="44.1675756" lon="10.4127462"><ele>823.0</ele><time>2026-04-29T13:32:20.399Z</time></trkpt><trkpt lat="44.1676339" lon="10.4128068"><ele>823.0</ele><time>2026-04-29T13:32:23.41Z</time></trkpt><trkpt lat="44.1676862" lon="10.4128906"><ele>823.0</ele><time>2026-04-29T13:32:26.412Z</time></trkpt><trkpt lat="44.1677283" lon="10.4129805"><ele>823.0</ele><time>2026-04-29T13:32:29.418Z</time></trkpt><trkpt lat="44.1677665" lon="10.4130667"><ele>823.0</ele><time>2026-04-29T13:32:32.419Z</time></trkpt><trkpt lat="44.1678045" lon="10.4131502"><ele>823.0</ele><time>2026-04-29T13:32:35.423Z</time></trkpt><trkpt lat="44.1678392" lon="10.4132302"><ele>825.6666666666666</ele><time>2026-04-29T13:32:38.41Z</time></trkpt><trkpt lat="44.1678684" lon="10.4133254"><ele>828.3333333333333</ele><time>2026-04-29T13:32:41.311Z</time></trkpt><trkpt lat="44.1679141" lon="10.4134082"><ele>831.0</ele><time>2026-04-29T13:32:44.413Z</time></trkpt><trkpt lat="44.1679938" lon="10.4134499"><ele>833.6666666666667</ele><time>2026-04-29T13:32:47.424Z</time></trkpt><trkpt lat="44.1680813" lon="10.4134657"><ele>836.3333333333334</ele><time>2026-04-29T13:32:50.409Z</time></trkpt><trkpt lat="44.168164" lon="10.4134706"><ele>839.0</ele><time>2026-04-29T13:32:53.414Z</time></trkpt><trkpt lat="44.1682473" lon="10.4134703"><ele>839.0000000000001</ele><time>2026-04-29T13:32:56.409Z</time></trkpt><trkpt lat="44.1683307" lon="10.413463"><ele>839.0</ele><time>2026-04-29T13:32:59.407Z</time></trkpt><trkpt lat="44.1684147" lon="10.4134444"><ele>839.0</ele><time>2026-04-29T13:33:02.414Z</time></trkpt><trkpt lat="44.1684866" lon="10.4133864"><ele>839.0</ele><time>2026-04-29T13:33:05.421Z</time></trkpt><trkpt lat="44.1685143" lon="10.4132737"><ele>839.0000000000001</ele><time>2026-04-29T13:33:08.411Z</time></trkpt><trkpt lat="44.16853" lon="10.4131552"><ele>839.0</ele><time>2026-04-29T13:33:11.413Z</time></trkpt><trkpt lat="44.1685511" lon="10.4130405"><ele>836.6666666666667</ele><time>2026-04-29T13:33:14.411Z</time></trkpt><trkpt lat="44.1685713" lon="10.4129296"><ele>834.3333333333334</ele><time>2026-04-29T13:33:17.414Z</time></trkpt><trkpt lat="44.168588" lon="10.4128202"><ele>832.0</ele><time>2026-04-29T13:33:20.422Z</time></trkpt><trkpt lat="44.1685947" lon="10.412712"><ele>829.6666666666667</ele><time>2026-04-29T13:33:23.409Z</time></trkpt><trkpt lat="44.1686047" lon="10.4126089"><ele>827.3333333333334</ele><time>2026-04-29T13:33:26.412Z</time></trkpt><trkpt lat="44.1686126" lon="10.4125125"><ele>825.0</ele><time>2026-04-29T13:33:29.409Z</time></trkpt><trkpt lat="44.1686207" lon="10.412409"><ele>825.0</ele><time>2026-04-29T13:33:32.411Z</time></trkpt><trkpt lat="44.1686346" lon="10.4123083"><ele>825.0</ele><time>2026-04-29T13:33:35.412Z</time></trkpt><trkpt lat="44.1686563" lon="10.4122032"><ele>825.0</ele><time>2026-04-29T13:33:38.408Z</time></trkpt><trkpt lat="44.1686735" lon="10.4121005"><ele>825.0</ele><time>2026-04-29T13:33:41.416Z</time></trkpt><trkpt lat="44.168678" lon="10.4119943"><ele>825.0</ele><time>2026-04-29T13:33:44.413Z</time></trkpt><trkpt lat="44.1686753" lon="10.4118873"><ele>825.0</ele><time>2026-04-29T13:33:47.413Z</time></trkpt><trkpt lat="44.1686898" lon="10.4117807"><ele>823.8333333333334</ele><time>2026-04-29T13:33:50.412Z</time></trkpt><trkpt lat="44.1687039" lon="10.4116746"><ele>822.6666666666667</ele><time>2026-04-29T13:33:53.413Z</time></trkpt><trkpt lat="44.1687161" lon="10.4115675"><ele>821.5</ele><time>2026-04-29T13:33:56.412Z</time></trkpt><trkpt lat="44.1687278" lon="10.4114626"><ele>820.3333333333334</ele><time>2026-04-29T13:33:59.413Z</time></trkpt><trkpt lat="44.1687396" lon="10.4113533"><ele>819.1666666666667</ele><time>2026-04-29T13:34:02.348Z</time></trkpt><trkpt lat="44.1687541" lon="10.4112503"><ele>818.0</ele><time>2026-04-29T13:34:05.406Z</time></trkpt><trkpt lat="44.1687867" lon="10.4111533"><ele>816.2857142857142</ele><time>2026-04-29T13:34:08.41Z</time></trkpt><trkpt lat="44.1688318" lon="10.411069"><ele>814.5714285714287</ele><time>2026-04-29T13:34:11.312Z</time></trkpt><trkpt lat="44.1688881" lon="10.4109946"><ele>812.8571428571429</ele><time>2026-04-29T13:34:14.407Z</time></trkpt><trkpt lat="44.1689541" lon="10.4109598"><ele>811.1428571428571</ele><time>2026-04-29T13:34:17.414Z</time></trkpt><trkpt lat="44.169026" lon="10.4109595"><ele>809.4285714285713</ele><time>2026-04-29T13:34:20.413Z</time></trkpt><trkpt lat="44.1690947" lon="10.4109794"><ele>807.7142857142858</ele><time>2026-04-29T13:34:23.406Z</time></trkpt><trkpt lat="44.1691653" lon="10.4109943"><ele>806.0</ele><time>2026-04-29T13:34:26.416Z</time></trkpt><trkpt lat="44.1692375" lon="10.411005"><ele>810.0</ele><time>2026-04-29T13:34:29.421Z</time></trkpt><trkpt lat="44.1693115" lon="10.4110162"><ele>814.0</ele><time>2026-04-29T13:34:32.43Z</time></trkpt><trkpt lat="44.1693839" lon="10.411016"><ele>818.0</ele><time>2026-04-29T13:34:35.412Z</time></trkpt><trkpt lat="44.1694581" lon="10.4110074"><ele>822.0</ele><time>2026-04-29T13:34:38.409Z</time></trkpt><trkpt lat="44.1695343" lon="10.4110153"><ele>826.0</ele><time>2026-04-29T13:34:41.408Z</time></trkpt><trkpt lat="44.1696076" lon="10.411049"><ele>830.0</ele><time>2026-04-29T13:34:44.41Z</time></trkpt><trkpt lat="44.1696726" lon="10.4110929"><ele>834.0</ele><time>2026-04-29T13:34:47.416Z</time></trkpt><trkpt lat="44.1697258" lon="10.4111527"><ele>834.0</ele><time>2026-04-29T13:34:50.402Z</time></trkpt><trkpt lat="44.1697768" lon="10.4112135"><ele>834.0</ele><time>2026-04-29T13:34:53.412Z</time></trkpt><trkpt lat="44.1698274" lon="10.4112846"><ele>834.0</ele><time>2026-04-29T13:34:56.412Z</time></trkpt><trkpt lat="44.1698821" lon="10.4113583"><ele>834.0</ele><time>2026-04-29T13:34:59.402Z</time></trkpt><trkpt lat="44.1699344" lon="10.4114393"><ele>834.0</ele><time>2026-04-29T13:35:02.42Z</time></trkpt><trkpt lat="44.1699778" lon="10.411517"><ele>834.0</ele><time>2026-04-29T13:35:05.416Z</time></trkpt><trkpt lat="44.1700261" lon="10.4116033"><ele>834.0</ele><time>2026-04-29T13:35:08.414Z</time></trkpt><trkpt lat="44.1700732" lon="10.4116889"><ele>837.4285714285714</ele><time>2026-04-29T13:35:11.416Z</time></trkpt><trkpt lat="44.1701201" lon="10.4117655"><ele>840.8571428571428</ele><time>2026-04-29T13:35:14.402Z</time></trkpt><trkpt lat="44.170168" lon="10.4118402"><ele>844.2857142857142</ele><time>2026-04-29T13:35:17.412Z</time></trkpt><trkpt lat="44.1702209" lon="10.4119081"><ele>847.7142857142858</ele><time>2026-04-29T13:35:20.408Z</time></trkpt><trkpt lat="44.1702722" lon="10.4119703"><ele>851.1428571428571</ele><time>2026-04-29T13:35:23.409Z</time></trkpt><trkpt lat="44.1703345" lon="10.4120291"><ele>854.5714285714286</ele><time>2026-04-29T13:35:26.404Z</time></trkpt><trkpt lat="44.1703963" lon="10.41208"><ele>858.0</ele><time>2026-04-29T13:35:29.409Z</time></trkpt><trkpt lat="44.1704548" lon="10.4121363"><ele>861.5</ele><time>2026-04-29T13:35:32.415Z</time></trkpt><trkpt lat="44.1705169" lon="10.4121889"><ele>865.0</ele><time>2026-04-29T13:35:35.412Z</time></trkpt><trkpt lat="44.1705742" lon="10.4122329"><ele>868.5</ele><time>2026-04-29T13:35:38.412Z</time></trkpt><trkpt lat="44.1706338" lon="10.4122649"><ele>872.0</ele><time>2026-04-29T13:35:41.412Z</time></trkpt><trkpt lat="44.1707053" lon="10.4123083"><ele>875.5</ele><time>2026-04-29T13:35:44.401Z</time></trkpt><trkpt lat="44.170783" lon="10.4123423"><ele>879.0</ele><time>2026-04-29T13:35:47.414Z</time></trkpt><trkpt lat="44.1708684" lon="10.4123096"><ele>879.1666666666666</ele><time>2026-04-29T13:35:50.411Z</time></trkpt><trkpt lat="44.1709222" lon="10.4122573"><ele>879.3333333333333</ele><time>2026-04-29T13:35:52.407Z</time></trkpt><trkpt lat="44.1709606" lon="10.4121485"><ele>879.5</ele><time>2026-04-29T13:35:55.405Z</time></trkpt><trkpt lat="44.170937" lon="10.4120539"><ele>879.6666666666666</ele><time>2026-04-29T13:35:58.408Z</time></trkpt><trkpt lat="44.1708981" lon="10.411962"><ele>879.8333333333333</ele><time>2026-04-29T13:36:01.404Z</time></trkpt><trkpt lat="44.1708511" lon="10.4118777"><ele>880.0</ele><time>2026-04-29T13:36:04.404Z</time></trkpt><trkpt lat="44.1708019" lon="10.4117855"><ele>877.8333333333333</ele><time>2026-04-29T13:36:07.411Z</time></trkpt><trkpt lat="44.1707588" lon="10.4116764"><ele>875.6666666666666</ele><time>2026-04-29T13:36:10.412Z</time></trkpt><trkpt lat="44.1707347" lon="10.4115558"><ele>873.5</ele><time>2026-04-29T13:36:13.413Z</time></trkpt><trkpt lat="44.1707254" lon="10.4114507"><ele>871.3333333333333</ele><time>2026-04-29T13:36:16.405Z</time></trkpt><trkpt lat="44.1707255" lon="10.411359"><ele>869.1666666666666</ele><time>2026-04-29T13:36:18.405Z</time></trkpt><trkpt lat="44.1707252" lon="10.4112529"><ele>867.0</ele><time>2026-04-29T13:36:20.407Z</time></trkpt><trkpt lat="44.1707262" lon="10.4111376"><ele>866.8333333333334</ele><time>2026-04-29T13:36:23.411Z</time></trkpt><trkpt lat="44.1707275" lon="10.4110387"><ele>866.6666666666667</ele><time>2026-04-29T13:36:26.41Z</time></trkpt><trkpt lat="44.1707308" lon="10.4109175"><ele>866.5</ele><time>2026-04-29T13:36:29.415Z</time></trkpt><trkpt lat="44.1707332" lon="10.4107917"><ele>866.3333333333334</ele><time>2026-04-29T13:36:32.418Z</time></trkpt><trkpt lat="44.170737" lon="10.4106737"><ele>866.1666666666667</ele><time>2026-04-29T13:36:35.412Z</time></trkpt><trkpt lat="44.1707384" lon="10.4105683"><ele>866.0</ele><time>2026-04-29T13:36:38.419Z</time></trkpt><trkpt lat="44.1707303" lon="10.4104612"><ele>865.8333333333334</ele><time>2026-04-29T13:36:41.415Z</time></trkpt><trkpt lat="44.1707269" lon="10.4103558"><ele>865.6666666666667</ele><time>2026-04-29T13:36:44.419Z</time></trkpt><trkpt lat="44.1707212" lon="10.4102419"><ele>865.5</ele><time>2026-04-29T13:36:47.412Z</time></trkpt><trkpt lat="44.1707172" lon="10.4101288"><ele>865.3333333333333</ele><time>2026-04-29T13:36:50.412Z</time></trkpt><trkpt lat="44.1707151" lon="10.4100206"><ele>865.1666666666666</ele><time>2026-04-29T13:36:53.403Z</time></trkpt><trkpt lat="44.1707174" lon="10.4099077"><ele>865.0</ele><time>2026-04-29T13:36:56.416Z</time></trkpt><trkpt lat="44.170744" lon="10.4097982"><ele>864.9999999999999</ele><time>2026-04-29T13:36:59.404Z</time></trkpt><trkpt lat="44.1707712" lon="10.4096951"><ele>865.0</ele><time>2026-04-29T13:37:02.416Z</time></trkpt><trkpt lat="44.1708025" lon="10.4095968"><ele>865.0</ele><time>2026-04-29T13:37:05.421Z</time></trkpt><trkpt lat="44.1708394" lon="10.4095029"><ele>865.0</ele><time>2026-04-29T13:37:08.415Z</time></trkpt><trkpt lat="44.1708742" lon="10.4094139"><ele>864.9999999999999</ele><time>2026-04-29T13:37:11.409Z</time></trkpt><trkpt lat="44.1709062" lon="10.4093189"><ele>865.0</ele><time>2026-04-29T13:37:14.411Z</time></trkpt><trkpt lat="44.1709459" lon="10.4092272"><ele>864.4285714285714</ele><time>2026-04-29T13:37:17.401Z</time></trkpt><trkpt lat="44.1709882" lon="10.4091425"><ele>863.8571428571429</ele><time>2026-04-29T13:37:20.413Z</time></trkpt><trkpt lat="44.1710528" lon="10.4090974"><ele>863.2857142857142</ele><time>2026-04-29T13:37:23.416Z</time></trkpt><trkpt lat="44.1711264" lon="10.4091442"><ele>862.7142857142858</ele><time>2026-04-29T13:37:26.409Z</time></trkpt><trkpt lat="44.1711857" lon="10.4092087"><ele>862.1428571428571</ele><time>2026-04-29T13:37:29.418Z</time></trkpt><trkpt lat="44.1712444" lon="10.4092682"><ele>861.5714285714286</ele><time>2026-04-29T13:37:33.401Z</time></trkpt><trkpt lat="44.1713033" lon="10.4093241"><ele>861.0</ele><time>2026-04-29T13:37:37.397Z</time></trkpt><trkpt lat="44.1713624" lon="10.4093762"><ele>861.0</ele><time>2026-04-29T13:37:40.403Z</time></trkpt><trkpt lat="44.1714304" lon="10.4094241"><ele>861.0</ele><time>2026-04-29T13:37:44.4Z</time></trkpt><trkpt lat="44.1715165" lon="10.4094773"><ele>861.0</ele><time>2026-04-29T13:37:47.401Z</time></trkpt><trkpt lat="44.1715992" lon="10.409517"><ele>861.0</ele><time>2026-04-29T13:37:50.398Z</time></trkpt><trkpt lat="44.1716837" lon="10.4095405"><ele>861.0</ele><time>2026-04-29T13:37:53.4Z</time></trkpt><trkpt lat="44.1717691" lon="10.4095385"><ele>861.0</ele><time>2026-04-29T13:37:56.399Z</time></trkpt><trkpt lat="44.1718516" lon="10.4095405"><ele>861.1428571428571</ele><time>2026-04-29T13:37:59.406Z</time></trkpt><trkpt lat="44.171934" lon="10.4095365"><ele>861.2857142857142</ele><time>2026-04-29T13:38:02.398Z</time></trkpt><trkpt lat="44.1720072" lon="10.4095382"><ele>861.4285714285714</ele><time>2026-04-29T13:38:05.403Z</time></trkpt><trkpt lat="44.1720793" lon="10.4095514"><ele>861.5714285714286</ele><time>2026-04-29T13:38:08.4Z</time></trkpt><trkpt lat="44.1721438" lon="10.4095652"><ele>861.7142857142857</ele><time>2026-04-29T13:38:11.402Z</time></trkpt><trkpt lat="44.1722143" lon="10.4095985"><ele>861.8571428571429</ele><time>2026-04-29T13:38:14.404Z</time></trkpt><trkpt lat="44.1722919" lon="10.4096268"><ele>862.0</ele><time>2026-04-29T13:38:17.407Z</time></trkpt><trkpt lat="44.1723607" lon="10.4096769"><ele>868.9999999999999</ele><time>2026-04-29T13:38:20.41Z</time></trkpt><trkpt lat="44.1724311" lon="10.4097282"><ele>876.0</ele><time>2026-04-29T13:38:23.406Z</time></trkpt><trkpt lat="44.1725076" lon="10.4097831"><ele>883.0</ele><time>2026-04-29T13:38:27.414Z</time></trkpt><trkpt lat="44.1725734" lon="10.4098338"><ele>890.0</ele><time>2026-04-29T13:38:30.407Z</time></trkpt><trkpt lat="44.1726553" lon="10.4098466"><ele>896.9999999999999</ele><time>2026-04-29T13:38:33.416Z</time></trkpt><trkpt lat="44.1727395" lon="10.4098309"><ele>904.0</ele><time>2026-04-29T13:38:36.403Z</time></trkpt><trkpt lat="44.1728196" lon="10.4097976"><ele>903.9999999999999</ele><time>2026-04-29T13:38:39.397Z</time></trkpt><trkpt lat="44.1728911" lon="10.4097698"><ele>904.0</ele><time>2026-04-29T13:38:42.417Z</time></trkpt><trkpt lat="44.1729608" lon="10.4097371"><ele>904.0</ele><time>2026-04-29T13:38:45.397Z</time></trkpt><trkpt lat="44.1730308" lon="10.409695"><ele>904.0</ele><time>2026-04-29T13:38:48.398Z</time></trkpt><trkpt lat="44.1731077" lon="10.4096643"><ele>903.9999999999999</ele><time>2026-04-29T13:38:51.4Z</time></trkpt><trkpt lat="44.173186" lon="10.4096366"><ele>904.0</ele><time>2026-04-29T13:38:54.409Z</time></trkpt><trkpt lat="44.1732605" lon="10.4095892"><ele>905.5714285714287</ele><time>2026-04-29T13:38:57.407Z</time></trkpt><trkpt lat="44.1733251" lon="10.4095633"><ele>907.1428571428571</ele><time>2026-04-29T13:39:00.399Z</time></trkpt><trkpt lat="44.1733999" lon="10.4095597"><ele>908.7142857142858</ele><time>2026-04-29T13:39:04.409Z</time></trkpt><trkpt lat="44.1734634" lon="10.4095751"><ele>910.2857142857143</ele><time>2026-04-29T13:39:07.415Z</time></trkpt><trkpt lat="44.1735359" lon="10.4096104"><ele>911.8571428571429</ele><time>2026-04-29T13:39:10.414Z</time></trkpt><trkpt lat="44.1736035" lon="10.4096403"><ele>913.4285714285714</ele><time>2026-04-29T13:39:13.414Z</time></trkpt><trkpt lat="44.1736773" lon="10.4096751"><ele>915.0</ele><time>2026-04-29T13:39:16.411Z</time></trkpt><trkpt lat="44.17375" lon="10.4096997"><ele>915.0</ele><time>2026-04-29T13:39:19.399Z</time></trkpt><trkpt lat="44.173828" lon="10.4097332"><ele>915.0000000000001</ele><time>2026-04-29T13:39:22.401Z</time></trkpt><trkpt lat="44.1739059" lon="10.4097616"><ele>915.0</ele><time>2026-04-29T13:39:25.402Z</time></trkpt><trkpt lat="44.1739678" lon="10.4097898"><ele>915.0</ele><time>2026-04-29T13:39:28.398Z</time></trkpt><trkpt lat="44.1740287" lon="10.40983"><ele>915.0000000000001</ele><time>2026-04-29T13:39:31.411Z</time></trkpt><trkpt lat="44.1740837" lon="10.4098751"><ele>915.0</ele><time>2026-04-29T13:39:34.399Z</time></trkpt><trkpt lat="44.1741341" lon="10.4099278"><ele>915.0</ele><time>2026-04-29T13:39:37.414Z</time></trkpt><trkpt lat="44.1742022" lon="10.4099834"><ele>914.5714285714287</ele><time>2026-04-29T13:39:40.413Z</time></trkpt><trkpt lat="44.1742749" lon="10.4100209"><ele>914.1428571428572</ele><time>2026-04-29T13:39:43.407Z</time></trkpt><trkpt lat="44.1743432" lon="10.410057"><ele>913.7142857142858</ele><time>2026-04-29T13:39:46.401Z</time></trkpt><trkpt lat="44.1744168" lon="10.4100886"><ele>913.2857142857142</ele><time>2026-04-29T13:39:49.41Z</time></trkpt><trkpt lat="44.1744877" lon="10.4101138"><ele>912.8571428571428</ele><time>2026-04-29T13:39:52.411Z</time></trkpt><trkpt lat="44.1745548" lon="10.4101517"><ele>912.4285714285713</ele><time>2026-04-29T13:39:55.41Z</time></trkpt><trkpt lat="44.1746233" lon="10.4101938"><ele>912.0</ele><time>2026-04-29T13:39:58.415Z</time></trkpt><trkpt lat="44.1747007" lon="10.4102472"><ele>912.0</ele><time>2026-04-29T13:40:01.416Z</time></trkpt><trkpt lat="44.1747749" lon="10.4102921"><ele>912.0</ele><time>2026-04-29T13:40:04.413Z</time></trkpt><trkpt lat="44.1748545" lon="10.4102871"><ele>912.0</ele><time>2026-04-29T13:40:07.404Z</time></trkpt><trkpt lat="44.1749233" lon="10.4102285"><ele>912.0</ele><time>2026-04-29T13:40:10.397Z</time></trkpt><trkpt lat="44.1749466" lon="10.4101285"><ele>912.0</ele><time>2026-04-29T13:40:13.414Z</time></trkpt><trkpt lat="44.1749291" lon="10.4100387"><ele>912.0</ele><time>2026-04-29T13:40:16.413Z</time></trkpt><trkpt lat="44.1748933" lon="10.409942"><ele>912.0</ele><time>2026-04-29T13:40:19.407Z</time></trkpt><trkpt lat="44.1748571" lon="10.4098482"><ele>912.0</ele><time>2026-04-29T13:40:22.415Z</time></trkpt><trkpt lat="44.1748144" lon="10.4097496"><ele>912.0</ele><time>2026-04-29T13:40:25.406Z</time></trkpt><trkpt lat="44.1747766" lon="10.4096534"><ele>912.0</ele><time>2026-04-29T13:40:28.413Z</time></trkpt><trkpt lat="44.1747497" lon="10.4095504"><ele>912.0</ele><time>2026-04-29T13:40:31.424Z</time></trkpt><trkpt lat="44.1747336" lon="10.4094395"><ele>912.0</ele><time>2026-04-29T13:40:34.419Z</time></trkpt><trkpt lat="44.1747447" lon="10.4093184"><ele>912.6666666666666</ele><time>2026-04-29T13:40:37.411Z</time></trkpt><trkpt lat="44.1747733" lon="10.4092035"><ele>913.3333333333333</ele><time>2026-04-29T13:40:40.416Z</time></trkpt><trkpt lat="44.1748035" lon="10.4091016"><ele>914.0</ele><time>2026-04-29T13:40:43.408Z</time></trkpt><trkpt lat="44.1748235" lon="10.4089959"><ele>914.6666666666666</ele><time>2026-04-29T13:40:46.416Z</time></trkpt><trkpt lat="44.1748576" lon="10.4088992"><ele>915.3333333333333</ele><time>2026-04-29T13:40:49.418Z</time></trkpt><trkpt lat="44.1748873" lon="10.408801"><ele>916.0</ele><time>2026-04-29T13:40:52.406Z</time></trkpt><trkpt lat="44.1749102" lon="10.4087026"><ele>914.8571428571429</ele><time>2026-04-29T13:40:55.404Z</time></trkpt><trkpt lat="44.174949" lon="10.4086169"><ele>913.7142857142858</ele><time>2026-04-29T13:40:58.403Z</time></trkpt><trkpt lat="44.1750084" lon="10.4085441"><ele>912.5714285714287</ele><time>2026-04-29T13:41:01.395Z</time></trkpt><trkpt lat="44.1750638" lon="10.4084817"><ele>911.4285714285714</ele><time>2026-04-29T13:41:04.402Z</time></trkpt><trkpt lat="44.1751163" lon="10.4084214"><ele>910.2857142857144</ele><time>2026-04-29T13:41:07.402Z</time></trkpt><trkpt lat="44.1751733" lon="10.4083623"><ele>909.1428571428572</ele><time>2026-04-29T13:41:10.408Z</time></trkpt><trkpt lat="44.1752247" lon="10.408298"><ele>908.0</ele><time>2026-04-29T13:41:13.333Z</time></trkpt><trkpt lat="44.1752678" lon="10.4082306"><ele>908.0000000000001</ele><time>2026-04-29T13:41:16.4Z</time></trkpt><trkpt lat="44.1753263" lon="10.4081707"><ele>908.0</ele><time>2026-04-29T13:41:19.411Z</time></trkpt><trkpt lat="44.1753787" lon="10.4080892"><ele>908.0</ele><time>2026-04-29T13:41:22.401Z</time></trkpt><trkpt lat="44.1754073" lon="10.4079753"><ele>908.0</ele><time>2026-04-29T13:41:25.399Z</time></trkpt><trkpt lat="44.1753997" lon="10.4078649"><ele>908.0000000000001</ele><time>2026-04-29T13:41:28.406Z</time></trkpt><trkpt lat="44.1753855" lon="10.4077477"><ele>908.0</ele><time>2026-04-29T13:41:31.411Z</time></trkpt><trkpt lat="44.1753696" lon="10.4076352"><ele>907.6666666666667</ele><time>2026-04-29T13:41:34.4Z</time></trkpt><trkpt lat="44.1753593" lon="10.4075212"><ele>907.3333333333334</ele><time>2026-04-29T13:41:37.42Z</time></trkpt><trkpt lat="44.1753733" lon="10.4074184"><ele>907.0</ele><time>2026-04-29T13:41:40.422Z</time></trkpt><trkpt lat="44.1753889" lon="10.4073303"><ele>906.6666666666667</ele><time>2026-04-29T13:41:43.426Z</time></trkpt><trkpt lat="44.1753846" lon="10.4072177"><ele>906.3333333333334</ele><time>2026-04-29T13:41:46.408Z</time></trkpt><trkpt lat="44.1753639" lon="10.4071093"><ele>906.0</ele><time>2026-04-29T13:41:49.414Z</time></trkpt><trkpt lat="44.1753408" lon="10.4070052"><ele>907.8333333333334</ele><time>2026-04-29T13:41:52.412Z</time></trkpt><trkpt lat="44.1753196" lon="10.4068967"><ele>909.6666666666667</ele><time>2026-04-29T13:41:55.401Z</time></trkpt><trkpt lat="44.1752916" lon="10.4067892"><ele>911.5</ele><time>2026-04-29T13:41:58.409Z</time></trkpt><trkpt lat="44.17526" lon="10.4066899"><ele>913.3333333333334</ele><time>2026-04-29T13:42:01.403Z</time></trkpt><trkpt lat="44.1752283" lon="10.4065892"><ele>915.1666666666667</ele><time>2026-04-29T13:42:04.4Z</time></trkpt><trkpt lat="44.1751933" lon="10.406491"><ele>917.0</ele><time>2026-04-29T13:42:07.409Z</time></trkpt><trkpt lat="44.1751644" lon="10.4063931"><ele>919.0</ele><time>2026-04-29T13:42:10.404Z</time></trkpt><trkpt lat="44.1751433" lon="10.4062979"><ele>921.0</ele><time>2026-04-29T13:42:13.417Z</time></trkpt><trkpt lat="44.1751168" lon="10.4062027"><ele>923.0</ele><time>2026-04-29T13:42:16.402Z</time></trkpt><trkpt lat="44.1751002" lon="10.4061076"><ele>925.0</ele><time>2026-04-29T13:42:19.425Z</time></trkpt><trkpt lat="44.1750891" lon="10.4060001"><ele>927.0</ele><time>2026-04-29T13:42:22.422Z</time></trkpt><trkpt lat="44.1750738" lon="10.4058912"><ele>929.0</ele><time>2026-04-29T13:42:25.399Z</time></trkpt><trkpt lat="44.175055" lon="10.4057892"><ele>931.0</ele><time>2026-04-29T13:42:28.418Z</time></trkpt><trkpt lat="44.1750385" lon="10.4056706"><ele>930.9999999999999</ele><time>2026-04-29T13:42:32.411Z</time></trkpt><trkpt lat="44.1750229" lon="10.4055555"><ele>931.0</ele><time>2026-04-29T13:42:35.418Z</time></trkpt><trkpt lat="44.1750096" lon="10.4054513"><ele>931.0</ele><time>2026-04-29T13:42:38.412Z</time></trkpt><trkpt lat="44.1750048" lon="10.4053488"><ele>931.0</ele><time>2026-04-29T13:42:41.397Z</time></trkpt><trkpt lat="44.1749894" lon="10.4052503"><ele>930.9999999999999</ele><time>2026-04-29T13:42:44.398Z</time></trkpt><trkpt lat="44.174968" lon="10.4051502"><ele>931.0</ele><time>2026-04-29T13:42:47.407Z</time></trkpt><trkpt lat="44.1749478" lon="10.4050514"><ele>932.4999999999999</ele><time>2026-04-29T13:42:50.414Z</time></trkpt><trkpt lat="44.1749255" lon="10.404947"><ele>934.0</ele><time>2026-04-29T13:42:54.414Z</time></trkpt><trkpt lat="44.174893" lon="10.4048494"><ele>935.5</ele><time>2026-04-29T13:42:57.402Z</time></trkpt><trkpt lat="44.1748581" lon="10.4047436"><ele>937.0</ele><time>2026-04-29T13:43:00.418Z</time></trkpt><trkpt lat="44.1748153" lon="10.4046372"><ele>938.4999999999999</ele><time>2026-04-29T13:43:03.398Z</time></trkpt><trkpt lat="44.1747691" lon="10.4045259"><ele>940.0</ele><time>2026-04-29T13:43:06.416Z</time></trkpt><trkpt lat="44.1747239" lon="10.4044242"><ele>937.9999999999999</ele><time>2026-04-29T13:43:09.412Z</time></trkpt><trkpt lat="44.174681" lon="10.4043148"><ele>936.0</ele><time>2026-04-29T13:43:12.406Z</time></trkpt><trkpt lat="44.1746483" lon="10.404209"><ele>934.0</ele><time>2026-04-29T13:43:15.414Z</time></trkpt><trkpt lat="44.1746164" lon="10.4041143"><ele>932.0</ele><time>2026-04-29T13:43:18.407Z</time></trkpt><trkpt lat="44.1745769" lon="10.4040142"><ele>929.9999999999999</ele><time>2026-04-29T13:43:21.402Z</time></trkpt><trkpt lat="44.1745501" lon="10.4039284"><ele>928.0</ele><time>2026-04-29T13:43:23.411Z</time></trkpt><trkpt lat="44.1745261" lon="10.4038072"><ele>928.0000000000001</ele><time>2026-04-29T13:43:26.415Z</time></trkpt><trkpt lat="44.1745083" lon="10.403715"><ele>928.0</ele><time>2026-04-29T13:43:28.427Z</time></trkpt><trkpt lat="44.1744909" lon="10.4036192"><ele>928.0000000000001</ele><time>2026-04-29T13:43:30.41Z</time></trkpt><trkpt lat="44.1744729" lon="10.403529"><ele>928.0000000000001</ele><time>2026-04-29T13:43:32.413Z</time></trkpt><trkpt lat="44.1744606" lon="10.4034415"><ele>928.0</ele><time>2026-04-29T13:43:34.402Z</time></trkpt><trkpt lat="44.1744544" lon="10.40335"><ele>928.0000000000001</ele><time>2026-04-29T13:43:36.408Z</time></trkpt><trkpt lat="44.1744575" lon="10.4032582"><ele>928.0000000000001</ele><time>2026-04-29T13:43:38.403Z</time></trkpt><trkpt lat="44.1744847" lon="10.4031363"><ele>927.9999999999999</ele><time>2026-04-29T13:43:41.401Z</time></trkpt><trkpt lat="44.1745173" lon="10.4030261"><ele>928.0</ele><time>2026-04-29T13:43:44.402Z</time></trkpt><trkpt lat="44.1745655" lon="10.4029183"><ele>928.0</ele><time>2026-04-29T13:43:47.405Z</time></trkpt><trkpt lat="44.1746214" lon="10.4028236"><ele>928.0</ele><time>2026-04-29T13:43:50.416Z</time></trkpt><trkpt lat="44.1746779" lon="10.4027294"><ele>927.9999999999999</ele><time>2026-04-29T13:43:53.409Z</time></trkpt><trkpt lat="44.1747321" lon="10.4026277"><ele>928.0</ele><time>2026-04-29T13:43:56.404Z</time></trkpt><trkpt lat="44.1748163" lon="10.4026096"><ele>927.9999999999999</ele><time>2026-04-29T13:43:59.402Z</time></trkpt><trkpt lat="44.1748417" lon="10.4027197"><ele>928.0</ele><time>2026-04-29T13:44:02.401Z</time></trkpt><trkpt lat="44.1747783" lon="10.4028008"><ele>928.0</ele><time>2026-04-29T13:44:05.398Z</time></trkpt><trkpt lat="44.1747229" lon="10.4028733"><ele>928.0</ele><time>2026-04-29T13:44:08.396Z</time></trkpt><trkpt lat="44.1746686" lon="10.4029425"><ele>927.9999999999999</ele><time>2026-04-29T13:44:11.396Z</time></trkpt><trkpt lat="44.1746205" lon="10.4030157"><ele>928.0</ele><time>2026-04-29T13:44:14.403Z</time></trkpt><trkpt lat="44.1745952" lon="10.4031104"><ele>928.0000000000001</ele><time>2026-04-29T13:44:17.396Z</time></trkpt><trkpt lat="44.17459" lon="10.4032141"><ele>928.0</ele><time>2026-04-29T13:44:20.422Z</time></trkpt><trkpt lat="44.1745981" lon="10.4033196"><ele>928.0000000000001</ele><time>2026-04-29T13:44:23.425Z</time></trkpt><trkpt lat="44.1746172" lon="10.403422"><ele>928.0000000000001</ele><time>2026-04-29T13:44:26.418Z</time></trkpt><trkpt lat="44.1746505" lon="10.4035085"><ele>928.0</ele><time>2026-04-29T13:44:29.406Z</time></trkpt><trkpt lat="44.1746892" lon="10.4035986"><ele>928.0000000000001</ele><time>2026-04-29T13:44:32.415Z</time></trkpt><trkpt lat="44.1747288" lon="10.4036872"><ele>928.0000000000001</ele><time>2026-04-29T13:44:35.398Z</time></trkpt><trkpt lat="44.1747696" lon="10.4037727"><ele>926.1666666666666</ele><time>2026-04-29T13:44:38.407Z</time></trkpt><trkpt lat="44.174815" lon="10.4038578"><ele>924.3333333333333</ele><time>2026-04-29T13:44:41.411Z</time></trkpt><trkpt lat="44.1748671" lon="10.4039446"><ele>922.5</ele><time>2026-04-29T13:44:44.398Z</time></trkpt><trkpt lat="44.1748992" lon="10.4040359"><ele>920.6666666666667</ele><time>2026-04-29T13:44:47.423Z</time></trkpt><trkpt lat="44.1749412" lon="10.4041245"><ele>918.8333333333334</ele><time>2026-04-29T13:44:50.404Z</time></trkpt><trkpt lat="44.1749803" lon="10.4042063"><ele>917.0</ele><time>2026-04-29T13:44:53.403Z</time></trkpt><trkpt lat="44.175021" lon="10.4042962"><ele>920.2857142857142</ele><time>2026-04-29T13:44:56.407Z</time></trkpt><trkpt lat="44.1750596" lon="10.4043818"><ele>923.5714285714286</ele><time>2026-04-29T13:44:59.404Z</time></trkpt><trkpt lat="44.1751035" lon="10.4044633"><ele>926.8571428571429</ele><time>2026-04-29T13:45:02.414Z</time></trkpt><trkpt lat="44.1751538" lon="10.4045406"><ele>930.1428571428571</ele><time>2026-04-29T13:45:05.412Z</time></trkpt><trkpt lat="44.175207" lon="10.4046132"><ele>933.4285714285713</ele><time>2026-04-29T13:45:08.403Z</time></trkpt><trkpt lat="44.1752504" lon="10.4046929"><ele>936.7142857142857</ele><time>2026-04-29T13:45:11.403Z</time></trkpt><trkpt lat="44.175293" lon="10.4047814"><ele>940.0</ele><time>2026-04-29T13:45:14.419Z</time></trkpt><trkpt lat="44.1753355" lon="10.4048769"><ele>939.9999999999999</ele><time>2026-04-29T13:45:17.413Z</time></trkpt><trkpt lat="44.1753767" lon="10.4049651"><ele>940.0</ele><time>2026-04-29T13:45:20.42Z</time></trkpt><trkpt lat="44.1754126" lon="10.4050651"><ele>940.0</ele><time>2026-04-29T13:45:23.404Z</time></trkpt><trkpt lat="44.1754586" lon="10.405151"><ele>940.0</ele><time>2026-04-29T13:45:26.396Z</time></trkpt><trkpt lat="44.1755079" lon="10.405232"><ele>939.9999999999999</ele><time>2026-04-29T13:45:29.402Z</time></trkpt><trkpt lat="44.1755502" lon="10.4053162"><ele>940.0</ele><time>2026-04-29T13:45:32.401Z</time></trkpt><trkpt lat="44.1755902" lon="10.4053965"><ele>939.9999999999999</ele><time>2026-04-29T13:45:35.414Z</time></trkpt><trkpt lat="44.1756282" lon="10.4054817"><ele>940.0</ele><time>2026-04-29T13:45:38.404Z</time></trkpt><trkpt lat="44.1756705" lon="10.4055652"><ele>940.0</ele><time>2026-04-29T13:45:41.258Z</time></trkpt><trkpt lat="44.1757209" lon="10.4056528"><ele>940.0</ele><time>2026-04-29T13:45:44.419Z</time></trkpt><trkpt lat="44.1757647" lon="10.405743"><ele>939.9999999999999</ele><time>2026-04-29T13:45:47.412Z</time></trkpt><trkpt lat="44.1758104" lon="10.4058363"><ele>940.0</ele><time>2026-04-29T13:45:50.401Z</time></trkpt><trkpt lat="44.1758596" lon="10.405934"><ele>941.6666666666666</ele><time>2026-04-29T13:45:53.414Z</time></trkpt><trkpt lat="44.1759045" lon="10.4060325"><ele>943.3333333333333</ele><time>2026-04-29T13:45:56.412Z</time></trkpt><trkpt lat="44.1759457" lon="10.406122"><ele>945.0</ele><time>2026-04-29T13:45:59.419Z</time></trkpt><trkpt lat="44.1759913" lon="10.4062079"><ele>946.6666666666667</ele><time>2026-04-29T13:46:02.405Z</time></trkpt><trkpt lat="44.1760326" lon="10.4063019"><ele>948.3333333333334</ele><time>2026-04-29T13:46:05.419Z</time></trkpt><trkpt lat="44.176075" lon="10.406394"><ele>950.0</ele><time>2026-04-29T13:46:08.409Z</time></trkpt><trkpt lat="44.1761212" lon="10.4064801"><ele>950.0000000000001</ele><time>2026-04-29T13:46:11.409Z</time></trkpt><trkpt lat="44.1761659" lon="10.4065629"><ele>950.0</ele><time>2026-04-29T13:46:14.408Z</time></trkpt><trkpt lat="44.1762121" lon="10.4066465"><ele>950.0</ele><time>2026-04-29T13:46:17.427Z</time></trkpt><trkpt lat="44.1762621" lon="10.4067269"><ele>950.0</ele><time>2026-04-29T13:46:20.407Z</time></trkpt><trkpt lat="44.1763119" lon="10.4068113"><ele>950.0000000000001</ele><time>2026-04-29T13:46:23.421Z</time></trkpt><trkpt lat="44.1763605" lon="10.4068941"><ele>950.0</ele><time>2026-04-29T13:46:26.419Z</time></trkpt><trkpt lat="44.1764022" lon="10.4069759"><ele>950.0000000000001</ele><time>2026-04-29T13:46:29.418Z</time></trkpt><trkpt lat="44.1764426" lon="10.4070607"><ele>950.0</ele><time>2026-04-29T13:46:32.416Z</time></trkpt><trkpt lat="44.1764818" lon="10.4071439"><ele>950.0</ele><time>2026-04-29T13:46:35.429Z</time></trkpt><trkpt lat="44.1765182" lon="10.4072502"><ele>950.0</ele><time>2026-04-29T13:46:38.413Z</time></trkpt><trkpt lat="44.176544" lon="10.4073604"><ele>950.0000000000001</ele><time>2026-04-29T13:46:41.422Z</time></trkpt><trkpt lat="44.1765705" lon="10.4074734"><ele>950.0</ele><time>2026-04-29T13:46:44.402Z</time></trkpt><trkpt lat="44.176575" lon="10.407584"><ele>949.4285714285714</ele><time>2026-04-29T13:46:47.411Z</time></trkpt><trkpt lat="44.1765338" lon="10.4076731"><ele>948.8571428571429</ele><time>2026-04-29T13:46:50.363Z</time></trkpt><trkpt lat="44.176494" lon="10.4077563"><ele>948.2857142857143</ele><time>2026-04-29T13:46:53.408Z</time></trkpt><trkpt lat="44.1764594" lon="10.4078395"><ele>947.7142857142858</ele><time>2026-04-29T13:46:56.412Z</time></trkpt><trkpt lat="44.1764261" lon="10.4079247"><ele>947.1428571428571</ele><time>2026-04-29T13:46:59.415Z</time></trkpt><trkpt lat="44.1763917" lon="10.4080017"><ele>946.5714285714287</ele><time>2026-04-29T13:47:02.41Z</time></trkpt><trkpt lat="44.1763563" lon="10.4080898"><ele>946.0</ele><time>2026-04-29T13:47:05.412Z</time></trkpt><trkpt lat="44.1763223" lon="10.4081861"><ele>945.9999999999999</ele><time>2026-04-29T13:47:08.408Z</time></trkpt><trkpt lat="44.1763083" lon="10.4082982"><ele>946.0</ele><time>2026-04-29T13:47:11.396Z</time></trkpt><trkpt lat="44.1763186" lon="10.4083859"><ele>946.0</ele><time>2026-04-29T13:47:13.406Z</time></trkpt><trkpt lat="44.1763368" lon="10.4085133"><ele>946.0</ele><time>2026-04-29T13:47:16.399Z</time></trkpt><trkpt lat="44.17635" lon="10.4086378"><ele>945.9999999999999</ele><time>2026-04-29T13:47:19.411Z</time></trkpt><trkpt lat="44.1763598" lon="10.4087512"><ele>946.0</ele><time>2026-04-29T13:47:22.412Z</time></trkpt><trkpt lat="44.1763763" lon="10.4088556"><ele>946.8333333333333</ele><time>2026-04-29T13:47:25.412Z</time></trkpt><trkpt lat="44.1764" lon="10.40895"><ele>947.6666666666666</ele><time>2026-04-29T13:47:28.409Z</time></trkpt><trkpt lat="44.176418" lon="10.4090377"><ele>948.5</ele><time>2026-04-29T13:47:31.401Z</time></trkpt><trkpt lat="44.1764392" lon="10.409138"><ele>949.3333333333333</ele><time>2026-04-29T13:47:34.409Z</time></trkpt><trkpt lat="44.1764709" lon="10.4092277"><ele>950.1666666666666</ele><time>2026-04-29T13:47:37.403Z</time></trkpt><trkpt lat="44.1765227" lon="10.4093248"><ele>951.0</ele><time>2026-04-29T13:47:41.404Z</time></trkpt><trkpt lat="44.1765854" lon="10.4093971"><ele>956.3333333333334</ele><time>2026-04-29T13:47:45.404Z</time></trkpt><trkpt lat="44.1766463" lon="10.4094411"><ele>961.6666666666667</ele><time>2026-04-29T13:47:48.402Z</time></trkpt><trkpt lat="44.1767217" lon="10.4094796"><ele>967.0</ele><time>2026-04-29T13:47:52.402Z</time></trkpt><trkpt lat="44.1767987" lon="10.4095046"><ele>972.3333333333334</ele><time>2026-04-29T13:47:56.405Z</time></trkpt><trkpt lat="44.1768716" lon="10.4095364"><ele>977.6666666666667</ele><time>2026-04-29T13:48:00.42Z</time></trkpt><trkpt lat="44.1769485" lon="10.4095732"><ele>983.0</ele><time>2026-04-29T13:48:04.406Z</time></trkpt><trkpt lat="44.1770203" lon="10.4096263"><ele>982.0000000000001</ele><time>2026-04-29T13:48:07.403Z</time></trkpt><trkpt lat="44.1770821" lon="10.4096826"><ele>981.0</ele><time>2026-04-29T13:48:10.399Z</time></trkpt><trkpt lat="44.1771367" lon="10.4097724"><ele>980.0</ele><time>2026-04-29T13:48:13.408Z</time></trkpt><trkpt lat="44.1771552" lon="10.4098834"><ele>979.0</ele><time>2026-04-29T13:48:16.417Z</time></trkpt><trkpt lat="44.1771391" lon="10.4099827"><ele>978.0000000000001</ele><time>2026-04-29T13:48:19.407Z</time></trkpt><trkpt lat="44.1771059" lon="10.4100582"><ele>977.0</ele><time>2026-04-29T13:48:22.41Z</time></trkpt><trkpt lat="44.1770636" lon="10.4101605"><ele>977.0000000000001</ele><time>2026-04-29T13:48:26.402Z</time></trkpt><trkpt lat="44.1770194" lon="10.4102477"><ele>977.0</ele><time>2026-04-29T13:48:29.423Z</time></trkpt><trkpt lat="44.1769918" lon="10.410365"><ele>977.0</ele><time>2026-04-29T13:48:32.405Z</time></trkpt><trkpt lat="44.1769963" lon="10.4104592"><ele>977.0</ele><time>2026-04-29T13:48:34.418Z</time></trkpt><trkpt lat="44.1770172" lon="10.4105511"><ele>977.0000000000001</ele><time>2026-04-29T13:48:36.412Z</time></trkpt><trkpt lat="44.1770686" lon="10.4106464"><ele>977.0</ele><time>2026-04-29T13:48:39.402Z</time></trkpt><trkpt lat="44.1771294" lon="10.410713"><ele>976.6666666666667</ele><time>2026-04-29T13:48:42.416Z</time></trkpt><trkpt lat="44.1771991" lon="10.4107794"><ele>976.3333333333334</ele><time>2026-04-29T13:48:45.404Z</time></trkpt><trkpt lat="44.1772655" lon="10.410845"><ele>976.0</ele><time>2026-04-29T13:48:48.415Z</time></trkpt><trkpt lat="44.1773262" lon="10.4109112"><ele>975.6666666666667</ele><time>2026-04-29T13:48:51.418Z</time></trkpt><trkpt lat="44.1773784" lon="10.4109844"><ele>975.3333333333334</ele><time>2026-04-29T13:48:54.411Z</time></trkpt><trkpt lat="44.1774272" lon="10.4110791"><ele>975.0</ele><time>2026-04-29T13:48:58.402Z</time></trkpt><trkpt lat="44.1774695" lon="10.4111612"><ele>979.8333333333334</ele><time>2026-04-29T13:49:01.408Z</time></trkpt><trkpt lat="44.1775141" lon="10.4112533"><ele>984.6666666666667</ele><time>2026-04-29T13:49:04.411Z</time></trkpt><trkpt lat="44.1775455" lon="10.4113619"><ele>989.5</ele><time>2026-04-29T13:49:07.412Z</time></trkpt><trkpt lat="44.1775571" lon="10.4114712"><ele>994.3333333333334</ele><time>2026-04-29T13:49:10.405Z</time></trkpt><trkpt lat="44.1775382" lon="10.4115723"><ele>999.1666666666667</ele><time>2026-04-29T13:49:14.401Z</time></trkpt><trkpt lat="44.1774989" lon="10.4116441"><ele>1004.0</ele><time>2026-04-29T13:49:17.42Z</time></trkpt><trkpt lat="44.177461" lon="10.4117506"><ele>1004.0000000000001</ele><time>2026-04-29T13:49:20.404Z</time></trkpt><trkpt lat="44.1774425" lon="10.4118784"><ele>1004.0</ele><time>2026-04-29T13:49:23.427Z</time></trkpt><trkpt lat="44.1774603" lon="10.4119812"><ele>1004.0</ele><time>2026-04-29T13:49:25.407Z</time></trkpt><trkpt lat="44.1774907" lon="10.4120935"><ele>1004.0</ele><time>2026-04-29T13:49:28.407Z</time></trkpt><trkpt lat="44.1775324" lon="10.4122063"><ele>1004.0000000000001</ele><time>2026-04-29T13:49:31.409Z</time></trkpt><trkpt lat="44.1775766" lon="10.4123134"><ele>1004.0</ele><time>2026-04-29T13:49:34.421Z</time></trkpt><trkpt lat="44.1776234" lon="10.4124115"><ele>1003.3333333333334</ele><time>2026-04-29T13:49:37.421Z</time></trkpt><trkpt lat="44.177656" lon="10.412514"><ele>1002.6666666666667</ele><time>2026-04-29T13:49:40.416Z</time></trkpt><trkpt lat="44.1776987" lon="10.4126003"><ele>1002.0</ele><time>2026-04-29T13:49:43.408Z</time></trkpt><trkpt lat="44.1777446" lon="10.4126788"><ele>1001.3333333333333</ele><time>2026-04-29T13:49:46.408Z</time></trkpt><trkpt lat="44.1777966" lon="10.4127445"><ele>1000.6666666666666</ele><time>2026-04-29T13:49:49.413Z</time></trkpt><trkpt lat="44.1778572" lon="10.4128032"><ele>1000.0</ele><time>2026-04-29T13:49:52.41Z</time></trkpt><trkpt lat="44.1779134" lon="10.4128858"><ele>1000.0</ele><time>2026-04-29T13:49:55.43Z</time></trkpt><trkpt lat="44.1779622" lon="10.4129542"><ele>1000.0</ele><time>2026-04-29T13:49:58.408Z</time></trkpt><trkpt lat="44.1780248" lon="10.4129178"><ele>1000.0</ele><time>2026-04-29T13:50:01.412Z</time></trkpt><trkpt lat="44.1780373" lon="10.4128188"><ele>1000.0</ele><time>2026-04-29T13:50:04.414Z</time></trkpt><trkpt lat="44.1779865" lon="10.4127173"><ele>1000.0</ele><time>2026-04-29T13:50:07.398Z</time></trkpt><trkpt lat="44.1779315" lon="10.4126593"><ele>1000.0</ele><time>2026-04-29T13:50:10.41Z</time></trkpt><trkpt lat="44.1778904" lon="10.4125856"><ele>1000.0</ele><time>2026-04-29T13:50:13.402Z</time></trkpt><trkpt lat="44.1778425" lon="10.4124958"><ele>1000.0</ele><time>2026-04-29T13:50:16.408Z</time></trkpt><trkpt lat="44.1778211" lon="10.4124063"><ele>1000.0</ele><time>2026-04-29T13:50:19.409Z</time></trkpt><trkpt lat="44.1778131" lon="10.4123099"><ele>1000.0</ele><time>2026-04-29T13:50:22.411Z</time></trkpt><trkpt lat="44.1778137" lon="10.412208"><ele>1000.0</ele><time>2026-04-29T13:50:25.418Z</time></trkpt><trkpt lat="44.1778125" lon="10.4120953"><ele>1000.0</ele><time>2026-04-29T13:50:28.401Z</time></trkpt><trkpt lat="44.1778071" lon="10.4119914"><ele>1000.0</ele><time>2026-04-29T13:50:31.418Z</time></trkpt><trkpt lat="44.1778194" lon="10.4118909"><ele>1000.0</ele><time>2026-04-29T13:50:35.408Z</time></trkpt><trkpt lat="44.1778397" lon="10.4117934"><ele>1000.6666666666666</ele><time>2026-04-29T13:50:38.425Z</time></trkpt><trkpt lat="44.1778712" lon="10.4116828"><ele>1001.3333333333333</ele><time>2026-04-29T13:50:41.417Z</time></trkpt><trkpt lat="44.1779178" lon="10.4115779"><ele>1002.0</ele><time>2026-04-29T13:50:44.404Z</time></trkpt><trkpt lat="44.1779682" lon="10.4114837"><ele>1002.6666666666667</ele><time>2026-04-29T13:50:47.408Z</time></trkpt><trkpt lat="44.1780018" lon="10.4113839"><ele>1003.3333333333334</ele><time>2026-04-29T13:50:50.405Z</time></trkpt><trkpt lat="44.1780366" lon="10.4112698"><ele>1004.0</ele><time>2026-04-29T13:50:53.41Z</time></trkpt><trkpt lat="44.1780418" lon="10.4111408"><ele>1004.2857142857142</ele><time>2026-04-29T13:50:56.417Z</time></trkpt><trkpt lat="44.178027" lon="10.4110194"><ele>1004.5714285714286</ele><time>2026-04-29T13:50:59.414Z</time></trkpt><trkpt lat="44.1780105" lon="10.4109238"><ele>1004.8571428571429</ele><time>2026-04-29T13:51:01.407Z</time></trkpt><trkpt lat="44.1779913" lon="10.4108322"><ele>1005.1428571428571</ele><time>2026-04-29T13:51:03.418Z</time></trkpt><trkpt lat="44.1779729" lon="10.4107403"><ele>1005.4285714285716</ele><time>2026-04-29T13:51:05.418Z</time></trkpt><trkpt lat="44.1779518" lon="10.4106518"><ele>1005.7142857142858</ele><time>2026-04-29T13:51:07.403Z</time></trkpt><trkpt lat="44.1779233" lon="10.4105472"><ele>1006.0</ele><time>2026-04-29T13:51:10.416Z</time></trkpt><trkpt lat="44.1778907" lon="10.4104325"><ele>1005.9999999999999</ele><time>2026-04-29T13:51:13.405Z</time></trkpt><trkpt lat="44.177864" lon="10.4103435"><ele>1006.0</ele><time>2026-04-29T13:51:15.411Z</time></trkpt><trkpt lat="44.1778519" lon="10.4102281"><ele>1006.0</ele><time>2026-04-29T13:51:18.405Z</time></trkpt><trkpt lat="44.1778677" lon="10.4101134"><ele>1006.0</ele><time>2026-04-29T13:51:21.404Z</time></trkpt><trkpt lat="44.1778934" lon="10.4099913"><ele>1005.9999999999999</ele><time>2026-04-29T13:51:24.407Z</time></trkpt><trkpt lat="44.177925" lon="10.409873"><ele>1006.0</ele><time>2026-04-29T13:51:27.401Z</time></trkpt><trkpt lat="44.177944" lon="10.4097821"><ele>1006.0</ele><time>2026-04-29T13:51:29.413Z</time></trkpt><trkpt lat="44.1779576" lon="10.4096961"><ele>1006.0000000000001</ele><time>2026-04-29T13:51:31.424Z</time></trkpt><trkpt lat="44.1779658" lon="10.4095662"><ele>1006.0</ele><time>2026-04-29T13:51:34.405Z</time></trkpt><trkpt lat="44.177949" lon="10.4094738"><ele>1006.0</ele><time>2026-04-29T13:51:36.404Z</time></trkpt><trkpt lat="44.1779255" lon="10.4093889"><ele>1006.0000000000001</ele><time>2026-04-29T13:51:38.41Z</time></trkpt><trkpt lat="44.1778978" lon="10.4093086"><ele>1006.0</ele><time>2026-04-29T13:51:40.401Z</time></trkpt><trkpt lat="44.1778531" lon="10.4091973"><ele>1006.0</ele><time>2026-04-29T13:51:43.407Z</time></trkpt><trkpt lat="44.1778174" lon="10.4091201"><ele>1007.6666666666666</ele><time>2026-04-29T13:51:45.408Z</time></trkpt><trkpt lat="44.1777806" lon="10.4090096"><ele>1009.3333333333333</ele><time>2026-04-29T13:51:48.409Z</time></trkpt><trkpt lat="44.1777599" lon="10.4089083"><ele>1011.0</ele><time>2026-04-29T13:51:51.415Z</time></trkpt><trkpt lat="44.1777586" lon="10.4088119"><ele>1012.6666666666667</ele><time>2026-04-29T13:51:54.425Z</time></trkpt><trkpt lat="44.1777599" lon="10.4086908"><ele>1014.3333333333334</ele><time>2026-04-29T13:51:57.408Z</time></trkpt><trkpt lat="44.1777628" lon="10.4085853"><ele>1016.0</ele><time>2026-04-29T13:51:59.404Z</time></trkpt><trkpt lat="44.1777694" lon="10.408496"><ele>1016.0000000000001</ele><time>2026-04-29T13:52:01.406Z</time></trkpt><trkpt lat="44.1777759" lon="10.4083648"><ele>1016.0</ele><time>2026-04-29T13:52:04.407Z</time></trkpt><trkpt lat="44.1777967" lon="10.4082437"><ele>1016.0</ele><time>2026-04-29T13:52:07.412Z</time></trkpt><trkpt lat="44.1778257" lon="10.4081642"><ele>1016.0</ele><time>2026-04-29T13:52:09.401Z</time></trkpt><trkpt lat="44.177861" lon="10.4080899"><ele>1016.0000000000001</ele><time>2026-04-29T13:52:11.418Z</time></trkpt><trkpt lat="44.1779168" lon="10.4079867"><ele>1016.0</ele><time>2026-04-29T13:52:14.416Z</time></trkpt><trkpt lat="44.177956" lon="10.407918"><ele>1016.0</ele><time>2026-04-29T13:52:16.411Z</time></trkpt><trkpt lat="44.1779997" lon="10.4078538"><ele>1016.0</ele><time>2026-04-29T13:52:18.418Z</time></trkpt><trkpt lat="44.1780448" lon="10.4077858"><ele>1016.0</ele><time>2026-04-29T13:52:20.417Z</time></trkpt><trkpt lat="44.1780841" lon="10.4077092"><ele>1016.0</ele><time>2026-04-29T13:52:22.406Z</time></trkpt><trkpt lat="44.1781251" lon="10.4075918"><ele>1016.0</ele><time>2026-04-29T13:52:25.406Z</time></trkpt><trkpt lat="44.1781398" lon="10.4074956"><ele>1016.0</ele><time>2026-04-29T13:52:27.419Z</time></trkpt><trkpt lat="44.1781487" lon="10.4074015"><ele>1016.0</ele><time>2026-04-29T13:52:29.423Z</time></trkpt><trkpt lat="44.1781567" lon="10.4073045"><ele>1016.0</ele><time>2026-04-29T13:52:31.411Z</time></trkpt><trkpt lat="44.1781639" lon="10.4072031"><ele>1016.0</ele><time>2026-04-29T13:52:33.404Z</time></trkpt><trkpt lat="44.1781735" lon="10.4070983"><ele>1016.0</ele><time>2026-04-29T13:52:35.41Z</time></trkpt><trkpt lat="44.1781899" lon="10.4070039"><ele>1016.0</ele><time>2026-04-29T13:52:37.41Z</time></trkpt><trkpt lat="44.1782077" lon="10.4069062"><ele>1016.0</ele><time>2026-04-29T13:52:39.409Z</time></trkpt><trkpt lat="44.1782283" lon="10.4068153"><ele>1016.0</ele><time>2026-04-29T13:52:41.412Z</time></trkpt><trkpt lat="44.1782525" lon="10.4067278"><ele>1016.0</ele><time>2026-04-29T13:52:43.419Z</time></trkpt><trkpt lat="44.1782765" lon="10.4066381"><ele>1018.2857142857143</ele><time>2026-04-29T13:52:45.411Z</time></trkpt><trkpt lat="44.1783026" lon="10.4065483"><ele>1020.5714285714284</ele><time>2026-04-29T13:52:47.409Z</time></trkpt><trkpt lat="44.1783265" lon="10.4064602"><ele>1022.8571428571428</ele><time>2026-04-29T13:52:49.421Z</time></trkpt><trkpt lat="44.1783488" lon="10.406375"><ele>1025.142857142857</ele><time>2026-04-29T13:52:51.402Z</time></trkpt><trkpt lat="44.1783796" lon="10.4062865"><ele>1027.4285714285713</ele><time>2026-04-29T13:52:53.401Z</time></trkpt><trkpt lat="44.1784204" lon="10.4062053"><ele>1029.7142857142856</ele><time>2026-04-29T13:52:55.419Z</time></trkpt><trkpt lat="44.1784704" lon="10.406143"><ele>1032.0</ele><time>2026-04-29T13:52:57.405Z</time></trkpt><trkpt lat="44.1785559" lon="10.4060875"><ele>1032.0</ele><time>2026-04-29T13:53:00.419Z</time></trkpt><trkpt lat="44.1786233" lon="10.4060936"><ele>1032.0</ele><time>2026-04-29T13:53:02.401Z</time></trkpt><trkpt lat="44.1786966" lon="10.4061456"><ele>1032.0</ele><time>2026-04-29T13:53:05.427Z</time></trkpt><trkpt lat="44.1787526" lon="10.4062336"><ele>1032.0</ele><time>2026-04-29T13:53:08.426Z</time></trkpt><trkpt lat="44.1788035" lon="10.4063336"><ele>1032.0</ele><time>2026-04-29T13:53:11.404Z</time></trkpt><trkpt lat="44.1788607" lon="10.4064204"><ele>1032.0</ele><time>2026-04-29T13:53:14.408Z</time></trkpt><trkpt lat="44.1789254" lon="10.4065106"><ele>1034.1666666666667</ele><time>2026-04-29T13:53:17.407Z</time></trkpt><trkpt lat="44.1789773" lon="10.4066089"><ele>1036.3333333333333</ele><time>2026-04-29T13:53:20.408Z</time></trkpt><trkpt lat="44.1790278" lon="10.4066982"><ele>1038.5</ele><time>2026-04-29T13:53:23.407Z</time></trkpt><trkpt lat="44.1790814" lon="10.4067711"><ele>1040.6666666666665</ele><time>2026-04-29T13:53:26.395Z</time></trkpt><trkpt lat="44.1791675" lon="10.4068198"><ele>1042.8333333333333</ele><time>2026-04-29T13:53:29.411Z</time></trkpt><trkpt lat="44.1792398" lon="10.4068588"><ele>1045.0</ele><time>2026-04-29T13:53:31.422Z</time></trkpt><trkpt lat="44.1793153" lon="10.40691"><ele>1045.0</ele><time>2026-04-29T13:53:33.417Z</time></trkpt><trkpt lat="44.1793875" lon="10.4069625"><ele>1045.0</ele><time>2026-04-29T13:53:35.418Z</time></trkpt><trkpt lat="44.1794724" lon="10.4070119"><ele>1045.0</ele><time>2026-04-29T13:53:38.401Z</time></trkpt><trkpt lat="44.1795312" lon="10.4070441"><ele>1045.0</ele><time>2026-04-29T13:53:40.409Z</time></trkpt><trkpt lat="44.1796137" lon="10.4070958"><ele>1045.0</ele><time>2026-04-29T13:53:43.415Z</time></trkpt><trkpt lat="44.1796889" lon="10.407175"><ele>1045.0</ele><time>2026-04-29T13:53:46.409Z</time></trkpt><trkpt lat="44.1797441" lon="10.407227"><ele>1048.5</ele><time>2026-04-29T13:53:48.407Z</time></trkpt><trkpt lat="44.1797995" lon="10.4072747"><ele>1052.0</ele><time>2026-04-29T13:53:50.399Z</time></trkpt><trkpt lat="44.1798747" lon="10.407341"><ele>1055.5</ele><time>2026-04-29T13:53:53.399Z</time></trkpt><trkpt lat="44.1799493" lon="10.4074126"><ele>1059.0</ele><time>2026-04-29T13:53:56.399Z</time></trkpt><trkpt lat="44.1800292" lon="10.4074601"><ele>1062.5</ele><time>2026-04-29T13:53:59.403Z</time></trkpt><trkpt lat="44.180119" lon="10.4075008"><ele>1066.0</ele><time>2026-04-29T13:54:02.397Z</time></trkpt><trkpt lat="44.180185" lon="10.4075258"><ele>1066.0</ele><time>2026-04-29T13:54:04.411Z</time></trkpt><trkpt lat="44.1802551" lon="10.407552"><ele>1066.0</ele><time>2026-04-29T13:54:06.41Z</time></trkpt><trkpt lat="44.1803165" lon="10.4075735"><ele>1066.0</ele><time>2026-04-29T13:54:08.414Z</time></trkpt><trkpt lat="44.1803791" lon="10.4075961"><ele>1066.0</ele><time>2026-04-29T13:54:10.401Z</time></trkpt><trkpt lat="44.1804601" lon="10.40763"><ele>1066.0</ele><time>2026-04-29T13:54:13.409Z</time></trkpt><trkpt lat="44.1805264" lon="10.4076543"><ele>1066.0</ele><time>2026-04-29T13:54:15.403Z</time></trkpt><trkpt lat="44.1805892" lon="10.4076891"><ele>1066.0</ele><time>2026-04-29T13:54:17.4Z</time></trkpt><trkpt lat="44.1806518" lon="10.4077272"><ele>1063.0</ele><time>2026-04-29T13:54:19.409Z</time></trkpt><trkpt lat="44.1807132" lon="10.4077705"><ele>1060.0</ele><time>2026-04-29T13:54:21.427Z</time></trkpt><trkpt lat="44.1807746" lon="10.4078159"><ele>1057.0</ele><time>2026-04-29T13:54:23.408Z</time></trkpt><trkpt lat="44.1808401" lon="10.4078583"><ele>1054.0</ele><time>2026-04-29T13:54:25.41Z</time></trkpt><trkpt lat="44.1809069" lon="10.4078991"><ele>1051.0</ele><time>2026-04-29T13:54:27.405Z</time></trkpt><trkpt lat="44.1809756" lon="10.4079281"><ele>1048.0</ele><time>2026-04-29T13:54:29.415Z</time></trkpt><trkpt lat="44.1810465" lon="10.4079343"><ele>1045.0</ele><time>2026-04-29T13:54:31.418Z</time></trkpt><trkpt lat="44.1811151" lon="10.407939"><ele>1045.0</ele><time>2026-04-29T13:54:33.422Z</time></trkpt><trkpt lat="44.1811862" lon="10.4079408"><ele>1045.0</ele><time>2026-04-29T13:54:35.422Z</time></trkpt><trkpt lat="44.1812527" lon="10.4079467"><ele>1045.0</ele><time>2026-04-29T13:54:37.413Z</time></trkpt><trkpt lat="44.1813221" lon="10.4079491"><ele>1045.0</ele><time>2026-04-29T13:54:39.427Z</time></trkpt><trkpt lat="44.1813896" lon="10.4079464"><ele>1045.0</ele><time>2026-04-29T13:54:41.417Z</time></trkpt><trkpt lat="44.1814553" lon="10.4079418"><ele>1045.0</ele><time>2026-04-29T13:54:43.404Z</time></trkpt><trkpt lat="44.1815201" lon="10.4079363"><ele>1045.0</ele><time>2026-04-29T13:54:45.414Z</time></trkpt><trkpt lat="44.1816144" lon="10.4079269"><ele>1044.0</ele><time>2026-04-29T13:54:48.403Z</time></trkpt><trkpt lat="44.1816787" lon="10.4079386"><ele>1043.0</ele><time>2026-04-29T13:54:50.399Z</time></trkpt><trkpt lat="44.1817402" lon="10.4079591"><ele>1042.0</ele><time>2026-04-29T13:54:52.424Z</time></trkpt><trkpt lat="44.1818222" lon="10.4080142"><ele>1041.0</ele><time>2026-04-29T13:54:55.408Z</time></trkpt><trkpt lat="44.1818755" lon="10.4080664"><ele>1040.0</ele><time>2026-04-29T13:54:57.415Z</time></trkpt><trkpt lat="44.1819484" lon="10.4081462"><ele>1039.0</ele><time>2026-04-29T13:55:00.425Z</time></trkpt><trkpt lat="44.1820234" lon="10.4082228"><ele>1041.8571428571427</ele><time>2026-04-29T13:55:03.403Z</time></trkpt><trkpt lat="44.1820826" lon="10.408258"><ele>1044.7142857142858</ele><time>2026-04-29T13:55:05.408Z</time></trkpt><trkpt lat="44.1821456" lon="10.4082821"><ele>1047.5714285714284</ele><time>2026-04-29T13:55:07.414Z</time></trkpt><trkpt lat="44.1822082" lon="10.4083007"><ele>1050.4285714285713</ele><time>2026-04-29T13:55:09.412Z</time></trkpt><trkpt lat="44.1822751" lon="10.4083048"><ele>1053.2857142857142</ele><time>2026-04-29T13:55:11.408Z</time></trkpt><trkpt lat="44.1823423" lon="10.4083045"><ele>1056.142857142857</ele><time>2026-04-29T13:55:13.415Z</time></trkpt><trkpt lat="44.1824067" lon="10.4083072"><ele>1059.0</ele><time>2026-04-29T13:55:15.406Z</time></trkpt><trkpt lat="44.1824698" lon="10.4083069"><ele>1059.0</ele><time>2026-04-29T13:55:17.398Z</time></trkpt><trkpt lat="44.1825385" lon="10.4083033"><ele>1059.0</ele><time>2026-04-29T13:55:19.396Z</time></trkpt><trkpt lat="44.1826047" lon="10.4083025"><ele>1059.0</ele><time>2026-04-29T13:55:21.409Z</time></trkpt><trkpt lat="44.1826953" lon="10.4083057"><ele>1059.0</ele><time>2026-04-29T13:55:24.411Z</time></trkpt><trkpt lat="44.1827848" lon="10.4083286"><ele>1059.0</ele><time>2026-04-29T13:55:27.405Z</time></trkpt><trkpt lat="44.1828535" lon="10.4083475"><ele>1059.0</ele><time>2026-04-29T13:55:29.407Z</time></trkpt><trkpt lat="44.1829167" lon="10.4083797"><ele>1059.0</ele><time>2026-04-29T13:55:31.404Z</time></trkpt><trkpt lat="44.1829762" lon="10.4084146"><ele>1059.0</ele><time>2026-04-29T13:55:33.407Z</time></trkpt><trkpt lat="44.1830326" lon="10.4084553"><ele>1059.0</ele><time>2026-04-29T13:55:35.409Z</time></trkpt><trkpt lat="44.1830959" lon="10.40849"><ele>1059.0</ele><time>2026-04-29T13:55:37.411Z</time></trkpt><trkpt lat="44.1831549" lon="10.4085216"><ele>1059.0</ele><time>2026-04-29T13:55:39.411Z</time></trkpt><trkpt lat="44.1832176" lon="10.4085523"><ele>1059.0</ele><time>2026-04-29T13:55:41.409Z</time></trkpt><trkpt lat="44.1832819" lon="10.4085788"><ele>1059.0</ele><time>2026-04-29T13:55:43.406Z</time></trkpt><trkpt lat="44.1833476" lon="10.4085861"><ele>1059.4285714285713</ele><time>2026-04-29T13:55:45.411Z</time></trkpt><trkpt lat="44.1834117" lon="10.4085883"><ele>1059.8571428571427</ele><time>2026-04-29T13:55:47.405Z</time></trkpt><trkpt lat="44.1834746" lon="10.4086012"><ele>1060.2857142857142</ele><time>2026-04-29T13:55:49.412Z</time></trkpt><trkpt lat="44.183573" lon="10.4086053"><ele>1060.7142857142858</ele><time>2026-04-29T13:55:52.405Z</time></trkpt><trkpt lat="44.1836378" lon="10.4085919"><ele>1061.1428571428573</ele><time>2026-04-29T13:55:54.348Z</time></trkpt><trkpt lat="44.1837046" lon="10.4085627"><ele>1061.5714285714287</ele><time>2026-04-29T13:55:56.399Z</time></trkpt><trkpt lat="44.1837727" lon="10.4085492"><ele>1062.0</ele><time>2026-04-29T13:55:58.42Z</time></trkpt><trkpt lat="44.1838388" lon="10.4085336"><ele>1062.0</ele><time>2026-04-29T13:56:00.409Z</time></trkpt><trkpt lat="44.1839058" lon="10.4085085"><ele>1062.0</ele><time>2026-04-29T13:56:02.42Z</time></trkpt><trkpt lat="44.1839709" lon="10.4084943"><ele>1062.0</ele><time>2026-04-29T13:56:04.403Z</time></trkpt><trkpt lat="44.1840387" lon="10.408486"><ele>1062.0</ele><time>2026-04-29T13:56:06.414Z</time></trkpt><trkpt lat="44.1841034" lon="10.4084753"><ele>1062.0</ele><time>2026-04-29T13:56:08.416Z</time></trkpt><trkpt lat="44.1841675" lon="10.4084597"><ele>1062.0</ele><time>2026-04-29T13:56:10.371Z</time></trkpt><trkpt lat="44.1842318" lon="10.4084472"><ele>1062.0</ele><time>2026-04-29T13:56:12.371Z</time></trkpt><trkpt lat="44.184324" lon="10.4084515"><ele>1063.0</ele><time>2026-04-29T13:56:15.405Z</time></trkpt><trkpt lat="44.1843872" lon="10.4084467"><ele>1064.0</ele><time>2026-04-29T13:56:17.403Z</time></trkpt><trkpt lat="44.1844486" lon="10.4084229"><ele>1065.0</ele><time>2026-04-29T13:56:19.334Z</time></trkpt><trkpt lat="44.1845093" lon="10.4083756"><ele>1066.0</ele><time>2026-04-29T13:56:21.406Z</time></trkpt><trkpt lat="44.1845638" lon="10.4083196"><ele>1067.0</ele><time>2026-04-29T13:56:23.396Z</time></trkpt><trkpt lat="44.184615" lon="10.4082532"><ele>1068.0</ele><time>2026-04-29T13:56:25.418Z</time></trkpt><trkpt lat="44.1846534" lon="10.4081778"><ele>1069.0</ele><time>2026-04-29T13:56:27.4Z</time></trkpt><trkpt lat="44.1846809" lon="10.4080976"><ele>1069.0</ele><time>2026-04-29T13:56:29.422Z</time></trkpt><trkpt lat="44.1847008" lon="10.4080127"><ele>1069.0</ele><time>2026-04-29T13:56:31.408Z</time></trkpt><trkpt lat="44.1847395" lon="10.4078937"><ele>1069.0</ele><time>2026-04-29T13:56:34.413Z</time></trkpt><trkpt lat="44.1847825" lon="10.4077862"><ele>1069.0</ele><time>2026-04-29T13:56:37.413Z</time></trkpt><trkpt lat="44.1848338" lon="10.4076772"><ele>1069.0</ele><time>2026-04-29T13:56:40.419Z</time></trkpt><trkpt lat="44.1848948" lon="10.4076327"><ele>1069.0</ele><time>2026-04-29T13:56:42.404Z</time></trkpt><trkpt lat="44.1849628" lon="10.4076032"><ele>1066.5</ele><time>2026-04-29T13:56:44.405Z</time></trkpt><trkpt lat="44.1850326" lon="10.407592"><ele>1064.0</ele><time>2026-04-29T13:56:46.401Z</time></trkpt><trkpt lat="44.1850958" lon="10.407613"><ele>1061.5</ele><time>2026-04-29T13:56:48.424Z</time></trkpt><trkpt lat="44.1851854" lon="10.4076531"><ele>1059.0</ele><time>2026-04-29T13:56:51.391Z</time></trkpt><trkpt lat="44.1852673" lon="10.4077041"><ele>1056.5</ele><time>2026-04-29T13:56:54.408Z</time></trkpt><trkpt lat="44.1853387" lon="10.4077799"><ele>1054.0</ele><time>2026-04-29T13:56:57.406Z</time></trkpt><trkpt lat="44.1854007" lon="10.4078625"><ele>1054.0</ele><time>2026-04-29T13:57:00.355Z</time></trkpt><trkpt lat="44.1854754" lon="10.4079416"><ele>1054.0</ele><time>2026-04-29T13:57:03.409Z</time></trkpt><trkpt lat="44.1855522" lon="10.408006"><ele>1054.0</ele><time>2026-04-29T13:57:06.4Z</time></trkpt><trkpt lat="44.1856245" lon="10.4080718"><ele>1054.0</ele><time>2026-04-29T13:57:09.404Z</time></trkpt><trkpt lat="44.1856903" lon="10.4081491"><ele>1054.0</ele><time>2026-04-29T13:57:12.425Z</time></trkpt><trkpt lat="44.1857661" lon="10.4082237"><ele>1054.0</ele><time>2026-04-29T13:57:15.411Z</time></trkpt><trkpt lat="44.1858418" lon="10.4082921"><ele>1058.5</ele><time>2026-04-29T13:57:18.372Z</time></trkpt><trkpt lat="44.1859181" lon="10.4083635"><ele>1063.0</ele><time>2026-04-29T13:57:21.431Z</time></trkpt><trkpt lat="44.1859934" lon="10.4084199"><ele>1067.5</ele><time>2026-04-29T13:57:24.415Z</time></trkpt><trkpt lat="44.1860645" lon="10.4084745"><ele>1072.0</ele><time>2026-04-29T13:57:27.412Z</time></trkpt><trkpt lat="44.1861332" lon="10.4085374"><ele>1076.5</ele><time>2026-04-29T13:57:30.414Z</time></trkpt><trkpt lat="44.1862066" lon="10.4086039"><ele>1081.0</ele><time>2026-04-29T13:57:33.41Z</time></trkpt><trkpt lat="44.1862799" lon="10.4086691"><ele>1081.0</ele><time>2026-04-29T13:57:36.415Z</time></trkpt><trkpt lat="44.1863593" lon="10.4087384"><ele>1081.0</ele><time>2026-04-29T13:57:39.421Z</time></trkpt><trkpt lat="44.1864212" lon="10.4088266"><ele>1081.0</ele><time>2026-04-29T13:57:42.417Z</time></trkpt><trkpt lat="44.1864786" lon="10.4089252"><ele>1081.0</ele><time>2026-04-29T13:57:45.408Z</time></trkpt><trkpt lat="44.1865116" lon="10.4090391"><ele>1081.0</ele><time>2026-04-29T13:57:48.398Z</time></trkpt><trkpt lat="44.1865433" lon="10.4091562"><ele>1080.5</ele><time>2026-04-29T13:57:51.405Z</time></trkpt><trkpt lat="44.1865763" lon="10.4092732"><ele>1080.0</ele><time>2026-04-29T13:57:54.403Z</time></trkpt><trkpt lat="44.1866029" lon="10.4093896"><ele>1079.5</ele><time>2026-04-29T13:57:57.411Z</time></trkpt><trkpt lat="44.1866337" lon="10.4095055"><ele>1079.0</ele><time>2026-04-29T13:58:00.395Z</time></trkpt><trkpt lat="44.1866624" lon="10.4096249"><ele>1078.5</ele><time>2026-04-29T13:58:03.401Z</time></trkpt><trkpt lat="44.1866724" lon="10.4097509"><ele>1078.0</ele><time>2026-04-29T13:58:06.397Z</time></trkpt><trkpt lat="44.1866824" lon="10.4098751"><ele>1080.0</ele><time>2026-04-29T13:58:09.407Z</time></trkpt><trkpt lat="44.1867037" lon="10.4100019"><ele>1082.0</ele><time>2026-04-29T13:58:12.409Z</time></trkpt><trkpt lat="44.1867199" lon="10.4100887"><ele>1084.0</ele><time>2026-04-29T13:58:14.396Z</time></trkpt><trkpt lat="44.186733" lon="10.410176"><ele>1086.0</ele><time>2026-04-29T13:58:16.427Z</time></trkpt><trkpt lat="44.1867461" lon="10.4102648"><ele>1088.0</ele><time>2026-04-29T13:58:18.407Z</time></trkpt><trkpt lat="44.1867611" lon="10.4103545"><ele>1090.0</ele><time>2026-04-29T13:58:20.424Z</time></trkpt><trkpt lat="44.1867794" lon="10.4104804"><ele>1092.0</ele><time>2026-04-29T13:58:23.423Z</time></trkpt><trkpt lat="44.1867977" lon="10.4105693"><ele>1095.5</ele><time>2026-04-29T13:58:25.406Z</time></trkpt><trkpt lat="44.1868203" lon="10.4106548"><ele>1099.0</ele><time>2026-04-29T13:58:27.405Z</time></trkpt><trkpt lat="44.186851" lon="10.4107792"><ele>1102.5</ele><time>2026-04-29T13:58:30.413Z</time></trkpt><trkpt lat="44.1868756" lon="10.4109002"><ele>1106.0</ele><time>2026-04-29T13:58:33.416Z</time></trkpt><trkpt lat="44.186896" lon="10.4110225"><ele>1109.5</ele><time>2026-04-29T13:58:36.416Z</time></trkpt><trkpt lat="44.186924" lon="10.4111394"><ele>1113.0</ele><time>2026-04-29T13:58:39.399Z</time></trkpt><trkpt lat="44.1869558" lon="10.4112588"><ele>1115.4</ele><time>2026-04-29T13:58:42.398Z</time></trkpt><trkpt lat="44.1869911" lon="10.4113785"><ele>1117.8</ele><time>2026-04-29T13:58:45.416Z</time></trkpt><trkpt lat="44.1870257" lon="10.411501"><ele>1120.2</ele><time>2026-04-29T13:58:48.41Z</time></trkpt><trkpt lat="44.1870511" lon="10.411622"><ele>1122.6</ele><time>2026-04-29T13:58:51.419Z</time></trkpt><trkpt lat="44.1870631" lon="10.4117493"><ele>1125.0</ele><time>2026-04-29T13:58:54.406Z</time></trkpt><trkpt lat="44.1870619" lon="10.4118765"><ele>1125.0</ele><time>2026-04-29T13:58:57.396Z</time></trkpt><trkpt lat="44.1870605" lon="10.411979"><ele>1125.0</ele><time>2026-04-29T13:58:59.4Z</time></trkpt><trkpt lat="44.1870573" lon="10.4121114"><ele>1125.0</ele><time>2026-04-29T13:59:02.41Z</time></trkpt><trkpt lat="44.1870571" lon="10.4122015"><ele>1125.0</ele><time>2026-04-29T13:59:04.41Z</time></trkpt><trkpt lat="44.1870636" lon="10.4122889"><ele>1125.0</ele><time>2026-04-29T13:59:06.408Z</time></trkpt><trkpt lat="44.1870703" lon="10.4123762"><ele>1125.0</ele><time>2026-04-29T13:59:08.401Z</time></trkpt><trkpt lat="44.1870791" lon="10.4124645"><ele>1125.0</ele><time>2026-04-29T13:59:10.408Z</time></trkpt><trkpt lat="44.187093" lon="10.4125941"><ele>1127.6</ele><time>2026-04-29T13:59:13.406Z</time></trkpt><trkpt lat="44.18713" lon="10.412709"><ele>1130.2</ele><time>2026-04-29T13:59:16.408Z</time></trkpt><trkpt lat="44.1871844" lon="10.4128166"><ele>1132.8</ele><time>2026-04-29T13:59:19.395Z</time></trkpt><trkpt lat="44.1872474" lon="10.4129114"><ele>1135.4</ele><time>2026-04-29T13:59:22.411Z</time></trkpt><trkpt lat="44.1873085" lon="10.4130085"><ele>1138.0</ele><time>2026-04-29T13:59:25.412Z</time></trkpt><trkpt lat="44.1873673" lon="10.4131087"><ele>1131.0</ele><time>2026-04-29T13:59:28.413Z</time></trkpt><trkpt lat="44.1874196" lon="10.4132145"><ele>1124.0</ele><time>2026-04-29T13:59:31.403Z</time></trkpt><trkpt lat="44.1874701" lon="10.4133185"><ele>1117.0</ele><time>2026-04-29T13:59:34.413Z</time></trkpt><trkpt lat="44.1875179" lon="10.4134281"><ele>1110.0</ele><time>2026-04-29T13:59:37.402Z</time></trkpt><trkpt lat="44.1875542" lon="10.4135419"><ele>1103.0</ele><time>2026-04-29T13:59:40.414Z</time></trkpt><trkpt lat="44.1875677" lon="10.413658"><ele>1096.0</ele><time>2026-04-29T13:59:43.399Z</time></trkpt><trkpt lat="44.1875853" lon="10.4137843"><ele>1098.2</ele><time>2026-04-29T13:59:46.414Z</time></trkpt><trkpt lat="44.1876017" lon="10.4139128"><ele>1100.3999999999999</ele><time>2026-04-29T13:59:49.425Z</time></trkpt><trkpt lat="44.1876007" lon="10.4140398"><ele>1102.6</ele><time>2026-04-29T13:59:52.416Z</time></trkpt><trkpt lat="44.1875802" lon="10.4141611"><ele>1104.8</ele><time>2026-04-29T13:59:55.399Z</time></trkpt><trkpt lat="44.1875421" lon="10.4142725"><ele>1107.0</ele><time>2026-04-29T13:59:58.414Z</time></trkpt><trkpt lat="44.1874883" lon="10.4143695"><ele>1107.0</ele><time>2026-04-29T14:00:01.412Z</time></trkpt><trkpt lat="44.1874513" lon="10.4144497"><ele>1107.0</ele><time>2026-04-29T14:00:03.416Z</time></trkpt><trkpt lat="44.1874181" lon="10.4145296"><ele>1107.0</ele><time>2026-04-29T14:00:05.412Z</time></trkpt><trkpt lat="44.1873905" lon="10.4146115"><ele>1107.0</ele><time>2026-04-29T14:00:07.399Z</time></trkpt><trkpt lat="44.1873649" lon="10.4146938"><ele>1107.0</ele><time>2026-04-29T14:00:09.414Z</time></trkpt><trkpt lat="44.1873376" lon="10.4147812"><ele>1107.0</ele><time>2026-04-29T14:00:11.422Z</time></trkpt><trkpt lat="44.1873091" lon="10.4148915"><ele>1107.0</ele><time>2026-04-29T14:00:14.404Z</time></trkpt><trkpt lat="44.187285" lon="10.4149894"><ele>1116.1666666666667</ele><time>2026-04-29T14:00:17.413Z</time></trkpt><trkpt lat="44.1872495" lon="10.4150974"><ele>1125.3333333333333</ele><time>2026-04-29T14:00:20.408Z</time></trkpt><trkpt lat="44.187216" lon="10.4152095"><ele>1134.5</ele><time>2026-04-29T14:00:23.4Z</time></trkpt><trkpt lat="44.1871814" lon="10.4153056"><ele>1143.6666666666665</ele><time>2026-04-29T14:00:26.41Z</time></trkpt><trkpt lat="44.1871518" lon="10.4154093"><ele>1152.8333333333333</ele><time>2026-04-29T14:00:29.395Z</time></trkpt><trkpt lat="44.1871233" lon="10.4155147"><ele>1162.0</ele><time>2026-04-29T14:00:32.417Z</time></trkpt><trkpt lat="44.1870907" lon="10.4156254"><ele>1162.3333333333333</ele><time>2026-04-29T14:00:35.403Z</time></trkpt><trkpt lat="44.1870737" lon="10.4157432"><ele>1162.6666666666665</ele><time>2026-04-29T14:00:38.414Z</time></trkpt><trkpt lat="44.1870659" lon="10.4158582"><ele>1163.0</ele><time>2026-04-29T14:00:41.411Z</time></trkpt><trkpt lat="44.1870876" lon="10.415975"><ele>1163.3333333333333</ele><time>2026-04-29T14:00:44.42Z</time></trkpt><trkpt lat="44.1871112" lon="10.4160571"><ele>1163.6666666666667</ele><time>2026-04-29T14:00:46.411Z</time></trkpt><trkpt lat="44.1871468" lon="10.4161774"><ele>1164.0</ele><time>2026-04-29T14:00:49.44Z</time></trkpt><trkpt lat="44.1871828" lon="10.4162938"><ele>1165.8333333333333</ele><time>2026-04-29T14:00:52.41Z</time></trkpt><trkpt lat="44.1872209" lon="10.4164058"><ele>1167.6666666666667</ele><time>2026-04-29T14:00:55.401Z</time></trkpt><trkpt lat="44.1872532" lon="10.4165117"><ele>1169.5</ele><time>2026-04-29T14:00:58.37Z</time></trkpt><trkpt lat="44.1872837" lon="10.4166294"><ele>1171.3333333333335</ele><time>2026-04-29T14:01:01.394Z</time></trkpt><trkpt lat="44.1873125" lon="10.4167097"><ele>1173.1666666666667</ele><time>2026-04-29T14:01:03.418Z</time></trkpt><trkpt lat="44.1873534" lon="10.4167827"><ele>1175.0</ele><time>2026-04-29T14:01:05.411Z</time></trkpt><trkpt lat="44.1873982" lon="10.4168473"><ele>1167.8333333333335</ele><time>2026-04-29T14:01:07.423Z</time></trkpt><trkpt lat="44.1874633" lon="10.4169131"><ele>1160.6666666666667</ele><time>2026-04-29T14:01:10.418Z</time></trkpt><trkpt lat="44.1875323" lon="10.4169793"><ele>1153.5</ele><time>2026-04-29T14:01:14.41Z</time></trkpt><trkpt lat="44.1875951" lon="10.4170529"><ele>1146.3333333333333</ele><time>2026-04-29T14:01:17.402Z</time></trkpt><trkpt lat="44.1876457" lon="10.4171601"><ele>1139.1666666666665</ele><time>2026-04-29T14:01:20.31Z</time></trkpt><trkpt lat="44.1876602" lon="10.4172863"><ele>1132.0</ele><time>2026-04-29T14:01:23.405Z</time></trkpt><trkpt lat="44.1876524" lon="10.4174102"><ele>1132.0</ele><time>2026-04-29T14:01:26.4Z</time></trkpt><trkpt lat="44.1876252" lon="10.4175217"><ele>1132.0</ele><time>2026-04-29T14:01:29.413Z</time></trkpt><trkpt lat="44.1876105" lon="10.4176436"><ele>1132.0</ele><time>2026-04-29T14:01:32.403Z</time></trkpt><trkpt lat="44.1876172" lon="10.4177312"><ele>1132.0</ele><time>2026-04-29T14:01:34.411Z</time></trkpt><trkpt lat="44.1876667" lon="10.4178381"><ele>1132.0</ele><time>2026-04-29T14:01:37.405Z</time></trkpt><trkpt lat="44.1877226" lon="10.417886"><ele>1132.0</ele><time>2026-04-29T14:01:39.422Z</time></trkpt><trkpt lat="44.1878028" lon="10.4179332"><ele>1132.0</ele><time>2026-04-29T14:01:42.403Z</time></trkpt><trkpt lat="44.1878794" lon="10.417968"><ele>1132.0</ele><time>2026-04-29T14:01:45.396Z</time></trkpt><trkpt lat="44.1879559" lon="10.418028"><ele>1132.0</ele><time>2026-04-29T14:01:48.406Z</time></trkpt><trkpt lat="44.1880108" lon="10.4180776"><ele>1132.0</ele><time>2026-04-29T14:01:50.41Z</time></trkpt><trkpt lat="44.1880892" lon="10.4181437"><ele>1132.0</ele><time>2026-04-29T14:01:53.407Z</time></trkpt><trkpt lat="44.1881703" lon="10.4181945"><ele>1132.0</ele><time>2026-04-29T14:01:56.396Z</time></trkpt><trkpt lat="44.18823" lon="10.4182297"><ele>1131.142857142857</ele><time>2026-04-29T14:01:58.398Z</time></trkpt><trkpt lat="44.1883092" lon="10.4182994"><ele>1130.2857142857144</ele><time>2026-04-29T14:02:01.406Z</time></trkpt><trkpt lat="44.1883565" lon="10.4183713"><ele>1129.4285714285716</ele><time>2026-04-29T14:02:03.406Z</time></trkpt><trkpt lat="44.1883933" lon="10.4184506"><ele>1128.5714285714287</ele><time>2026-04-29T14:02:05.406Z</time></trkpt><trkpt lat="44.1884087" lon="10.4185401"><ele>1127.7142857142858</ele><time>2026-04-29T14:02:07.404Z</time></trkpt><trkpt lat="44.1884251" lon="10.4186316"><ele>1126.857142857143</ele><time>2026-04-29T14:02:09.404Z</time></trkpt><trkpt lat="44.1884308" lon="10.4187194"><ele>1126.0</ele><time>2026-04-29T14:02:11.405Z</time></trkpt><trkpt lat="44.1884363" lon="10.4188092"><ele>1131.3333333333333</ele><time>2026-04-29T14:02:13.418Z</time></trkpt><trkpt lat="44.1884439" lon="10.4188989"><ele>1136.6666666666665</ele><time>2026-04-29T14:02:15.409Z</time></trkpt><trkpt lat="44.1884732" lon="10.4189809"><ele>1142.0</ele><time>2026-04-29T14:02:17.425Z</time></trkpt><trkpt lat="44.1885403" lon="10.4190682"><ele>1147.3333333333333</ele><time>2026-04-29T14:02:20.414Z</time></trkpt><trkpt lat="44.1886151" lon="10.4191409"><ele>1152.6666666666667</ele><time>2026-04-29T14:02:23.411Z</time></trkpt><trkpt lat="44.188675" lon="10.4191769"><ele>1158.0</ele><time>2026-04-29T14:02:25.412Z</time></trkpt><trkpt lat="44.1887641" lon="10.4192135"><ele>1158.0</ele><time>2026-04-29T14:02:28.408Z</time></trkpt><trkpt lat="44.1888529" lon="10.4192362"><ele>1158.0</ele><time>2026-04-29T14:02:31.407Z</time></trkpt><trkpt lat="44.1889432" lon="10.4192508"><ele>1158.0</ele><time>2026-04-29T14:02:34.413Z</time></trkpt><trkpt lat="44.1890206" lon="10.4192768"><ele>1158.0</ele><time>2026-04-29T14:02:37.411Z</time></trkpt><trkpt lat="44.1890979" lon="10.4193322"><ele>1158.0</ele><time>2026-04-29T14:02:40.415Z</time></trkpt><trkpt lat="44.1891676" lon="10.4194194"><ele>1158.0</ele><time>2026-04-29T14:02:43.419Z</time></trkpt><trkpt lat="44.1892135" lon="10.4194845"><ele>1156.5</ele><time>2026-04-29T14:02:45.423Z</time></trkpt><trkpt lat="44.1892598" lon="10.4195491"><ele>1155.0</ele><time>2026-04-29T14:02:47.399Z</time></trkpt><trkpt lat="44.1893269" lon="10.4196367"><ele>1153.5</ele><time>2026-04-29T14:02:50.411Z</time></trkpt><trkpt lat="44.1893816" lon="10.4197117"><ele>1152.0</ele><time>2026-04-29T14:02:53.411Z</time></trkpt><trkpt lat="44.1894461" lon="10.4197868"><ele>1150.5</ele><time>2026-04-29T14:02:56.397Z</time></trkpt><trkpt lat="44.1895067" lon="10.419867"><ele>1149.0</ele><time>2026-04-29T14:02:59.408Z</time></trkpt><trkpt lat="44.1895564" lon="10.4199215"><ele>1149.0</ele><time>2026-04-29T14:03:01.413Z</time></trkpt><trkpt lat="44.1896185" lon="10.4200042"><ele>1149.0</ele><time>2026-04-29T14:03:04.409Z</time></trkpt><trkpt lat="44.1896673" lon="10.4200717"><ele>1149.0</ele><time>2026-04-29T14:03:06.399Z</time></trkpt><trkpt lat="44.1897138" lon="10.4201757"><ele>1149.0</ele><time>2026-04-29T14:03:09.417Z</time></trkpt><trkpt lat="44.1897473" lon="10.4202836"><ele>1149.0</ele><time>2026-04-29T14:03:12.399Z</time></trkpt><trkpt lat="44.1897764" lon="10.4203997"><ele>1149.0</ele><time>2026-04-29T14:03:15.419Z</time></trkpt><trkpt lat="44.1898072" lon="10.4205136"><ele>1145.5</ele><time>2026-04-29T14:03:18.401Z</time></trkpt><trkpt lat="44.1898552" lon="10.4206173"><ele>1142.0</ele><time>2026-04-29T14:03:21.421Z</time></trkpt><trkpt lat="44.1899077" lon="10.4207131"><ele>1138.5</ele><time>2026-04-29T14:03:24.421Z</time></trkpt><trkpt lat="44.1899738" lon="10.4207946"><ele>1135.0</ele><time>2026-04-29T14:03:27.397Z</time></trkpt><trkpt lat="44.1900479" lon="10.420859"><ele>1131.5</ele><time>2026-04-29T14:03:30.401Z</time></trkpt><trkpt lat="44.1901131" lon="10.420877"><ele>1128.0</ele><time>2026-04-29T14:03:33.411Z</time></trkpt><trkpt lat="44.1901824" lon="10.4208785"><ele>1128.0</ele><time>2026-04-29T14:03:36.403Z</time></trkpt><trkpt lat="44.190258" lon="10.4208475"><ele>1128.0</ele><time>2026-04-29T14:03:39.415Z</time></trkpt><trkpt lat="44.1903415" lon="10.4208054"><ele>1128.0</ele><time>2026-04-29T14:03:42.409Z</time></trkpt><trkpt lat="44.1904314" lon="10.4207814"><ele>1128.0</ele><time>2026-04-29T14:03:45.399Z</time></trkpt><trkpt lat="44.190492" lon="10.4207469"><ele>1128.0</ele><time>2026-04-29T14:03:47.396Z</time></trkpt><trkpt lat="44.190575" lon="10.4207015"><ele>1128.0</ele><time>2026-04-29T14:03:50.412Z</time></trkpt><trkpt lat="44.190639" lon="10.420666"><ele>1130.8333333333333</ele><time>2026-04-29T14:03:52.411Z</time></trkpt><trkpt lat="44.1907151" lon="10.4206445"><ele>1133.6666666666667</ele><time>2026-04-29T14:03:54.408Z</time></trkpt><trkpt lat="44.1907953" lon="10.4206181"><ele>1136.5</ele><time>2026-04-29T14:03:56.428Z</time></trkpt><trkpt lat="44.1908828" lon="10.4206018"><ele>1139.3333333333335</ele><time>2026-04-29T14:03:58.406Z</time></trkpt><trkpt lat="44.1909722" lon="10.420598"><ele>1142.1666666666667</ele><time>2026-04-29T14:04:00.418Z</time></trkpt><trkpt lat="44.1910731" lon="10.420593"><ele>1145.0</ele><time>2026-04-29T14:04:02.413Z</time></trkpt><trkpt lat="44.1911993" lon="10.4205691"><ele>1145.0</ele><time>2026-04-29T14:04:04.406Z</time></trkpt><trkpt lat="44.1913121" lon="10.4205266"><ele>1145.0</ele><time>2026-04-29T14:04:06.413Z</time></trkpt><trkpt lat="44.1914129" lon="10.4204544"><ele>1145.0</ele><time>2026-04-29T14:04:08.403Z</time></trkpt><trkpt lat="44.1915132" lon="10.4203973"><ele>1145.0</ele><time>2026-04-29T14:04:10.441Z</time></trkpt><trkpt lat="44.1916107" lon="10.4203515"><ele>1145.0</ele><time>2026-04-29T14:04:12.417Z</time></trkpt><trkpt lat="44.1917047" lon="10.4203143"><ele>1147.0</ele><time>2026-04-29T14:04:14.412Z</time></trkpt><trkpt lat="44.1918037" lon="10.420306"><ele>1149.0</ele><time>2026-04-29T14:04:16.422Z</time></trkpt><trkpt lat="44.1919006" lon="10.4203366"><ele>1151.0</ele><time>2026-04-29T14:04:18.419Z</time></trkpt><trkpt lat="44.1919977" lon="10.4203979"><ele>1153.0</ele><time>2026-04-29T14:04:20.413Z</time></trkpt><trkpt lat="44.1920619" lon="10.4204708"><ele>1155.0</ele><time>2026-04-29T14:04:22.406Z</time></trkpt><trkpt lat="44.1921159" lon="10.4205541"><ele>1155.0</ele><time>2026-04-29T14:04:24.421Z</time></trkpt><trkpt lat="44.192182" lon="10.4206682"><ele>1155.0</ele><time>2026-04-29T14:04:26.417Z</time></trkpt><trkpt lat="44.1922369" lon="10.420781"><ele>1155.0</ele><time>2026-04-29T14:04:28.403Z</time></trkpt><trkpt lat="44.1922728" lon="10.4208816"><ele>1155.0</ele><time>2026-04-29T14:04:30.408Z</time></trkpt><trkpt lat="44.1923011" lon="10.4210017"><ele>1155.0</ele><time>2026-04-29T14:04:32.4Z</time></trkpt><trkpt lat="44.1923115" lon="10.421113"><ele>1155.0</ele><time>2026-04-29T14:04:34.406Z</time></trkpt><trkpt lat="44.1923136" lon="10.4212197"><ele>1155.0</ele><time>2026-04-29T14:04:36.408Z</time></trkpt><trkpt lat="44.1923518" lon="10.4213386"><ele>1155.0</ele><time>2026-04-29T14:04:38.405Z</time></trkpt><trkpt lat="44.1924197" lon="10.4214067"><ele>1155.0</ele><time>2026-04-29T14:04:40.416Z</time></trkpt><trkpt lat="44.1925019" lon="10.4214272"><ele>1155.0</ele><time>2026-04-29T14:04:42.413Z</time></trkpt><trkpt lat="44.1925878" lon="10.4214385"><ele>1155.0</ele><time>2026-04-29T14:04:44.412Z</time></trkpt><trkpt lat="44.1926536" lon="10.4214469"><ele>1155.6666666666667</ele><time>2026-04-29T14:04:46.401Z</time></trkpt><trkpt lat="44.1927386" lon="10.4214951"><ele>1156.3333333333333</ele><time>2026-04-29T14:04:49.412Z</time></trkpt><trkpt lat="44.1928053" lon="10.4215351"><ele>1157.0</ele><time>2026-04-29T14:04:51.414Z</time></trkpt><trkpt lat="44.1928766" lon="10.421567"><ele>1157.6666666666665</ele><time>2026-04-29T14:04:53.416Z</time></trkpt><trkpt lat="44.1929456" lon="10.4215943"><ele>1158.3333333333333</ele><time>2026-04-29T14:04:55.398Z</time></trkpt><trkpt lat="44.1930117" lon="10.4215996"><ele>1159.0</ele><time>2026-04-29T14:04:57.418Z</time></trkpt><trkpt lat="44.1930894" lon="10.4216308"><ele>1159.0000000000002</ele><time>2026-04-29T14:04:59.398Z</time></trkpt><trkpt lat="44.1931642" lon="10.4216672"><ele>1159.0</ele><time>2026-04-29T14:05:01.403Z</time></trkpt><trkpt lat="44.193222" lon="10.4217099"><ele>1159.0</ele><time>2026-04-29T14:05:03.415Z</time></trkpt><trkpt lat="44.1932703" lon="10.4217705"><ele>1159.0</ele><time>2026-04-29T14:05:05.406Z</time></trkpt><trkpt lat="44.1933237" lon="10.4218327"><ele>1159.0</ele><time>2026-04-29T14:05:07.414Z</time></trkpt><trkpt lat="44.1933849" lon="10.4218583"><ele>1159.0000000000002</ele><time>2026-04-29T14:05:09.412Z</time></trkpt><trkpt lat="44.1934567" lon="10.4218573"><ele>1159.0</ele><time>2026-04-29T14:05:11.411Z</time></trkpt><trkpt lat="44.1935206" lon="10.4218414"><ele>1156.3333333333333</ele><time>2026-04-29T14:05:13.414Z</time></trkpt><trkpt lat="44.1935953" lon="10.421833"><ele>1153.6666666666665</ele><time>2026-04-29T14:05:15.416Z</time></trkpt><trkpt lat="44.1936867" lon="10.4218217"><ele>1151.0</ele><time>2026-04-29T14:05:17.398Z</time></trkpt><trkpt lat="44.1937736" lon="10.4218195"><ele>1148.3333333333333</ele><time>2026-04-29T14:05:19.406Z</time></trkpt><trkpt lat="44.1938481" lon="10.4218246"><ele>1145.6666666666667</ele><time>2026-04-29T14:05:21.403Z</time></trkpt><trkpt lat="44.1939258" lon="10.4218212"><ele>1143.0</ele><time>2026-04-29T14:05:23.428Z</time></trkpt><trkpt lat="44.1939904" lon="10.4218381"><ele>1140.1666666666667</ele><time>2026-04-29T14:05:25.408Z</time></trkpt><trkpt lat="44.1940705" lon="10.4218935"><ele>1137.3333333333333</ele><time>2026-04-29T14:05:27.402Z</time></trkpt><trkpt lat="44.1941295" lon="10.4219711"><ele>1134.5</ele><time>2026-04-29T14:05:29.4Z</time></trkpt><trkpt lat="44.1941831" lon="10.4220554"><ele>1131.6666666666665</ele><time>2026-04-29T14:05:31.405Z</time></trkpt><trkpt lat="44.1942285" lon="10.42212"><ele>1128.8333333333333</ele><time>2026-04-29T14:05:33.415Z</time></trkpt><trkpt lat="44.1942916" lon="10.4221809"><ele>1126.0</ele><time>2026-04-29T14:05:35.416Z</time></trkpt><trkpt lat="44.1943598" lon="10.42223"><ele>1133.5</ele><time>2026-04-29T14:05:37.405Z</time></trkpt><trkpt lat="44.194445" lon="10.4223019"><ele>1141.0</ele><time>2026-04-29T14:05:39.417Z</time></trkpt><trkpt lat="44.1945196" lon="10.4223578"><ele>1148.5</ele><time>2026-04-29T14:05:41.421Z</time></trkpt><trkpt lat="44.1945868" lon="10.422385"><ele>1156.0</ele><time>2026-04-29T14:05:43.409Z</time></trkpt><trkpt lat="44.1946577" lon="10.4223651"><ele>1163.5</ele><time>2026-04-29T14:05:45.416Z</time></trkpt><trkpt lat="44.19474" lon="10.4223179"><ele>1171.0</ele><time>2026-04-29T14:05:47.401Z</time></trkpt><trkpt lat="44.1948288" lon="10.4222844"><ele>1169.6666666666665</ele><time>2026-04-29T14:05:49.41Z</time></trkpt><trkpt lat="44.1949158" lon="10.4222627"><ele>1168.3333333333333</ele><time>2026-04-29T14:05:51.402Z</time></trkpt><trkpt lat="44.195001" lon="10.422266"><ele>1167.0</ele><time>2026-04-29T14:05:53.408Z</time></trkpt><trkpt lat="44.1950783" lon="10.4222861"><ele>1165.6666666666667</ele><time>2026-04-29T14:05:55.408Z</time></trkpt><trkpt lat="44.1951475" lon="10.4223254"><ele>1164.3333333333335</ele><time>2026-04-29T14:05:57.41Z</time></trkpt><trkpt lat="44.195232" lon="10.4223637"><ele>1163.0</ele><time>2026-04-29T14:05:59.413Z</time></trkpt><trkpt lat="44.1953238" lon="10.4223738"><ele>1163.0</ele><time>2026-04-29T14:06:01.418Z</time></trkpt><trkpt lat="44.1954054" lon="10.4223643"><ele>1163.0</ele><time>2026-04-29T14:06:03.403Z</time></trkpt><trkpt lat="44.1954781" lon="10.4223315"><ele>1163.0</ele><time>2026-04-29T14:06:05.405Z</time></trkpt><trkpt lat="44.1955518" lon="10.4222941"><ele>1163.0</ele><time>2026-04-29T14:06:07.41Z</time></trkpt><trkpt lat="44.1956226" lon="10.4222657"><ele>1163.0</ele><time>2026-04-29T14:06:09.416Z</time></trkpt><trkpt lat="44.1957009" lon="10.42223"><ele>1163.0</ele><time>2026-04-29T14:06:12.418Z</time></trkpt><trkpt lat="44.1957699" lon="10.422175"><ele>1155.142857142857</ele><time>2026-04-29T14:06:14.411Z</time></trkpt><trkpt lat="44.1958424" lon="10.4221179"><ele>1147.2857142857142</ele><time>2026-04-29T14:06:16.405Z</time></trkpt><trkpt lat="44.195908" lon="10.4220825"><ele>1139.4285714285713</ele><time>2026-04-29T14:06:18.402Z</time></trkpt><trkpt lat="44.1959739" lon="10.4220624"><ele>1131.5714285714284</ele><time>2026-04-29T14:06:20.406Z</time></trkpt><trkpt lat="44.1960485" lon="10.4220551"><ele>1123.7142857142856</ele><time>2026-04-29T14:06:22.401Z</time></trkpt><trkpt lat="44.1961197" lon="10.4220647"><ele>1115.857142857143</ele><time>2026-04-29T14:06:24.402Z</time></trkpt><trkpt lat="44.1961923" lon="10.4220857"><ele>1108.0</ele><time>2026-04-29T14:06:26.403Z</time></trkpt><trkpt lat="44.1962628" lon="10.4221231"><ele>1113.1666666666665</ele><time>2026-04-29T14:06:28.41Z</time></trkpt><trkpt lat="44.1963294" lon="10.4221571"><ele>1118.3333333333333</ele><time>2026-04-29T14:06:30.409Z</time></trkpt><trkpt lat="44.196398" lon="10.4222276"><ele>1123.5</ele><time>2026-04-29T14:06:33.409Z</time></trkpt><trkpt lat="44.196461" lon="10.422309"><ele>1128.6666666666667</ele><time>2026-04-29T14:06:36.397Z</time></trkpt><trkpt lat="44.1965063" lon="10.4223738"><ele>1133.8333333333335</ele><time>2026-04-29T14:06:38.41Z</time></trkpt><trkpt lat="44.1965712" lon="10.4224225"><ele>1139.0</ele><time>2026-04-29T14:06:40.412Z</time></trkpt><trkpt lat="44.1966351" lon="10.4224753"><ele>1139.0</ele><time>2026-04-29T14:06:42.415Z</time></trkpt><trkpt lat="44.1966884" lon="10.4225655"><ele>1139.0</ele><time>2026-04-29T14:06:44.41Z</time></trkpt><trkpt lat="44.1967265" lon="10.4226662"><ele>1139.0</ele><time>2026-04-29T14:06:46.398Z</time></trkpt><trkpt lat="44.1967575" lon="10.4227818"><ele>1139.0</ele><time>2026-04-29T14:06:48.403Z</time></trkpt><trkpt lat="44.1967848" lon="10.4228943"><ele>1139.0</ele><time>2026-04-29T14:06:50.412Z</time></trkpt><trkpt lat="44.196789" lon="10.4230075"><ele>1139.0</ele><time>2026-04-29T14:06:52.403Z</time></trkpt><trkpt lat="44.1967866" lon="10.4231113"><ele>1145.3333333333335</ele><time>2026-04-29T14:06:54.408Z</time></trkpt><trkpt lat="44.1968212" lon="10.4232053"><ele>1151.6666666666667</ele><time>2026-04-29T14:06:56.408Z</time></trkpt><trkpt lat="44.1968858" lon="10.42325"><ele>1158.0</ele><time>2026-04-29T14:06:58.411Z</time></trkpt><trkpt lat="44.1969572" lon="10.4232787"><ele>1164.3333333333333</ele><time>2026-04-29T14:07:00.413Z</time></trkpt><trkpt lat="44.1970837" lon="10.4232498"><ele>1170.6666666666665</ele><time>2026-04-29T14:07:03.395Z</time></trkpt><trkpt lat="44.1971681" lon="10.423196"><ele>1177.0</ele><time>2026-04-29T14:07:05.403Z</time></trkpt><trkpt lat="44.1972537" lon="10.4231402"><ele>1177.0</ele><time>2026-04-29T14:07:07.406Z</time></trkpt><trkpt lat="44.1973238" lon="10.4231085"><ele>1177.0</ele><time>2026-04-29T14:07:09.415Z</time></trkpt><trkpt lat="44.1974047" lon="10.4230767"><ele>1177.0</ele><time>2026-04-29T14:07:11.403Z</time></trkpt><trkpt lat="44.1974862" lon="10.4230438"><ele>1177.0</ele><time>2026-04-29T14:07:13.4Z</time></trkpt><trkpt lat="44.1975566" lon="10.4230063"><ele>1177.0</ele><time>2026-04-29T14:07:15.405Z</time></trkpt><trkpt lat="44.1976402" lon="10.4229703"><ele>1177.0</ele><time>2026-04-29T14:07:17.405Z</time></trkpt><trkpt lat="44.1977296" lon="10.4229465"><ele>1173.6666666666665</ele><time>2026-04-29T14:07:19.399Z</time></trkpt><trkpt lat="44.1978072" lon="10.42298"><ele>1170.3333333333333</ele><time>2026-04-29T14:07:21.415Z</time></trkpt><trkpt lat="44.1978793" lon="10.4230177"><ele>1167.0</ele><time>2026-04-29T14:07:23.4Z</time></trkpt><trkpt lat="44.1979574" lon="10.4230633"><ele>1163.6666666666667</ele><time>2026-04-29T14:07:25.406Z</time></trkpt><trkpt lat="44.1980261" lon="10.4231106"><ele>1160.3333333333335</ele><time>2026-04-29T14:07:27.41Z</time></trkpt><trkpt lat="44.1980911" lon="10.423158"><ele>1157.0</ele><time>2026-04-29T14:07:29.419Z</time></trkpt><trkpt lat="44.1981556" lon="10.4231974"><ele>1155.5</ele><time>2026-04-29T14:07:32.399Z</time></trkpt><trkpt lat="44.1982169" lon="10.4232449"><ele>1154.0</ele><time>2026-04-29T14:07:34.411Z</time></trkpt><trkpt lat="44.1982922" lon="10.4232786"><ele>1152.5</ele><time>2026-04-29T14:07:36.422Z</time></trkpt><trkpt lat="44.1983593" lon="10.4232855"><ele>1151.0</ele><time>2026-04-29T14:07:38.418Z</time></trkpt><trkpt lat="44.1984497" lon="10.4233146"><ele>1149.5</ele><time>2026-04-29T14:07:41.412Z</time></trkpt><trkpt lat="44.1985257" lon="10.4233452"><ele>1148.0</ele><time>2026-04-29T14:07:43.407Z</time></trkpt><trkpt lat="44.1986009" lon="10.4233726"><ele>1148.0</ele><time>2026-04-29T14:07:46.414Z</time></trkpt><trkpt lat="44.1986687" lon="10.4233875"><ele>1148.0</ele><time>2026-04-29T14:07:48.414Z</time></trkpt><trkpt lat="44.1987327" lon="10.4233946"><ele>1148.0</ele><time>2026-04-29T14:07:50.396Z</time></trkpt><trkpt lat="44.1988245" lon="10.4233996"><ele>1148.0</ele><time>2026-04-29T14:07:53.398Z</time></trkpt><trkpt lat="44.1989096" lon="10.423424"><ele>1148.0</ele><time>2026-04-29T14:07:55.402Z</time></trkpt><trkpt lat="44.1989709" lon="10.4234466"><ele>1148.0</ele><time>2026-04-29T14:07:57.4Z</time></trkpt><trkpt lat="44.199044" lon="10.4234758"><ele>1145.5</ele><time>2026-04-29T14:07:59.4Z</time></trkpt><trkpt lat="44.199106" lon="10.4235145"><ele>1143.0</ele><time>2026-04-29T14:08:01.402Z</time></trkpt><trkpt lat="44.199172" lon="10.423572"><ele>1140.5</ele><time>2026-04-29T14:08:04.406Z</time></trkpt><trkpt lat="44.1992246" lon="10.4236406"><ele>1138.0</ele><time>2026-04-29T14:08:08.405Z</time></trkpt><trkpt lat="44.1992872" lon="10.4237002"><ele>1135.5</ele><time>2026-04-29T14:08:12.403Z</time></trkpt><trkpt lat="44.1993816" lon="10.4236914"><ele>1133.0</ele><time>2026-04-29T14:08:15.403Z</time></trkpt><trkpt lat="44.1994725" lon="10.4236466"><ele>1133.0</ele><time>2026-04-29T14:08:18.42Z</time></trkpt><trkpt lat="44.1995413" lon="10.4235947"><ele>1133.0</ele><time>2026-04-29T14:08:20.418Z</time></trkpt><trkpt lat="44.1996393" lon="10.423564"><ele>1133.0</ele><time>2026-04-29T14:08:22.401Z</time></trkpt><trkpt lat="44.199713" lon="10.4235448"><ele>1133.0</ele><time>2026-04-29T14:08:23.412Z</time></trkpt><trkpt lat="44.1998243" lon="10.4235384"><ele>1133.0</ele><time>2026-04-29T14:08:25.413Z</time></trkpt><trkpt lat="44.1999261" lon="10.4235688"><ele>1130.2</ele><time>2026-04-29T14:08:27.415Z</time></trkpt><trkpt lat="44.1999823" lon="10.4236101"><ele>1127.4</ele><time>2026-04-29T14:08:28.402Z</time></trkpt><trkpt lat="44.2000692" lon="10.4236788"><ele>1124.6000000000001</ele><time>2026-04-29T14:08:30.411Z</time></trkpt><trkpt lat="44.2001985" lon="10.423768"><ele>1121.8</ele><time>2026-04-29T14:08:32.408Z</time></trkpt><trkpt lat="44.200266" lon="10.4238157"><ele>1119.0</ele><time>2026-04-29T14:08:33.402Z</time></trkpt><trkpt lat="44.2003336" lon="10.4238566"><ele>1125.0</ele><time>2026-04-29T14:08:34.405Z</time></trkpt><trkpt lat="44.2004206" lon="10.4239857"><ele>1131.0</ele><time>2026-04-29T14:08:36.417Z</time></trkpt><trkpt lat="44.2004537" lon="10.4240672"><ele>1137.0</ele><time>2026-04-29T14:08:37.419Z</time></trkpt><trkpt lat="44.2004907" lon="10.4241717"><ele>1143.0</ele><time>2026-04-29T14:08:38.419Z</time></trkpt><trkpt lat="44.200536" lon="10.424253"><ele>1149.0</ele><time>2026-04-29T14:08:39.408Z</time></trkpt><trkpt lat="44.2005855" lon="10.4243371"><ele>1155.0</ele><time>2026-04-29T14:08:40.41Z</time></trkpt><trkpt lat="44.2007015" lon="10.424412"><ele>1155.0</ele><time>2026-04-29T14:08:42.416Z</time></trkpt><trkpt lat="44.2008224" lon="10.4243973"><ele>1155.0</ele><time>2026-04-29T14:08:44.409Z</time></trkpt><trkpt lat="44.2009165" lon="10.4243734"><ele>1155.0</ele><time>2026-04-29T14:08:46.409Z</time></trkpt><trkpt lat="44.2009821" lon="10.4243512"><ele>1155.0</ele><time>2026-04-29T14:08:48.405Z</time></trkpt><trkpt lat="44.2010439" lon="10.4242906"><ele>1155.0</ele><time>2026-04-29T14:08:52.399Z</time></trkpt><trkpt lat="44.2010999" lon="10.4242339"><ele>1155.0</ele><time>2026-04-29T14:08:56.414Z</time></trkpt><trkpt lat="44.2011168" lon="10.4241364"><ele>1155.0</ele><time>2026-04-29T14:08:59.415Z</time></trkpt><trkpt lat="44.2011831" lon="10.4240724"><ele>1155.0</ele><time>2026-04-29T14:09:03.396Z</time></trkpt><trkpt lat="44.2012488" lon="10.4240464"><ele>1155.0</ele><time>2026-04-29T14:09:05.398Z</time></trkpt><trkpt lat="44.2013307" lon="10.4240009"><ele>1155.0</ele><time>2026-04-29T14:09:08.4Z</time></trkpt><trkpt lat="44.2014051" lon="10.4239439"><ele>1155.0</ele><time>2026-04-29T14:09:11.399Z</time></trkpt><trkpt lat="44.2014594" lon="10.4238939"><ele>1155.0</ele><time>2026-04-29T14:09:14.405Z</time></trkpt><trkpt lat="44.2015183" lon="10.4238443"><ele>1155.0</ele><time>2026-04-29T14:09:17.398Z</time></trkpt><trkpt lat="44.2015821" lon="10.4238265"><ele>1155.0</ele><time>2026-04-29T14:09:20.409Z</time></trkpt><trkpt lat="44.2016447" lon="10.423806"><ele>1155.0</ele><time>2026-04-29T14:09:23.405Z</time></trkpt><trkpt lat="44.2017152" lon="10.4237966"><ele>1155.0</ele><time>2026-04-29T14:09:26.404Z</time></trkpt><trkpt lat="44.2017831" lon="10.423787"><ele>1155.0</ele><time>2026-04-29T14:09:29.398Z</time></trkpt><trkpt lat="44.2018564" lon="10.4237962"><ele>1155.0</ele><time>2026-04-29T14:09:32.415Z</time></trkpt><trkpt lat="44.2019276" lon="10.4238176"><ele>1155.0</ele><time>2026-04-29T14:09:35.404Z</time></trkpt><trkpt lat="44.2019853" lon="10.4238915"><ele>1155.0</ele><time>2026-04-29T14:09:38.414Z</time></trkpt><trkpt lat="44.2019925" lon="10.423981"><ele>1155.0</ele><time>2026-04-29T14:09:41.411Z</time></trkpt><trkpt lat="44.201989" lon="10.4240819"><ele>1155.0</ele><time>2026-04-29T14:09:45.405Z</time></trkpt><trkpt lat="44.2019805" lon="10.4242005"><ele>1155.0</ele><time>2026-04-29T14:09:49.402Z</time></trkpt><trkpt lat="44.2019688" lon="10.4242888"><ele>1155.0</ele><time>2026-04-29T14:09:52.408Z</time></trkpt><trkpt lat="44.2019562" lon="10.4243865"><ele>1155.0</ele><time>2026-04-29T14:09:55.403Z</time></trkpt><trkpt lat="44.201943" lon="10.4244946"><ele>1155.0</ele><time>2026-04-29T14:09:59.397Z</time></trkpt><trkpt lat="44.2019201" lon="10.424604"><ele>1159.142857142857</ele><time>2026-04-29T14:10:04.407Z</time></trkpt><trkpt lat="44.2019117" lon="10.4247167"><ele>1163.2857142857142</ele><time>2026-04-29T14:10:07.408Z</time></trkpt><trkpt lat="44.2019047" lon="10.4248088"><ele>1167.4285714285716</ele><time>2026-04-29T14:10:10.407Z</time></trkpt><trkpt lat="44.2019169" lon="10.424906"><ele>1171.5714285714284</ele><time>2026-04-29T14:10:13.402Z</time></trkpt><trkpt lat="44.2019409" lon="10.4250081"><ele>1175.7142857142858</ele><time>2026-04-29T14:10:16.411Z</time></trkpt><trkpt lat="44.201985" lon="10.4250714"><ele>1179.857142857143</ele><time>2026-04-29T14:10:19.396Z</time></trkpt><trkpt lat="44.2020639" lon="10.4250781"><ele>1184.0</ele><time>2026-04-29T14:10:22.398Z</time></trkpt><trkpt lat="44.2021381" lon="10.4250737"><ele>1184.0</ele><time>2026-04-29T14:10:25.395Z</time></trkpt><trkpt lat="44.2022197" lon="10.4250844"><ele>1184.0</ele><time>2026-04-29T14:10:28.406Z</time></trkpt><trkpt lat="44.2023045" lon="10.4250828"><ele>1184.0</ele><time>2026-04-29T14:10:31.399Z</time></trkpt><trkpt lat="44.2023882" lon="10.4251188"><ele>1184.0</ele><time>2026-04-29T14:10:34.405Z</time></trkpt><trkpt lat="44.2024514" lon="10.4251631"><ele>1184.0</ele><time>2026-04-29T14:10:37.398Z</time></trkpt><trkpt lat="44.202516" lon="10.4252038"><ele>1184.0</ele><time>2026-04-29T14:10:40.4Z</time></trkpt><trkpt lat="44.2025929" lon="10.4252557"><ele>1180.142857142857</ele><time>2026-04-29T14:10:44.404Z</time></trkpt><trkpt lat="44.2026749" lon="10.4252479"><ele>1176.2857142857142</ele><time>2026-04-29T14:10:47.396Z</time></trkpt><trkpt lat="44.2027556" lon="10.4252305"><ele>1172.4285714285713</ele><time>2026-04-29T14:10:50.411Z</time></trkpt><trkpt lat="44.2028238" lon="10.4251984"><ele>1168.5714285714284</ele><time>2026-04-29T14:10:52.402Z</time></trkpt><trkpt lat="44.2028937" lon="10.4251873"><ele>1164.7142857142856</ele><time>2026-04-29T14:10:54.41Z</time></trkpt><trkpt lat="44.2029572" lon="10.425218"><ele>1160.857142857143</ele><time>2026-04-29T14:10:56.405Z</time></trkpt><trkpt lat="44.2030206" lon="10.4252523"><ele>1157.0</ele><time>2026-04-29T14:10:58.398Z</time></trkpt><trkpt lat="44.2030911" lon="10.42528"><ele>1157.1666666666667</ele><time>2026-04-29T14:11:00.4Z</time></trkpt><trkpt lat="44.2031744" lon="10.4252919"><ele>1157.3333333333335</ele><time>2026-04-29T14:11:03.402Z</time></trkpt><trkpt lat="44.2032383" lon="10.4252883"><ele>1157.5</ele><time>2026-04-29T14:11:05.396Z</time></trkpt><trkpt lat="44.2033027" lon="10.4252665"><ele>1157.6666666666667</ele><time>2026-04-29T14:11:07.398Z</time></trkpt><trkpt lat="44.2033765" lon="10.4252069"><ele>1157.8333333333333</ele><time>2026-04-29T14:11:10.422Z</time></trkpt><trkpt lat="44.2034435" lon="10.4251667"><ele>1158.0</ele><time>2026-04-29T14:11:13.402Z</time></trkpt><trkpt lat="44.2035114" lon="10.4251092"><ele>1157.9999999999998</ele><time>2026-04-29T14:11:16.404Z</time></trkpt><trkpt lat="44.2035699" lon="10.4250517"><ele>1158.0</ele><time>2026-04-29T14:11:18.405Z</time></trkpt><trkpt lat="44.2036272" lon="10.4249881"><ele>1158.0</ele><time>2026-04-29T14:11:20.421Z</time></trkpt><trkpt lat="44.2036827" lon="10.4249378"><ele>1158.0</ele><time>2026-04-29T14:11:22.415Z</time></trkpt><trkpt lat="44.2037441" lon="10.4249024"><ele>1158.0</ele><time>2026-04-29T14:11:24.418Z</time></trkpt><trkpt lat="44.2038085" lon="10.4248675"><ele>1157.9999999999998</ele><time>2026-04-29T14:11:26.403Z</time></trkpt><trkpt lat="44.2038703" lon="10.4248402"><ele>1158.0</ele><time>2026-04-29T14:11:28.421Z</time></trkpt><trkpt lat="44.2039418" lon="10.4248273"><ele>1159.5</ele><time>2026-04-29T14:11:31.395Z</time></trkpt><trkpt lat="44.2040218" lon="10.424828"><ele>1161.0</ele><time>2026-04-29T14:11:34.421Z</time></trkpt><trkpt lat="44.2040853" lon="10.4248221"><ele>1162.5</ele><time>2026-04-29T14:11:36.419Z</time></trkpt><trkpt lat="44.2041587" lon="10.4247773"><ele>1164.0</ele><time>2026-04-29T14:11:39.422Z</time></trkpt><trkpt lat="44.2042325" lon="10.4247474"><ele>1165.5</ele><time>2026-04-29T14:11:42.398Z</time></trkpt><trkpt lat="44.204324" lon="10.424727"><ele>1167.0</ele><time>2026-04-29T14:11:45.41Z</time></trkpt><trkpt lat="44.2043941" lon="10.424727"><ele>1167.0</ele><time>2026-04-29T14:11:47.403Z</time></trkpt><trkpt lat="44.2044608" lon="10.4247321"><ele>1167.0</ele><time>2026-04-29T14:11:49.4Z</time></trkpt><trkpt lat="44.2045396" lon="10.4247855"><ele>1167.0</ele><time>2026-04-29T14:11:52.419Z</time></trkpt><trkpt lat="44.2046155" lon="10.4248652"><ele>1167.0</ele><time>2026-04-29T14:11:55.423Z</time></trkpt><trkpt lat="44.2046619" lon="10.4249258"><ele>1167.0</ele><time>2026-04-29T14:11:57.41Z</time></trkpt><trkpt lat="44.2046994" lon="10.425004"><ele>1167.0</ele><time>2026-04-29T14:11:59.415Z</time></trkpt><trkpt lat="44.2047178" lon="10.4250931"><ele>1167.0</ele><time>2026-04-29T14:12:01.398Z</time></trkpt><trkpt lat="44.2047314" lon="10.4251876"><ele>1167.0</ele><time>2026-04-29T14:12:03.406Z</time></trkpt><trkpt lat="44.2047528" lon="10.4252882"><ele>1167.0</ele><time>2026-04-29T14:12:05.417Z</time></trkpt><trkpt lat="44.2047828" lon="10.4253774"><ele>1167.0</ele><time>2026-04-29T14:12:07.402Z</time></trkpt><trkpt lat="44.2047911" lon="10.4254928"><ele>1167.0</ele><time>2026-04-29T14:12:10.402Z</time></trkpt><trkpt lat="44.2048021" lon="10.425627"><ele>1167.0</ele><time>2026-04-29T14:12:13.407Z</time></trkpt><trkpt lat="44.2048069" lon="10.4257257"><ele>1167.0</ele><time>2026-04-29T14:12:15.399Z</time></trkpt><trkpt lat="44.204818" lon="10.4258213"><ele>1164.8333333333333</ele><time>2026-04-29T14:12:17.423Z</time></trkpt><trkpt lat="44.2048336" lon="10.4259266"><ele>1162.6666666666667</ele><time>2026-04-29T14:12:19.401Z</time></trkpt><trkpt lat="44.2048425" lon="10.4260421"><ele>1160.5</ele><time>2026-04-29T14:12:21.408Z</time></trkpt><trkpt lat="44.2048462" lon="10.4261559"><ele>1158.3333333333335</ele><time>2026-04-29T14:12:23.401Z</time></trkpt><trkpt lat="44.204849" lon="10.4262582"><ele>1156.1666666666667</ele><time>2026-04-29T14:12:25.403Z</time></trkpt><trkpt lat="44.2048412" lon="10.4263555"><ele>1154.0</ele><time>2026-04-29T14:12:27.409Z</time></trkpt><trkpt lat="44.2048324" lon="10.4264509"><ele>1154.0</ele><time>2026-04-29T14:12:29.405Z</time></trkpt><trkpt lat="44.2048187" lon="10.4265443"><ele>1154.0</ele><time>2026-04-29T14:12:31.409Z</time></trkpt><trkpt lat="44.2048095" lon="10.4266461"><ele>1154.0</ele><time>2026-04-29T14:12:33.406Z</time></trkpt><trkpt lat="44.2048013" lon="10.4267347"><ele>1154.0</ele><time>2026-04-29T14:12:35.408Z</time></trkpt><trkpt lat="44.2047949" lon="10.4268318"><ele>1154.0</ele><time>2026-04-29T14:12:37.404Z</time></trkpt><trkpt lat="44.2048065" lon="10.4269566"><ele>1154.0</ele><time>2026-04-29T14:12:39.404Z</time></trkpt><trkpt lat="44.2048344" lon="10.427075"><ele>1153.1666666666667</ele><time>2026-04-29T14:12:41.403Z</time></trkpt><trkpt lat="44.2048655" lon="10.4271865"><ele>1152.3333333333335</ele><time>2026-04-29T14:12:43.419Z</time></trkpt><trkpt lat="44.2048848" lon="10.4272894"><ele>1151.5</ele><time>2026-04-29T14:12:45.41Z</time></trkpt><trkpt lat="44.2048661" lon="10.4274007"><ele>1150.6666666666667</ele><time>2026-04-29T14:12:48.404Z</time></trkpt><trkpt lat="44.2048255" lon="10.4274949"><ele>1149.8333333333333</ele><time>2026-04-29T14:12:51.396Z</time></trkpt><trkpt lat="44.2047674" lon="10.4275939"><ele>1149.0</ele><time>2026-04-29T14:12:54.403Z</time></trkpt><trkpt lat="44.2047314" lon="10.427684"><ele>1158.6666666666667</ele><time>2026-04-29T14:12:57.404Z</time></trkpt><trkpt lat="44.2046988" lon="10.4277862"><ele>1168.3333333333333</ele><time>2026-04-29T14:12:59.402Z</time></trkpt><trkpt lat="44.2046699" lon="10.427874"><ele>1178.0</ele><time>2026-04-29T14:13:01.403Z</time></trkpt><trkpt lat="44.2046649" lon="10.4279869"><ele>1187.6666666666665</ele><time>2026-04-29T14:13:03.409Z</time></trkpt><trkpt lat="44.2046957" lon="10.4280894"><ele>1197.3333333333333</ele><time>2026-04-29T14:13:05.414Z</time></trkpt><trkpt lat="44.2047416" lon="10.4281781"><ele>1207.0</ele><time>2026-04-29T14:13:08.406Z</time></trkpt><trkpt lat="44.2047948" lon="10.428247"><ele>1200.5</ele><time>2026-04-29T14:13:10.398Z</time></trkpt><trkpt lat="44.2048606" lon="10.42832"><ele>1194.0</ele><time>2026-04-29T14:13:12.406Z</time></trkpt><trkpt lat="44.2049228" lon="10.4283822"><ele>1187.5</ele><time>2026-04-29T14:13:14.408Z</time></trkpt><trkpt lat="44.2050057" lon="10.4284299"><ele>1181.0</ele><time>2026-04-29T14:13:17.41Z</time></trkpt><trkpt lat="44.2050662" lon="10.4284607"><ele>1174.5</ele><time>2026-04-29T14:13:19.401Z</time></trkpt><trkpt lat="44.2051518" lon="10.4285014"><ele>1168.0</ele><time>2026-04-29T14:13:21.403Z</time></trkpt><trkpt lat="44.2052166" lon="10.4285296"><ele>1168.0</ele><time>2026-04-29T14:13:23.401Z</time></trkpt><trkpt lat="44.2052948" lon="10.4285458"><ele>1168.0</ele><time>2026-04-29T14:13:26.409Z</time></trkpt><trkpt lat="44.2053703" lon="10.428567"><ele>1168.0</ele><time>2026-04-29T14:13:29.416Z</time></trkpt><trkpt lat="44.2054491" lon="10.4286028"><ele>1168.0</ele><time>2026-04-29T14:13:32.408Z</time></trkpt><trkpt lat="44.2055276" lon="10.4286694"><ele>1168.0</ele><time>2026-04-29T14:13:35.422Z</time></trkpt><trkpt lat="44.2055914" lon="10.4287394"><ele>1168.0</ele><time>2026-04-29T14:13:38.402Z</time></trkpt><trkpt lat="44.2056409" lon="10.4288027"><ele>1168.142857142857</ele><time>2026-04-29T14:13:40.398Z</time></trkpt><trkpt lat="44.2056874" lon="10.4288854"><ele>1168.2857142857142</ele><time>2026-04-29T14:13:43.397Z</time></trkpt><trkpt lat="44.2057157" lon="10.4289811"><ele>1168.4285714285716</ele><time>2026-04-29T14:13:46.407Z</time></trkpt><trkpt lat="44.2057187" lon="10.4290838"><ele>1168.5714285714284</ele><time>2026-04-29T14:13:49.406Z</time></trkpt><trkpt lat="44.2057005" lon="10.4291744"><ele>1168.7142857142858</ele><time>2026-04-29T14:13:53.401Z</time></trkpt><trkpt lat="44.2056921" lon="10.429262"><ele>1168.857142857143</ele><time>2026-04-29T14:13:56.403Z</time></trkpt><trkpt lat="44.2057186" lon="10.4293736"><ele>1169.0</ele><time>2026-04-29T14:13:59.394Z</time></trkpt><trkpt lat="44.2057744" lon="10.4294641"><ele>1169.0</ele><time>2026-04-29T14:14:02.404Z</time></trkpt><trkpt lat="44.2058494" lon="10.4294802"><ele>1169.0</ele><time>2026-04-29T14:14:05.402Z</time></trkpt><trkpt lat="44.20592" lon="10.4294872"><ele>1169.0</ele><time>2026-04-29T14:14:08.4Z</time></trkpt><trkpt lat="44.205997" lon="10.4294916"><ele>1169.0</ele><time>2026-04-29T14:14:11.411Z</time></trkpt><trkpt lat="44.2060665" lon="10.4295174"><ele>1169.0</ele><time>2026-04-29T14:14:14.415Z</time></trkpt><trkpt lat="44.2061384" lon="10.4295553"><ele>1169.0</ele><time>2026-04-29T14:14:17.404Z</time></trkpt><trkpt lat="44.2062028" lon="10.4296096"><ele>1169.0</ele><time>2026-04-29T14:14:20.405Z</time></trkpt><trkpt lat="44.2062591" lon="10.4296607"><ele>1172.3333333333335</ele><time>2026-04-29T14:14:23.412Z</time></trkpt><trkpt lat="44.2063372" lon="10.4296882"><ele>1175.6666666666667</ele><time>2026-04-29T14:14:27.409Z</time></trkpt><trkpt lat="44.2064154" lon="10.4296854"><ele>1179.0</ele><time>2026-04-29T14:14:30.397Z</time></trkpt><trkpt lat="44.206495" lon="10.4296849"><ele>1182.3333333333333</ele><time>2026-04-29T14:14:33.402Z</time></trkpt><trkpt lat="44.206573" lon="10.4296823"><ele>1185.6666666666665</ele><time>2026-04-29T14:14:36.429Z</time></trkpt><trkpt lat="44.2066387" lon="10.4296741"><ele>1189.0</ele><time>2026-04-29T14:14:39.397Z</time></trkpt><trkpt lat="44.206719" lon="10.4296679"><ele>1189.0</ele><time>2026-04-29T14:14:43.405Z</time></trkpt><trkpt lat="44.2067974" lon="10.4296845"><ele>1189.0</ele><time>2026-04-29T14:14:47.411Z</time></trkpt><trkpt lat="44.2068564" lon="10.4297294"><ele>1189.0</ele><time>2026-04-29T14:14:50.416Z</time></trkpt><trkpt lat="44.2069094" lon="10.4298036"><ele>1189.0</ele><time>2026-04-29T14:14:53.403Z</time></trkpt><trkpt lat="44.2069573" lon="10.4298734"><ele>1189.0</ele><time>2026-04-29T14:14:56.403Z</time></trkpt><trkpt lat="44.2070149" lon="10.4299404"><ele>1189.0</ele><time>2026-04-29T14:14:59.422Z</time></trkpt><trkpt lat="44.2070697" lon="10.4299966"><ele>1189.0</ele><time>2026-04-29T14:15:02.4Z</time></trkpt><trkpt lat="44.2071061" lon="10.4300706"><ele>1189.0</ele><time>2026-04-29T14:15:05.413Z</time></trkpt><trkpt lat="44.2071279" lon="10.4301563"><ele>1189.0</ele><time>2026-04-29T14:15:08.412Z</time></trkpt><trkpt lat="44.2071213" lon="10.4302608"><ele>1189.0</ele><time>2026-04-29T14:15:12.41Z</time></trkpt><trkpt lat="44.2071285" lon="10.4303558"><ele>1189.0</ele><time>2026-04-29T14:15:15.404Z</time></trkpt><trkpt lat="44.2071327" lon="10.4304679"><ele>1189.0</ele><time>2026-04-29T14:15:18.401Z</time></trkpt><trkpt lat="44.2071419" lon="10.4305754"><ele>1189.0</ele><time>2026-04-29T14:15:21.416Z</time></trkpt><trkpt lat="44.2071409" lon="10.4306679"><ele>1189.0</ele><time>2026-04-29T14:15:24.419Z</time></trkpt><trkpt lat="44.2071418" lon="10.4308031"><ele>1191.1666666666665</ele><time>2026-04-29T14:15:27.418Z</time></trkpt><trkpt lat="44.2071375" lon="10.4309022"><ele>1193.3333333333333</ele><time>2026-04-29T14:15:29.425Z</time></trkpt><trkpt lat="44.2071296" lon="10.4309968"><ele>1195.5</ele><time>2026-04-29T14:15:31.421Z</time></trkpt><trkpt lat="44.2071242" lon="10.4311175"><ele>1197.6666666666667</ele><time>2026-04-29T14:15:33.428Z</time></trkpt><trkpt lat="44.2071143" lon="10.4312419"><ele>1199.8333333333335</ele><time>2026-04-29T14:15:35.427Z</time></trkpt><trkpt lat="44.207102" lon="10.4314147"><ele>1202.0</ele><time>2026-04-29T14:15:37.408Z</time></trkpt><trkpt lat="44.2070913" lon="10.431507"><ele>1202.0</ele><time>2026-04-29T14:15:38.415Z</time></trkpt><trkpt lat="44.2071149" lon="10.4316756"><ele>1202.0</ele><time>2026-04-29T14:15:40.414Z</time></trkpt><trkpt lat="44.2071759" lon="10.43177"><ele>1202.0</ele><time>2026-04-29T14:15:42.405Z</time></trkpt><trkpt lat="44.2072687" lon="10.4317634"><ele>1202.0</ele><time>2026-04-29T14:15:45.418Z</time></trkpt><trkpt lat="44.2073611" lon="10.4316738"><ele>1202.0</ele><time>2026-04-29T14:15:47.402Z</time></trkpt><trkpt lat="44.2074329" lon="10.4315788"><ele>1196.2</ele><time>2026-04-29T14:15:49.415Z</time></trkpt><trkpt lat="44.2074821" lon="10.4314858"><ele>1190.4</ele><time>2026-04-29T14:15:51.402Z</time></trkpt><trkpt lat="44.2075675" lon="10.4314035"><ele>1184.6</ele><time>2026-04-29T14:15:53.419Z</time></trkpt><trkpt lat="44.2076481" lon="10.4313133"><ele>1178.8</ele><time>2026-04-29T14:15:55.416Z</time></trkpt><trkpt lat="44.2076991" lon="10.4312362"><ele>1173.0</ele><time>2026-04-29T14:15:56.408Z</time></trkpt><trkpt lat="44.2077936" lon="10.4311929"><ele>1173.0</ele><time>2026-04-29T14:15:58.406Z</time></trkpt><trkpt lat="44.2078954" lon="10.4312072"><ele>1173.0</ele><time>2026-04-29T14:16:00.407Z</time></trkpt><trkpt lat="44.2079274" lon="10.4312863"><ele>1173.0</ele><time>2026-04-29T14:16:01.408Z</time></trkpt><trkpt lat="44.207934" lon="10.4314094"><ele>1173.0</ele><time>2026-04-29T14:16:03.407Z</time></trkpt><trkpt lat="44.2079615" lon="10.4315753"><ele>1173.0</ele><time>2026-04-29T14:16:05.405Z</time></trkpt><trkpt lat="44.2079724" lon="10.4316713"><ele>1173.0</ele><time>2026-04-29T14:16:06.406Z</time></trkpt><trkpt lat="44.207984" lon="10.4317739"><ele>1173.0</ele><time>2026-04-29T14:16:07.406Z</time></trkpt><trkpt lat="44.2080084" lon="10.4318695"><ele>1173.0</ele><time>2026-04-29T14:16:08.403Z</time></trkpt><trkpt lat="44.2080318" lon="10.4319782"><ele>1173.0</ele><time>2026-04-29T14:16:09.408Z</time></trkpt><trkpt lat="44.2080498" lon="10.4320858"><ele>1173.0</ele><time>2026-04-29T14:16:10.401Z</time></trkpt><trkpt lat="44.2080941" lon="10.4321955"><ele>1173.0</ele><time>2026-04-29T14:16:11.408Z</time></trkpt><trkpt lat="44.2081387" lon="10.4322985"><ele>1173.0</ele><time>2026-04-29T14:16:12.409Z</time></trkpt><trkpt lat="44.2081926" lon="10.4323917"><ele>1173.1666666666667</ele><time>2026-04-29T14:16:13.41Z</time></trkpt><trkpt lat="44.2082508" lon="10.4324917"><ele>1173.3333333333333</ele><time>2026-04-29T14:16:14.407Z</time></trkpt><trkpt lat="44.2083002" lon="10.4325774"><ele>1173.5</ele><time>2026-04-29T14:16:15.408Z</time></trkpt><trkpt lat="44.2083618" lon="10.4326558"><ele>1173.6666666666665</ele><time>2026-04-29T14:16:16.408Z</time></trkpt><trkpt lat="44.2084108" lon="10.4327352"><ele>1173.8333333333333</ele><time>2026-04-29T14:16:17.408Z</time></trkpt><trkpt lat="44.2084562" lon="10.4327997"><ele>1174.0</ele><time>2026-04-29T14:16:18.404Z</time></trkpt><trkpt lat="44.208493" lon="10.4328858"><ele>1174.0</ele><time>2026-04-29T14:16:19.41Z</time></trkpt><trkpt lat="44.2085612" lon="10.4329828"><ele>1174.0</ele><time>2026-04-29T14:16:21.412Z</time></trkpt><trkpt lat="44.2086392" lon="10.432988"><ele>1174.0</ele><time>2026-04-29T14:16:23.404Z</time></trkpt><trkpt lat="44.2087001" lon="10.4329063"><ele>1174.0</ele><time>2026-04-29T14:16:26.416Z</time></trkpt><trkpt lat="44.2087083" lon="10.4328034"><ele>1174.0</ele><time>2026-04-29T14:16:30.403Z</time></trkpt><trkpt lat="44.2086959" lon="10.4327142"><ele>1174.0</ele><time>2026-04-29T14:16:34.407Z</time></trkpt><trkpt lat="44.2086919" lon="10.4326093"><ele>1174.0</ele><time>2026-04-29T14:16:38.41Z</time></trkpt><trkpt lat="44.20871" lon="10.4325079"><ele>1174.0</ele><time>2026-04-29T14:16:42.399Z</time></trkpt><trkpt lat="44.2087171" lon="10.4323991"><ele>1174.0</ele><time>2026-04-29T14:16:46.408Z</time></trkpt><trkpt lat="44.2087429" lon="10.4322892"><ele>1174.0</ele><time>2026-04-29T14:16:50.414Z</time></trkpt><trkpt lat="44.2087525" lon="10.4321935"><ele>1174.0</ele><time>2026-04-29T14:16:54.426Z</time></trkpt><trkpt lat="44.2087523" lon="10.432083"><ele>1174.0</ele><time>2026-04-29T14:16:58.408Z</time></trkpt><trkpt lat="44.208743" lon="10.43198"><ele>1171.5714285714287</ele><time>2026-04-29T14:17:02.405Z</time></trkpt><trkpt lat="44.2087408" lon="10.4318863"><ele>1169.1428571428573</ele><time>2026-04-29T14:17:05.403Z</time></trkpt><trkpt lat="44.2087403" lon="10.4317876"><ele>1166.7142857142858</ele><time>2026-04-29T14:17:09.422Z</time></trkpt><trkpt lat="44.208766" lon="10.4317063"><ele>1164.2857142857142</ele><time>2026-04-29T14:17:13.407Z</time></trkpt><trkpt lat="44.2088037" lon="10.4316332"><ele>1161.8571428571427</ele><time>2026-04-29T14:17:16.4Z</time></trkpt><trkpt lat="44.2088364" lon="10.4315318"><ele>1159.4285714285713</ele><time>2026-04-29T14:17:20.402Z</time></trkpt><trkpt lat="44.2088485" lon="10.4314396"><ele>1157.0</ele><time>2026-04-29T14:17:24.409Z</time></trkpt><trkpt lat="44.2088761" lon="10.4313385"><ele>1154.1666666666667</ele><time>2026-04-29T14:17:28.411Z</time></trkpt><trkpt lat="44.208897" lon="10.4312388"><ele>1151.3333333333335</ele><time>2026-04-29T14:17:31.403Z</time></trkpt><trkpt lat="44.2089184" lon="10.4311281"><ele>1148.5</ele><time>2026-04-29T14:17:36.41Z</time></trkpt><trkpt lat="44.2089151" lon="10.4310116"><ele>1145.6666666666667</ele><time>2026-04-29T14:17:40.396Z</time></trkpt><trkpt lat="44.2089108" lon="10.4309006"><ele>1142.8333333333333</ele><time>2026-04-29T14:17:43.403Z</time></trkpt><trkpt lat="44.2088953" lon="10.4307778"><ele>1140.0</ele><time>2026-04-29T14:17:46.399Z</time></trkpt><trkpt lat="44.208884" lon="10.4306764"><ele>1140.0</ele><time>2026-04-29T14:17:49.407Z</time></trkpt><trkpt lat="44.2088837" lon="10.4305803"><ele>1140.0</ele><time>2026-04-29T14:17:52.396Z</time></trkpt><trkpt lat="44.2088985" lon="10.430482"><ele>1140.0</ele><time>2026-04-29T14:17:55.394Z</time></trkpt><trkpt lat="44.2089275" lon="10.4303974"><ele>1140.0</ele><time>2026-04-29T14:17:58.41Z</time></trkpt><trkpt lat="44.2089578" lon="10.4303064"><ele>1140.0</ele><time>2026-04-29T14:18:01.397Z</time></trkpt><trkpt lat="44.2089884" lon="10.430212"><ele>1140.0</ele><time>2026-04-29T14:18:05.398Z</time></trkpt><trkpt lat="44.2090311" lon="10.4301266"><ele>1140.0</ele><time>2026-04-29T14:18:09.395Z</time></trkpt><trkpt lat="44.2090958" lon="10.4300654"><ele>1145.5</ele><time>2026-04-29T14:18:13.397Z</time></trkpt><trkpt lat="44.2091462" lon="10.4300046"><ele>1151.0</ele><time>2026-04-29T14:18:16.418Z</time></trkpt><trkpt lat="44.2092166" lon="10.4299631"><ele>1156.5</ele><time>2026-04-29T14:18:20.395Z</time></trkpt><trkpt lat="44.2092895" lon="10.4299384"><ele>1162.0</ele><time>2026-04-29T14:18:26.396Z</time></trkpt><trkpt lat="44.209361" lon="10.4298859"><ele>1167.5</ele><time>2026-04-29T14:18:30.399Z</time></trkpt><trkpt lat="44.2094269" lon="10.4298683"><ele>1173.0</ele><time>2026-04-29T14:18:32.402Z</time></trkpt><trkpt lat="44.2095143" lon="10.4298687"><ele>1173.0000000000002</ele><time>2026-04-29T14:18:36.422Z</time></trkpt><trkpt lat="44.2095847" lon="10.4298677"><ele>1173.0</ele><time>2026-04-29T14:18:40.41Z</time></trkpt><trkpt lat="44.2096552" lon="10.4298429"><ele>1173.0</ele><time>2026-04-29T14:18:44.409Z</time></trkpt><trkpt lat="44.2097374" lon="10.4298311"><ele>1173.0</ele><time>2026-04-29T14:18:48.4Z</time></trkpt><trkpt lat="44.2098046" lon="10.4298187"><ele>1173.0</ele><time>2026-04-29T14:18:51.4Z</time></trkpt><trkpt lat="44.2098758" lon="10.4297797"><ele>1173.0000000000002</ele><time>2026-04-29T14:18:55.418Z</time></trkpt><trkpt lat="44.2099139" lon="10.4296882"><ele>1173.0</ele><time>2026-04-29T14:18:58.406Z</time></trkpt><trkpt lat="44.2099075" lon="10.4295926"><ele>1169.2857142857144</ele><time>2026-04-29T14:19:02.414Z</time></trkpt><trkpt lat="44.2098473" lon="10.4295322"><ele>1165.5714285714287</ele><time>2026-04-29T14:19:07.403Z</time></trkpt><trkpt lat="44.2097969" lon="10.4294735"><ele>1161.857142857143</ele><time>2026-04-29T14:19:11.411Z</time></trkpt><trkpt lat="44.209742" lon="10.4294012"><ele>1158.1428571428573</ele><time>2026-04-29T14:19:15.416Z</time></trkpt><trkpt lat="44.2097035" lon="10.4293249"><ele>1154.4285714285716</ele><time>2026-04-29T14:19:18.402Z</time></trkpt><trkpt lat="44.2096755" lon="10.4292344"><ele>1150.7142857142858</ele><time>2026-04-29T14:19:21.412Z</time></trkpt><trkpt lat="44.2096407" lon="10.4291461"><ele>1147.0</ele><time>2026-04-29T14:19:24.397Z</time></trkpt><trkpt lat="44.2096023" lon="10.4290404"><ele>1147.0</ele><time>2026-04-29T14:19:27.408Z</time></trkpt><trkpt lat="44.2095836" lon="10.4289256"><ele>1147.0</ele><time>2026-04-29T14:19:31.406Z</time></trkpt><trkpt lat="44.2095716" lon="10.4288369"><ele>1147.0</ele><time>2026-04-29T14:19:34.4Z</time></trkpt><trkpt lat="44.2095611" lon="10.4287277"><ele>1147.0</ele><time>2026-04-29T14:19:37.405Z</time></trkpt><trkpt lat="44.2095641" lon="10.428618"><ele>1147.0</ele><time>2026-04-29T14:19:40.406Z</time></trkpt><trkpt lat="44.2095753" lon="10.4285313"><ele>1147.0</ele><time>2026-04-29T14:19:42.411Z</time></trkpt><trkpt lat="44.2095831" lon="10.4284428"><ele>1147.0</ele><time>2026-04-29T14:19:45.398Z</time></trkpt><trkpt lat="44.2095857" lon="10.4283369"><ele>1149.5</ele><time>2026-04-29T14:19:48.403Z</time></trkpt><trkpt lat="44.2095626" lon="10.4282227"><ele>1152.0</ele><time>2026-04-29T14:19:51.406Z</time></trkpt><trkpt lat="44.2095413" lon="10.4281365"><ele>1154.5</ele><time>2026-04-29T14:19:54.409Z</time></trkpt><trkpt lat="44.2095136" lon="10.4280557"><ele>1157.0</ele><time>2026-04-29T14:19:57.406Z</time></trkpt><trkpt lat="44.2094665" lon="10.4279895"><ele>1159.5</ele><time>2026-04-29T14:20:01.413Z</time></trkpt><trkpt lat="44.2094062" lon="10.4279035"><ele>1162.0</ele><time>2026-04-29T14:20:04.411Z</time></trkpt><trkpt lat="44.209349" lon="10.4278029"><ele>1165.5</ele><time>2026-04-29T14:20:08.403Z</time></trkpt><trkpt lat="44.2093153" lon="10.4276819"><ele>1169.0</ele><time>2026-04-29T14:20:11.41Z</time></trkpt><trkpt lat="44.209302" lon="10.4275653"><ele>1172.5</ele><time>2026-04-29T14:20:13.407Z</time></trkpt><trkpt lat="44.2092683" lon="10.4274762"><ele>1176.0</ele><time>2026-04-29T14:20:15.407Z</time></trkpt><trkpt lat="44.2091994" lon="10.4274256"><ele>1179.5</ele><time>2026-04-29T14:20:17.409Z</time></trkpt><trkpt lat="44.2091295" lon="10.4273791"><ele>1183.0</ele><time>2026-04-29T14:20:19.414Z</time></trkpt><trkpt lat="44.2090579" lon="10.4273346"><ele>1178.8</ele><time>2026-04-29T14:20:21.4Z</time></trkpt><trkpt lat="44.2089742" lon="10.4272872"><ele>1174.6</ele><time>2026-04-29T14:20:23.412Z</time></trkpt><trkpt lat="44.2088888" lon="10.4272204"><ele>1170.4</ele><time>2026-04-29T14:20:25.409Z</time></trkpt><trkpt lat="44.2088234" lon="10.4271296"><ele>1166.2</ele><time>2026-04-29T14:20:27.405Z</time></trkpt><trkpt lat="44.2087749" lon="10.4270139"><ele>1162.0</ele><time>2026-04-29T14:20:29.418Z</time></trkpt><trkpt lat="44.2087252" lon="10.4269011"><ele>1162.0</ele><time>2026-04-29T14:20:31.399Z</time></trkpt><trkpt lat="44.2086709" lon="10.4268164"><ele>1162.0</ele><time>2026-04-29T14:20:33.419Z</time></trkpt><trkpt lat="44.2086197" lon="10.4267141"><ele>1162.0</ele><time>2026-04-29T14:20:35.408Z</time></trkpt><trkpt lat="44.2085801" lon="10.4266086"><ele>1162.0</ele><time>2026-04-29T14:20:37.408Z</time></trkpt><trkpt lat="44.2085299" lon="10.4264801"><ele>1162.0</ele><time>2026-04-29T14:20:39.399Z</time></trkpt><trkpt lat="44.2084825" lon="10.4263671"><ele>1165.3333333333333</ele><time>2026-04-29T14:20:41.417Z</time></trkpt><trkpt lat="44.2084251" lon="10.4262437"><ele>1168.6666666666665</ele><time>2026-04-29T14:20:43.419Z</time></trkpt><trkpt lat="44.2083945" lon="10.426117"><ele>1172.0</ele><time>2026-04-29T14:20:45.397Z</time></trkpt><trkpt lat="44.2083891" lon="10.4260236"><ele>1175.3333333333333</ele><time>2026-04-29T14:20:47.4Z</time></trkpt><trkpt lat="44.2084023" lon="10.4259153"><ele>1178.6666666666667</ele><time>2026-04-29T14:20:50.402Z</time></trkpt><trkpt lat="44.2084049" lon="10.4258156"><ele>1182.0</ele><time>2026-04-29T14:20:52.415Z</time></trkpt><trkpt lat="44.2084134" lon="10.425696"><ele>1182.0</ele><time>2026-04-29T14:20:55.396Z</time></trkpt><trkpt lat="44.2084261" lon="10.4256009"><ele>1182.0</ele><time>2026-04-29T14:20:58.408Z</time></trkpt><trkpt lat="44.2084382" lon="10.4255035"><ele>1182.0</ele><time>2026-04-29T14:21:01.408Z</time></trkpt><trkpt lat="44.2084409" lon="10.4253931"><ele>1182.0</ele><time>2026-04-29T14:21:05.414Z</time></trkpt><trkpt lat="44.208447" lon="10.4252847"><ele>1182.0</ele><time>2026-04-29T14:21:07.397Z</time></trkpt><trkpt lat="44.2084396" lon="10.4251831"><ele>1182.0</ele><time>2026-04-29T14:21:09.411Z</time></trkpt><trkpt lat="44.2084238" lon="10.4250637"><ele>1181.142857142857</ele><time>2026-04-29T14:21:11.415Z</time></trkpt><trkpt lat="44.2084147" lon="10.4249458"><ele>1180.2857142857142</ele><time>2026-04-29T14:21:13.408Z</time></trkpt><trkpt lat="44.2084021" lon="10.4248266"><ele>1179.4285714285716</ele><time>2026-04-29T14:21:15.42Z</time></trkpt><trkpt lat="44.2083997" lon="10.4247366"><ele>1178.5714285714284</ele><time>2026-04-29T14:21:17.409Z</time></trkpt><trkpt lat="44.208423" lon="10.4246288"><ele>1177.7142857142858</ele><time>2026-04-29T14:21:20.396Z</time></trkpt><trkpt lat="44.2084817" lon="10.424588"><ele>1176.857142857143</ele><time>2026-04-29T14:21:23.407Z</time></trkpt><trkpt lat="44.2085146" lon="10.4245097"><ele>1176.0</ele><time>2026-04-29T14:21:26.407Z</time></trkpt><trkpt lat="44.2085571" lon="10.4244225"><ele>1172.3333333333333</ele><time>2026-04-29T14:21:28.416Z</time></trkpt><trkpt lat="44.2086077" lon="10.4243555"><ele>1168.6666666666667</ele><time>2026-04-29T14:21:30.403Z</time></trkpt><trkpt lat="44.2086625" lon="10.4242823"><ele>1165.0</ele><time>2026-04-29T14:21:32.403Z</time></trkpt><trkpt lat="44.20871" lon="10.4241864"><ele>1161.3333333333335</ele><time>2026-04-29T14:21:34.411Z</time></trkpt><trkpt lat="44.2087549" lon="10.4240699"><ele>1157.6666666666667</ele><time>2026-04-29T14:21:36.395Z</time></trkpt><trkpt lat="44.2087853" lon="10.4239606"><ele>1154.0</ele><time>2026-04-29T14:21:38.406Z</time></trkpt><trkpt lat="44.2088068" lon="10.4238631"><ele>1152.1666666666667</ele><time>2026-04-29T14:21:40.408Z</time></trkpt><trkpt lat="44.2088067" lon="10.4237296"><ele>1150.3333333333335</ele><time>2026-04-29T14:21:42.41Z</time></trkpt><trkpt lat="44.2087946" lon="10.4235962"><ele>1148.5</ele><time>2026-04-29T14:21:44.42Z</time></trkpt><trkpt lat="44.208768" lon="10.42348"><ele>1146.6666666666667</ele><time>2026-04-29T14:21:46.415Z</time></trkpt><trkpt lat="44.2087362" lon="10.4233832"><ele>1144.8333333333333</ele><time>2026-04-29T14:21:48.41Z</time></trkpt><trkpt lat="44.2087101" lon="10.4233018"><ele>1143.0</ele><time>2026-04-29T14:21:50.407Z</time></trkpt><trkpt lat="44.2086846" lon="10.4231807"><ele>1143.0</ele><time>2026-04-29T14:21:53.404Z</time></trkpt><trkpt lat="44.2086824" lon="10.423059"><ele>1143.0</ele><time>2026-04-29T14:21:56.41Z</time></trkpt><trkpt lat="44.2087163" lon="10.4229474"><ele>1143.0</ele><time>2026-04-29T14:21:59.403Z</time></trkpt><trkpt lat="44.208757" lon="10.4228607"><ele>1143.0</ele><time>2026-04-29T14:22:01.405Z</time></trkpt><trkpt lat="44.2088082" lon="10.4227869"><ele>1143.0</ele><time>2026-04-29T14:22:03.401Z</time></trkpt><trkpt lat="44.2088513" lon="10.4227164"><ele>1143.0</ele><time>2026-04-29T14:22:05.398Z</time></trkpt><trkpt lat="44.208906" lon="10.4226435"><ele>1143.8333333333333</ele><time>2026-04-29T14:22:07.396Z</time></trkpt><trkpt lat="44.2089526" lon="10.4225721"><ele>1144.6666666666667</ele><time>2026-04-29T14:22:09.395Z</time></trkpt><trkpt lat="44.2090111" lon="10.4224723"><ele>1145.5</ele><time>2026-04-29T14:22:11.405Z</time></trkpt><trkpt lat="44.2090747" lon="10.4224027"><ele>1146.3333333333335</ele><time>2026-04-29T14:22:13.406Z</time></trkpt><trkpt lat="44.2091812" lon="10.4223138"><ele>1147.1666666666667</ele><time>2026-04-29T14:22:15.405Z</time></trkpt><trkpt lat="44.209218" lon="10.4222355"><ele>1148.0</ele><time>2026-04-29T14:22:16.394Z</time></trkpt><trkpt lat="44.2093466" lon="10.4220954"><ele>1148.0</ele><time>2026-04-29T14:22:18.41Z</time></trkpt><trkpt lat="44.2094133" lon="10.4220603"><ele>1148.0</ele><time>2026-04-29T14:22:19.396Z</time></trkpt><trkpt lat="44.2094908" lon="10.4220452"><ele>1148.0</ele><time>2026-04-29T14:22:20.412Z</time></trkpt><trkpt lat="44.2095613" lon="10.4220134"><ele>1148.0</ele><time>2026-04-29T14:22:21.396Z</time></trkpt><trkpt lat="44.2096471" lon="10.4219923"><ele>1148.0</ele><time>2026-04-29T14:22:22.399Z</time></trkpt><trkpt lat="44.2097288" lon="10.4219778"><ele>1148.0</ele><time>2026-04-29T14:22:23.396Z</time></trkpt><trkpt lat="44.2098197" lon="10.4218891"><ele>1151.1666666666667</ele><time>2026-04-29T14:22:25.401Z</time></trkpt><trkpt lat="44.2098922" lon="10.4218388"><ele>1154.3333333333335</ele><time>2026-04-29T14:22:26.413Z</time></trkpt><trkpt lat="44.2099752" lon="10.421791"><ele>1157.5</ele><time>2026-04-29T14:22:27.397Z</time></trkpt><trkpt lat="44.2100383" lon="10.4217416"><ele>1160.6666666666667</ele><time>2026-04-29T14:22:28.401Z</time></trkpt><trkpt lat="44.2101122" lon="10.4217264"><ele>1163.8333333333333</ele><time>2026-04-29T14:22:29.399Z</time></trkpt><trkpt lat="44.2101749" lon="10.4216447"><ele>1167.0</ele><time>2026-04-29T14:22:30.4Z</time></trkpt><trkpt lat="44.2102606" lon="10.4215779"><ele>1167.0</ele><time>2026-04-29T14:22:31.413Z</time></trkpt><trkpt lat="44.2103294" lon="10.4215044"><ele>1167.0</ele><time>2026-04-29T14:22:32.398Z</time></trkpt><trkpt lat="44.2104006" lon="10.4214288"><ele>1167.0</ele><time>2026-04-29T14:22:33.398Z</time></trkpt><trkpt lat="44.2104839" lon="10.4213491"><ele>1167.0</ele><time>2026-04-29T14:22:34.406Z</time></trkpt><trkpt lat="44.2105479" lon="10.4212792"><ele>1167.0</ele><time>2026-04-29T14:22:35.415Z</time></trkpt><trkpt lat="44.2106171" lon="10.4211855"><ele>1164.3333333333333</ele><time>2026-04-29T14:22:36.404Z</time></trkpt><trkpt lat="44.2106596" lon="10.4210834"><ele>1161.6666666666667</ele><time>2026-04-29T14:22:37.416Z</time></trkpt><trkpt lat="44.2107002" lon="10.4209983"><ele>1159.0</ele><time>2026-04-29T14:22:38.413Z</time></trkpt><trkpt lat="44.2107518" lon="10.4209209"><ele>1156.3333333333335</ele><time>2026-04-29T14:22:39.404Z</time></trkpt><trkpt lat="44.2108043" lon="10.4208426"><ele>1153.6666666666667</ele><time>2026-04-29T14:22:40.413Z</time></trkpt><trkpt lat="44.2109111" lon="10.4207785"><ele>1151.0</ele><time>2026-04-29T14:22:42.398Z</time></trkpt><trkpt lat="44.2109789" lon="10.420795"><ele>1150.9999999999998</ele><time>2026-04-29T14:22:43.405Z</time></trkpt><trkpt lat="44.211045" lon="10.4207965"><ele>1151.0</ele><time>2026-04-29T14:22:44.401Z</time></trkpt><trkpt lat="44.2111174" lon="10.4207637"><ele>1151.0</ele><time>2026-04-29T14:22:45.421Z</time></trkpt><trkpt lat="44.2111797" lon="10.4207284"><ele>1151.0</ele><time>2026-04-29T14:22:46.407Z</time></trkpt><trkpt lat="44.2112378" lon="10.4206856"><ele>1151.0</ele><time>2026-04-29T14:22:47.418Z</time></trkpt><trkpt lat="44.2112894" lon="10.4206191"><ele>1150.9999999999998</ele><time>2026-04-29T14:22:48.399Z</time></trkpt><trkpt lat="44.2113409" lon="10.4205574"><ele>1151.0</ele><time>2026-04-29T14:22:49.411Z</time></trkpt><trkpt lat="44.2113988" lon="10.4205018"><ele>1148.8</ele><time>2026-04-29T14:22:50.405Z</time></trkpt><trkpt lat="44.2115029" lon="10.4204051"><ele>1146.6</ele><time>2026-04-29T14:22:52.401Z</time></trkpt><trkpt lat="44.211603" lon="10.4202917"><ele>1144.4</ele><time>2026-04-29T14:22:54.417Z</time></trkpt><trkpt lat="44.2116522" lon="10.4202305"><ele>1142.2</ele><time>2026-04-29T14:22:55.399Z</time></trkpt><trkpt lat="44.2117075" lon="10.420163"><ele>1140.0</ele><time>2026-04-29T14:22:56.4Z</time></trkpt><trkpt lat="44.2117636" lon="10.4200761"><ele>1140.0</ele><time>2026-04-29T14:22:57.399Z</time></trkpt><trkpt lat="44.2117905" lon="10.4199962"><ele>1140.0</ele><time>2026-04-29T14:22:58.424Z</time></trkpt><trkpt lat="44.2118742" lon="10.4198554"><ele>1140.0</ele><time>2026-04-29T14:23:00.416Z</time></trkpt><trkpt lat="44.2119285" lon="10.4197764"><ele>1140.0</ele><time>2026-04-29T14:23:01.422Z</time></trkpt><trkpt lat="44.2120037" lon="10.4197101"><ele>1140.0</ele><time>2026-04-29T14:23:02.406Z</time></trkpt><trkpt lat="44.212051" lon="10.4196274"><ele>1140.0</ele><time>2026-04-29T14:23:03.405Z</time></trkpt><trkpt lat="44.2120927" lon="10.4195359"><ele>1139.1666666666667</ele><time>2026-04-29T14:23:04.416Z</time></trkpt><trkpt lat="44.2121141" lon="10.4194128"><ele>1138.3333333333333</ele><time>2026-04-29T14:23:05.401Z</time></trkpt><trkpt lat="44.2121441" lon="10.4193212"><ele>1137.5</ele><time>2026-04-29T14:23:06.398Z</time></trkpt><trkpt lat="44.2122202" lon="10.4192783"><ele>1136.6666666666665</ele><time>2026-04-29T14:23:08.404Z</time></trkpt><trkpt lat="44.2122996" lon="10.4192904"><ele>1135.8333333333333</ele><time>2026-04-29T14:23:10.398Z</time></trkpt><trkpt lat="44.2123995" lon="10.4193458"><ele>1135.0</ele><time>2026-04-29T14:23:12.402Z</time></trkpt><trkpt lat="44.2125027" lon="10.4193229"><ele>1135.0</ele><time>2026-04-29T14:23:14.405Z</time></trkpt><trkpt lat="44.2126164" lon="10.4192349"><ele>1135.0</ele><time>2026-04-29T14:23:16.407Z</time></trkpt><trkpt lat="44.2126725" lon="10.4191855"><ele>1135.0</ele><time>2026-04-29T14:23:17.397Z</time></trkpt><trkpt lat="44.2127257" lon="10.4191294"><ele>1135.0</ele><time>2026-04-29T14:23:18.398Z</time></trkpt><trkpt lat="44.2127787" lon="10.4190707"><ele>1135.0</ele><time>2026-04-29T14:23:19.402Z</time></trkpt><trkpt lat="44.2128309" lon="10.4189999"><ele>1135.0</ele><time>2026-04-29T14:23:20.401Z</time></trkpt><trkpt lat="44.2128932" lon="10.4189372"><ele>1135.0</ele><time>2026-04-29T14:23:21.396Z</time></trkpt><trkpt lat="44.2129617" lon="10.4188801"><ele>1135.0</ele><time>2026-04-29T14:23:22.403Z</time></trkpt><trkpt lat="44.2130309" lon="10.4188443"><ele>1135.0</ele><time>2026-04-29T14:23:23.395Z</time></trkpt><trkpt lat="44.2131421" lon="10.4187921"><ele>1135.0</ele><time>2026-04-29T14:23:25.398Z</time></trkpt><trkpt lat="44.2132325" lon="10.4187468"><ele>1135.0</ele><time>2026-04-29T14:23:27.418Z</time></trkpt><trkpt lat="44.2131825" lon="10.418569"><ele>1130.2</ele><time>2026-04-29T14:23:29.396Z</time></trkpt><trkpt lat="44.2131154" lon="10.4184639"><ele>1125.4</ele><time>2026-04-29T14:23:31.413Z</time></trkpt><trkpt lat="44.2130144" lon="10.4183999"><ele>1120.6</ele><time>2026-04-29T14:23:33.428Z</time></trkpt><trkpt lat="44.212961" lon="10.4182941"><ele>1115.8</ele><time>2026-04-29T14:23:35.398Z</time></trkpt><trkpt lat="44.2129638" lon="10.4181986"><ele>1111.0</ele><time>2026-04-29T14:23:37.395Z</time></trkpt><trkpt lat="44.2129998" lon="10.4180916"><ele>1108.6</ele><time>2026-04-29T14:23:39.398Z</time></trkpt><trkpt lat="44.2130334" lon="10.4179404"><ele>1106.1999999999998</ele><time>2026-04-29T14:23:41.411Z</time></trkpt><trkpt lat="44.2130202" lon="10.417759"><ele>1103.8000000000002</ele><time>2026-04-29T14:23:43.412Z</time></trkpt><trkpt lat="44.2129839" lon="10.417614"><ele>1101.4</ele><time>2026-04-29T14:23:45.412Z</time></trkpt><trkpt lat="44.2129854" lon="10.4174842"><ele>1099.0</ele><time>2026-04-29T14:23:47.398Z</time></trkpt><trkpt lat="44.213019" lon="10.4174046"><ele>1099.0</ele><time>2026-04-29T14:23:49.409Z</time></trkpt><trkpt lat="44.2130924" lon="10.4173386"><ele>1099.0</ele><time>2026-04-29T14:23:52.422Z</time></trkpt><trkpt lat="44.2131463" lon="10.4172526"><ele>1099.0</ele><time>2026-04-29T14:23:55.409Z</time></trkpt><trkpt lat="44.2131654" lon="10.4171129"><ele>1099.0</ele><time>2026-04-29T14:23:58.431Z</time></trkpt><trkpt lat="44.2131274" lon="10.4169634"><ele>1099.0</ele><time>2026-04-29T14:24:00.422Z</time></trkpt><trkpt lat="44.2130881" lon="10.4168935"><ele>1099.0</ele><time>2026-04-29T14:24:01.419Z</time></trkpt><trkpt lat="44.2130152" lon="10.4167709"><ele>1100.0</ele><time>2026-04-29T14:24:03.419Z</time></trkpt><trkpt lat="44.212949" lon="10.4166586"><ele>1101.0</ele><time>2026-04-29T14:24:05.411Z</time></trkpt><trkpt lat="44.21294" lon="10.4165218"><ele>1102.0</ele><time>2026-04-29T14:24:07.417Z</time></trkpt><trkpt lat="44.2129985" lon="10.4164194"><ele>1103.0</ele><time>2026-04-29T14:24:09.412Z</time></trkpt><trkpt lat="44.2130848" lon="10.41634"><ele>1104.0</ele><time>2026-04-29T14:24:11.412Z</time></trkpt><trkpt lat="44.2131206" lon="10.4161975"><ele>1104.0</ele><time>2026-04-29T14:24:13.409Z</time></trkpt><trkpt lat="44.213097" lon="10.4160569"><ele>1104.0</ele><time>2026-04-29T14:24:15.413Z</time></trkpt><trkpt lat="44.213035" lon="10.4159415"><ele>1104.0</ele><time>2026-04-29T14:24:17.421Z</time></trkpt><trkpt lat="44.2129679" lon="10.4158374"><ele>1104.0</ele><time>2026-04-29T14:24:19.415Z</time></trkpt><trkpt lat="44.2129014" lon="10.4157853"><ele>1104.0</ele><time>2026-04-29T14:24:21.413Z</time></trkpt><trkpt lat="44.2128135" lon="10.4157411"><ele>1104.0</ele><time>2026-04-29T14:24:23.405Z</time></trkpt><trkpt lat="44.2127291" lon="10.415687"><ele>1104.0</ele><time>2026-04-29T14:24:25.411Z</time></trkpt><trkpt lat="44.2126333" lon="10.4156402"><ele>1104.0</ele><time>2026-04-29T14:24:27.394Z</time></trkpt><trkpt lat="44.2125556" lon="10.4155713"><ele>1104.0</ele><time>2026-04-29T14:24:29.398Z</time></trkpt><trkpt lat="44.2124898" lon="10.4154828"><ele>1104.0</ele><time>2026-04-29T14:24:31.396Z</time></trkpt><trkpt lat="44.2124339" lon="10.4153896"><ele>1106.3333333333333</ele><time>2026-04-29T14:24:33.396Z</time></trkpt><trkpt lat="44.2123769" lon="10.4152707"><ele>1108.6666666666667</ele><time>2026-04-29T14:24:35.406Z</time></trkpt><trkpt lat="44.2123321" lon="10.4151451"><ele>1111.0</ele><time>2026-04-29T14:24:37.417Z</time></trkpt><trkpt lat="44.2123007" lon="10.4150349"><ele>1113.3333333333335</ele><time>2026-04-29T14:24:39.411Z</time></trkpt><trkpt lat="44.2122862" lon="10.4149371"><ele>1115.6666666666667</ele><time>2026-04-29T14:24:41.404Z</time></trkpt><trkpt lat="44.2122729" lon="10.4148353"><ele>1118.0</ele><time>2026-04-29T14:24:44.405Z</time></trkpt><trkpt lat="44.2122769" lon="10.4147275"><ele>1115.857142857143</ele><time>2026-04-29T14:24:48.411Z</time></trkpt><trkpt lat="44.2122901" lon="10.4146321"><ele>1113.7142857142858</ele><time>2026-04-29T14:24:52.41Z</time></trkpt><trkpt lat="44.2123205" lon="10.4145376"><ele>1111.5714285714287</ele><time>2026-04-29T14:24:57.401Z</time></trkpt><trkpt lat="44.2123763" lon="10.4144837"><ele>1109.4285714285716</ele><time>2026-04-29T14:25:01.411Z</time></trkpt><trkpt lat="44.2124376" lon="10.4144396"><ele>1107.2857142857142</ele><time>2026-04-29T14:25:06.412Z</time></trkpt><trkpt lat="44.2125073" lon="10.4144151"><ele>1105.1428571428573</ele><time>2026-04-29T14:25:11.403Z</time></trkpt><trkpt lat="44.2125834" lon="10.4144176"><ele>1103.0</ele><time>2026-04-29T14:25:16.412Z</time></trkpt><trkpt lat="44.2126593" lon="10.4144146"><ele>1103.0000000000002</ele><time>2026-04-29T14:25:20.408Z</time></trkpt><trkpt lat="44.212727" lon="10.4144436"><ele>1103.0</ele><time>2026-04-29T14:25:24.395Z</time></trkpt><trkpt lat="44.2127889" lon="10.4144626"><ele>1103.0</ele><time>2026-04-29T14:25:27.411Z</time></trkpt><trkpt lat="44.2128725" lon="10.4144846"><ele>1103.0</ele><time>2026-04-29T14:25:30.403Z</time></trkpt><trkpt lat="44.2129373" lon="10.4144952"><ele>1103.0</ele><time>2026-04-29T14:25:32.414Z</time></trkpt><trkpt lat="44.2130088" lon="10.4145154"><ele>1103.0000000000002</ele><time>2026-04-29T14:25:34.406Z</time></trkpt><trkpt lat="44.2130822" lon="10.4145388"><ele>1103.0</ele><time>2026-04-29T14:25:36.404Z</time></trkpt><trkpt lat="44.2131604" lon="10.4145504"><ele>1104.1666666666667</ele><time>2026-04-29T14:25:38.411Z</time></trkpt><trkpt lat="44.2132912" lon="10.4145068"><ele>1105.3333333333335</ele><time>2026-04-29T14:25:40.414Z</time></trkpt><trkpt lat="44.2133715" lon="10.4144867"><ele>1106.5</ele><time>2026-04-29T14:25:41.414Z</time></trkpt><trkpt lat="44.2134361" lon="10.4144519"><ele>1107.6666666666667</ele><time>2026-04-29T14:25:42.407Z</time></trkpt><trkpt lat="44.2135005" lon="10.4144178"><ele>1108.8333333333333</ele><time>2026-04-29T14:25:43.417Z</time></trkpt><trkpt lat="44.2135774" lon="10.4143859"><ele>1110.0</ele><time>2026-04-29T14:25:44.409Z</time></trkpt><trkpt lat="44.2136774" lon="10.4143457"><ele>1110.0000000000002</ele><time>2026-04-29T14:25:46.405Z</time></trkpt><trkpt lat="44.2137403" lon="10.4143098"><ele>1110.0</ele><time>2026-04-29T14:25:47.424Z</time></trkpt><trkpt lat="44.2138065" lon="10.4142852"><ele>1110.0</ele><time>2026-04-29T14:25:48.408Z</time></trkpt><trkpt lat="44.2138719" lon="10.4142709"><ele>1110.0</ele><time>2026-04-29T14:25:49.409Z</time></trkpt><trkpt lat="44.2139495" lon="10.4142338"><ele>1110.0</ele><time>2026-04-29T14:25:51.418Z</time></trkpt><trkpt lat="44.2140116" lon="10.4141937"><ele>1110.0000000000002</ele><time>2026-04-29T14:25:55.412Z</time></trkpt><trkpt lat="44.2140676" lon="10.4141174"><ele>1110.0</ele><time>2026-04-29T14:26:00.41Z</time></trkpt><trkpt lat="44.214095" lon="10.4140226"><ele>1108.8333333333333</ele><time>2026-04-29T14:26:05.405Z</time></trkpt><trkpt lat="44.2140832" lon="10.4139315"><ele>1107.6666666666667</ele><time>2026-04-29T14:26:09.413Z</time></trkpt><trkpt lat="44.2140644" lon="10.4138346"><ele>1106.5</ele><time>2026-04-29T14:26:14.403Z</time></trkpt><trkpt lat="44.2140404" lon="10.4137315"><ele>1105.3333333333335</ele><time>2026-04-29T14:26:19.4Z</time></trkpt><trkpt lat="44.2140149" lon="10.4136305"><ele>1104.1666666666667</ele><time>2026-04-29T14:26:23.405Z</time></trkpt><trkpt lat="44.2139372" lon="10.4136034"><ele>1103.0</ele><time>2026-04-29T14:26:27.405Z</time></trkpt><trkpt lat="44.2138602" lon="10.4135927"><ele>1103.0</ele><time>2026-04-29T14:26:30.405Z</time></trkpt><trkpt lat="44.213787" lon="10.4135129"><ele>1103.0</ele><time>2026-04-29T14:26:33.412Z</time></trkpt><trkpt lat="44.2137479" lon="10.4134263"><ele>1103.0</ele><time>2026-04-29T14:26:35.411Z</time></trkpt><trkpt lat="44.2136994" lon="10.4133258"><ele>1103.0</ele><time>2026-04-29T14:26:37.406Z</time></trkpt><trkpt lat="44.213657" lon="10.413257"><ele>1103.0</ele><time>2026-04-29T14:26:38.407Z</time></trkpt><trkpt lat="44.2136256" lon="10.413179"><ele>1103.0</ele><time>2026-04-29T14:26:39.402Z</time></trkpt><trkpt lat="44.2135761" lon="10.4130976"><ele>1103.0</ele><time>2026-04-29T14:26:40.417Z</time></trkpt><trkpt lat="44.213518" lon="10.413018"><ele>1103.0</ele><time>2026-04-29T14:26:41.424Z</time></trkpt><trkpt lat="44.2134194" lon="10.412881"><ele>1103.0</ele><time>2026-04-29T14:26:43.422Z</time></trkpt><trkpt lat="44.2133736" lon="10.4128193"><ele>1103.0</ele><time>2026-04-29T14:26:44.409Z</time></trkpt><trkpt lat="44.2133107" lon="10.4127611"><ele>1103.0</ele><time>2026-04-29T14:26:45.423Z</time></trkpt><trkpt lat="44.2132171" lon="10.4126449"><ele>1104.3333333333335</ele><time>2026-04-29T14:26:47.402Z</time></trkpt><trkpt lat="44.213162" lon="10.412519"><ele>1105.6666666666667</ele><time>2026-04-29T14:26:49.414Z</time></trkpt><trkpt lat="44.2131364" lon="10.4123708"><ele>1107.0</ele><time>2026-04-29T14:26:51.416Z</time></trkpt><trkpt lat="44.2131217" lon="10.4122759"><ele>1108.3333333333333</ele><time>2026-04-29T14:26:52.421Z</time></trkpt><trkpt lat="44.2131092" lon="10.4121794"><ele>1109.6666666666665</ele><time>2026-04-29T14:26:53.401Z</time></trkpt><trkpt lat="44.213091" lon="10.4120846"><ele>1111.0</ele><time>2026-04-29T14:26:54.428Z</time></trkpt><trkpt lat="44.2130366" lon="10.4119272"><ele>1111.3333333333333</ele><time>2026-04-29T14:26:56.413Z</time></trkpt><trkpt lat="44.2129986" lon="10.4118433"><ele>1111.6666666666665</ele><time>2026-04-29T14:26:57.419Z</time></trkpt><trkpt lat="44.212967" lon="10.4117667"><ele>1112.0</ele><time>2026-04-29T14:26:58.407Z</time></trkpt><trkpt lat="44.2129203" lon="10.4116814"><ele>1112.3333333333333</ele><time>2026-04-29T14:26:59.408Z</time></trkpt><trkpt lat="44.2128805" lon="10.4116048"><ele>1112.6666666666667</ele><time>2026-04-29T14:27:00.414Z</time></trkpt><trkpt lat="44.2128316" lon="10.4115173"><ele>1113.0</ele><time>2026-04-29T14:27:02.412Z</time></trkpt><trkpt lat="44.2127331" lon="10.4115309"><ele>1113.0</ele><time>2026-04-29T14:27:05.407Z</time></trkpt><trkpt lat="44.2126921" lon="10.4116458"><ele>1113.0</ele><time>2026-04-29T14:27:07.415Z</time></trkpt><trkpt lat="44.2126395" lon="10.4117586"><ele>1113.0</ele><time>2026-04-29T14:27:09.422Z</time></trkpt><trkpt lat="44.2125784" lon="10.4118594"><ele>1113.0</ele><time>2026-04-29T14:27:11.412Z</time></trkpt><trkpt lat="44.2125062" lon="10.4119578"><ele>1113.0</ele><time>2026-04-29T14:27:13.412Z</time></trkpt><trkpt lat="44.2124399" lon="10.4120332"><ele>1113.0</ele><time>2026-04-29T14:27:15.409Z</time></trkpt><trkpt lat="44.2123705" lon="10.4120867"><ele>1113.0</ele><time>2026-04-29T14:27:17.404Z</time></trkpt><trkpt lat="44.2122951" lon="10.4121397"><ele>1113.0</ele><time>2026-04-29T14:27:20.396Z</time></trkpt><trkpt lat="44.2122259" lon="10.4121479"><ele>1113.0</ele><time>2026-04-29T14:27:24.41Z</time></trkpt><trkpt lat="44.2121593" lon="10.4121533"><ele>1113.0</ele><time>2026-04-29T14:27:28.41Z</time></trkpt><trkpt lat="44.2120904" lon="10.4121523"><ele>1113.0</ele><time>2026-04-29T14:27:32.411Z</time></trkpt><trkpt lat="44.2120228" lon="10.412181"><ele>1113.0</ele><time>2026-04-29T14:27:37.397Z</time></trkpt><trkpt lat="44.2119585" lon="10.4122"><ele>1114.0</ele><time>2026-04-29T14:27:41.411Z</time></trkpt><trkpt lat="44.2118904" lon="10.412221"><ele>1115.0</ele><time>2026-04-29T14:27:45.403Z</time></trkpt><trkpt lat="44.2118311" lon="10.4122573"><ele>1116.0</ele><time>2026-04-29T14:27:48.426Z</time></trkpt><trkpt lat="44.2117552" lon="10.4122994"><ele>1117.0</ele><time>2026-04-29T14:27:52.422Z</time></trkpt><trkpt lat="44.211681" lon="10.412325"><ele>1118.0</ele><time>2026-04-29T14:27:56.406Z</time></trkpt><trkpt lat="44.2116075" lon="10.4123342"><ele>1119.0</ele><time>2026-04-29T14:28:00.406Z</time></trkpt><trkpt lat="44.2115319" lon="10.4123413"><ele>1120.0</ele><time>2026-04-29T14:28:04.406Z</time></trkpt><trkpt lat="44.2114591" lon="10.4123317"><ele>1120.0</ele><time>2026-04-29T14:28:08.41Z</time></trkpt><trkpt lat="44.2113897" lon="10.4123334"><ele>1120.0</ele><time>2026-04-29T14:28:12.409Z</time></trkpt><trkpt lat="44.2113211" lon="10.4123391"><ele>1120.0</ele><time>2026-04-29T14:28:16.426Z</time></trkpt><trkpt lat="44.21125" lon="10.4123634"><ele>1120.0</ele><time>2026-04-29T14:28:20.405Z</time></trkpt><trkpt lat="44.211179" lon="10.4123826"><ele>1120.0</ele><time>2026-04-29T14:28:24.408Z</time></trkpt><trkpt lat="44.2111177" lon="10.4124537"><ele>1120.0</ele><time>2026-04-29T14:28:28.406Z</time></trkpt><trkpt lat="44.2110451" lon="10.4124971"><ele>1120.0</ele><time>2026-04-29T14:28:32.418Z</time></trkpt><trkpt lat="44.210985" lon="10.4125325"><ele>1120.0</ele><time>2026-04-29T14:28:35.406Z</time></trkpt><trkpt lat="44.2109129" lon="10.4125857"><ele>1120.0</ele><time>2026-04-29T14:28:39.403Z</time></trkpt><trkpt lat="44.210836" lon="10.4126301"><ele>1120.0</ele><time>2026-04-29T14:28:43.421Z</time></trkpt><trkpt lat="44.2107641" lon="10.4126764"><ele>1120.0</ele><time>2026-04-29T14:28:47.407Z</time></trkpt><trkpt lat="44.210691" lon="10.4127274"><ele>1120.0</ele><time>2026-04-29T14:28:51.437Z</time></trkpt><trkpt lat="44.2106307" lon="10.4127785"><ele>1120.0</ele><time>2026-04-29T14:28:54.415Z</time></trkpt><trkpt lat="44.2105708" lon="10.4128164"><ele>1121.5</ele><time>2026-04-29T14:28:57.411Z</time></trkpt><trkpt lat="44.2105022" lon="10.4128773"><ele>1123.0</ele><time>2026-04-29T14:29:01.408Z</time></trkpt><trkpt lat="44.2104267" lon="10.4129169"><ele>1124.5</ele><time>2026-04-29T14:29:05.417Z</time></trkpt><trkpt lat="44.2103506" lon="10.4129421"><ele>1126.0</ele><time>2026-04-29T14:29:09.405Z</time></trkpt><trkpt lat="44.2102767" lon="10.4129667"><ele>1127.5</ele><time>2026-04-29T14:29:13.427Z</time></trkpt><trkpt lat="44.2102043" lon="10.4130181"><ele>1129.0</ele><time>2026-04-29T14:29:17.415Z</time></trkpt><trkpt lat="44.2101589" lon="10.4131121"><ele>1129.0</ele><time>2026-04-29T14:29:22.403Z</time></trkpt><trkpt lat="44.2101322" lon="10.4131997"><ele>1129.0</ele><time>2026-04-29T14:29:27.407Z</time></trkpt><trkpt lat="44.2101038" lon="10.4133099"><ele>1129.0</ele><time>2026-04-29T14:29:31.411Z</time></trkpt><trkpt lat="44.2100706" lon="10.4133992"><ele>1129.0</ele><time>2026-04-29T14:29:34.402Z</time></trkpt><trkpt lat="44.2100283" lon="10.41347"><ele>1129.0</ele><time>2026-04-29T14:29:37.402Z</time></trkpt><trkpt lat="44.2099796" lon="10.4135293"><ele>1129.0</ele><time>2026-04-29T14:29:40.406Z</time></trkpt><trkpt lat="44.2099464" lon="10.4136056"><ele>1129.0</ele><time>2026-04-29T14:29:43.429Z</time></trkpt><trkpt lat="44.2099047" lon="10.4136808"><ele>1129.0</ele><time>2026-04-29T14:29:47.408Z</time></trkpt><trkpt lat="44.2098428" lon="10.4137434"><ele>1129.0</ele><time>2026-04-29T14:29:51.415Z</time></trkpt><trkpt lat="44.209777" lon="10.4138063"><ele>1129.0</ele><time>2026-04-29T14:29:55.422Z</time></trkpt><trkpt lat="44.2097144" lon="10.4138501"><ele>1129.0</ele><time>2026-04-29T14:29:58.41Z</time></trkpt><trkpt lat="44.2096417" lon="10.413889"><ele>1129.0</ele><time>2026-04-29T14:30:02.403Z</time></trkpt><trkpt lat="44.2095765" lon="10.4139061"><ele>1129.0</ele><time>2026-04-29T14:30:06.406Z</time></trkpt><trkpt lat="44.2094938" lon="10.4139187"><ele>1130.4285714285713</ele><time>2026-04-29T14:30:10.406Z</time></trkpt><trkpt lat="44.2094083" lon="10.4139316"><ele>1131.8571428571427</ele><time>2026-04-29T14:30:14.407Z</time></trkpt><trkpt lat="44.2093233" lon="10.4139226"><ele>1133.2857142857142</ele><time>2026-04-29T14:30:18.406Z</time></trkpt><trkpt lat="44.2092523" lon="10.4139094"><ele>1134.7142857142858</ele><time>2026-04-29T14:30:21.411Z</time></trkpt><trkpt lat="44.2091902" lon="10.4138754"><ele>1136.1428571428573</ele><time>2026-04-29T14:30:24.415Z</time></trkpt><trkpt lat="44.2091247" lon="10.4138353"><ele>1137.5714285714287</ele><time>2026-04-29T14:30:28.415Z</time></trkpt><trkpt lat="44.2090673" lon="10.4137978"><ele>1139.0</ele><time>2026-04-29T14:30:31.412Z</time></trkpt><trkpt lat="44.2090008" lon="10.4137642"><ele>1138.4285714285716</ele><time>2026-04-29T14:30:34.414Z</time></trkpt><trkpt lat="44.2089418" lon="10.4137235"><ele>1137.857142857143</ele><time>2026-04-29T14:30:37.415Z</time></trkpt><trkpt lat="44.2088861" lon="10.4136797"><ele>1137.2857142857142</ele><time>2026-04-29T14:30:40.397Z</time></trkpt><trkpt lat="44.2088203" lon="10.4136451"><ele>1136.7142857142858</ele><time>2026-04-29T14:30:43.396Z</time></trkpt><trkpt lat="44.2087528" lon="10.4136115"><ele>1136.142857142857</ele><time>2026-04-29T14:30:47.409Z</time></trkpt><trkpt lat="44.2086892" lon="10.4135711"><ele>1135.5714285714287</ele><time>2026-04-29T14:30:52.398Z</time></trkpt><trkpt lat="44.2086183" lon="10.4135476"><ele>1135.0</ele><time>2026-04-29T14:30:56.395Z</time></trkpt><trkpt lat="44.2085517" lon="10.4135126"><ele>1135.0</ele><time>2026-04-29T14:30:59.406Z</time></trkpt><trkpt lat="44.2084882" lon="10.4134708"><ele>1135.0</ele><time>2026-04-29T14:31:02.418Z</time></trkpt><trkpt lat="44.2084276" lon="10.4134256"><ele>1135.0</ele><time>2026-04-29T14:31:05.397Z</time></trkpt><trkpt lat="44.2083647" lon="10.4133853"><ele>1135.0</ele><time>2026-04-29T14:31:08.404Z</time></trkpt><trkpt lat="44.2082987" lon="10.4133575"><ele>1135.0</ele><time>2026-04-29T14:31:11.401Z</time></trkpt><trkpt lat="44.2082326" lon="10.4133776"><ele>1135.0</ele><time>2026-04-29T14:31:14.407Z</time></trkpt><trkpt lat="44.2081552" lon="10.4134265"><ele>1135.0</ele><time>2026-04-29T14:31:18.411Z</time></trkpt><trkpt lat="44.2080912" lon="10.4134855"><ele>1134.6666666666665</ele><time>2026-04-29T14:31:22.406Z</time></trkpt><trkpt lat="44.2080199" lon="10.4135182"><ele>1134.3333333333333</ele><time>2026-04-29T14:31:26.405Z</time></trkpt><trkpt lat="44.2079565" lon="10.4135569"><ele>1134.0</ele><time>2026-04-29T14:31:30.4Z</time></trkpt><trkpt lat="44.2078855" lon="10.4135731"><ele>1133.6666666666667</ele><time>2026-04-29T14:31:34.402Z</time></trkpt><trkpt lat="44.2078043" lon="10.4135607"><ele>1133.3333333333335</ele><time>2026-04-29T14:31:38.407Z</time></trkpt><trkpt lat="44.2077252" lon="10.4135529"><ele>1133.0</ele><time>2026-04-29T14:31:42.408Z</time></trkpt><trkpt lat="44.207647" lon="10.4135345"><ele>1133.0</ele><time>2026-04-29T14:31:46.407Z</time></trkpt><trkpt lat="44.2075747" lon="10.4135021"><ele>1133.0</ele><time>2026-04-29T14:31:50.41Z</time></trkpt><trkpt lat="44.2074933" lon="10.4134714"><ele>1133.0</ele><time>2026-04-29T14:31:54.428Z</time></trkpt><trkpt lat="44.207425" lon="10.4134245"><ele>1133.0</ele><time>2026-04-29T14:31:58.399Z</time></trkpt><trkpt lat="44.2073514" lon="10.4133708"><ele>1133.0</ele><time>2026-04-29T14:32:02.409Z</time></trkpt><trkpt lat="44.2072994" lon="10.413301"><ele>1133.0</ele><time>2026-04-29T14:32:06.398Z</time></trkpt><trkpt lat="44.2072488" lon="10.4132156"><ele>1132.4285714285713</ele><time>2026-04-29T14:32:10.408Z</time></trkpt><trkpt lat="44.2072032" lon="10.4131278"><ele>1131.857142857143</ele><time>2026-04-29T14:32:14.406Z</time></trkpt><trkpt lat="44.207163" lon="10.4130301"><ele>1131.2857142857142</ele><time>2026-04-29T14:32:18.398Z</time></trkpt><trkpt lat="44.2071081" lon="10.4129537"><ele>1130.7142857142858</ele><time>2026-04-29T14:32:22.413Z</time></trkpt><trkpt lat="44.2070461" lon="10.4128951"><ele>1130.142857142857</ele><time>2026-04-29T14:32:26.411Z</time></trkpt><trkpt lat="44.206983" lon="10.4128667"><ele>1129.5714285714284</ele><time>2026-04-29T14:32:29.399Z</time></trkpt><trkpt lat="44.2069184" lon="10.4128521"><ele>1129.0</ele><time>2026-04-29T14:32:32.406Z</time></trkpt><trkpt lat="44.2068554" lon="10.4128677"><ele>1132.0</ele><time>2026-04-29T14:32:36.347Z</time></trkpt><trkpt lat="44.2067804" lon="10.412877"><ele>1135.0</ele><time>2026-04-29T14:32:40.412Z</time></trkpt><trkpt lat="44.2067059" lon="10.4128843"><ele>1138.0</ele><time>2026-04-29T14:32:44.409Z</time></trkpt><trkpt lat="44.2066228" lon="10.4129014"><ele>1141.0</ele><time>2026-04-29T14:32:48.415Z</time></trkpt><trkpt lat="44.2065396" lon="10.4129021"><ele>1144.0</ele><time>2026-04-29T14:32:52.423Z</time></trkpt><trkpt lat="44.2064723" lon="10.412904"><ele>1147.0</ele><time>2026-04-29T14:32:55.405Z</time></trkpt><trkpt lat="44.2063931" lon="10.4128971"><ele>1147.0</ele><time>2026-04-29T14:32:59.403Z</time></trkpt><trkpt lat="44.2063315" lon="10.4128584"><ele>1147.0</ele><time>2026-04-29T14:33:03.414Z</time></trkpt><trkpt lat="44.2062643" lon="10.412797"><ele>1147.0</ele><time>2026-04-29T14:33:07.404Z</time></trkpt><trkpt lat="44.206221" lon="10.4127154"><ele>1147.0</ele><time>2026-04-29T14:33:11.412Z</time></trkpt><trkpt lat="44.2061982" lon="10.412616"><ele>1147.0</ele><time>2026-04-29T14:33:15.423Z</time></trkpt><trkpt lat="44.2061815" lon="10.4125165"><ele>1147.0</ele><time>2026-04-29T14:33:19.409Z</time></trkpt><trkpt lat="44.2061762" lon="10.4124151"><ele>1147.0</ele><time>2026-04-29T14:33:23.428Z</time></trkpt><trkpt lat="44.2061688" lon="10.4122989"><ele>1147.0</ele><time>2026-04-29T14:33:27.401Z</time></trkpt><trkpt lat="44.2061476" lon="10.4122035"><ele>1147.0</ele><time>2026-04-29T14:33:31.41Z</time></trkpt><trkpt lat="44.2061143" lon="10.4121114"><ele>1147.0</ele><time>2026-04-29T14:33:35.41Z</time></trkpt><trkpt lat="44.2060396" lon="10.4120542"><ele>1147.0</ele><time>2026-04-29T14:33:39.405Z</time></trkpt><trkpt lat="44.2059763" lon="10.4120616"><ele>1147.0</ele><time>2026-04-29T14:33:42.427Z</time></trkpt><trkpt lat="44.2058996" lon="10.4120875"><ele>1147.0</ele><time>2026-04-29T14:33:46.416Z</time></trkpt><trkpt lat="44.2058276" lon="10.4121414"><ele>1147.0</ele><time>2026-04-29T14:33:50.408Z</time></trkpt><trkpt lat="44.2057742" lon="10.4121892"><ele>1147.0</ele><time>2026-04-29T14:33:53.417Z</time></trkpt><trkpt lat="44.2057049" lon="10.4122351"><ele>1147.0</ele><time>2026-04-29T14:33:57.403Z</time></trkpt><trkpt lat="44.2056386" lon="10.412287"><ele>1147.0</ele><time>2026-04-29T14:34:01.404Z</time></trkpt><trkpt lat="44.2055698" lon="10.4123291"><ele>1147.0</ele><time>2026-04-29T14:34:05.408Z</time></trkpt><trkpt lat="44.2054967" lon="10.4123683"><ele>1147.0</ele><time>2026-04-29T14:34:09.411Z</time></trkpt><trkpt lat="44.205438" lon="10.4124016"><ele>1147.0</ele><time>2026-04-29T14:34:12.395Z</time></trkpt><trkpt lat="44.2053643" lon="10.4124348"><ele>1147.8333333333333</ele><time>2026-04-29T14:34:16.402Z</time></trkpt><trkpt lat="44.205283" lon="10.4124327"><ele>1148.6666666666665</ele><time>2026-04-29T14:34:20.401Z</time></trkpt><trkpt lat="44.2052133" lon="10.4124304"><ele>1149.5</ele><time>2026-04-29T14:34:24.409Z</time></trkpt><trkpt lat="44.2051506" lon="10.4123986"><ele>1150.3333333333333</ele><time>2026-04-29T14:34:28.398Z</time></trkpt><trkpt lat="44.2050797" lon="10.4123673"><ele>1151.1666666666667</ele><time>2026-04-29T14:34:32.405Z</time></trkpt><trkpt lat="44.2049994" lon="10.4123422"><ele>1152.0</ele><time>2026-04-29T14:34:36.402Z</time></trkpt><trkpt lat="44.2049258" lon="10.4123195"><ele>1152.0000000000002</ele><time>2026-04-29T14:34:40.412Z</time></trkpt><trkpt lat="44.2048524" lon="10.4122906"><ele>1152.0</ele><time>2026-04-29T14:34:44.401Z</time></trkpt><trkpt lat="44.2047858" lon="10.4122504"><ele>1152.0</ele><time>2026-04-29T14:34:48.402Z</time></trkpt><trkpt lat="44.2047186" lon="10.4122138"><ele>1152.0</ele><time>2026-04-29T14:34:52.412Z</time></trkpt><trkpt lat="44.2046583" lon="10.4121472"><ele>1152.0</ele><time>2026-04-29T14:34:56.404Z</time></trkpt><trkpt lat="44.2046207" lon="10.4120645"><ele>1152.0000000000002</ele><time>2026-04-29T14:35:00.397Z</time></trkpt><trkpt lat="44.2045696" lon="10.4119944"><ele>1152.0</ele><time>2026-04-29T14:35:04.401Z</time></trkpt><trkpt lat="44.2045154" lon="10.4119139"><ele>1153.3333333333333</ele><time>2026-04-29T14:35:08.41Z</time></trkpt><trkpt lat="44.2044643" lon="10.4118425"><ele>1154.6666666666667</ele><time>2026-04-29T14:35:12.405Z</time></trkpt><trkpt lat="44.2044332" lon="10.4117447"><ele>1156.0</ele><time>2026-04-29T14:35:16.401Z</time></trkpt><trkpt lat="44.2043961" lon="10.4116498"><ele>1157.3333333333335</ele><time>2026-04-29T14:35:20.422Z</time></trkpt><trkpt lat="44.204382" lon="10.411543"><ele>1158.6666666666667</ele><time>2026-04-29T14:35:24.408Z</time></trkpt><trkpt lat="44.2043578" lon="10.4114351"><ele>1160.0</ele><time>2026-04-29T14:35:28.412Z</time></trkpt><trkpt lat="44.2043241" lon="10.4113315"><ele>1160.7142857142858</ele><time>2026-04-29T14:35:32.402Z</time></trkpt><trkpt lat="44.2042921" lon="10.4112253"><ele>1161.4285714285716</ele><time>2026-04-29T14:35:36.417Z</time></trkpt><trkpt lat="44.2042685" lon="10.4111431"><ele>1162.142857142857</ele><time>2026-04-29T14:35:39.418Z</time></trkpt><trkpt lat="44.20423" lon="10.4110427"><ele>1162.857142857143</ele><time>2026-04-29T14:35:43.407Z</time></trkpt><trkpt lat="44.2042005" lon="10.4109636"><ele>1163.5714285714284</ele><time>2026-04-29T14:35:46.418Z</time></trkpt><trkpt lat="44.204184" lon="10.4108559"><ele>1164.2857142857142</ele><time>2026-04-29T14:35:50.296Z</time></trkpt><trkpt lat="44.2041846" lon="10.4107607"><ele>1165.0</ele><time>2026-04-29T14:35:53.401Z</time></trkpt><trkpt lat="44.2042101" lon="10.4106781"><ele>1164.9999999999998</ele><time>2026-04-29T14:35:56.414Z</time></trkpt><trkpt lat="44.204235" lon="10.4105912"><ele>1165.0</ele><time>2026-04-29T14:35:59.38Z</time></trkpt><trkpt lat="44.2042791" lon="10.4105258"><ele>1165.0</ele><time>2026-04-29T14:36:02.429Z</time></trkpt><trkpt lat="44.2043362" lon="10.4104448"><ele>1165.0</ele><time>2026-04-29T14:36:06.335Z</time></trkpt><trkpt lat="44.2043868" lon="10.4103903"><ele>1165.0</ele><time>2026-04-29T14:36:09.409Z</time></trkpt><trkpt lat="44.2044572" lon="10.4103273"><ele>1164.9999999999998</ele><time>2026-04-29T14:36:13.411Z</time></trkpt><trkpt lat="44.2045151" lon="10.4102472"><ele>1165.0</ele><time>2026-04-29T14:36:17.402Z</time></trkpt><trkpt lat="44.2045616" lon="10.410172"><ele>1165.0</ele><time>2026-04-29T14:36:21.409Z</time></trkpt><trkpt lat="44.2046249" lon="10.4101044"><ele>1165.0</ele><time>2026-04-29T14:36:25.409Z</time></trkpt><trkpt lat="44.2046956" lon="10.4100447"><ele>1165.0</ele><time>2026-04-29T14:36:29.408Z</time></trkpt><trkpt lat="44.2047676" lon="10.4099876"><ele>1165.0</ele><time>2026-04-29T14:36:33.413Z</time></trkpt><trkpt lat="44.2048304" lon="10.409962"><ele>1165.0</ele><time>2026-04-29T14:36:36.409Z</time></trkpt><trkpt lat="44.2049097" lon="10.4099371"><ele>1165.0</ele><time>2026-04-29T14:36:40.406Z</time></trkpt><trkpt lat="44.2049845" lon="10.4098899"><ele>1165.8333333333333</ele><time>2026-04-29T14:36:44.422Z</time></trkpt><trkpt lat="44.2050522" lon="10.4098425"><ele>1166.6666666666665</ele><time>2026-04-29T14:36:48.404Z</time></trkpt><trkpt lat="44.2051184" lon="10.4097845"><ele>1167.5</ele><time>2026-04-29T14:36:52.4Z</time></trkpt><trkpt lat="44.2051881" lon="10.409741"><ele>1168.3333333333333</ele><time>2026-04-29T14:36:56.411Z</time></trkpt><trkpt lat="44.2052575" lon="10.4097001"><ele>1169.1666666666667</ele><time>2026-04-29T14:37:00.4Z</time></trkpt><trkpt lat="44.2053067" lon="10.4096178"><ele>1170.0</ele><time>2026-04-29T14:37:04.421Z</time></trkpt><trkpt lat="44.2053617" lon="10.4095456"><ele>1170.0</ele><time>2026-04-29T14:37:08.413Z</time></trkpt><trkpt lat="44.2054163" lon="10.409476"><ele>1170.0</ele><time>2026-04-29T14:37:12.427Z</time></trkpt><trkpt lat="44.2054638" lon="10.4094169"><ele>1170.0</ele><time>2026-04-29T14:37:15.423Z</time></trkpt><trkpt lat="44.2055077" lon="10.4093328"><ele>1170.0</ele><time>2026-04-29T14:37:19.408Z</time></trkpt><trkpt lat="44.2055575" lon="10.4092636"><ele>1170.0</ele><time>2026-04-29T14:37:23.405Z</time></trkpt><trkpt lat="44.2056022" lon="10.409185"><ele>1170.0</ele><time>2026-04-29T14:37:27.399Z</time></trkpt><trkpt lat="44.2056499" lon="10.409104"><ele>1170.0</ele><time>2026-04-29T14:37:31.403Z</time></trkpt><trkpt lat="44.2057044" lon="10.4090149"><ele>1172.0</ele><time>2026-04-29T14:37:36.418Z</time></trkpt><trkpt lat="44.2057621" lon="10.4089357"><ele>1174.0</ele><time>2026-04-29T14:37:40.415Z</time></trkpt><trkpt lat="44.2058086" lon="10.4088476"><ele>1176.0</ele><time>2026-04-29T14:37:44.405Z</time></trkpt><trkpt lat="44.2058596" lon="10.4087767"><ele>1178.0</ele><time>2026-04-29T14:37:48.404Z</time></trkpt><trkpt lat="44.2059096" lon="10.4086976"><ele>1180.0</ele><time>2026-04-29T14:37:52.43Z</time></trkpt><trkpt lat="44.2059583" lon="10.4086191"><ele>1182.0</ele><time>2026-04-29T14:37:56.42Z</time></trkpt><trkpt lat="44.2060059" lon="10.4085461"><ele>1182.4285714285713</ele><time>2026-04-29T14:38:00.411Z</time></trkpt><trkpt lat="44.2060639" lon="10.4084659"><ele>1182.857142857143</ele><time>2026-04-29T14:38:04.396Z</time></trkpt><trkpt lat="44.2061228" lon="10.4084044"><ele>1183.2857142857142</ele><time>2026-04-29T14:38:08.409Z</time></trkpt><trkpt lat="44.2061784" lon="10.4083355"><ele>1183.7142857142858</ele><time>2026-04-29T14:38:12.415Z</time></trkpt><trkpt lat="44.2062283" lon="10.4082517"><ele>1184.142857142857</ele><time>2026-04-29T14:38:16.419Z</time></trkpt><trkpt lat="44.2062766" lon="10.4081823"><ele>1184.5714285714284</ele><time>2026-04-29T14:38:20.41Z</time></trkpt><trkpt lat="44.2063379" lon="10.4081437"><ele>1185.0</ele><time>2026-04-29T14:38:24.415Z</time></trkpt><trkpt lat="44.2063983" lon="10.4081843"><ele>1185.0</ele><time>2026-04-29T14:38:29.408Z</time></trkpt><trkpt lat="44.2064237" lon="10.4082856"><ele>1185.0</ele><time>2026-04-29T14:38:34.411Z</time></trkpt><trkpt lat="44.2064456" lon="10.4083797"><ele>1185.0</ele><time>2026-04-29T14:38:38.408Z</time></trkpt><trkpt lat="44.2064753" lon="10.4084746"><ele>1185.0</ele><time>2026-04-29T14:38:42.415Z</time></trkpt><trkpt lat="44.2065147" lon="10.4085597"><ele>1185.0</ele><time>2026-04-29T14:38:46.405Z</time></trkpt><trkpt lat="44.2065598" lon="10.4086244"><ele>1185.0</ele><time>2026-04-29T14:38:49.422Z</time></trkpt><trkpt lat="44.2066205" lon="10.4086852"><ele>1185.0</ele><time>2026-04-29T14:38:53.409Z</time></trkpt><trkpt lat="44.2066897" lon="10.4087255"><ele>1186.0</ele><time>2026-04-29T14:38:57.412Z</time></trkpt><trkpt lat="44.2067525" lon="10.4087511"><ele>1187.0</ele><time>2026-04-29T14:39:00.413Z</time></trkpt><trkpt lat="44.2068138" lon="10.4087717"><ele>1188.0</ele><time>2026-04-29T14:39:03.409Z</time></trkpt><trkpt lat="44.2068845" lon="10.4087904"><ele>1189.0</ele><time>2026-04-29T14:39:07.41Z</time></trkpt><trkpt lat="44.2069525" lon="10.4088172"><ele>1190.0</ele><time>2026-04-29T14:39:11.408Z</time></trkpt><trkpt lat="44.2070222" lon="10.4088397"><ele>1191.0</ele><time>2026-04-29T14:39:15.413Z</time></trkpt><trkpt lat="44.2070946" lon="10.4088534"><ele>1192.0</ele><time>2026-04-29T14:39:19.418Z</time></trkpt><trkpt lat="44.2071662" lon="10.4088789"><ele>1192.0</ele><time>2026-04-29T14:39:23.414Z</time></trkpt><trkpt lat="44.2072432" lon="10.408921"><ele>1192.0</ele><time>2026-04-29T14:39:27.414Z</time></trkpt><trkpt lat="44.2072996" lon="10.4089665"><ele>1192.0</ele><time>2026-04-29T14:39:31.417Z</time></trkpt><trkpt lat="44.2073651" lon="10.4090193"><ele>1192.0</ele><time>2026-04-29T14:39:35.409Z</time></trkpt><trkpt lat="44.2074283" lon="10.4090785"><ele>1192.0</ele><time>2026-04-29T14:39:39.455Z</time></trkpt><trkpt lat="44.2074834" lon="10.4091232"><ele>1192.0</ele><time>2026-04-29T14:39:43.402Z</time></trkpt><trkpt lat="44.2075509" lon="10.4091645"><ele>1192.0</ele><time>2026-04-29T14:39:47.401Z</time></trkpt><trkpt lat="44.2076148" lon="10.4091964"><ele>1193.4285714285713</ele><time>2026-04-29T14:39:51.406Z</time></trkpt><trkpt lat="44.2076801" lon="10.4092193"><ele>1194.8571428571427</ele><time>2026-04-29T14:39:55.408Z</time></trkpt><trkpt lat="44.2077505" lon="10.4092399"><ele>1196.2857142857142</ele><time>2026-04-29T14:39:59.404Z</time></trkpt><trkpt lat="44.2078115" lon="10.4092767"><ele>1197.7142857142858</ele><time>2026-04-29T14:40:03.415Z</time></trkpt><trkpt lat="44.2078604" lon="10.4093426"><ele>1199.1428571428573</ele><time>2026-04-29T14:40:07.401Z</time></trkpt><trkpt lat="44.2079118" lon="10.4094081"><ele>1200.5714285714284</ele><time>2026-04-29T14:40:11.409Z</time></trkpt><trkpt lat="44.2079659" lon="10.4094791"><ele>1202.0</ele><time>2026-04-29T14:40:15.406Z</time></trkpt><trkpt lat="44.2080115" lon="10.4095452"><ele>1202.0</ele><time>2026-04-29T14:40:19.403Z</time></trkpt><trkpt lat="44.2080627" lon="10.4096042"><ele>1202.0</ele><time>2026-04-29T14:40:23.407Z</time></trkpt><trkpt lat="44.2081008" lon="10.4096753"><ele>1202.0</ele><time>2026-04-29T14:40:27.413Z</time></trkpt><trkpt lat="44.2081377" lon="10.4097559"><ele>1202.0</ele><time>2026-04-29T14:40:31.408Z</time></trkpt><trkpt lat="44.2081798" lon="10.40983"><ele>1202.0</ele><time>2026-04-29T14:40:35.41Z</time></trkpt><trkpt lat="44.2082408" lon="10.409892"><ele>1202.0</ele><time>2026-04-29T14:40:40.405Z</time></trkpt><trkpt lat="44.208309" lon="10.4099165"><ele>1202.0</ele><time>2026-04-29T14:40:44.403Z</time></trkpt><trkpt lat="44.2083751" lon="10.4099148"><ele>1203.4285714285713</ele><time>2026-04-29T14:40:48.406Z</time></trkpt><trkpt lat="44.2084387" lon="10.4098788"><ele>1204.857142857143</ele><time>2026-04-29T14:40:52.429Z</time></trkpt><trkpt lat="44.208508" lon="10.409837"><ele>1206.2857142857142</ele><time>2026-04-29T14:40:57.414Z</time></trkpt><trkpt lat="44.2085797" lon="10.4098047"><ele>1207.7142857142858</ele><time>2026-04-29T14:41:02.414Z</time></trkpt><trkpt lat="44.2086463" lon="10.4097489"><ele>1209.142857142857</ele><time>2026-04-29T14:41:07.399Z</time></trkpt><trkpt lat="44.2087122" lon="10.4097113"><ele>1210.5714285714287</ele><time>2026-04-29T14:41:12.398Z</time></trkpt><trkpt lat="44.2087783" lon="10.4096888"><ele>1212.0</ele><time>2026-04-29T14:41:17.403Z</time></trkpt><trkpt lat="44.2088409" lon="10.4096575"><ele>1213.857142857143</ele><time>2026-04-29T14:41:23.398Z</time></trkpt><trkpt lat="44.2089032" lon="10.4096385"><ele>1215.7142857142858</ele><time>2026-04-29T14:41:27.401Z</time></trkpt><trkpt lat="44.2089704" lon="10.4096098"><ele>1217.5714285714284</ele><time>2026-04-29T14:41:31.399Z</time></trkpt><trkpt lat="44.2090316" lon="10.409569"><ele>1219.4285714285716</ele><time>2026-04-29T14:41:35.402Z</time></trkpt><trkpt lat="44.2090969" lon="10.4095216"><ele>1221.2857142857142</ele><time>2026-04-29T14:41:40.402Z</time></trkpt><trkpt lat="44.2091628" lon="10.4094635"><ele>1223.142857142857</ele><time>2026-04-29T14:41:45.413Z</time></trkpt><trkpt lat="44.2092223" lon="10.4094319"><ele>1225.0</ele><time>2026-04-29T14:41:49.416Z</time></trkpt><trkpt lat="44.2092925" lon="10.4093813"><ele>1226.7142857142858</ele><time>2026-04-29T14:41:54.407Z</time></trkpt><trkpt lat="44.2093531" lon="10.4093467"><ele>1228.4285714285716</ele><time>2026-04-29T14:41:58.419Z</time></trkpt><trkpt lat="44.2094101" lon="10.409305"><ele>1230.142857142857</ele><time>2026-04-29T14:42:02.405Z</time></trkpt><trkpt lat="44.2094761" lon="10.4092549"><ele>1231.857142857143</ele><time>2026-04-29T14:42:07.404Z</time></trkpt><trkpt lat="44.2095265" lon="10.4091879"><ele>1233.5714285714287</ele><time>2026-04-29T14:42:11.401Z</time></trkpt><trkpt lat="44.2095798" lon="10.409118"><ele>1235.2857142857142</ele><time>2026-04-29T14:42:15.403Z</time></trkpt><trkpt lat="44.2096685" lon="10.4090537"><ele>1237.0</ele><time>2026-04-29T14:42:19.399Z</time></trkpt><trkpt lat="44.2097124" lon="10.4089792"><ele>1237.0</ele><time>2026-04-29T14:42:24.401Z</time></trkpt><trkpt lat="44.2097296" lon="10.4088932"><ele>1237.0</ele><time>2026-04-29T14:42:29.407Z</time></trkpt><trkpt lat="44.2097478" lon="10.4087887"><ele>1237.0</ele><time>2026-04-29T14:42:34.424Z</time></trkpt><trkpt lat="44.2097688" lon="10.4086916"><ele>1237.0</ele><time>2026-04-29T14:42:39.421Z</time></trkpt><trkpt lat="44.209789" lon="10.4085887"><ele>1237.0</ele><time>2026-04-29T14:42:44.408Z</time></trkpt><trkpt lat="44.2097961" lon="10.4085001"><ele>1237.0</ele><time>2026-04-29T14:42:48.417Z</time></trkpt><trkpt lat="44.2097902" lon="10.4083921"><ele>1237.0</ele><time>2026-04-29T14:42:53.408Z</time></trkpt><trkpt lat="44.2098197" lon="10.4082963"><ele>1236.2857142857142</ele><time>2026-04-29T14:42:58.407Z</time></trkpt><trkpt lat="44.2098454" lon="10.4082118"><ele>1235.5714285714287</ele><time>2026-04-29T14:43:02.403Z</time></trkpt><trkpt lat="44.2098435" lon="10.4081136"><ele>1234.857142857143</ele><time>2026-04-29T14:43:06.408Z</time></trkpt><trkpt lat="44.2098366" lon="10.4080027"><ele>1234.142857142857</ele><time>2026-04-29T14:43:10.406Z</time></trkpt><trkpt lat="44.2098342" lon="10.4078985"><ele>1233.4285714285716</ele><time>2026-04-29T14:43:14.415Z</time></trkpt><trkpt lat="44.2098349" lon="10.4078034"><ele>1232.7142857142858</ele><time>2026-04-29T14:43:18.416Z</time></trkpt><trkpt lat="44.2098408" lon="10.4076981"><ele>1232.0</ele><time>2026-04-29T14:43:22.409Z</time></trkpt><trkpt lat="44.2098555" lon="10.4076117"><ele>1233.4285714285713</ele><time>2026-04-29T14:43:26.4Z</time></trkpt><trkpt lat="44.2098443" lon="10.4075124"><ele>1234.857142857143</ele><time>2026-04-29T14:43:30.412Z</time></trkpt><trkpt lat="44.209806" lon="10.4074138"><ele>1236.2857142857142</ele><time>2026-04-29T14:43:34.423Z</time></trkpt><trkpt lat="44.209762" lon="10.4073345"><ele>1237.7142857142858</ele><time>2026-04-29T14:43:38.395Z</time></trkpt><trkpt lat="44.2097263" lon="10.4072564"><ele>1239.142857142857</ele><time>2026-04-29T14:43:42.419Z</time></trkpt><trkpt lat="44.2097114" lon="10.4071615"><ele>1240.5714285714284</ele><time>2026-04-29T14:43:47.404Z</time></trkpt><trkpt lat="44.2097148" lon="10.4070724"><ele>1242.0</ele><time>2026-04-29T14:43:51.404Z</time></trkpt><trkpt lat="44.2097273" lon="10.4069657"><ele>1246.8571428571427</ele><time>2026-04-29T14:43:56.409Z</time></trkpt><trkpt lat="44.2097182" lon="10.4068597"><ele>1251.7142857142858</ele><time>2026-04-29T14:44:01.42Z</time></trkpt><trkpt lat="44.2097152" lon="10.4067625"><ele>1256.5714285714284</ele><time>2026-04-29T14:44:05.419Z</time></trkpt><trkpt lat="44.2096949" lon="10.4066776"><ele>1261.4285714285713</ele><time>2026-04-29T14:44:10.427Z</time></trkpt><trkpt lat="44.2097064" lon="10.4065813"><ele>1266.2857142857142</ele><time>2026-04-29T14:44:16.402Z</time></trkpt><trkpt lat="44.2097336" lon="10.4064935"><ele>1271.142857142857</ele><time>2026-04-29T14:44:21.405Z</time></trkpt><trkpt lat="44.2097593" lon="10.4063989"><ele>1276.0</ele><time>2026-04-29T14:44:26.411Z</time></trkpt><trkpt lat="44.2097799" lon="10.4063067"><ele>1277.2857142857144</ele><time>2026-04-29T14:44:29.408Z</time></trkpt><trkpt lat="44.2098084" lon="10.4062124"><ele>1278.5714285714284</ele><time>2026-04-29T14:44:34.415Z</time></trkpt><trkpt lat="44.2098252" lon="10.4060897"><ele>1279.857142857143</ele><time>2026-04-29T14:44:38.399Z</time></trkpt><trkpt lat="44.209836" lon="10.4059807"><ele>1281.1428571428573</ele><time>2026-04-29T14:44:41.406Z</time></trkpt><trkpt lat="44.2098488" lon="10.4058938"><ele>1282.4285714285716</ele><time>2026-04-29T14:44:44.412Z</time></trkpt><trkpt lat="44.2098734" lon="10.405796"><ele>1283.7142857142858</ele><time>2026-04-29T14:44:47.399Z</time></trkpt><trkpt lat="44.209918" lon="10.4057293"><ele>1285.0</ele><time>2026-04-29T14:44:50.416Z</time></trkpt><trkpt lat="44.2099493" lon="10.4056361"><ele>1282.2857142857144</ele><time>2026-04-29T14:44:54.406Z</time></trkpt><trkpt lat="44.2099866" lon="10.4055531"><ele>1279.5714285714287</ele><time>2026-04-29T14:44:58.406Z</time></trkpt><trkpt lat="44.2099912" lon="10.4054456"><ele>1276.857142857143</ele><time>2026-04-29T14:45:04.401Z</time></trkpt><trkpt lat="44.2099769" lon="10.4053511"><ele>1274.1428571428573</ele><time>2026-04-29T14:45:08.408Z</time></trkpt><trkpt lat="44.2099584" lon="10.4052607"><ele>1271.4285714285716</ele><time>2026-04-29T14:45:12.407Z</time></trkpt><trkpt lat="44.2099372" lon="10.4051603"><ele>1268.7142857142858</ele><time>2026-04-29T14:45:16.41Z</time></trkpt><trkpt lat="44.2099494" lon="10.405055"><ele>1266.0</ele><time>2026-04-29T14:45:20.4Z</time></trkpt><trkpt lat="44.2100014" lon="10.4049787"><ele>1266.0</ele><time>2026-04-29T14:45:24.399Z</time></trkpt><trkpt lat="44.2100607" lon="10.4049145"><ele>1266.0</ele><time>2026-04-29T14:45:29.409Z</time></trkpt><trkpt lat="44.2101064" lon="10.404837"><ele>1266.0</ele><time>2026-04-29T14:45:33.412Z</time></trkpt><trkpt lat="44.2101478" lon="10.4047613"><ele>1266.0</ele><time>2026-04-29T14:45:37.404Z</time></trkpt><trkpt lat="44.2101977" lon="10.4046873"><ele>1266.0</ele><time>2026-04-29T14:45:41.398Z</time></trkpt><trkpt lat="44.210229" lon="10.4046012"><ele>1266.0</ele><time>2026-04-29T14:45:46.406Z</time></trkpt><trkpt lat="44.2102733" lon="10.4045261"><ele>1266.0</ele><time>2026-04-29T14:45:50.416Z</time></trkpt><trkpt lat="44.2103244" lon="10.4044575"><ele>1265.7142857142858</ele><time>2026-04-29T14:45:55.423Z</time></trkpt><trkpt lat="44.2103764" lon="10.404405"><ele>1265.4285714285716</ele><time>2026-04-29T14:45:59.403Z</time></trkpt><trkpt lat="44.2104388" lon="10.4043435"><ele>1265.1428571428573</ele><time>2026-04-29T14:46:04.423Z</time></trkpt><trkpt lat="44.2105014" lon="10.4042785"><ele>1264.857142857143</ele><time>2026-04-29T14:46:08.404Z</time></trkpt><trkpt lat="44.2105628" lon="10.4042317"><ele>1264.5714285714287</ele><time>2026-04-29T14:46:12.408Z</time></trkpt><trkpt lat="44.2106106" lon="10.404151"><ele>1264.2857142857144</ele><time>2026-04-29T14:46:17.397Z</time></trkpt><trkpt lat="44.2106605" lon="10.404065"><ele>1264.0</ele><time>2026-04-29T14:46:21.409Z</time></trkpt><trkpt lat="44.2107083" lon="10.4039921"><ele>1264.0000000000002</ele><time>2026-04-29T14:46:25.378Z</time></trkpt><trkpt lat="44.2107482" lon="10.4039238"><ele>1264.0</ele><time>2026-04-29T14:46:29.399Z</time></trkpt><trkpt lat="44.2107969" lon="10.4038603"><ele>1264.0</ele><time>2026-04-29T14:46:33.409Z</time></trkpt><trkpt lat="44.2108431" lon="10.4037938"><ele>1264.0</ele><time>2026-04-29T14:46:37.41Z</time></trkpt><trkpt lat="44.2108877" lon="10.4037276"><ele>1264.0</ele><time>2026-04-29T14:46:43.41Z</time></trkpt><trkpt lat="44.2109439" lon="10.4036737"><ele>1264.0000000000002</ele><time>2026-04-29T14:46:48.403Z</time></trkpt><trkpt lat="44.2110089" lon="10.403603"><ele>1264.0</ele><time>2026-04-29T14:46:53.402Z</time></trkpt><trkpt lat="44.2110753" lon="10.403539"><ele>1267.0000000000002</ele><time>2026-04-29T14:46:57.405Z</time></trkpt><trkpt lat="44.2111172" lon="10.4034599"><ele>1270.0</ele><time>2026-04-29T14:46:59.398Z</time></trkpt><trkpt lat="44.2111737" lon="10.4033748"><ele>1273.0</ele><time>2026-04-29T14:47:02.406Z</time></trkpt><trkpt lat="44.2112172" lon="10.4032846"><ele>1276.0</ele><time>2026-04-29T14:47:05.407Z</time></trkpt><trkpt lat="44.2112503" lon="10.4031977"><ele>1279.0</ele><time>2026-04-29T14:47:11.414Z</time></trkpt><trkpt lat="44.2112763" lon="10.4030963"><ele>1282.0000000000002</ele><time>2026-04-29T14:47:17.405Z</time></trkpt><trkpt lat="44.2113099" lon="10.4030188"><ele>1285.0</ele><time>2026-04-29T14:47:22.415Z</time></trkpt><trkpt lat="44.2113664" lon="10.4029666"><ele>1286.0000000000002</ele><time>2026-04-29T14:47:27.406Z</time></trkpt><trkpt lat="44.2114235" lon="10.4029152"><ele>1287.0</ele><time>2026-04-29T14:47:32.408Z</time></trkpt><trkpt lat="44.2114937" lon="10.4028615"><ele>1288.0</ele><time>2026-04-29T14:47:37.411Z</time></trkpt><trkpt lat="44.2115391" lon="10.4028004"><ele>1289.0</ele><time>2026-04-29T14:47:41.394Z</time></trkpt><trkpt lat="44.2115981" lon="10.4027531"><ele>1290.0</ele><time>2026-04-29T14:47:45.406Z</time></trkpt><trkpt lat="44.2116723" lon="10.4027129"><ele>1291.0000000000002</ele><time>2026-04-29T14:47:49.398Z</time></trkpt><trkpt lat="44.2117479" lon="10.4026848"><ele>1292.0</ele><time>2026-04-29T14:47:53.406Z</time></trkpt><trkpt lat="44.2118105" lon="10.4026606"><ele>1292.0000000000002</ele><time>2026-04-29T14:47:56.416Z</time></trkpt><trkpt lat="44.2118765" lon="10.402656"><ele>1292.0</ele><time>2026-04-29T14:48:00.402Z</time></trkpt><trkpt lat="44.2119463" lon="10.4026333"><ele>1292.0</ele><time>2026-04-29T14:48:05.406Z</time></trkpt><trkpt lat="44.2120063" lon="10.4026066"><ele>1292.0</ele><time>2026-04-29T14:48:09.4Z</time></trkpt><trkpt lat="44.2120799" lon="10.4026026"><ele>1292.0</ele><time>2026-04-29T14:48:13.409Z</time></trkpt><trkpt lat="44.212143" lon="10.4025944"><ele>1292.0000000000002</ele><time>2026-04-29T14:48:17.411Z</time></trkpt><trkpt lat="44.2122186" lon="10.402569"><ele>1292.0</ele><time>2026-04-29T14:48:22.398Z</time></trkpt><trkpt lat="44.2122887" lon="10.4025557"><ele>1290.857142857143</ele><time>2026-04-29T14:48:26.405Z</time></trkpt><trkpt lat="44.2123581" lon="10.4025268"><ele>1289.7142857142858</ele><time>2026-04-29T14:48:30.404Z</time></trkpt><trkpt lat="44.21242" lon="10.4024866"><ele>1288.5714285714284</ele><time>2026-04-29T14:48:34.398Z</time></trkpt><trkpt lat="44.2124828" lon="10.4024147"><ele>1287.4285714285716</ele><time>2026-04-29T14:48:39.427Z</time></trkpt><trkpt lat="44.2125299" lon="10.4023554"><ele>1286.2857142857142</ele><time>2026-04-29T14:48:43.401Z</time></trkpt><trkpt lat="44.2125808" lon="10.4022979"><ele>1285.142857142857</ele><time>2026-04-29T14:48:47.408Z</time></trkpt><trkpt lat="44.2126322" lon="10.4022345"><ele>1284.0</ele><time>2026-04-29T14:48:51.397Z</time></trkpt><trkpt lat="44.2127022" lon="10.4021821"><ele>1286.8571428571427</ele><time>2026-04-29T14:48:55.407Z</time></trkpt><trkpt lat="44.2127591" lon="10.4021436"><ele>1289.7142857142858</ele><time>2026-04-29T14:49:00.404Z</time></trkpt><trkpt lat="44.2128305" lon="10.4021078"><ele>1292.5714285714284</ele><time>2026-04-29T14:49:04.405Z</time></trkpt><trkpt lat="44.2128821" lon="10.4020545"><ele>1295.4285714285713</ele><time>2026-04-29T14:49:08.408Z</time></trkpt><trkpt lat="44.2129509" lon="10.4020067"><ele>1298.2857142857142</ele><time>2026-04-29T14:49:12.404Z</time></trkpt><trkpt lat="44.2130125" lon="10.4019634"><ele>1301.142857142857</ele><time>2026-04-29T14:49:17.42Z</time></trkpt><trkpt lat="44.2130658" lon="10.4018908"><ele>1304.0</ele><time>2026-04-29T14:49:22.399Z</time></trkpt><trkpt lat="44.2131239" lon="10.4018315"><ele>1303.5714285714287</ele><time>2026-04-29T14:49:27.333Z</time></trkpt><trkpt lat="44.2131827" lon="10.4017902"><ele>1303.142857142857</ele><time>2026-04-29T14:49:31.399Z</time></trkpt><trkpt lat="44.2132513" lon="10.4017725"><ele>1302.7142857142858</ele><time>2026-04-29T14:49:35.407Z</time></trkpt><trkpt lat="44.2133147" lon="10.4017944"><ele>1302.2857142857142</ele><time>2026-04-29T14:49:39.397Z</time></trkpt><trkpt lat="44.2133835" lon="10.401837"><ele>1301.857142857143</ele><time>2026-04-29T14:49:43.415Z</time></trkpt><trkpt lat="44.213443" lon="10.4018911"><ele>1301.4285714285713</ele><time>2026-04-29T14:49:48.398Z</time></trkpt><trkpt lat="44.2135072" lon="10.4019193"><ele>1301.0</ele><time>2026-04-29T14:49:52.407Z</time></trkpt><trkpt lat="44.2135814" lon="10.4019393"><ele>1301.0</ele><time>2026-04-29T14:49:57.405Z</time></trkpt><trkpt lat="44.2136453" lon="10.4019494"><ele>1301.0</ele><time>2026-04-29T14:50:01.404Z</time></trkpt><trkpt lat="44.2137194" lon="10.4019532"><ele>1301.0</ele><time>2026-04-29T14:50:05.395Z</time></trkpt><trkpt lat="44.2137845" lon="10.4019665"><ele>1301.0</ele><time>2026-04-29T14:50:09.419Z</time></trkpt><trkpt lat="44.2138538" lon="10.4019606"><ele>1301.0</ele><time>2026-04-29T14:50:14.394Z</time></trkpt><trkpt lat="44.2139235" lon="10.4019557"><ele>1301.0</ele><time>2026-04-29T14:50:18.411Z</time></trkpt><trkpt lat="44.2139869" lon="10.4019151"><ele>1301.0</ele><time>2026-04-29T14:50:22.4Z</time></trkpt><trkpt lat="44.2139781" lon="10.4018251"><ele>1301.0</ele><time>2026-04-29T14:50:26.408Z</time></trkpt><trkpt lat="44.213923" lon="10.4017808"><ele>1301.0</ele><time>2026-04-29T14:50:31.423Z</time></trkpt><trkpt lat="44.2138643" lon="10.401733"><ele>1301.0</ele><time>2026-04-29T14:50:37.403Z</time></trkpt><trkpt lat="44.2138077" lon="10.4016655"><ele>1301.0</ele><time>2026-04-29T14:50:43.403Z</time></trkpt><trkpt lat="44.2137701" lon="10.401576"><ele>1301.0</ele><time>2026-04-29T14:50:48.413Z</time></trkpt><trkpt lat="44.2137062" lon="10.4015266"><ele>1301.0</ele><time>2026-04-29T14:50:52.416Z</time></trkpt><trkpt lat="44.2136555" lon="10.4014731"><ele>1301.0</ele><time>2026-04-29T14:50:55.401Z</time></trkpt><trkpt lat="44.2135953" lon="10.4014287"><ele>1301.0</ele><time>2026-04-29T14:51:00.403Z</time></trkpt><trkpt lat="44.2135285" lon="10.401383"><ele>1301.0</ele><time>2026-04-29T14:51:04.417Z</time></trkpt><trkpt lat="44.2134571" lon="10.4013306"><ele>1301.0</ele><time>2026-04-29T14:51:08.408Z</time></trkpt><trkpt lat="44.2133956" lon="10.4012952"><ele>1301.0</ele><time>2026-04-29T14:51:12.406Z</time></trkpt><trkpt lat="44.2133352" lon="10.4013202"><ele>1301.0</ele><time>2026-04-29T14:51:15.404Z</time></trkpt><trkpt lat="44.2132792" lon="10.4013691"><ele>1301.0</ele><time>2026-04-29T14:51:19.402Z</time></trkpt><trkpt lat="44.2132091" lon="10.4014177"><ele>1301.0</ele><time>2026-04-29T14:51:23.423Z</time></trkpt><trkpt lat="44.2131283" lon="10.401428"><ele>1301.5</ele><time>2026-04-29T14:51:27.399Z</time></trkpt><trkpt lat="44.2130763" lon="10.4014874"><ele>1302.0</ele><time>2026-04-29T14:51:31.42Z</time></trkpt><trkpt lat="44.213001" lon="10.4014365"><ele>1302.5</ele><time>2026-04-29T14:51:35.399Z</time></trkpt><trkpt lat="44.2129346" lon="10.4013881"><ele>1303.0</ele><time>2026-04-29T14:51:39.426Z</time></trkpt><trkpt lat="44.2128639" lon="10.4013539"><ele>1303.5</ele><time>2026-04-29T14:51:43.415Z</time></trkpt><trkpt lat="44.2127918" lon="10.4013203"><ele>1304.0</ele><time>2026-04-29T14:51:47.408Z</time></trkpt><trkpt lat="44.2127162" lon="10.4012807"><ele>1306.142857142857</ele><time>2026-04-29T14:51:51.409Z</time></trkpt><trkpt lat="44.2126616" lon="10.4012347"><ele>1308.2857142857142</ele><time>2026-04-29T14:51:55.42Z</time></trkpt><trkpt lat="44.212611" lon="10.4011782"><ele>1310.4285714285713</ele><time>2026-04-29T14:51:59.402Z</time></trkpt><trkpt lat="44.212556" lon="10.4011214"><ele>1312.5714285714284</ele><time>2026-04-29T14:52:03.4Z</time></trkpt><trkpt lat="44.2124923" lon="10.4010743"><ele>1314.7142857142858</ele><time>2026-04-29T14:52:06.414Z</time></trkpt><trkpt lat="44.2124277" lon="10.4010239"><ele>1316.8571428571427</ele><time>2026-04-29T14:52:09.432Z</time></trkpt><trkpt lat="44.2123549" lon="10.4009864"><ele>1319.0</ele><time>2026-04-29T14:52:12.432Z</time></trkpt><trkpt lat="44.2122748" lon="10.4009926"><ele>1320.8571428571427</ele><time>2026-04-29T14:52:16.403Z</time></trkpt><trkpt lat="44.2122082" lon="10.4010121"><ele>1322.7142857142858</ele><time>2026-04-29T14:52:22.418Z</time></trkpt><trkpt lat="44.212138" lon="10.4010394"><ele>1324.5714285714284</ele><time>2026-04-29T14:52:29.399Z</time></trkpt><trkpt lat="44.2120629" lon="10.4010656"><ele>1326.4285714285713</ele><time>2026-04-29T14:52:34.42Z</time></trkpt><trkpt lat="44.2119865" lon="10.401106"><ele>1328.2857142857142</ele><time>2026-04-29T14:52:38.407Z</time></trkpt><trkpt lat="44.2119213" lon="10.4011307"><ele>1330.142857142857</ele><time>2026-04-29T14:52:41.417Z</time></trkpt><trkpt lat="44.2118597" lon="10.4011523"><ele>1332.0</ele><time>2026-04-29T14:52:44.413Z</time></trkpt><trkpt lat="44.2117894" lon="10.4011703"><ele>1332.0</ele><time>2026-04-29T14:52:48.414Z</time></trkpt><trkpt lat="44.2117233" lon="10.4012132"><ele>1332.0</ele><time>2026-04-29T14:52:52.415Z</time></trkpt><trkpt lat="44.2116632" lon="10.4012614"><ele>1332.0</ele><time>2026-04-29T14:52:56.418Z</time></trkpt><trkpt lat="44.2116023" lon="10.4013224"><ele>1332.0</ele><time>2026-04-29T14:53:00.415Z</time></trkpt><trkpt lat="44.2115393" lon="10.4013609"><ele>1332.0</ele><time>2026-04-29T14:53:03.405Z</time></trkpt><trkpt lat="44.2114747" lon="10.4014077"><ele>1332.0</ele><time>2026-04-29T14:53:07.402Z</time></trkpt><trkpt lat="44.2114016" lon="10.4014384"><ele>1332.0</ele><time>2026-04-29T14:53:11.408Z</time></trkpt><trkpt lat="44.2113185" lon="10.4014703"><ele>1330.6666666666667</ele><time>2026-04-29T14:53:14.413Z</time></trkpt><trkpt lat="44.2112465" lon="10.401469"><ele>1329.3333333333333</ele><time>2026-04-29T14:53:17.419Z</time></trkpt><trkpt lat="44.2111801" lon="10.4014627"><ele>1328.0</ele><time>2026-04-29T14:53:20.411Z</time></trkpt><trkpt lat="44.2111116" lon="10.4014675"><ele>1326.6666666666665</ele><time>2026-04-29T14:53:23.402Z</time></trkpt><trkpt lat="44.2110315" lon="10.4015219"><ele>1325.3333333333333</ele><time>2026-04-29T14:53:26.416Z</time></trkpt><trkpt lat="44.2109687" lon="10.4015875"><ele>1324.0</ele><time>2026-04-29T14:53:30.394Z</time></trkpt><trkpt lat="44.210884" lon="10.4016225"><ele>1324.0</ele><time>2026-04-29T14:53:34.394Z</time></trkpt><trkpt lat="44.2108193" lon="10.4016511"><ele>1324.0</ele><time>2026-04-29T14:53:38.405Z</time></trkpt><trkpt lat="44.2107602" lon="10.4016946"><ele>1324.0</ele><time>2026-04-29T14:53:40.415Z</time></trkpt><trkpt lat="44.2107009" lon="10.4017454"><ele>1324.0</ele><time>2026-04-29T14:53:43.402Z</time></trkpt><trkpt lat="44.2106274" lon="10.4017997"><ele>1324.0</ele><time>2026-04-29T14:53:47.403Z</time></trkpt><trkpt lat="44.2105747" lon="10.40186"><ele>1324.0</ele><time>2026-04-29T14:53:50.408Z</time></trkpt><trkpt lat="44.2105096" lon="10.4019322"><ele>1324.0</ele><time>2026-04-29T14:53:54.414Z</time></trkpt><trkpt lat="44.2104435" lon="10.4020067"><ele>1324.2857142857142</ele><time>2026-04-29T14:53:57.398Z</time></trkpt><trkpt lat="44.2103825" lon="10.4020634"><ele>1324.5714285714284</ele><time>2026-04-29T14:54:00.413Z</time></trkpt><trkpt lat="44.2103317" lon="10.4021199"><ele>1324.8571428571427</ele><time>2026-04-29T14:54:03.413Z</time></trkpt><trkpt lat="44.2102806" lon="10.4021789"><ele>1325.142857142857</ele><time>2026-04-29T14:54:06.401Z</time></trkpt><trkpt lat="44.2102266" lon="10.4022439"><ele>1325.4285714285713</ele><time>2026-04-29T14:54:09.408Z</time></trkpt><trkpt lat="44.2101739" lon="10.4022948"><ele>1325.7142857142856</ele><time>2026-04-29T14:54:12.406Z</time></trkpt><trkpt lat="44.2101175" lon="10.402351"><ele>1326.0</ele><time>2026-04-29T14:54:15.4Z</time></trkpt><trkpt lat="44.2100649" lon="10.402406"><ele>1325.9999999999998</ele><time>2026-04-29T14:54:18.404Z</time></trkpt><trkpt lat="44.2100064" lon="10.4024567"><ele>1326.0</ele><time>2026-04-29T14:54:21.412Z</time></trkpt><trkpt lat="44.209939" lon="10.4024941"><ele>1326.0</ele><time>2026-04-29T14:54:26.409Z</time></trkpt><trkpt lat="44.2098543" lon="10.4025231"><ele>1326.0</ele><time>2026-04-29T14:54:30.409Z</time></trkpt><trkpt lat="44.2097787" lon="10.402567"><ele>1326.0</ele><time>2026-04-29T14:54:34.396Z</time></trkpt><trkpt lat="44.209717" lon="10.4026194"><ele>1325.9999999999998</ele><time>2026-04-29T14:54:37.408Z</time></trkpt><trkpt lat="44.2096579" lon="10.4026604"><ele>1326.0</ele><time>2026-04-29T14:54:39.418Z</time></trkpt><trkpt lat="44.2095808" lon="10.40269"><ele>1327.7142857142856</ele><time>2026-04-29T14:54:43.403Z</time></trkpt><trkpt lat="44.2095133" lon="10.4027265"><ele>1329.4285714285713</ele><time>2026-04-29T14:54:47.415Z</time></trkpt><trkpt lat="44.209438" lon="10.4027634"><ele>1331.142857142857</ele><time>2026-04-29T14:54:51.402Z</time></trkpt><trkpt lat="44.2093703" lon="10.402784"><ele>1332.8571428571427</ele><time>2026-04-29T14:54:54.4Z</time></trkpt><trkpt lat="44.2093025" lon="10.4028025"><ele>1334.5714285714284</ele><time>2026-04-29T14:54:57.413Z</time></trkpt><trkpt lat="44.2092277" lon="10.4028259"><ele>1336.2857142857142</ele><time>2026-04-29T14:55:01.406Z</time></trkpt><trkpt lat="44.2091588" lon="10.4028326"><ele>1338.0</ele><time>2026-04-29T14:55:04.398Z</time></trkpt><trkpt lat="44.2090795" lon="10.4028578"><ele>1338.0</ele><time>2026-04-29T14:55:08.411Z</time></trkpt><trkpt lat="44.2090074" lon="10.4028878"><ele>1338.0</ele><time>2026-04-29T14:55:11.395Z</time></trkpt><trkpt lat="44.2089468" lon="10.4029171"><ele>1338.0</ele><time>2026-04-29T14:55:14.396Z</time></trkpt><trkpt lat="44.208876" lon="10.4029529"><ele>1338.0</ele><time>2026-04-29T14:55:17.401Z</time></trkpt><trkpt lat="44.2088119" lon="10.4029923"><ele>1338.0</ele><time>2026-04-29T14:55:20.404Z</time></trkpt><trkpt lat="44.2087519" lon="10.4030468"><ele>1338.0</ele><time>2026-04-29T14:55:23.429Z</time></trkpt><trkpt lat="44.2086864" lon="10.4031167"><ele>1338.0</ele><time>2026-04-29T14:55:27.406Z</time></trkpt><trkpt lat="44.2086204" lon="10.4031949"><ele>1337.142857142857</ele><time>2026-04-29T14:55:31.405Z</time></trkpt><trkpt lat="44.208556" lon="10.4032699"><ele>1336.2857142857142</ele><time>2026-04-29T14:55:35.418Z</time></trkpt><trkpt lat="44.2085037" lon="10.4033228"><ele>1335.4285714285716</ele><time>2026-04-29T14:55:38.4Z</time></trkpt><trkpt lat="44.2084441" lon="10.4033817"><ele>1334.5714285714284</ele><time>2026-04-29T14:55:42.406Z</time></trkpt><trkpt lat="44.2083818" lon="10.4034129"><ele>1333.7142857142856</ele><time>2026-04-29T14:55:46.408Z</time></trkpt><trkpt lat="44.208309" lon="10.4034438"><ele>1332.857142857143</ele><time>2026-04-29T14:55:50.413Z</time></trkpt><trkpt lat="44.20824" lon="10.4034408"><ele>1332.0</ele><time>2026-04-29T14:55:53.406Z</time></trkpt><trkpt lat="44.2081888" lon="10.4033891"><ele>1329.5714285714287</ele><time>2026-04-29T14:55:56.4Z</time></trkpt><trkpt lat="44.2081435" lon="10.4033082"><ele>1327.142857142857</ele><time>2026-04-29T14:56:00.401Z</time></trkpt><trkpt lat="44.2081108" lon="10.4032139"><ele>1324.7142857142858</ele><time>2026-04-29T14:56:04.404Z</time></trkpt><trkpt lat="44.2080844" lon="10.4031268"><ele>1322.2857142857142</ele><time>2026-04-29T14:56:09.405Z</time></trkpt><trkpt lat="44.2080959" lon="10.4030393"><ele>1319.857142857143</ele><time>2026-04-29T14:56:13.408Z</time></trkpt><trkpt lat="44.2081122" lon="10.4029437"><ele>1317.4285714285713</ele><time>2026-04-29T14:56:17.418Z</time></trkpt><trkpt lat="44.20813" lon="10.4028333"><ele>1315.0</ele><time>2026-04-29T14:56:21.4Z</time></trkpt><trkpt lat="44.2081308" lon="10.4027243"><ele>1314.1666666666665</ele><time>2026-04-29T14:56:25.397Z</time></trkpt><trkpt lat="44.2081097" lon="10.4026171"><ele>1313.3333333333333</ele><time>2026-04-29T14:56:29.407Z</time></trkpt><trkpt lat="44.2080828" lon="10.4025078"><ele>1312.5</ele><time>2026-04-29T14:56:32.404Z</time></trkpt><trkpt lat="44.2080583" lon="10.4024079"><ele>1311.6666666666667</ele><time>2026-04-29T14:56:35.408Z</time></trkpt><trkpt lat="44.2080404" lon="10.4023087"><ele>1310.8333333333335</ele><time>2026-04-29T14:56:38.41Z</time></trkpt><trkpt lat="44.2080229" lon="10.4022089"><ele>1310.0</ele><time>2026-04-29T14:56:41.413Z</time></trkpt><trkpt lat="44.2080125" lon="10.4021017"><ele>1310.0</ele><time>2026-04-29T14:56:44.429Z</time></trkpt><trkpt lat="44.2080117" lon="10.4019866"><ele>1310.0</ele><time>2026-04-29T14:56:48.398Z</time></trkpt><trkpt lat="44.2080087" lon="10.4018827"><ele>1310.0</ele><time>2026-04-29T14:56:51.411Z</time></trkpt><trkpt lat="44.2080126" lon="10.4017851"><ele>1310.0</ele><time>2026-04-29T14:56:54.418Z</time></trkpt><trkpt lat="44.2080219" lon="10.4016881"><ele>1310.0</ele><time>2026-04-29T14:56:58.411Z</time></trkpt><trkpt lat="44.2080264" lon="10.4015701"><ele>1310.0</ele><time>2026-04-29T14:57:03.408Z</time></trkpt><trkpt lat="44.2080381" lon="10.4014693"><ele>1310.0</ele><time>2026-04-29T14:57:07.407Z</time></trkpt><trkpt lat="44.2080567" lon="10.4013659"><ele>1310.0</ele><time>2026-04-29T14:57:11.403Z</time></trkpt><trkpt lat="44.2080732" lon="10.4012592"><ele>1310.0</ele><time>2026-04-29T14:57:15.403Z</time></trkpt><trkpt lat="44.2080911" lon="10.4011648"><ele>1310.0</ele><time>2026-04-29T14:57:18.41Z</time></trkpt><trkpt lat="44.2080986" lon="10.4010636"><ele>1310.0</ele><time>2026-04-29T14:57:21.404Z</time></trkpt><trkpt lat="44.2080982" lon="10.4009597"><ele>1310.0</ele><time>2026-04-29T14:57:24.403Z</time></trkpt><trkpt lat="44.2081008" lon="10.400845"><ele>1310.142857142857</ele><time>2026-04-29T14:57:28.411Z</time></trkpt><trkpt lat="44.2081189" lon="10.4007408"><ele>1310.2857142857142</ele><time>2026-04-29T14:57:31.406Z</time></trkpt><trkpt lat="44.2081362" lon="10.4006486"><ele>1310.4285714285716</ele><time>2026-04-29T14:57:34.408Z</time></trkpt><trkpt lat="44.2081629" lon="10.4005551"><ele>1310.5714285714284</ele><time>2026-04-29T14:57:38.406Z</time></trkpt><trkpt lat="44.2081886" lon="10.400444"><ele>1310.7142857142856</ele><time>2026-04-29T14:57:42.401Z</time></trkpt><trkpt lat="44.2082066" lon="10.4003564"><ele>1310.857142857143</ele><time>2026-04-29T14:57:45.414Z</time></trkpt><trkpt lat="44.2082341" lon="10.4002565"><ele>1311.0</ele><time>2026-04-29T14:57:50.399Z</time></trkpt><trkpt lat="44.2082508" lon="10.4001684"><ele>1317.2857142857144</ele><time>2026-04-29T14:57:53.333Z</time></trkpt><trkpt lat="44.2082614" lon="10.4000817"><ele>1323.5714285714284</ele><time>2026-04-29T14:57:56.377Z</time></trkpt><trkpt lat="44.2082729" lon="10.3999925"><ele>1329.857142857143</ele><time>2026-04-29T14:57:58.407Z</time></trkpt><trkpt lat="44.208281" lon="10.3998889"><ele>1336.1428571428573</ele><time>2026-04-29T14:58:02.417Z</time></trkpt><trkpt lat="44.2082955" lon="10.3997769"><ele>1342.4285714285716</ele><time>2026-04-29T14:58:06.408Z</time></trkpt><trkpt lat="44.2082995" lon="10.3996847"><ele>1348.7142857142858</ele><time>2026-04-29T14:58:09.416Z</time></trkpt><trkpt lat="44.2083053" lon="10.3995824"><ele>1355.0</ele><time>2026-04-29T14:58:12.412Z</time></trkpt><trkpt lat="44.2083052" lon="10.3994877"><ele>1355.6666666666667</ele><time>2026-04-29T14:58:15.416Z</time></trkpt><trkpt lat="44.2083022" lon="10.3993704"><ele>1356.3333333333335</ele><time>2026-04-29T14:58:19.409Z</time></trkpt><trkpt lat="44.2082745" lon="10.3992695"><ele>1357.0</ele><time>2026-04-29T14:58:22.417Z</time></trkpt><trkpt lat="44.2082464" lon="10.3991697"><ele>1357.6666666666667</ele><time>2026-04-29T14:58:25.426Z</time></trkpt><trkpt lat="44.2082295" lon="10.3990655"><ele>1358.3333333333333</ele><time>2026-04-29T14:58:28.405Z</time></trkpt><trkpt lat="44.2082102" lon="10.398966"><ele>1359.0</ele><time>2026-04-29T14:58:31.413Z</time></trkpt><trkpt lat="44.2081866" lon="10.3988567"><ele>1359.7142857142858</ele><time>2026-04-29T14:58:35.408Z</time></trkpt><trkpt lat="44.208169" lon="10.3987639"><ele>1360.4285714285713</ele><time>2026-04-29T14:58:38.404Z</time></trkpt><trkpt lat="44.2081645" lon="10.3986648"><ele>1361.142857142857</ele><time>2026-04-29T14:58:41.404Z</time></trkpt><trkpt lat="44.2081567" lon="10.3985659"><ele>1361.857142857143</ele><time>2026-04-29T14:58:44.414Z</time></trkpt><trkpt lat="44.2081188" lon="10.3984803"><ele>1362.5714285714287</ele><time>2026-04-29T14:58:47.398Z</time></trkpt><trkpt lat="44.2080804" lon="10.398409"><ele>1363.2857142857142</ele><time>2026-04-29T14:58:50.423Z</time></trkpt><trkpt lat="44.2080335" lon="10.39834"><ele>1364.0</ele><time>2026-04-29T14:58:53.398Z</time></trkpt><trkpt lat="44.2079751" lon="10.3983006"><ele>1361.857142857143</ele><time>2026-04-29T14:58:56.4Z</time></trkpt><trkpt lat="44.2079166" lon="10.3982681"><ele>1359.7142857142858</ele><time>2026-04-29T14:58:59.406Z</time></trkpt><trkpt lat="44.2078545" lon="10.3982176"><ele>1357.5714285714284</ele><time>2026-04-29T14:59:04.339Z</time></trkpt><trkpt lat="44.2078051" lon="10.3981604"><ele>1355.4285714285716</ele><time>2026-04-29T14:59:07.405Z</time></trkpt><trkpt lat="44.2077477" lon="10.3980911"><ele>1353.2857142857144</ele><time>2026-04-29T14:59:10.404Z</time></trkpt><trkpt lat="44.2076931" lon="10.3979952"><ele>1351.142857142857</ele><time>2026-04-29T14:59:13.404Z</time></trkpt><trkpt lat="44.2076652" lon="10.3979063"><ele>1349.0</ele><time>2026-04-29T14:59:16.356Z</time></trkpt><trkpt lat="44.207662" lon="10.3978059"><ele>1349.142857142857</ele><time>2026-04-29T14:59:19.357Z</time></trkpt><trkpt lat="44.2076649" lon="10.3977109"><ele>1349.2857142857144</ele><time>2026-04-29T14:59:22.406Z</time></trkpt><trkpt lat="44.2076673" lon="10.3976131"><ele>1349.4285714285716</ele><time>2026-04-29T14:59:25.42Z</time></trkpt><trkpt lat="44.2076627" lon="10.3975043"><ele>1349.5714285714284</ele><time>2026-04-29T14:59:29.415Z</time></trkpt><trkpt lat="44.2076615" lon="10.397414"><ele>1349.7142857142858</ele><time>2026-04-29T14:59:34.418Z</time></trkpt><trkpt lat="44.2076612" lon="10.3973116"><ele>1349.857142857143</ele><time>2026-04-29T14:59:38.398Z</time></trkpt><trkpt lat="44.2076627" lon="10.3971991"><ele>1350.0</ele><time>2026-04-29T14:59:42.403Z</time></trkpt><trkpt lat="44.2076497" lon="10.3970957"><ele>1350.0</ele><time>2026-04-29T14:59:45.407Z</time></trkpt><trkpt lat="44.207641" lon="10.3969913"><ele>1350.0</ele><time>2026-04-29T14:59:48.414Z</time></trkpt><trkpt lat="44.2076216" lon="10.396886"><ele>1350.0</ele><time>2026-04-29T14:59:51.418Z</time></trkpt><trkpt lat="44.2076148" lon="10.3967872"><ele>1350.0</ele><time>2026-04-29T14:59:54.399Z</time></trkpt><trkpt lat="44.2076097" lon="10.3966986"><ele>1350.0</ele><time>2026-04-29T14:59:57.403Z</time></trkpt><trkpt lat="44.2076156" lon="10.3965846"><ele>1350.0</ele><time>2026-04-29T15:00:01.404Z</time></trkpt><trkpt lat="44.2076317" lon="10.3964718"><ele>1350.0</ele><time>2026-04-29T15:00:05.425Z</time></trkpt><trkpt lat="44.2076429" lon="10.396356"><ele>1350.0</ele><time>2026-04-29T15:00:09.407Z</time></trkpt><trkpt lat="44.2076451" lon="10.3962407"><ele>1350.0</ele><time>2026-04-29T15:00:13.418Z</time></trkpt><trkpt lat="44.2076646" lon="10.3961495"><ele>1350.0</ele><time>2026-04-29T15:00:16.395Z</time></trkpt><trkpt lat="44.2076824" lon="10.3960393"><ele>1350.0</ele><time>2026-04-29T15:00:20.412Z</time></trkpt><trkpt lat="44.2077109" lon="10.3959325"><ele>1350.0</ele><time>2026-04-29T15:00:24.414Z</time></trkpt><trkpt lat="44.2077366" lon="10.3958501"><ele>1350.0</ele><time>2026-04-29T15:00:27.421Z</time></trkpt><trkpt lat="44.2077443" lon="10.395757"><ele>1350.0</ele><time>2026-04-29T15:00:30.41Z</time></trkpt><trkpt lat="44.2077518" lon="10.3956417"><ele>1350.0</ele><time>2026-04-29T15:00:34.41Z</time></trkpt><trkpt lat="44.207776" lon="10.3955578"><ele>1350.0</ele><time>2026-04-29T15:00:37.406Z</time></trkpt><trkpt lat="44.2077966" lon="10.3954566"><ele>1350.0</ele><time>2026-04-29T15:00:41.403Z</time></trkpt><trkpt lat="44.207826" lon="10.3953476"><ele>1350.0</ele><time>2026-04-29T15:00:45.409Z</time></trkpt><trkpt lat="44.2078535" lon="10.395264"><ele>1350.0</ele><time>2026-04-29T15:00:48.402Z</time></trkpt><trkpt lat="44.2078749" lon="10.3951726"><ele>1350.142857142857</ele><time>2026-04-29T15:00:51.409Z</time></trkpt><trkpt lat="44.2079026" lon="10.3950857"><ele>1350.2857142857142</ele><time>2026-04-29T15:00:54.41Z</time></trkpt><trkpt lat="44.207925" lon="10.3950001"><ele>1350.4285714285716</ele><time>2026-04-29T15:00:57.423Z</time></trkpt><trkpt lat="44.2079494" lon="10.3949135"><ele>1350.5714285714284</ele><time>2026-04-29T15:01:00.406Z</time></trkpt><trkpt lat="44.2079707" lon="10.3948268"><ele>1350.7142857142858</ele><time>2026-04-29T15:01:03.4Z</time></trkpt><trkpt lat="44.2080015" lon="10.3947429"><ele>1350.857142857143</ele><time>2026-04-29T15:01:06.413Z</time></trkpt><trkpt lat="44.2080344" lon="10.3946631"><ele>1351.0</ele><time>2026-04-29T15:01:09.409Z</time></trkpt><trkpt lat="44.2080854" lon="10.3945715"><ele>1351.0</ele><time>2026-04-29T15:01:13.403Z</time></trkpt><trkpt lat="44.2081371" lon="10.394503"><ele>1351.0</ele><time>2026-04-29T15:01:17.399Z</time></trkpt><trkpt lat="44.2082021" lon="10.3944497"><ele>1351.0</ele><time>2026-04-29T15:01:21.406Z</time></trkpt><trkpt lat="44.2082661" lon="10.3944034"><ele>1351.0</ele><time>2026-04-29T15:01:25.42Z</time></trkpt><trkpt lat="44.2083337" lon="10.3943684"><ele>1351.0</ele><time>2026-04-29T15:01:29.412Z</time></trkpt><trkpt lat="44.2084043" lon="10.3943493"><ele>1351.0</ele><time>2026-04-29T15:01:33.408Z</time></trkpt><trkpt lat="44.2084733" lon="10.3943123"><ele>1351.0</ele><time>2026-04-29T15:01:37.404Z</time></trkpt><trkpt lat="44.2085389" lon="10.3942467"><ele>1352.0</ele><time>2026-04-29T15:01:41.407Z</time></trkpt><trkpt lat="44.2086114" lon="10.3941947"><ele>1353.0</ele><time>2026-04-29T15:01:45.399Z</time></trkpt><trkpt lat="44.2086878" lon="10.3941895"><ele>1354.0</ele><time>2026-04-29T15:01:49.404Z</time></trkpt><trkpt lat="44.2087521" lon="10.3941412"><ele>1355.0</ele><time>2026-04-29T15:01:53.409Z</time></trkpt><trkpt lat="44.2088227" lon="10.3940984"><ele>1356.0</ele><time>2026-04-29T15:01:57.399Z</time></trkpt><trkpt lat="44.2088874" lon="10.3940414"><ele>1357.0</ele><time>2026-04-29T15:02:01.415Z</time></trkpt><trkpt lat="44.2089315" lon="10.3939645"><ele>1357.0</ele><time>2026-04-29T15:02:05.406Z</time></trkpt><trkpt lat="44.2089635" lon="10.3938671"><ele>1357.0</ele><time>2026-04-29T15:02:10.411Z</time></trkpt><trkpt lat="44.208984" lon="10.3937775"><ele>1357.0</ele><time>2026-04-29T15:02:14.396Z</time></trkpt><trkpt lat="44.2090012" lon="10.3936839"><ele>1357.0</ele><time>2026-04-29T15:02:18.401Z</time></trkpt><trkpt lat="44.2090529" lon="10.3936145"><ele>1357.0</ele><time>2026-04-29T15:02:22.411Z</time></trkpt><trkpt lat="44.2091263" lon="10.3936234"><ele>1357.0</ele><time>2026-04-29T15:02:27.403Z</time></trkpt><trkpt lat="44.2091643" lon="10.3937159"><ele>1357.0</ele><time>2026-04-29T15:02:33.407Z</time></trkpt><trkpt lat="44.2091989" lon="10.3938193"><ele>1360.2857142857142</ele><time>2026-04-29T15:02:37.404Z</time></trkpt><trkpt lat="44.20923" lon="10.3939055"><ele>1363.5714285714287</ele><time>2026-04-29T15:02:40.408Z</time></trkpt><trkpt lat="44.2092626" lon="10.393994"><ele>1366.857142857143</ele><time>2026-04-29T15:02:44.402Z</time></trkpt><trkpt lat="44.2092965" lon="10.3940994"><ele>1370.142857142857</ele><time>2026-04-29T15:02:48.418Z</time></trkpt><trkpt lat="44.2093328" lon="10.3941795"><ele>1373.4285714285713</ele><time>2026-04-29T15:02:51.42Z</time></trkpt><trkpt lat="44.2093677" lon="10.3942612"><ele>1376.7142857142858</ele><time>2026-04-29T15:02:54.421Z</time></trkpt><trkpt lat="44.2094077" lon="10.3943439"><ele>1380.0</ele><time>2026-04-29T15:02:58.437Z</time></trkpt><trkpt lat="44.2094455" lon="10.3944275"><ele>1380.0</ele><time>2026-04-29T15:03:03.408Z</time></trkpt><trkpt lat="44.2094926" lon="10.39451"><ele>1380.0</ele><time>2026-04-29T15:03:07.406Z</time></trkpt><trkpt lat="44.2095337" lon="10.394584"><ele>1380.0</ele><time>2026-04-29T15:03:11.413Z</time></trkpt><trkpt lat="44.2095675" lon="10.3946648"><ele>1380.0</ele><time>2026-04-29T15:03:15.405Z</time></trkpt><trkpt lat="44.2095893" lon="10.3947508"><ele>1380.0</ele><time>2026-04-29T15:03:19.408Z</time></trkpt><trkpt lat="44.2096074" lon="10.394853"><ele>1380.0</ele><time>2026-04-29T15:03:24.41Z</time></trkpt><trkpt lat="44.2096168" lon="10.3949631"><ele>1380.0</ele><time>2026-04-29T15:03:29.397Z</time></trkpt><trkpt lat="44.2096329" lon="10.3950488"><ele>1380.0</ele><time>2026-04-29T15:03:32.402Z</time></trkpt><trkpt lat="44.2096426" lon="10.395151"><ele>1380.0</ele><time>2026-04-29T15:03:36.404Z</time></trkpt><trkpt lat="44.2096474" lon="10.3952542"><ele>1380.0</ele><time>2026-04-29T15:03:40.404Z</time></trkpt><trkpt lat="44.209657" lon="10.3953425"><ele>1380.0</ele><time>2026-04-29T15:03:43.412Z</time></trkpt><trkpt lat="44.2096625" lon="10.3954485"><ele>1380.0</ele><time>2026-04-29T15:03:47.416Z</time></trkpt><trkpt lat="44.2096741" lon="10.395547"><ele>1380.0</ele><time>2026-04-29T15:03:51.411Z</time></trkpt><trkpt lat="44.2096759" lon="10.3956595"><ele>1380.0</ele><time>2026-04-29T15:03:56.407Z</time></trkpt><trkpt lat="44.20967" lon="10.3957563"><ele>1381.0</ele><time>2026-04-29T15:04:00.415Z</time></trkpt><trkpt lat="44.2096797" lon="10.3958592"><ele>1382.0</ele><time>2026-04-29T15:04:04.399Z</time></trkpt><trkpt lat="44.2096639" lon="10.3959686"><ele>1383.0</ele><time>2026-04-29T15:04:09.408Z</time></trkpt><trkpt lat="44.2096397" lon="10.3960622"><ele>1384.0</ele><time>2026-04-29T15:04:13.402Z</time></trkpt><trkpt lat="44.2096295" lon="10.3961519"><ele>1385.0</ele><time>2026-04-29T15:04:17.4Z</time></trkpt><trkpt lat="44.2096188" lon="10.396254"><ele>1386.0</ele><time>2026-04-29T15:04:20.415Z</time></trkpt><trkpt lat="44.2096013" lon="10.3963575"><ele>1387.0</ele><time>2026-04-29T15:04:23.418Z</time></trkpt><trkpt lat="44.2095812" lon="10.3964668"><ele>1387.7142857142858</ele><time>2026-04-29T15:04:27.416Z</time></trkpt><trkpt lat="44.2095679" lon="10.3965659"><ele>1388.4285714285713</ele><time>2026-04-29T15:04:30.399Z</time></trkpt><trkpt lat="44.2095503" lon="10.3966596"><ele>1389.142857142857</ele><time>2026-04-29T15:04:33.397Z</time></trkpt><trkpt lat="44.209525" lon="10.3967602"><ele>1389.857142857143</ele><time>2026-04-29T15:04:37.423Z</time></trkpt><trkpt lat="44.2095366" lon="10.3968567"><ele>1390.5714285714287</ele><time>2026-04-29T15:04:40.415Z</time></trkpt><trkpt lat="44.2095298" lon="10.3969559"><ele>1391.2857142857142</ele><time>2026-04-29T15:04:44.396Z</time></trkpt><trkpt lat="44.2095278" lon="10.3970638"><ele>1392.0</ele><time>2026-04-29T15:04:48.414Z</time></trkpt><trkpt lat="44.2095258" lon="10.3971582"><ele>1393.1666666666667</ele><time>2026-04-29T15:04:52.404Z</time></trkpt><trkpt lat="44.209516" lon="10.3972662"><ele>1394.3333333333333</ele><time>2026-04-29T15:04:56.407Z</time></trkpt><trkpt lat="44.2095004" lon="10.3973724"><ele>1395.5</ele><time>2026-04-29T15:05:00.415Z</time></trkpt><trkpt lat="44.2094913" lon="10.3974673"><ele>1396.6666666666665</ele><time>2026-04-29T15:05:04.4Z</time></trkpt><trkpt lat="44.2095072" lon="10.397558"><ele>1397.8333333333333</ele><time>2026-04-29T15:05:08.415Z</time></trkpt><trkpt lat="44.2095362" lon="10.3976664"><ele>1399.0</ele><time>2026-04-29T15:05:13.402Z</time></trkpt><trkpt lat="44.209555" lon="10.3977705"><ele>1399.0</ele><time>2026-04-29T15:05:17.402Z</time></trkpt><trkpt lat="44.2095649" lon="10.3978698"><ele>1399.0</ele><time>2026-04-29T15:05:21.408Z</time></trkpt><trkpt lat="44.2096147" lon="10.3979484"><ele>1399.0</ele><time>2026-04-29T15:05:26.423Z</time></trkpt><trkpt lat="44.2096747" lon="10.3979095"><ele>1399.0</ele><time>2026-04-29T15:05:34.415Z</time></trkpt><trkpt lat="44.2096783" lon="10.3978143"><ele>1399.0</ele><time>2026-04-29T15:05:40.404Z</time></trkpt><trkpt lat="44.2097183" lon="10.3977297"><ele>1399.0</ele><time>2026-04-29T15:05:44.411Z</time></trkpt><trkpt lat="44.2097329" lon="10.3976241"><ele>1399.0</ele><time>2026-04-29T15:05:49.406Z</time></trkpt><trkpt lat="44.2097371" lon="10.3975338"><ele>1399.0</ele><time>2026-04-29T15:05:54.405Z</time></trkpt><trkpt lat="44.2097766" lon="10.3974505"><ele>1399.0</ele><time>2026-04-29T15:05:58.403Z</time></trkpt><trkpt lat="44.2098155" lon="10.3973492"><ele>1399.0</ele><time>2026-04-29T15:06:02.412Z</time></trkpt><trkpt lat="44.2098654" lon="10.3972705"><ele>1399.0</ele><time>2026-04-29T15:06:06.409Z</time></trkpt><trkpt lat="44.2098824" lon="10.3971798"><ele>1399.0</ele><time>2026-04-29T15:06:09.42Z</time></trkpt><trkpt lat="44.2098858" lon="10.3970847"><ele>1399.0</ele><time>2026-04-29T15:06:12.42Z</time></trkpt><trkpt lat="44.2099178" lon="10.3969843"><ele>1399.0</ele><time>2026-04-29T15:06:16.415Z</time></trkpt><trkpt lat="44.2099641" lon="10.3968886"><ele>1402.2857142857142</ele><time>2026-04-29T15:06:20.41Z</time></trkpt><trkpt lat="44.2100065" lon="10.396822"><ele>1405.5714285714287</ele><time>2026-04-29T15:06:23.402Z</time></trkpt><trkpt lat="44.2100481" lon="10.3967525"><ele>1408.857142857143</ele><time>2026-04-29T15:06:26.412Z</time></trkpt><trkpt lat="44.2100851" lon="10.3966585"><ele>1412.142857142857</ele><time>2026-04-29T15:06:30.419Z</time></trkpt><trkpt lat="44.2101292" lon="10.3965759"><ele>1415.4285714285713</ele><time>2026-04-29T15:06:34.395Z</time></trkpt><trkpt lat="44.2101754" lon="10.3965033"><ele>1418.7142857142858</ele><time>2026-04-29T15:06:38.409Z</time></trkpt><trkpt lat="44.2102108" lon="10.3964116"><ele>1422.0</ele><time>2026-04-29T15:06:41.422Z</time></trkpt><trkpt lat="44.2102491" lon="10.3963097"><ele>1422.0</ele><time>2026-04-29T15:06:45.408Z</time></trkpt><trkpt lat="44.2102588" lon="10.3961969"><ele>1422.0</ele><time>2026-04-29T15:06:49.422Z</time></trkpt><trkpt lat="44.2102759" lon="10.3960961"><ele>1422.0</ele><time>2026-04-29T15:06:53.403Z</time></trkpt><trkpt lat="44.2103027" lon="10.3959959"><ele>1422.0</ele><time>2026-04-29T15:06:57.406Z</time></trkpt><trkpt lat="44.2103194" lon="10.3958985"><ele>1422.0</ele><time>2026-04-29T15:07:01.409Z</time></trkpt><trkpt lat="44.2103347" lon="10.3957974"><ele>1422.0</ele><time>2026-04-29T15:07:05.416Z</time></trkpt><trkpt lat="44.2103345" lon="10.3956937"><ele>1422.0</ele><time>2026-04-29T15:07:09.416Z</time></trkpt><trkpt lat="44.210338" lon="10.3955899"><ele>1422.0</ele><time>2026-04-29T15:07:13.405Z</time></trkpt><trkpt lat="44.2103413" lon="10.3954986"><ele>1422.0</ele><time>2026-04-29T15:07:16.419Z</time></trkpt><trkpt lat="44.2103573" lon="10.3953907"><ele>1422.0</ele><time>2026-04-29T15:07:21.399Z</time></trkpt><trkpt lat="44.2103783" lon="10.3952895"><ele>1422.0</ele><time>2026-04-29T15:07:25.404Z</time></trkpt><trkpt lat="44.2104095" lon="10.3951937"><ele>1422.0</ele><time>2026-04-29T15:07:28.424Z</time></trkpt><trkpt lat="44.2104488" lon="10.3950908"><ele>1421.857142857143</ele><time>2026-04-29T15:07:32.411Z</time></trkpt><trkpt lat="44.2104621" lon="10.3949911"><ele>1421.7142857142858</ele><time>2026-04-29T15:07:35.419Z</time></trkpt><trkpt lat="44.2104714" lon="10.3949013"><ele>1421.5714285714284</ele><time>2026-04-29T15:07:38.421Z</time></trkpt><trkpt lat="44.2104917" lon="10.3947979"><ele>1421.4285714285716</ele><time>2026-04-29T15:07:42.404Z</time></trkpt><trkpt lat="44.2105245" lon="10.3947192"><ele>1421.2857142857142</ele><time>2026-04-29T15:07:46.405Z</time></trkpt><trkpt lat="44.2105409" lon="10.3946047"><ele>1421.142857142857</ele><time>2026-04-29T15:07:50.401Z</time></trkpt><trkpt lat="44.2105187" lon="10.3945022"><ele>1421.0</ele><time>2026-04-29T15:07:54.412Z</time></trkpt><trkpt lat="44.2104897" lon="10.3943948"><ele>1421.4285714285713</ele><time>2026-04-29T15:07:58.414Z</time></trkpt><trkpt lat="44.2104684" lon="10.3942909"><ele>1421.857142857143</ele><time>2026-04-29T15:08:02.406Z</time></trkpt><trkpt lat="44.2104463" lon="10.3941949"><ele>1422.2857142857142</ele><time>2026-04-29T15:08:06.413Z</time></trkpt><trkpt lat="44.210425" lon="10.394084"><ele>1422.7142857142858</ele><time>2026-04-29T15:08:11.406Z</time></trkpt><trkpt lat="44.2104079" lon="10.393993"><ele>1423.142857142857</ele><time>2026-04-29T15:08:16.417Z</time></trkpt><trkpt lat="44.2103796" lon="10.393905"><ele>1423.5714285714284</ele><time>2026-04-29T15:08:19.402Z</time></trkpt><trkpt lat="44.2103528" lon="10.3938227"><ele>1424.0</ele><time>2026-04-29T15:08:22.406Z</time></trkpt><trkpt lat="44.2103201" lon="10.3937437"><ele>1425.8571428571427</ele><time>2026-04-29T15:08:25.397Z</time></trkpt><trkpt lat="44.2103064" lon="10.3936513"><ele>1427.7142857142858</ele><time>2026-04-29T15:08:29.4Z</time></trkpt><trkpt lat="44.2102821" lon="10.3935658"><ele>1429.5714285714284</ele><time>2026-04-29T15:08:32.416Z</time></trkpt><trkpt lat="44.2102723" lon="10.3934737"><ele>1431.4285714285713</ele><time>2026-04-29T15:08:35.416Z</time></trkpt><trkpt lat="44.2102514" lon="10.3933802"><ele>1433.2857142857142</ele><time>2026-04-29T15:08:39.403Z</time></trkpt><trkpt lat="44.2102197" lon="10.3932764"><ele>1435.142857142857</ele><time>2026-04-29T15:08:43.418Z</time></trkpt><trkpt lat="44.2102001" lon="10.3931708"><ele>1437.0</ele><time>2026-04-29T15:08:46.401Z</time></trkpt><trkpt lat="44.2102024" lon="10.3930686"><ele>1439.2857142857144</ele><time>2026-04-29T15:08:49.418Z</time></trkpt><trkpt lat="44.2102036" lon="10.3929777"><ele>1441.5714285714284</ele><time>2026-04-29T15:08:51.425Z</time></trkpt><trkpt lat="44.2102089" lon="10.3928785"><ele>1443.857142857143</ele><time>2026-04-29T15:08:54.399Z</time></trkpt><trkpt lat="44.2102222" lon="10.3927857"><ele>1446.1428571428573</ele><time>2026-04-29T15:08:57.418Z</time></trkpt><trkpt lat="44.2102232" lon="10.3926889"><ele>1448.4285714285716</ele><time>2026-04-29T15:09:00.398Z</time></trkpt><trkpt lat="44.2102243" lon="10.3925465"><ele>1450.7142857142858</ele><time>2026-04-29T15:09:05.418Z</time></trkpt><trkpt lat="44.2102211" lon="10.3924507"><ele>1453.0</ele><time>2026-04-29T15:09:08.421Z</time></trkpt><trkpt lat="44.2102063" lon="10.3923631"><ele>1453.0000000000002</ele><time>2026-04-29T15:09:11.412Z</time></trkpt><trkpt lat="44.2101859" lon="10.3922749"><ele>1453.0</ele><time>2026-04-29T15:09:14.416Z</time></trkpt><trkpt lat="44.2101673" lon="10.3921869"><ele>1453.0</ele><time>2026-04-29T15:09:17.404Z</time></trkpt><trkpt lat="44.2101295" lon="10.3920828"><ele>1453.0</ele><time>2026-04-29T15:09:21.404Z</time></trkpt><trkpt lat="44.2100917" lon="10.3920078"><ele>1453.0</ele><time>2026-04-29T15:09:24.411Z</time></trkpt><trkpt lat="44.2100517" lon="10.3919366"><ele>1453.0000000000002</ele><time>2026-04-29T15:09:27.404Z</time></trkpt><trkpt lat="44.2100104" lon="10.3918635"><ele>1453.0</ele><time>2026-04-29T15:09:30.411Z</time></trkpt><trkpt lat="44.2099687" lon="10.3917763"><ele>1453.8333333333333</ele><time>2026-04-29T15:09:34.418Z</time></trkpt><trkpt lat="44.2099265" lon="10.3916737"><ele>1454.6666666666665</ele><time>2026-04-29T15:09:38.406Z</time></trkpt><trkpt lat="44.2098899" lon="10.3915949"><ele>1455.5</ele><time>2026-04-29T15:09:41.409Z</time></trkpt><trkpt lat="44.209848" lon="10.3914963"><ele>1456.3333333333333</ele><time>2026-04-29T15:09:45.419Z</time></trkpt><trkpt lat="44.2098249" lon="10.391394"><ele>1457.1666666666667</ele><time>2026-04-29T15:09:49.393Z</time></trkpt><trkpt lat="44.2097921" lon="10.3913017"><ele>1458.0</ele><time>2026-04-29T15:09:52.41Z</time></trkpt><trkpt lat="44.2097596" lon="10.3912044"><ele>1458.0</ele><time>2026-04-29T15:09:56.428Z</time></trkpt><trkpt lat="44.209746" lon="10.3910996"><ele>1458.0</ele><time>2026-04-29T15:09:59.404Z</time></trkpt><trkpt lat="44.2097272" lon="10.3909924"><ele>1458.0</ele><time>2026-04-29T15:10:02.403Z</time></trkpt><trkpt lat="44.2097242" lon="10.3908961"><ele>1458.0</ele><time>2026-04-29T15:10:05.416Z</time></trkpt><trkpt lat="44.2097278" lon="10.390805"><ele>1458.0</ele><time>2026-04-29T15:10:08.442Z</time></trkpt><trkpt lat="44.2097397" lon="10.3907087"><ele>1458.0</ele><time>2026-04-29T15:10:11.405Z</time></trkpt><trkpt lat="44.2097529" lon="10.390621"><ele>1458.0</ele><time>2026-04-29T15:10:15.411Z</time></trkpt><trkpt lat="44.2097929" lon="10.3905349"><ele>1458.8333333333333</ele><time>2026-04-29T15:10:19.401Z</time></trkpt><trkpt lat="44.209823" lon="10.390453"><ele>1459.6666666666667</ele><time>2026-04-29T15:10:22.404Z</time></trkpt><trkpt lat="44.2098332" lon="10.3903379"><ele>1460.5</ele><time>2026-04-29T15:10:26.408Z</time></trkpt><trkpt lat="44.209839" lon="10.3902178"><ele>1461.3333333333335</ele><time>2026-04-29T15:10:30.395Z</time></trkpt><trkpt lat="44.2098291" lon="10.3901231"><ele>1462.1666666666667</ele><time>2026-04-29T15:10:33.4Z</time></trkpt><trkpt lat="44.2098177" lon="10.3900329"><ele>1463.0</ele><time>2026-04-29T15:10:36.419Z</time></trkpt><trkpt lat="44.2098058" lon="10.3899181"><ele>1463.0</ele><time>2026-04-29T15:10:40.419Z</time></trkpt><trkpt lat="44.2097951" lon="10.3898051"><ele>1463.0</ele><time>2026-04-29T15:10:44.414Z</time></trkpt><trkpt lat="44.2097832" lon="10.3897062"><ele>1463.0</ele><time>2026-04-29T15:10:48.403Z</time></trkpt><trkpt lat="44.2097534" lon="10.3896024"><ele>1463.0</ele><time>2026-04-29T15:10:52.404Z</time></trkpt><trkpt lat="44.2097286" lon="10.3895005"><ele>1463.0</ele><time>2026-04-29T15:10:56.406Z</time></trkpt><trkpt lat="44.2096956" lon="10.3894049"><ele>1463.0</ele><time>2026-04-29T15:11:00.398Z</time></trkpt><trkpt lat="44.2096615" lon="10.3892974"><ele>1464.0</ele><time>2026-04-29T15:11:04.431Z</time></trkpt><trkpt lat="44.2096447" lon="10.3892083"><ele>1465.0</ele><time>2026-04-29T15:11:07.41Z</time></trkpt><trkpt lat="44.2096272" lon="10.3891133"><ele>1466.0</ele><time>2026-04-29T15:11:10.402Z</time></trkpt><trkpt lat="44.2096089" lon="10.3890064"><ele>1467.0</ele><time>2026-04-29T15:11:14.4Z</time></trkpt><trkpt lat="44.2096134" lon="10.388908"><ele>1468.0</ele><time>2026-04-29T15:11:18.409Z</time></trkpt><trkpt lat="44.209637" lon="10.3888257"><ele>1469.0</ele><time>2026-04-29T15:11:21.399Z</time></trkpt><trkpt lat="44.2096468" lon="10.3887311"><ele>1470.0</ele><time>2026-04-29T15:11:24.403Z</time></trkpt><trkpt lat="44.2096321" lon="10.3886257"><ele>1472.0</ele><time>2026-04-29T15:11:28.404Z</time></trkpt><trkpt lat="44.2095767" lon="10.3885529"><ele>1474.0</ele><time>2026-04-29T15:11:32.395Z</time></trkpt><trkpt lat="44.2095304" lon="10.3884574"><ele>1476.0</ele><time>2026-04-29T15:11:36.407Z</time></trkpt><trkpt lat="44.2094881" lon="10.3883659"><ele>1478.0</ele><time>2026-04-29T15:11:40.408Z</time></trkpt><trkpt lat="44.2094434" lon="10.3882732"><ele>1480.0</ele><time>2026-04-29T15:11:44.409Z</time></trkpt><trkpt lat="44.2094127" lon="10.388191"><ele>1482.0</ele><time>2026-04-29T15:11:47.432Z</time></trkpt><trkpt lat="44.2093972" lon="10.3881032"><ele>1484.0</ele><time>2026-04-29T15:11:50.404Z</time></trkpt><trkpt lat="44.2093864" lon="10.3880007"><ele>1485.7142857142858</ele><time>2026-04-29T15:11:54.404Z</time></trkpt><trkpt lat="44.2094098" lon="10.3879128"><ele>1487.4285714285716</ele><time>2026-04-29T15:11:58.405Z</time></trkpt><trkpt lat="44.2094491" lon="10.387818"><ele>1489.142857142857</ele><time>2026-04-29T15:12:02.41Z</time></trkpt><trkpt lat="44.2095113" lon="10.3877587"><ele>1490.857142857143</ele><time>2026-04-29T15:12:06.409Z</time></trkpt><trkpt lat="44.2095783" lon="10.387747"><ele>1492.5714285714287</ele><time>2026-04-29T15:12:10.406Z</time></trkpt><trkpt lat="44.2096441" lon="10.3877698"><ele>1494.2857142857142</ele><time>2026-04-29T15:12:14.42Z</time></trkpt><trkpt lat="44.209714" lon="10.3877693"><ele>1496.0</ele><time>2026-04-29T15:12:18.425Z</time></trkpt><trkpt lat="44.2097745" lon="10.3877173"><ele>1496.0</ele><time>2026-04-29T15:12:22.396Z</time></trkpt><trkpt lat="44.2098126" lon="10.3876268"><ele>1496.0</ele><time>2026-04-29T15:12:26.416Z</time></trkpt><trkpt lat="44.209799" lon="10.3875179"><ele>1496.0</ele><time>2026-04-29T15:12:30.416Z</time></trkpt><trkpt lat="44.2097796" lon="10.3874129"><ele>1496.0</ele><time>2026-04-29T15:12:34.404Z</time></trkpt><trkpt lat="44.2097497" lon="10.3873149"><ele>1496.0</ele><time>2026-04-29T15:12:38.406Z</time></trkpt><trkpt lat="44.2097103" lon="10.3872271"><ele>1496.0</ele><time>2026-04-29T15:12:42.413Z</time></trkpt><trkpt lat="44.2096787" lon="10.3871424"><ele>1497.7142857142856</ele><time>2026-04-29T15:12:46.425Z</time></trkpt><trkpt lat="44.2096451" lon="10.3870534"><ele>1499.4285714285716</ele><time>2026-04-29T15:12:50.408Z</time></trkpt><trkpt lat="44.2096093" lon="10.3869747"><ele>1501.142857142857</ele><time>2026-04-29T15:12:54.403Z</time></trkpt><trkpt lat="44.2095807" lon="10.3868732"><ele>1502.8571428571427</ele><time>2026-04-29T15:12:58.403Z</time></trkpt><trkpt lat="44.2095466" lon="10.3867713"><ele>1504.5714285714284</ele><time>2026-04-29T15:13:02.406Z</time></trkpt><trkpt lat="44.2095195" lon="10.3866882"><ele>1506.2857142857142</ele><time>2026-04-29T15:13:05.428Z</time></trkpt><trkpt lat="44.2095114" lon="10.3865995"><ele>1508.0</ele><time>2026-04-29T15:13:08.413Z</time></trkpt><trkpt lat="44.2094878" lon="10.3865119"><ele>1508.0</ele><time>2026-04-29T15:13:11.407Z</time></trkpt><trkpt lat="44.2094575" lon="10.3864085"><ele>1508.0</ele><time>2026-04-29T15:13:15.409Z</time></trkpt><trkpt lat="44.2094145" lon="10.3863112"><ele>1508.0</ele><time>2026-04-29T15:13:19.422Z</time></trkpt><trkpt lat="44.2093796" lon="10.3862124"><ele>1508.0</ele><time>2026-04-29T15:13:23.422Z</time></trkpt><trkpt lat="44.2093516" lon="10.3861066"><ele>1508.0</ele><time>2026-04-29T15:13:27.405Z</time></trkpt><trkpt lat="44.2093252" lon="10.3859997"><ele>1508.0</ele><time>2026-04-29T15:13:31.404Z</time></trkpt><trkpt lat="44.2093033" lon="10.3859154"><ele>1508.9999999999998</ele><time>2026-04-29T15:13:34.396Z</time></trkpt><trkpt lat="44.2092821" lon="10.3858209"><ele>1510.0</ele><time>2026-04-29T15:13:37.404Z</time></trkpt><trkpt lat="44.2092811" lon="10.3857278"><ele>1511.0</ele><time>2026-04-29T15:13:40.436Z</time></trkpt><trkpt lat="44.2092878" lon="10.3856388"><ele>1512.0</ele><time>2026-04-29T15:13:43.394Z</time></trkpt><trkpt lat="44.2093364" lon="10.385558"><ele>1513.0</ele><time>2026-04-29T15:13:46.405Z</time></trkpt><trkpt lat="44.2093656" lon="10.3854742"><ele>1513.9999999999998</ele><time>2026-04-29T15:13:49.408Z</time></trkpt><trkpt lat="44.2094171" lon="10.3853879"><ele>1515.0</ele><time>2026-04-29T15:13:53.407Z</time></trkpt><trkpt lat="44.209476" lon="10.3853528"><ele>1516.2857142857142</ele><time>2026-04-29T15:13:57.404Z</time></trkpt><trkpt lat="44.209523" lon="10.385294"><ele>1517.5714285714284</ele><time>2026-04-29T15:14:01.409Z</time></trkpt><trkpt lat="44.209554" lon="10.3852113"><ele>1518.8571428571427</ele><time>2026-04-29T15:14:05.401Z</time></trkpt><trkpt lat="44.2095647" lon="10.3851135"><ele>1520.142857142857</ele><time>2026-04-29T15:14:10.404Z</time></trkpt><trkpt lat="44.2095383" lon="10.3850176"><ele>1521.4285714285716</ele><time>2026-04-29T15:14:16.416Z</time></trkpt><trkpt lat="44.209493" lon="10.3849369"><ele>1522.7142857142856</ele><time>2026-04-29T15:14:21.42Z</time></trkpt><trkpt lat="44.2094459" lon="10.3848509"><ele>1524.0</ele><time>2026-04-29T15:14:25.41Z</time></trkpt><trkpt lat="44.2093947" lon="10.3847908"><ele>1524.0</ele><time>2026-04-29T15:14:29.404Z</time></trkpt><trkpt lat="44.2093485" lon="10.384712"><ele>1524.0</ele><time>2026-04-29T15:14:34.413Z</time></trkpt><trkpt lat="44.2093245" lon="10.3846298"><ele>1524.0</ele><time>2026-04-29T15:14:38.41Z</time></trkpt><trkpt lat="44.2092806" lon="10.3845654"><ele>1524.0</ele><time>2026-04-29T15:14:42.414Z</time></trkpt><trkpt lat="44.2092392" lon="10.384478"><ele>1524.0</ele><time>2026-04-29T15:14:47.405Z</time></trkpt><trkpt lat="44.2092084" lon="10.3843981"><ele>1524.0</ele><time>2026-04-29T15:14:52.409Z</time></trkpt><trkpt lat="44.2092422" lon="10.3843054"><ele>1524.0</ele><time>2026-04-29T15:14:58.401Z</time></trkpt><trkpt lat="44.2093061" lon="10.3842609"><ele>1525.0</ele><time>2026-04-29T15:15:03.403Z</time></trkpt><trkpt lat="44.2093696" lon="10.3842743"><ele>1526.0</ele><time>2026-04-29T15:15:08.409Z</time></trkpt><trkpt lat="44.2094474" lon="10.3842814"><ele>1527.0</ele><time>2026-04-29T15:15:13.402Z</time></trkpt><trkpt lat="44.2095192" lon="10.3842409"><ele>1528.0</ele><time>2026-04-29T15:15:17.414Z</time></trkpt><trkpt lat="44.2095748" lon="10.3841914"><ele>1529.0</ele><time>2026-04-29T15:15:20.408Z</time></trkpt><trkpt lat="44.2096368" lon="10.3841528"><ele>1530.0</ele><time>2026-04-29T15:15:23.406Z</time></trkpt><trkpt lat="44.2096906" lon="10.3841016"><ele>1531.0</ele><time>2026-04-29T15:15:26.396Z</time></trkpt><trkpt lat="44.2097478" lon="10.3840269"><ele>1531.0</ele><time>2026-04-29T15:15:30.41Z</time></trkpt><trkpt lat="44.2098194" lon="10.3839789"><ele>1531.0</ele><time>2026-04-29T15:15:34.406Z</time></trkpt><trkpt lat="44.209891" lon="10.3839599"><ele>1531.0</ele><time>2026-04-29T15:15:38.416Z</time></trkpt><trkpt lat="44.2099616" lon="10.3839212"><ele>1531.0</ele><time>2026-04-29T15:15:42.412Z</time></trkpt><trkpt lat="44.2100048" lon="10.383849"><ele>1531.0</ele><time>2026-04-29T15:15:45.414Z</time></trkpt><trkpt lat="44.2100554" lon="10.3837704"><ele>1531.0</ele><time>2026-04-29T15:15:49.422Z</time></trkpt><trkpt lat="44.2101047" lon="10.3836831"><ele>1532.5714285714284</ele><time>2026-04-29T15:15:53.404Z</time></trkpt><trkpt lat="44.2101468" lon="10.3835893"><ele>1534.1428571428573</ele><time>2026-04-29T15:15:57.403Z</time></trkpt><trkpt lat="44.2101926" lon="10.3834985"><ele>1535.7142857142858</ele><time>2026-04-29T15:16:01.398Z</time></trkpt><trkpt lat="44.210242" lon="10.3834059"><ele>1537.2857142857142</ele><time>2026-04-29T15:16:05.403Z</time></trkpt><trkpt lat="44.2102845" lon="10.3833386"><ele>1538.8571428571427</ele><time>2026-04-29T15:16:08.408Z</time></trkpt><trkpt lat="44.210326" lon="10.3832707"><ele>1540.4285714285716</ele><time>2026-04-29T15:16:11.399Z</time></trkpt><trkpt lat="44.2103525" lon="10.3831895"><ele>1542.0</ele><time>2026-04-29T15:16:14.404Z</time></trkpt><trkpt lat="44.2103798" lon="10.3830956"><ele>1540.8333333333333</ele><time>2026-04-29T15:16:17.4Z</time></trkpt><trkpt lat="44.2104077" lon="10.3829887"><ele>1539.6666666666667</ele><time>2026-04-29T15:16:20.396Z</time></trkpt><trkpt lat="44.2104468" lon="10.3828816"><ele>1538.5</ele><time>2026-04-29T15:16:23.404Z</time></trkpt><trkpt lat="44.2104821" lon="10.3827856"><ele>1537.3333333333335</ele><time>2026-04-29T15:16:26.403Z</time></trkpt><trkpt lat="44.2105278" lon="10.3826957"><ele>1536.1666666666667</ele><time>2026-04-29T15:16:29.4Z</time></trkpt><trkpt lat="44.2105596" lon="10.3826147"><ele>1535.0</ele><time>2026-04-29T15:16:33.403Z</time></trkpt><trkpt lat="44.2105074" lon="10.3825309"><ele>1535.0</ele><time>2026-04-29T15:16:37.403Z</time></trkpt><trkpt lat="44.2104547" lon="10.3824497"><ele>1535.0</ele><time>2026-04-29T15:16:40.417Z</time></trkpt><trkpt lat="44.2104348" lon="10.3823417"><ele>1535.0</ele><time>2026-04-29T15:16:43.399Z</time></trkpt><trkpt lat="44.2104309" lon="10.3822481"><ele>1535.0</ele><time>2026-04-29T15:16:46.416Z</time></trkpt><trkpt lat="44.2104232" lon="10.3821575"><ele>1535.0</ele><time>2026-04-29T15:16:49.427Z</time></trkpt><trkpt lat="44.2103525" lon="10.3831895"><ele>1535.0</ele><time>2026-04-29T15:16:14.404Z</time></trkpt><trkpt lat="44.2103798" lon="10.3830956"><ele>1535.0</ele><time>2026-04-29T15:16:17.4Z</time></trkpt><trkpt lat="44.2104077" lon="10.3829887"><ele>1535.0</ele><time>2026-04-29T15:16:20.396Z</time></trkpt><trkpt lat="44.2104468" lon="10.3828816"><ele>1535.0</ele><time>2026-04-29T15:16:23.404Z</time></trkpt><trkpt lat="44.2104821" lon="10.3827856"><ele>1535.0</ele><time>2026-04-29T15:16:26.403Z</time></trkpt><trkpt lat="44.2105278" lon="10.3826957"><ele>1535.0</ele><time>2026-04-29T15:16:29.4Z</time></trkpt><trkpt lat="44.2105596" lon="10.3826147"><ele>1535.0</ele><time>2026-04-29T15:16:33.403Z</time></trkpt><trkpt lat="44.2105074" lon="10.3825309"><ele>1535.0</ele><time>2026-04-29T15:16:37.403Z</time></trkpt><trkpt lat="44.2104547" lon="10.3824497"><ele>1535.0</ele><time>2026-04-29T15:16:40.417Z</time></trkpt><trkpt lat="44.2104348" lon="10.3823417"><ele>1535.0</ele><time>2026-04-29T15:16:43.399Z</time></trkpt><trkpt lat="44.2104309" lon="10.3822481"><ele>1535.0</ele><time>2026-04-29T15:16:46.416Z</time></trkpt><trkpt lat="44.2104232" lon="10.3821575"><ele>1535.0</ele><time>2026-04-29T15:16:49.427Z</time></trkpt><trkpt lat="44.2104107" lon="10.382071"><ele>1535.0</ele><time>2026-04-29T15:16:52.406Z</time></trkpt><trkpt lat="44.2103859" lon="10.3819575"><ele>1534.5</ele><time>2026-04-29T15:16:55.398Z</time></trkpt><trkpt lat="44.2103672" lon="10.3818696"><ele>1534.0</ele><time>2026-04-29T15:16:57.416Z</time></trkpt><trkpt lat="44.2103593" lon="10.3817601"><ele>1533.5</ele><time>2026-04-29T15:17:01.411Z</time></trkpt><trkpt lat="44.2103678" lon="10.3816499"><ele>1533.0</ele><time>2026-04-29T15:17:05.42Z</time></trkpt><trkpt lat="44.2103918" lon="10.3815356"><ele>1532.5</ele><time>2026-04-29T15:17:09.406Z</time></trkpt><trkpt lat="44.2104049" lon="10.3814292"><ele>1532.0</ele><time>2026-04-29T15:17:13.412Z</time></trkpt><trkpt lat="44.2103947" lon="10.3813269"><ele>1530.0</ele><time>2026-04-29T15:17:17.41Z</time></trkpt><trkpt lat="44.2103674" lon="10.381236"><ele>1528.0</ele><time>2026-04-29T15:17:22.414Z</time></trkpt><trkpt lat="44.2103534" lon="10.381136"><ele>1526.0</ele><time>2026-04-29T15:18:10.4Z</time></trkpt><trkpt lat="44.2103759" lon="10.3810394"><ele>1524.0</ele><time>2026-04-29T15:18:15.415Z</time></trkpt><trkpt lat="44.2103955" lon="10.3809509"><ele>1522.0</ele><time>2026-04-29T15:18:19.404Z</time></trkpt><trkpt lat="44.2104088" lon="10.3810402"><ele>1520.0</ele><time>2026-04-29T15:21:56.402Z</time></trkpt><trkpt lat="44.2103752" lon="10.3811233"><ele>1518.0</ele><time>2026-04-29T15:22:01.416Z</time></trkpt><trkpt lat="44.2103726" lon="10.3812174"><ele>1518.0</ele><time>2026-04-29T15:22:05.422Z</time></trkpt><trkpt lat="44.2103767" lon="10.3813218"><ele>1518.0</ele><time>2026-04-29T15:22:10.399Z</time></trkpt><trkpt lat="44.2103958" lon="10.3814219"><ele>1518.0</ele><time>2026-04-29T15:22:15.415Z</time></trkpt><trkpt lat="44.2103761" lon="10.3815297"><ele>1518.0</ele><time>2026-04-29T15:22:19.415Z</time></trkpt><trkpt lat="44.2103527" lon="10.3816175"><ele>1518.0</ele><time>2026-04-29T15:22:22.407Z</time></trkpt><trkpt lat="44.210344" lon="10.3817147"><ele>1518.0</ele><time>2026-04-29T15:22:25.433Z</time></trkpt><trkpt lat="44.2103493" lon="10.381836"><ele>1520.0</ele><time>2026-04-29T15:22:28.405Z</time></trkpt><trkpt lat="44.2103789" lon="10.3819413"><ele>1522.0</ele><time>2026-04-29T15:22:31.418Z</time></trkpt><trkpt lat="44.2104007" lon="10.3820268"><ele>1524.0</ele><time>2026-04-29T15:22:35.411Z</time></trkpt><trkpt lat="44.2104104" lon="10.3821191"><ele>1526.0</ele><time>2026-04-29T15:22:38.399Z</time></trkpt><trkpt lat="44.2104108" lon="10.3822094"><ele>1528.0</ele><time>2026-04-29T15:22:41.4Z</time></trkpt><trkpt lat="44.2104166" lon="10.3823079"><ele>1530.0</ele><time>2026-04-29T15:22:44.4Z</time></trkpt><trkpt lat="44.2104516" lon="10.3823896"><ele>1532.0</ele><time>2026-04-29T15:22:47.403Z</time></trkpt><trkpt lat="44.2105254" lon="10.3824278"><ele>1532.5</ele><time>2026-04-29T15:22:49.415Z</time></trkpt><trkpt lat="44.2105876" lon="10.3824034"><ele>1533.0</ele><time>2026-04-29T15:22:51.41Z</time></trkpt><trkpt lat="44.2106406" lon="10.3823166"><ele>1533.5</ele><time>2026-04-29T15:22:54.399Z</time></trkpt><trkpt lat="44.2107084" lon="10.3822226"><ele>1534.0</ele><time>2026-04-29T15:22:57.416Z</time></trkpt><trkpt lat="44.2107735" lon="10.3821287"><ele>1534.5</ele><time>2026-04-29T15:22:59.413Z</time></trkpt><trkpt lat="44.210852" lon="10.38203"><ele>1535.0</ele><time>2026-04-29T15:23:01.409Z</time></trkpt><trkpt lat="44.2109713" lon="10.3819716"><ele>1535.5714285714287</ele><time>2026-04-29T15:23:03.408Z</time></trkpt><trkpt lat="44.2110418" lon="10.3819476"><ele>1536.142857142857</ele><time>2026-04-29T15:23:04.411Z</time></trkpt><trkpt lat="44.211117" lon="10.3819129"><ele>1536.7142857142858</ele><time>2026-04-29T15:23:05.399Z</time></trkpt><trkpt lat="44.2111937" lon="10.381872"><ele>1537.2857142857142</ele><time>2026-04-29T15:23:06.406Z</time></trkpt><trkpt lat="44.2112641" lon="10.3818338"><ele>1537.8571428571427</ele><time>2026-04-29T15:23:07.408Z</time></trkpt><trkpt lat="44.2113262" lon="10.381803"><ele>1538.4285714285713</ele><time>2026-04-29T15:23:08.399Z</time></trkpt><trkpt lat="44.2113999" lon="10.3818051"><ele>1539.0</ele><time>2026-04-29T15:23:09.399Z</time></trkpt><trkpt lat="44.2114784" lon="10.3818299"><ele>1537.0</ele><time>2026-04-29T15:23:10.414Z</time></trkpt><trkpt lat="44.2115602" lon="10.38187"><ele>1535.0</ele><time>2026-04-29T15:23:11.409Z</time></trkpt><trkpt lat="44.211651" lon="10.3818979"><ele>1533.0</ele><time>2026-04-29T15:23:12.408Z</time></trkpt><trkpt lat="44.2117482" lon="10.3819056"><ele>1531.0</ele><time>2026-04-29T15:23:13.414Z</time></trkpt><trkpt lat="44.2118508" lon="10.381893"><ele>1529.0</ele><time>2026-04-29T15:23:14.415Z</time></trkpt><trkpt lat="44.2119566" lon="10.3818646"><ele>1529.0</ele><time>2026-04-29T15:23:15.41Z</time></trkpt><trkpt lat="44.2120668" lon="10.3818188"><ele>1529.0</ele><time>2026-04-29T15:23:16.414Z</time></trkpt><trkpt lat="44.2121629" lon="10.3817799"><ele>1529.0</ele><time>2026-04-29T15:23:17.413Z</time></trkpt><trkpt lat="44.2122512" lon="10.3817569"><ele>1529.0</ele><time>2026-04-29T15:23:18.408Z</time></trkpt><trkpt lat="44.2123388" lon="10.3817494"><ele>1529.0</ele><time>2026-04-29T15:23:19.405Z</time></trkpt><trkpt lat="44.2124401" lon="10.3817622"><ele>1528.8000000000002</ele><time>2026-04-29T15:23:20.413Z</time></trkpt><trkpt lat="44.2125376" lon="10.381776"><ele>1528.6000000000001</ele><time>2026-04-29T15:23:21.411Z</time></trkpt><trkpt lat="44.2126368" lon="10.3818034"><ele>1528.4</ele><time>2026-04-29T15:23:22.411Z</time></trkpt><trkpt lat="44.2127372" lon="10.3818435"><ele>1528.2</ele><time>2026-04-29T15:23:23.41Z</time></trkpt><trkpt lat="44.2128472" lon="10.3818675"><ele>1528.0</ele><time>2026-04-29T15:23:24.413Z</time></trkpt><trkpt lat="44.2129678" lon="10.3818919"><ele>1528.0</ele><time>2026-04-29T15:23:25.414Z</time></trkpt><trkpt lat="44.2130859" lon="10.3819066"><ele>1528.0</ele><time>2026-04-29T15:23:26.416Z</time></trkpt><trkpt lat="44.2132081" lon="10.3819241"><ele>1528.0</ele><time>2026-04-29T15:23:27.418Z</time></trkpt><trkpt lat="44.2133297" lon="10.3819428"><ele>1528.0</ele><time>2026-04-29T15:23:28.415Z</time></trkpt><trkpt lat="44.2134606" lon="10.3819478"><ele>1525.25</ele><time>2026-04-29T15:23:29.407Z</time></trkpt><trkpt lat="44.2135753" lon="10.3819472"><ele>1522.5</ele><time>2026-04-29T15:23:30.418Z</time></trkpt><trkpt lat="44.2137305" lon="10.3819284"><ele>1519.75</ele><time>2026-04-29T15:23:32.425Z</time></trkpt><trkpt lat="44.2138356" lon="10.3819346"><ele>1517.0</ele><time>2026-04-29T15:23:33.411Z</time></trkpt><trkpt lat="44.2139137" lon="10.3819958"><ele>1518.1999999999998</ele><time>2026-04-29T15:23:34.411Z</time></trkpt><trkpt lat="44.2140129" lon="10.3820785"><ele>1519.4</ele><time>2026-04-29T15:23:35.414Z</time></trkpt><trkpt lat="44.214076" lon="10.3821474"><ele>1520.6</ele><time>2026-04-29T15:23:36.413Z</time></trkpt><trkpt lat="44.2141634" lon="10.382216"><ele>1521.8000000000002</ele><time>2026-04-29T15:23:37.404Z</time></trkpt><trkpt lat="44.2142509" lon="10.382267"><ele>1523.0</ele><time>2026-04-29T15:23:38.408Z</time></trkpt><trkpt lat="44.2143238" lon="10.3823259"><ele>1523.0</ele><time>2026-04-29T15:23:39.414Z</time></trkpt><trkpt lat="44.2143932" lon="10.3823656"><ele>1523.0</ele><time>2026-04-29T15:23:40.41Z</time></trkpt><trkpt lat="44.2144728" lon="10.3823672"><ele>1523.0</ele><time>2026-04-29T15:23:41.412Z</time></trkpt><trkpt lat="44.2145437" lon="10.382357"><ele>1523.0</ele><time>2026-04-29T15:23:42.422Z</time></trkpt><trkpt lat="44.21463" lon="10.38229"><ele>1523.0</ele><time>2026-04-29T15:23:43.404Z</time></trkpt><trkpt lat="44.2146798" lon="10.3822029"><ele>1523.0</ele><time>2026-04-29T15:23:44.414Z</time></trkpt><trkpt lat="44.2147246" lon="10.3821098"><ele>1520.1666666666667</ele><time>2026-04-29T15:23:45.43Z</time></trkpt><trkpt lat="44.2147391" lon="10.381995"><ele>1517.3333333333335</ele><time>2026-04-29T15:23:46.42Z</time></trkpt><trkpt lat="44.2147016" lon="10.381899"><ele>1514.5</ele><time>2026-04-29T15:23:47.42Z</time></trkpt><trkpt lat="44.2146605" lon="10.381743"><ele>1511.6666666666667</ele><time>2026-04-29T15:23:48.423Z</time></trkpt><trkpt lat="44.2146504" lon="10.3816261"><ele>1508.8333333333333</ele><time>2026-04-29T15:23:49.413Z</time></trkpt><trkpt lat="44.2146515" lon="10.381525"><ele>1506.0</ele><time>2026-04-29T15:23:50.405Z</time></trkpt><trkpt lat="44.2146942" lon="10.3814438"><ele>1506.0</ele><time>2026-04-29T15:23:51.41Z</time></trkpt><trkpt lat="44.2147312" lon="10.3813565"><ele>1506.0</ele><time>2026-04-29T15:23:52.406Z</time></trkpt><trkpt lat="44.2147775" lon="10.3812705"><ele>1506.0</ele><time>2026-04-29T15:23:53.401Z</time></trkpt><trkpt lat="44.2148161" lon="10.3811841"><ele>1506.0</ele><time>2026-04-29T15:23:54.41Z</time></trkpt><trkpt lat="44.2148791" lon="10.3810876"><ele>1506.0</ele><time>2026-04-29T15:23:55.424Z</time></trkpt><trkpt lat="44.2149451" lon="10.3809943"><ele>1506.0</ele><time>2026-04-29T15:23:56.412Z</time></trkpt><trkpt lat="44.2149942" lon="10.3808861"><ele>1503.5</ele><time>2026-04-29T15:23:57.418Z</time></trkpt><trkpt lat="44.2150553" lon="10.3807825"><ele>1501.0</ele><time>2026-04-29T15:23:58.415Z</time></trkpt><trkpt lat="44.2151014" lon="10.3806644"><ele>1498.5</ele><time>2026-04-29T15:23:59.418Z</time></trkpt><trkpt lat="44.2151582" lon="10.3805896"><ele>1496.0</ele><time>2026-04-29T15:24:00.404Z</time></trkpt><trkpt lat="44.2152043" lon="10.3805027"><ele>1493.5</ele><time>2026-04-29T15:24:01.412Z</time></trkpt><trkpt lat="44.2152479" lon="10.3804186"><ele>1491.0</ele><time>2026-04-29T15:24:02.41Z</time></trkpt><trkpt lat="44.2153153" lon="10.3803587"><ele>1488.6</ele><time>2026-04-29T15:24:03.396Z</time></trkpt><trkpt lat="44.2153925" lon="10.3803025"><ele>1486.1999999999998</ele><time>2026-04-29T15:24:04.411Z</time></trkpt><trkpt lat="44.2154869" lon="10.3802617"><ele>1483.8000000000002</ele><time>2026-04-29T15:24:05.418Z</time></trkpt><trkpt lat="44.2155709" lon="10.3801857"><ele>1481.4</ele><time>2026-04-29T15:24:06.412Z</time></trkpt><trkpt lat="44.2156599" lon="10.3801075"><ele>1479.0</ele><time>2026-04-29T15:24:07.408Z</time></trkpt><trkpt lat="44.2157756" lon="10.3800325"><ele>1479.0</ele><time>2026-04-29T15:24:08.413Z</time></trkpt><trkpt lat="44.2158454" lon="10.3799337"><ele>1479.0</ele><time>2026-04-29T15:24:09.406Z</time></trkpt><trkpt lat="44.215934" lon="10.3798418"><ele>1479.0</ele><time>2026-04-29T15:24:10.408Z</time></trkpt><trkpt lat="44.2160028" lon="10.3797582"><ele>1479.0</ele><time>2026-04-29T15:24:11.406Z</time></trkpt><trkpt lat="44.2160819" lon="10.3796782"><ele>1479.0</ele><time>2026-04-29T15:24:12.413Z</time></trkpt><trkpt lat="44.2161638" lon="10.3796063"><ele>1475.4</ele><time>2026-04-29T15:24:13.416Z</time></trkpt><trkpt lat="44.2162602" lon="10.3795675"><ele>1471.8000000000002</ele><time>2026-04-29T15:24:14.416Z</time></trkpt><trkpt lat="44.2163656" lon="10.3795243"><ele>1468.1999999999998</ele><time>2026-04-29T15:24:15.409Z</time></trkpt><trkpt lat="44.2164813" lon="10.3794674"><ele>1464.6</ele><time>2026-04-29T15:24:16.415Z</time></trkpt><trkpt lat="44.2165673" lon="10.3793936"><ele>1461.0</ele><time>2026-04-29T15:24:17.418Z</time></trkpt><trkpt lat="44.2166471" lon="10.3793578"><ele>1461.0</ele><time>2026-04-29T15:24:18.411Z</time></trkpt><trkpt lat="44.2166877" lon="10.3792674"><ele>1461.0</ele><time>2026-04-29T15:24:19.418Z</time></trkpt><trkpt lat="44.2167715" lon="10.3791952"><ele>1461.0</ele><time>2026-04-29T15:24:20.409Z</time></trkpt><trkpt lat="44.2168304" lon="10.3791056"><ele>1461.0</ele><time>2026-04-29T15:24:21.411Z</time></trkpt><trkpt lat="44.2169101" lon="10.3789793"><ele>1461.0</ele><time>2026-04-29T15:24:23.419Z</time></trkpt><trkpt lat="44.2169991" lon="10.3789469"><ele>1461.0</ele><time>2026-04-29T15:24:25.406Z</time></trkpt><trkpt lat="44.2171243" lon="10.379036"><ele>1461.0</ele><time>2026-04-29T15:24:27.423Z</time></trkpt><trkpt lat="44.217241" lon="10.3791243"><ele>1461.0</ele><time>2026-04-29T15:24:29.398Z</time></trkpt><trkpt lat="44.2172887" lon="10.3791968"><ele>1461.0</ele><time>2026-04-29T15:24:30.407Z</time></trkpt><trkpt lat="44.2173532" lon="10.379249"><ele>1461.0</ele><time>2026-04-29T15:24:31.421Z</time></trkpt><trkpt lat="44.21741" lon="10.3793202"><ele>1460.4</ele><time>2026-04-29T15:24:32.402Z</time></trkpt><trkpt lat="44.2174642" lon="10.3793831"><ele>1459.8</ele><time>2026-04-29T15:24:33.425Z</time></trkpt><trkpt lat="44.2175162" lon="10.3794749"><ele>1459.2</ele><time>2026-04-29T15:24:34.414Z</time></trkpt><trkpt lat="44.2175511" lon="10.379558"><ele>1458.6000000000001</ele><time>2026-04-29T15:24:35.41Z</time></trkpt><trkpt lat="44.2176049" lon="10.3797322"><ele>1458.0</ele><time>2026-04-29T15:24:37.408Z</time></trkpt><trkpt lat="44.2176653" lon="10.3798348"><ele>1458.0</ele><time>2026-04-29T15:24:39.407Z</time></trkpt><trkpt lat="44.2177362" lon="10.37989"><ele>1458.0</ele><time>2026-04-29T15:24:42.409Z</time></trkpt><trkpt lat="44.2177265" lon="10.3797992"><ele>1458.0</ele><time>2026-04-29T15:24:48.4Z</time></trkpt><trkpt lat="44.2176783" lon="10.3796419"><ele>1458.0</ele><time>2026-04-29T15:24:51.403Z</time></trkpt><trkpt lat="44.2176396" lon="10.3795028"><ele>1458.0</ele><time>2026-04-29T15:24:53.41Z</time></trkpt><trkpt lat="44.2176329" lon="10.3793997"><ele>1458.0</ele><time>2026-04-29T15:24:54.409Z</time></trkpt><trkpt lat="44.2176722" lon="10.3792461"><ele>1458.0</ele><time>2026-04-29T15:24:56.397Z</time></trkpt><trkpt lat="44.21766" lon="10.3790466"><ele>1458.0</ele><time>2026-04-29T15:24:58.408Z</time></trkpt><trkpt lat="44.2176448" lon="10.37895"><ele>1458.0</ele><time>2026-04-29T15:24:59.408Z</time></trkpt><trkpt lat="44.2175952" lon="10.3788358"><ele>1458.0</ele><time>2026-04-29T15:25:00.404Z</time></trkpt><trkpt lat="44.217525" lon="10.3787388"><ele>1456.3333333333333</ele><time>2026-04-29T15:25:01.41Z</time></trkpt><trkpt lat="44.2174938" lon="10.3786439"><ele>1454.6666666666667</ele><time>2026-04-29T15:25:02.402Z</time></trkpt><trkpt lat="44.2174506" lon="10.3785105"><ele>1453.0</ele><time>2026-04-29T15:25:03.408Z</time></trkpt><trkpt lat="44.2174179" lon="10.3783995"><ele>1451.3333333333335</ele><time>2026-04-29T15:25:04.414Z</time></trkpt><trkpt lat="44.2173903" lon="10.3782898"><ele>1449.6666666666667</ele><time>2026-04-29T15:25:05.416Z</time></trkpt><trkpt lat="44.2173611" lon="10.3781976"><ele>1448.0</ele><time>2026-04-29T15:25:06.413Z</time></trkpt><trkpt lat="44.217333" lon="10.378105"><ele>1444.2</ele><time>2026-04-29T15:25:07.412Z</time></trkpt><trkpt lat="44.2172486" lon="10.3779044"><ele>1440.4</ele><time>2026-04-29T15:25:09.409Z</time></trkpt><trkpt lat="44.2172099" lon="10.3778044"><ele>1436.6000000000001</ele><time>2026-04-29T15:25:10.412Z</time></trkpt><trkpt lat="44.2171536" lon="10.3777055"><ele>1432.8000000000002</ele><time>2026-04-29T15:25:11.406Z</time></trkpt><trkpt lat="44.2170911" lon="10.3776178"><ele>1429.0</ele><time>2026-04-29T15:25:13.406Z</time></trkpt><trkpt lat="44.2170356" lon="10.3775753"><ele>1429.0</ele><time>2026-04-29T15:25:14.409Z</time></trkpt><trkpt lat="44.2169391" lon="10.3775357"><ele>1429.0</ele><time>2026-04-29T15:25:16.414Z</time></trkpt><trkpt lat="44.2168659" lon="10.3776242"><ele>1429.0</ele><time>2026-04-29T15:25:18.42Z</time></trkpt><trkpt lat="44.2168081" lon="10.3777663"><ele>1429.0</ele><time>2026-04-29T15:25:20.419Z</time></trkpt><trkpt lat="44.2167682" lon="10.3778546"><ele>1429.0</ele><time>2026-04-29T15:25:21.412Z</time></trkpt><trkpt lat="44.2166625" lon="10.3780014"><ele>1429.0</ele><time>2026-04-29T15:25:23.411Z</time></trkpt><trkpt lat="44.2166071" lon="10.378057"><ele>1429.0</ele><time>2026-04-29T15:25:24.41Z</time></trkpt><trkpt lat="44.2165456" lon="10.3781125"><ele>1429.0</ele><time>2026-04-29T15:25:25.405Z</time></trkpt><trkpt lat="44.2164706" lon="10.3780782"><ele>1429.0</ele><time>2026-04-29T15:25:27.413Z</time></trkpt><trkpt lat="44.2164048" lon="10.3779625"><ele>1429.0</ele><time>2026-04-29T15:25:30.403Z</time></trkpt><trkpt lat="44.216453" lon="10.3778907"><ele>1429.0</ele><time>2026-04-29T15:25:32.41Z</time></trkpt><trkpt lat="44.2165233" lon="10.3777294"><ele>1429.0</ele><time>2026-04-29T15:25:34.415Z</time></trkpt><trkpt lat="44.2165729" lon="10.377569"><ele>1429.0</ele><time>2026-04-29T15:25:36.404Z</time></trkpt><trkpt lat="44.2165926" lon="10.3774552"><ele>1429.0</ele><time>2026-04-29T15:25:37.408Z</time></trkpt><trkpt lat="44.2166183" lon="10.3773247"><ele>1429.0</ele><time>2026-04-29T15:25:38.407Z</time></trkpt><trkpt lat="44.2166487" lon="10.377204"><ele>1429.0</ele><time>2026-04-29T15:25:39.404Z</time></trkpt><trkpt lat="44.2166872" lon="10.3771175"><ele>1425.6666666666665</ele><time>2026-04-29T15:25:40.404Z</time></trkpt><trkpt lat="44.2167238" lon="10.3770205"><ele>1422.3333333333333</ele><time>2026-04-29T15:25:41.404Z</time></trkpt><trkpt lat="44.216769" lon="10.3769147"><ele>1419.0</ele><time>2026-04-29T15:25:42.406Z</time></trkpt><trkpt lat="44.2167892" lon="10.3767986"><ele>1415.6666666666667</ele><time>2026-04-29T15:25:43.408Z</time></trkpt><trkpt lat="44.2168054" lon="10.3766951"><ele>1412.3333333333335</ele><time>2026-04-29T15:25:44.414Z</time></trkpt><trkpt lat="44.2168251" lon="10.3765939"><ele>1409.0</ele><time>2026-04-29T15:25:45.413Z</time></trkpt><trkpt lat="44.2168219" lon="10.3764614"><ele>1409.0</ele><time>2026-04-29T15:25:46.407Z</time></trkpt><trkpt lat="44.2168417" lon="10.3763537"><ele>1409.0</ele><time>2026-04-29T15:25:47.406Z</time></trkpt><trkpt lat="44.2168684" lon="10.3762477"><ele>1409.0</ele><time>2026-04-29T15:25:48.416Z</time></trkpt><trkpt lat="44.2169023" lon="10.376154"><ele>1409.0</ele><time>2026-04-29T15:25:49.406Z</time></trkpt><trkpt lat="44.2169611" lon="10.3760888"><ele>1409.0</ele><time>2026-04-29T15:25:50.416Z</time></trkpt><trkpt lat="44.2170143" lon="10.376035"><ele>1409.0</ele><time>2026-04-29T15:25:51.414Z</time></trkpt><trkpt lat="44.217089" lon="10.3759882"><ele>1405.2</ele><time>2026-04-29T15:25:52.415Z</time></trkpt><trkpt lat="44.2171548" lon="10.3759848"><ele>1401.4</ele><time>2026-04-29T15:25:53.411Z</time></trkpt><trkpt lat="44.2172634" lon="10.3759303"><ele>1397.6</ele><time>2026-04-29T15:25:55.402Z</time></trkpt><trkpt lat="44.2172547" lon="10.3757519"><ele>1393.8</ele><time>2026-04-29T15:25:57.406Z</time></trkpt><trkpt lat="44.2172151" lon="10.375669"><ele>1390.0</ele><time>2026-04-29T15:25:58.414Z</time></trkpt><trkpt lat="44.2171606" lon="10.3756073"><ele>1390.0</ele><time>2026-04-29T15:25:59.408Z</time></trkpt><trkpt lat="44.2170909" lon="10.3756061"><ele>1390.0</ele><time>2026-04-29T15:26:00.415Z</time></trkpt><trkpt lat="44.217014" lon="10.3756185"><ele>1390.0</ele><time>2026-04-29T15:26:01.411Z</time></trkpt><trkpt lat="44.21692" lon="10.3756217"><ele>1390.0</ele><time>2026-04-29T15:26:02.408Z</time></trkpt><trkpt lat="44.2168238" lon="10.3756584"><ele>1390.0</ele><time>2026-04-29T15:26:03.413Z</time></trkpt><trkpt lat="44.2167292" lon="10.3757234"><ele>1390.0</ele><time>2026-04-29T15:26:04.408Z</time></trkpt><trkpt lat="44.2166303" lon="10.3757837"><ele>1390.0</ele><time>2026-04-29T15:26:05.41Z</time></trkpt><trkpt lat="44.2165207" lon="10.3758434"><ele>1390.0</ele><time>2026-04-29T15:26:06.409Z</time></trkpt><trkpt lat="44.2163976" lon="10.3758973"><ele>1390.0</ele><time>2026-04-29T15:26:07.407Z</time></trkpt><trkpt lat="44.2162524" lon="10.3759444"><ele>1390.0</ele><time>2026-04-29T15:26:08.409Z</time></trkpt><trkpt lat="44.2161198" lon="10.375986"><ele>1388.2</ele><time>2026-04-29T15:26:09.406Z</time></trkpt><trkpt lat="44.2159958" lon="10.3760315"><ele>1386.4</ele><time>2026-04-29T15:26:10.409Z</time></trkpt><trkpt lat="44.215878" lon="10.3760386"><ele>1384.6</ele><time>2026-04-29T15:26:11.413Z</time></trkpt><trkpt lat="44.215781" lon="10.3760432"><ele>1382.8</ele><time>2026-04-29T15:26:12.411Z</time></trkpt><trkpt lat="44.215696" lon="10.3760387"><ele>1381.0</ele><time>2026-04-29T15:26:13.422Z</time></trkpt><trkpt lat="44.2156174" lon="10.3760519"><ele>1384.8333333333333</ele><time>2026-04-29T15:26:14.405Z</time></trkpt><trkpt lat="44.2155491" lon="10.3760535"><ele>1388.6666666666665</ele><time>2026-04-29T15:26:15.398Z</time></trkpt><trkpt lat="44.2154518" lon="10.3760772"><ele>1392.5</ele><time>2026-04-29T15:26:17.412Z</time></trkpt><trkpt lat="44.2153972" lon="10.3759985"><ele>1396.3333333333333</ele><time>2026-04-29T15:26:19.406Z</time></trkpt><trkpt lat="44.2153748" lon="10.3758786"><ele>1400.1666666666667</ele><time>2026-04-29T15:26:22.396Z</time></trkpt><trkpt lat="44.2153913" lon="10.375789"><ele>1404.0</ele><time>2026-04-29T15:26:24.413Z</time></trkpt><trkpt lat="44.2154337" lon="10.3756993"><ele>1404.0000000000002</ele><time>2026-04-29T15:26:27.415Z</time></trkpt><trkpt lat="44.2154995" lon="10.3756322"><ele>1404.0</ele><time>2026-04-29T15:26:30.401Z</time></trkpt><trkpt lat="44.2155268" lon="10.3755263"><ele>1404.0</ele><time>2026-04-29T15:26:34.397Z</time></trkpt><trkpt lat="44.2155418" lon="10.3754279"><ele>1404.0</ele><time>2026-04-29T15:26:37.405Z</time></trkpt><trkpt lat="44.2155461" lon="10.3753397"><ele>1404.0</ele><time>2026-04-29T15:26:40.405Z</time></trkpt><trkpt lat="44.2155134" lon="10.3752429"><ele>1404.0000000000002</ele><time>2026-04-29T15:26:44.414Z</time></trkpt><trkpt lat="44.2154701" lon="10.3751781"><ele>1404.0</ele><time>2026-04-29T15:26:47.406Z</time></trkpt><trkpt lat="44.215408" lon="10.3751042"><ele>1401.3333333333333</ele><time>2026-04-29T15:26:50.403Z</time></trkpt><trkpt lat="44.2153365" lon="10.3750264"><ele>1398.6666666666667</ele><time>2026-04-29T15:26:53.406Z</time></trkpt><trkpt lat="44.2152693" lon="10.3749345"><ele>1396.0</ele><time>2026-04-29T15:26:56.408Z</time></trkpt><trkpt lat="44.2152127" lon="10.3748501"><ele>1393.3333333333335</ele><time>2026-04-29T15:26:59.421Z</time></trkpt><trkpt lat="44.2151408" lon="10.3747686"><ele>1390.6666666666667</ele><time>2026-04-29T15:27:01.412Z</time></trkpt><trkpt lat="44.2150669" lon="10.3747287"><ele>1388.0</ele><time>2026-04-29T15:27:03.409Z</time></trkpt><trkpt lat="44.2149622" lon="10.3746787"><ele>1388.5</ele><time>2026-04-29T15:27:05.408Z</time></trkpt><trkpt lat="44.2148889" lon="10.3745599"><ele>1389.0</ele><time>2026-04-29T15:27:07.406Z</time></trkpt><trkpt lat="44.2148409" lon="10.3744073"><ele>1389.5</ele><time>2026-04-29T15:27:09.411Z</time></trkpt><trkpt lat="44.2148029" lon="10.3742431"><ele>1390.0</ele><time>2026-04-29T15:27:11.411Z</time></trkpt><trkpt lat="44.214717" lon="10.3740836"><ele>1390.0</ele><time>2026-04-29T15:27:13.42Z</time></trkpt><trkpt lat="44.2146728" lon="10.3740009"><ele>1390.0</ele><time>2026-04-29T15:27:14.403Z</time></trkpt><trkpt lat="44.2146308" lon="10.373911"><ele>1390.0</ele><time>2026-04-29T15:27:15.406Z</time></trkpt><trkpt lat="44.2145778" lon="10.3738125"><ele>1390.0</ele><time>2026-04-29T15:27:16.41Z</time></trkpt><trkpt lat="44.2145078" lon="10.3737092"><ele>1390.0</ele><time>2026-04-29T15:27:17.411Z</time></trkpt><trkpt lat="44.2144425" lon="10.373591"><ele>1390.0</ele><time>2026-04-29T15:27:18.406Z</time></trkpt><trkpt lat="44.2143976" lon="10.3734992"><ele>1387.1666666666665</ele><time>2026-04-29T15:27:19.408Z</time></trkpt><trkpt lat="44.2143651" lon="10.3734136"><ele>1384.3333333333333</ele><time>2026-04-29T15:27:20.41Z</time></trkpt><trkpt lat="44.2143196" lon="10.3733278"><ele>1381.5</ele><time>2026-04-29T15:27:21.404Z</time></trkpt><trkpt lat="44.2142798" lon="10.3732408"><ele>1378.6666666666667</ele><time>2026-04-29T15:27:22.408Z</time></trkpt><trkpt lat="44.214227" lon="10.373143"><ele>1375.8333333333335</ele><time>2026-04-29T15:27:23.415Z</time></trkpt><trkpt lat="44.2141954" lon="10.3730322"><ele>1373.0</ele><time>2026-04-29T15:27:24.41Z</time></trkpt><trkpt lat="44.2141674" lon="10.3729191"><ele>1372.3333333333335</ele><time>2026-04-29T15:27:25.416Z</time></trkpt><trkpt lat="44.2141557" lon="10.3728146"><ele>1371.6666666666667</ele><time>2026-04-29T15:27:26.409Z</time></trkpt><trkpt lat="44.2141323" lon="10.3727134"><ele>1371.0</ele><time>2026-04-29T15:27:27.424Z</time></trkpt><trkpt lat="44.2141227" lon="10.372612"><ele>1370.3333333333333</ele><time>2026-04-29T15:27:28.414Z</time></trkpt><trkpt lat="44.2140845" lon="10.3725173"><ele>1369.6666666666665</ele><time>2026-04-29T15:27:29.412Z</time></trkpt><trkpt lat="44.2140195" lon="10.3723839"><ele>1369.0</ele><time>2026-04-29T15:27:31.405Z</time></trkpt><trkpt lat="44.2139371" lon="10.3722525"><ele>1367.3333333333333</ele><time>2026-04-29T15:27:33.406Z</time></trkpt><trkpt lat="44.2138989" lon="10.3721802"><ele>1365.6666666666665</ele><time>2026-04-29T15:27:34.406Z</time></trkpt><trkpt lat="44.213862" lon="10.3720997"><ele>1364.0</ele><time>2026-04-29T15:27:35.408Z</time></trkpt><trkpt lat="44.2138358" lon="10.3720126"><ele>1362.3333333333333</ele><time>2026-04-29T15:27:36.411Z</time></trkpt><trkpt lat="44.2137622" lon="10.3718634"><ele>1360.6666666666667</ele><time>2026-04-29T15:27:38.407Z</time></trkpt><trkpt lat="44.2137326" lon="10.3717857"><ele>1359.0</ele><time>2026-04-29T15:27:39.417Z</time></trkpt><trkpt lat="44.2136722" lon="10.3717214"><ele>1359.0</ele><time>2026-04-29T15:27:40.434Z</time></trkpt><trkpt lat="44.2136401" lon="10.371625"><ele>1359.0</ele><time>2026-04-29T15:27:41.415Z</time></trkpt><trkpt lat="44.2136099" lon="10.3715168"><ele>1359.0</ele><time>2026-04-29T15:27:42.41Z</time></trkpt><trkpt lat="44.2135788" lon="10.3714157"><ele>1359.0</ele><time>2026-04-29T15:27:43.399Z</time></trkpt><trkpt lat="44.2135523" lon="10.3712992"><ele>1359.0</ele><time>2026-04-29T15:27:44.412Z</time></trkpt><trkpt lat="44.2135162" lon="10.3712115"><ele>1359.0</ele><time>2026-04-29T15:27:45.41Z</time></trkpt><trkpt lat="44.2134982" lon="10.3710992"><ele>1361.0</ele><time>2026-04-29T15:27:46.415Z</time></trkpt><trkpt lat="44.2134751" lon="10.3709946"><ele>1363.0</ele><time>2026-04-29T15:27:47.402Z</time></trkpt><trkpt lat="44.2134633" lon="10.3708871"><ele>1365.0</ele><time>2026-04-29T15:27:48.404Z</time></trkpt><trkpt lat="44.2134497" lon="10.3707732"><ele>1367.0</ele><time>2026-04-29T15:27:49.4Z</time></trkpt><trkpt lat="44.2134396" lon="10.3705946"><ele>1369.0</ele><time>2026-04-29T15:27:51.398Z</time></trkpt><trkpt lat="44.2134492" lon="10.3705006"><ele>1371.0</ele><time>2026-04-29T15:27:52.399Z</time></trkpt><trkpt lat="44.2134713" lon="10.3703558"><ele>1371.6666666666667</ele><time>2026-04-29T15:27:54.41Z</time></trkpt><trkpt lat="44.2134513" lon="10.3701955"><ele>1372.3333333333333</ele><time>2026-04-29T15:27:56.397Z</time></trkpt><trkpt lat="44.213412" lon="10.3701143"><ele>1373.0</ele><time>2026-04-29T15:27:57.403Z</time></trkpt><trkpt lat="44.2134051" lon="10.3699861"><ele>1373.6666666666665</ele><time>2026-04-29T15:27:59.414Z</time></trkpt><trkpt lat="44.2134205" lon="10.3698903"><ele>1374.3333333333333</ele><time>2026-04-29T15:28:02.418Z</time></trkpt><trkpt lat="44.2134282" lon="10.3697983"><ele>1375.0</ele><time>2026-04-29T15:28:07.413Z</time></trkpt><trkpt lat="44.2134198" lon="10.3697056"><ele>1374.8571428571427</ele><time>2026-04-29T15:28:10.42Z</time></trkpt><trkpt lat="44.2134046" lon="10.3696186"><ele>1374.7142857142858</ele><time>2026-04-29T15:28:13.402Z</time></trkpt><trkpt lat="44.2133952" lon="10.3695161"><ele>1374.5714285714284</ele><time>2026-04-29T15:28:17.41Z</time></trkpt><trkpt lat="44.213382" lon="10.369405"><ele>1374.4285714285713</ele><time>2026-04-29T15:28:21.407Z</time></trkpt><trkpt lat="44.2133495" lon="10.3693101"><ele>1374.2857142857142</ele><time>2026-04-29T15:28:25.422Z</time></trkpt><trkpt lat="44.2133037" lon="10.3692146"><ele>1374.142857142857</ele><time>2026-04-29T15:28:29.398Z</time></trkpt><trkpt lat="44.2132751" lon="10.369124"><ele>1374.0</ele><time>2026-04-29T15:28:34.404Z</time></trkpt><trkpt lat="44.2132735" lon="10.3690286"><ele>1374.0</ele><time>2026-04-29T15:28:39.407Z</time></trkpt><trkpt lat="44.2132395" lon="10.3689215"><ele>1374.0</ele><time>2026-04-29T15:28:43.404Z</time></trkpt><trkpt lat="44.2132053" lon="10.3687866"><ele>1374.0</ele><time>2026-04-29T15:28:46.401Z</time></trkpt><trkpt lat="44.2131553" lon="10.368724"><ele>1374.0</ele><time>2026-04-29T15:28:48.405Z</time></trkpt><trkpt lat="44.2131004" lon="10.3686573"><ele>1374.0</ele><time>2026-04-29T15:28:50.399Z</time></trkpt><trkpt lat="44.2130354" lon="10.3685767"><ele>1374.0</ele><time>2026-04-29T15:28:53.415Z</time></trkpt><trkpt lat="44.2129725" lon="10.3685224"><ele>1373.5</ele><time>2026-04-29T15:28:56.401Z</time></trkpt><trkpt lat="44.2129011" lon="10.3684882"><ele>1373.0</ele><time>2026-04-29T15:28:58.401Z</time></trkpt><trkpt lat="44.2128114" lon="10.368422"><ele>1372.5</ele><time>2026-04-29T15:29:00.418Z</time></trkpt><trkpt lat="44.2127038" lon="10.3683714"><ele>1372.0</ele><time>2026-04-29T15:29:02.42Z</time></trkpt><trkpt lat="44.212622" lon="10.3683207"><ele>1371.5</ele><time>2026-04-29T15:29:03.416Z</time></trkpt><trkpt lat="44.2125609" lon="10.3682872"><ele>1371.0</ele><time>2026-04-29T15:29:04.409Z</time></trkpt><trkpt lat="44.2124872" lon="10.3682908"><ele>1371.0</ele><time>2026-04-29T15:29:06.421Z</time></trkpt><trkpt lat="44.2124129" lon="10.3682853"><ele>1371.0</ele><time>2026-04-29T15:29:07.426Z</time></trkpt><trkpt lat="44.2123402" lon="10.368271"><ele>1371.0</ele><time>2026-04-29T15:29:08.401Z</time></trkpt><trkpt lat="44.21223" lon="10.368254"><ele>1371.0</ele><time>2026-04-29T15:29:09.412Z</time></trkpt><trkpt lat="44.2121358" lon="10.3682278"><ele>1371.0</ele><time>2026-04-29T15:29:10.408Z</time></trkpt><trkpt lat="44.212046" lon="10.3682072"><ele>1371.0</ele><time>2026-04-29T15:29:11.422Z</time></trkpt><trkpt lat="44.2119472" lon="10.3681899"><ele>1369.6666666666667</ele><time>2026-04-29T15:29:12.399Z</time></trkpt><trkpt lat="44.2118521" lon="10.3681857"><ele>1368.3333333333333</ele><time>2026-04-29T15:29:13.407Z</time></trkpt><trkpt lat="44.2117709" lon="10.3681541"><ele>1367.0</ele><time>2026-04-29T15:29:14.419Z</time></trkpt><trkpt lat="44.211707" lon="10.3681226"><ele>1365.6666666666665</ele><time>2026-04-29T15:29:15.418Z</time></trkpt><trkpt lat="44.2116298" lon="10.3681308"><ele>1364.3333333333333</ele><time>2026-04-29T15:29:16.409Z</time></trkpt><trkpt lat="44.2115636" lon="10.3681159"><ele>1363.0</ele><time>2026-04-29T15:29:17.403Z</time></trkpt><trkpt lat="44.2114759" lon="10.3681297"><ele>1359.5</ele><time>2026-04-29T15:29:18.416Z</time></trkpt><trkpt lat="44.2113948" lon="10.3681516"><ele>1356.0</ele><time>2026-04-29T15:29:19.411Z</time></trkpt><trkpt lat="44.2113218" lon="10.368167"><ele>1352.5</ele><time>2026-04-29T15:29:20.411Z</time></trkpt><trkpt lat="44.2112609" lon="10.3682038"><ele>1349.0</ele><time>2026-04-29T15:29:21.401Z</time></trkpt><trkpt lat="44.2111858" lon="10.3682667"><ele>1345.5</ele><time>2026-04-29T15:29:22.42Z</time></trkpt><trkpt lat="44.211092" lon="10.3683584"><ele>1342.0</ele><time>2026-04-29T15:29:24.423Z</time></trkpt><trkpt lat="44.2110403" lon="10.368421"><ele>1342.0</ele><time>2026-04-29T15:29:25.421Z</time></trkpt><trkpt lat="44.2110051" lon="10.3684999"><ele>1342.0</ele><time>2026-04-29T15:29:26.398Z</time></trkpt><trkpt lat="44.2109728" lon="10.3685766"><ele>1342.0</ele><time>2026-04-29T15:29:27.409Z</time></trkpt><trkpt lat="44.2109517" lon="10.3686719"><ele>1342.0</ele><time>2026-04-29T15:29:28.408Z</time></trkpt><trkpt lat="44.2108733" lon="10.3687436"><ele>1342.0</ele><time>2026-04-29T15:29:30.414Z</time></trkpt><trkpt lat="44.2108001" lon="10.3686717"><ele>1342.0</ele><time>2026-04-29T15:29:32.417Z</time></trkpt><trkpt lat="44.2108019" lon="10.3685668"><ele>1342.0</ele><time>2026-04-29T15:29:34.412Z</time></trkpt><trkpt lat="44.2108439" lon="10.3684514"><ele>1342.0</ele><time>2026-04-29T15:29:36.418Z</time></trkpt><trkpt lat="44.2108374" lon="10.3682987"><ele>1342.0</ele><time>2026-04-29T15:29:37.397Z</time></trkpt><trkpt lat="44.2108888" lon="10.3682055"><ele>1342.0</ele><time>2026-04-29T15:29:38.441Z</time></trkpt><trkpt lat="44.2109294" lon="10.3680986"><ele>1342.0</ele><time>2026-04-29T15:29:39.403Z</time></trkpt><trkpt lat="44.2109558" lon="10.3679909"><ele>1340.2857142857142</ele><time>2026-04-29T15:29:40.415Z</time></trkpt><trkpt lat="44.2109839" lon="10.3679023"><ele>1338.5714285714287</ele><time>2026-04-29T15:29:41.414Z</time></trkpt><trkpt lat="44.2109979" lon="10.3678148"><ele>1336.857142857143</ele><time>2026-04-29T15:29:42.419Z</time></trkpt><trkpt lat="44.2110011" lon="10.3677139"><ele>1335.142857142857</ele><time>2026-04-29T15:29:43.4Z</time></trkpt><trkpt lat="44.2109857" lon="10.3676254"><ele>1333.4285714285716</ele><time>2026-04-29T15:29:44.41Z</time></trkpt><trkpt lat="44.2109608" lon="10.3675325"><ele>1331.7142857142858</ele><time>2026-04-29T15:29:45.408Z</time></trkpt><trkpt lat="44.2108997" lon="10.3674724"><ele>1330.0</ele><time>2026-04-29T15:29:46.404Z</time></trkpt><trkpt lat="44.2108495" lon="10.3674089"><ele>1330.0</ele><time>2026-04-29T15:29:47.403Z</time></trkpt><trkpt lat="44.2107803" lon="10.3673614"><ele>1330.0</ele><time>2026-04-29T15:29:48.412Z</time></trkpt><trkpt lat="44.2107147" lon="10.3673365"><ele>1330.0</ele><time>2026-04-29T15:29:49.404Z</time></trkpt><trkpt lat="44.2106515" lon="10.3673077"><ele>1330.0</ele><time>2026-04-29T15:29:50.409Z</time></trkpt><trkpt lat="44.2105516" lon="10.3672621"><ele>1330.0</ele><time>2026-04-29T15:29:52.408Z</time></trkpt><trkpt lat="44.2105596" lon="10.3671593"><ele>1330.0</ele><time>2026-04-29T15:29:54.401Z</time></trkpt><trkpt lat="44.2105992" lon="10.3670803"><ele>1327.4</ele><time>2026-04-29T15:29:56.401Z</time></trkpt><trkpt lat="44.2106692" lon="10.3670382"><ele>1324.8</ele><time>2026-04-29T15:29:58.405Z</time></trkpt><trkpt lat="44.2107753" lon="10.3669812"><ele>1322.1999999999998</ele><time>2026-04-29T15:30:00.419Z</time></trkpt><trkpt lat="44.2108785" lon="10.366893"><ele>1319.6</ele><time>2026-04-29T15:30:02.412Z</time></trkpt><trkpt lat="44.2109596" lon="10.3667681"><ele>1317.0</ele><time>2026-04-29T15:30:04.416Z</time></trkpt><trkpt lat="44.2110005" lon="10.366594"><ele>1317.0</ele><time>2026-04-29T15:30:06.416Z</time></trkpt><trkpt lat="44.2110164" lon="10.3664922"><ele>1317.0</ele><time>2026-04-29T15:30:07.414Z</time></trkpt><trkpt lat="44.21103" lon="10.3663889"><ele>1317.0</ele><time>2026-04-29T15:30:08.409Z</time></trkpt><trkpt lat="44.211037" lon="10.3662825"><ele>1317.0</ele><time>2026-04-29T15:30:09.409Z</time></trkpt><trkpt lat="44.2110408" lon="10.3661706"><ele>1317.0</ele><time>2026-04-29T15:30:10.419Z</time></trkpt><trkpt lat="44.21104" lon="10.3660768"><ele>1317.0</ele><time>2026-04-29T15:30:11.423Z</time></trkpt><trkpt lat="44.2110447" lon="10.3659144"><ele>1316.5</ele><time>2026-04-29T15:30:13.41Z</time></trkpt><trkpt lat="44.211119" lon="10.3658157"><ele>1316.0</ele><time>2026-04-29T15:30:15.407Z</time></trkpt><trkpt lat="44.2111694" lon="10.3657571"><ele>1315.5</ele><time>2026-04-29T15:30:16.4Z</time></trkpt><trkpt lat="44.2112405" lon="10.3657565"><ele>1315.0</ele><time>2026-04-29T15:30:17.42Z</time></trkpt><trkpt lat="44.2112965" lon="10.3657006"><ele>1314.5</ele><time>2026-04-29T15:30:18.421Z</time></trkpt><trkpt lat="44.211357" lon="10.3656393"><ele>1314.0</ele><time>2026-04-29T15:30:19.416Z</time></trkpt><trkpt lat="44.2114142" lon="10.365564"><ele>1313.8333333333333</ele><time>2026-04-29T15:30:20.423Z</time></trkpt><trkpt lat="44.2114838" lon="10.3655026"><ele>1313.6666666666667</ele><time>2026-04-29T15:30:21.419Z</time></trkpt><trkpt lat="44.211556" lon="10.365446"><ele>1313.5</ele><time>2026-04-29T15:30:22.419Z</time></trkpt><trkpt lat="44.2116246" lon="10.3653816"><ele>1313.3333333333335</ele><time>2026-04-29T15:30:23.424Z</time></trkpt><trkpt lat="44.2116555" lon="10.3652978"><ele>1313.1666666666667</ele><time>2026-04-29T15:30:24.409Z</time></trkpt><trkpt lat="44.2116674" lon="10.3651835"><ele>1313.0</ele><time>2026-04-29T15:30:25.412Z</time></trkpt><trkpt lat="44.2117125" lon="10.3649942"><ele>1313.0</ele><time>2026-04-29T15:30:27.422Z</time></trkpt><trkpt lat="44.2117161" lon="10.3648965"><ele>1313.0</ele><time>2026-04-29T15:30:28.406Z</time></trkpt><trkpt lat="44.2117093" lon="10.3647868"><ele>1313.0</ele><time>2026-04-29T15:30:29.408Z</time></trkpt><trkpt lat="44.2117034" lon="10.3646773"><ele>1313.0</ele><time>2026-04-29T15:30:30.409Z</time></trkpt><trkpt lat="44.2116955" lon="10.3645628"><ele>1313.0</ele><time>2026-04-29T15:30:31.415Z</time></trkpt><trkpt lat="44.2116887" lon="10.3644433"><ele>1313.0</ele><time>2026-04-29T15:30:32.411Z</time></trkpt><trkpt lat="44.2116648" lon="10.3643085"><ele>1313.1666666666667</ele><time>2026-04-29T15:30:33.401Z</time></trkpt><trkpt lat="44.2116532" lon="10.3641953"><ele>1313.3333333333335</ele><time>2026-04-29T15:30:34.412Z</time></trkpt><trkpt lat="44.2116254" lon="10.3640884"><ele>1313.5</ele><time>2026-04-29T15:30:35.398Z</time></trkpt><trkpt lat="44.2116105" lon="10.363984"><ele>1313.6666666666667</ele><time>2026-04-29T15:30:36.412Z</time></trkpt><trkpt lat="44.2116049" lon="10.3638821"><ele>1313.8333333333333</ele><time>2026-04-29T15:30:37.412Z</time></trkpt><trkpt lat="44.2115851" lon="10.3637761"><ele>1314.0</ele><time>2026-04-29T15:30:38.419Z</time></trkpt><trkpt lat="44.2115598" lon="10.3636724"><ele>1311.8000000000002</ele><time>2026-04-29T15:30:39.41Z</time></trkpt><trkpt lat="44.2115165" lon="10.363558"><ele>1309.6000000000001</ele><time>2026-04-29T15:30:40.413Z</time></trkpt><trkpt lat="44.2114662" lon="10.3634103"><ele>1307.4</ele><time>2026-04-29T15:30:42.411Z</time></trkpt><trkpt lat="44.21143" lon="10.3633267"><ele>1305.2</ele><time>2026-04-29T15:30:43.399Z</time></trkpt><trkpt lat="44.2113819" lon="10.3631454"><ele>1303.0</ele><time>2026-04-29T15:30:45.418Z</time></trkpt><trkpt lat="44.2113691" lon="10.3630526"><ele>1302.1666666666665</ele><time>2026-04-29T15:30:46.404Z</time></trkpt><trkpt lat="44.2113872" lon="10.362942"><ele>1301.3333333333333</ele><time>2026-04-29T15:30:47.412Z</time></trkpt><trkpt lat="44.2113986" lon="10.3628418"><ele>1300.5</ele><time>2026-04-29T15:30:48.412Z</time></trkpt><trkpt lat="44.2114133" lon="10.3627359"><ele>1299.6666666666667</ele><time>2026-04-29T15:30:49.414Z</time></trkpt><trkpt lat="44.2114608" lon="10.3626429"><ele>1298.8333333333335</ele><time>2026-04-29T15:30:50.414Z</time></trkpt><trkpt lat="44.2114852" lon="10.3625551"><ele>1298.0</ele><time>2026-04-29T15:30:51.405Z</time></trkpt><trkpt lat="44.2115265" lon="10.3624699"><ele>1298.0</ele><time>2026-04-29T15:30:52.405Z</time></trkpt><trkpt lat="44.2115306" lon="10.3623637"><ele>1298.0</ele><time>2026-04-29T15:30:53.415Z</time></trkpt><trkpt lat="44.2115483" lon="10.3622408"><ele>1298.0</ele><time>2026-04-29T15:30:54.412Z</time></trkpt><trkpt lat="44.2115588" lon="10.3621318"><ele>1298.0</ele><time>2026-04-29T15:30:55.4Z</time></trkpt><trkpt lat="44.2115705" lon="10.3620053"><ele>1298.0</ele><time>2026-04-29T15:30:56.399Z</time></trkpt><trkpt lat="44.2115582" lon="10.361891"><ele>1298.0</ele><time>2026-04-29T15:30:57.401Z</time></trkpt><trkpt lat="44.2115635" lon="10.3617644"><ele>1298.3333333333335</ele><time>2026-04-29T15:30:58.415Z</time></trkpt><trkpt lat="44.211558" lon="10.3616451"><ele>1298.6666666666667</ele><time>2026-04-29T15:30:59.413Z</time></trkpt><trkpt lat="44.2115523" lon="10.3615253"><ele>1299.0</ele><time>2026-04-29T15:31:00.413Z</time></trkpt><trkpt lat="44.2115641" lon="10.3614174"><ele>1299.3333333333333</ele><time>2026-04-29T15:31:01.416Z</time></trkpt><trkpt lat="44.2115212" lon="10.3612963"><ele>1299.6666666666665</ele><time>2026-04-29T15:31:02.408Z</time></trkpt><trkpt lat="44.2115201" lon="10.3611787"><ele>1300.0</ele><time>2026-04-29T15:31:03.407Z</time></trkpt><trkpt lat="44.2115002" lon="10.3610729"><ele>1300.0</ele><time>2026-04-29T15:31:04.419Z</time></trkpt><trkpt lat="44.2114921" lon="10.3609377"><ele>1300.0</ele><time>2026-04-29T15:31:05.402Z</time></trkpt><trkpt lat="44.2114972" lon="10.360827"><ele>1300.0</ele><time>2026-04-29T15:31:06.414Z</time></trkpt><trkpt lat="44.211509" lon="10.3607235"><ele>1300.0</ele><time>2026-04-29T15:31:07.405Z</time></trkpt><trkpt lat="44.2115234" lon="10.3606341"><ele>1300.0</ele><time>2026-04-29T15:31:08.42Z</time></trkpt><trkpt lat="44.2115285" lon="10.3605315"><ele>1300.0</ele><time>2026-04-29T15:31:09.399Z</time></trkpt><trkpt lat="44.2115527" lon="10.3603953"><ele>1298.6</ele><time>2026-04-29T15:31:11.419Z</time></trkpt><trkpt lat="44.2116365" lon="10.36038"><ele>1297.2</ele><time>2026-04-29T15:31:14.406Z</time></trkpt><trkpt lat="44.2117205" lon="10.360418"><ele>1295.8000000000002</ele><time>2026-04-29T15:31:16.404Z</time></trkpt><trkpt lat="44.2117725" lon="10.3603242"><ele>1294.4</ele><time>2026-04-29T15:31:18.411Z</time></trkpt><trkpt lat="44.2117486" lon="10.3601736"><ele>1293.0</ele><time>2026-04-29T15:31:20.41Z</time></trkpt><trkpt lat="44.21168" lon="10.3600138"><ele>1293.0</ele><time>2026-04-29T15:31:22.416Z</time></trkpt><trkpt lat="44.2116267" lon="10.359913"><ele>1293.0</ele><time>2026-04-29T15:31:23.409Z</time></trkpt><trkpt lat="44.2115682" lon="10.3598203"><ele>1293.0</ele><time>2026-04-29T15:31:24.415Z</time></trkpt><trkpt lat="44.2114937" lon="10.3597187"><ele>1293.0</ele><time>2026-04-29T15:31:25.415Z</time></trkpt><trkpt lat="44.2114101" lon="10.3596192"><ele>1293.0</ele><time>2026-04-29T15:31:26.406Z</time></trkpt><trkpt lat="44.2113378" lon="10.3595544"><ele>1290.6666666666667</ele><time>2026-04-29T15:31:27.405Z</time></trkpt><trkpt lat="44.2112762" lon="10.3594894"><ele>1288.3333333333333</ele><time>2026-04-29T15:31:28.404Z</time></trkpt><trkpt lat="44.2112" lon="10.3594398"><ele>1286.0</ele><time>2026-04-29T15:31:29.406Z</time></trkpt><trkpt lat="44.2110908" lon="10.3593649"><ele>1283.6666666666665</ele><time>2026-04-29T15:31:31.402Z</time></trkpt><trkpt lat="44.2110455" lon="10.3592979"><ele>1281.3333333333333</ele><time>2026-04-29T15:31:34.398Z</time></trkpt><trkpt lat="44.2110441" lon="10.3591794"><ele>1279.0</ele><time>2026-04-29T15:31:36.408Z</time></trkpt><trkpt lat="44.2111013" lon="10.359079"><ele>1279.0</ele><time>2026-04-29T15:31:38.421Z</time></trkpt><trkpt lat="44.2111539" lon="10.3590274"><ele>1279.0</ele><time>2026-04-29T15:31:39.404Z</time></trkpt><trkpt lat="44.2112517" lon="10.3589268"><ele>1279.0</ele><time>2026-04-29T15:31:41.414Z</time></trkpt><trkpt lat="44.2113386" lon="10.3589134"><ele>1279.0</ele><time>2026-04-29T15:31:42.403Z</time></trkpt><trkpt lat="44.2114502" lon="10.3589312"><ele>1279.0</ele><time>2026-04-29T15:31:43.425Z</time></trkpt><trkpt lat="44.2115188" lon="10.358949"><ele>1279.6</ele><time>2026-04-29T15:31:44.398Z</time></trkpt><trkpt lat="44.2115916" lon="10.3589705"><ele>1280.2</ele><time>2026-04-29T15:31:45.408Z</time></trkpt><trkpt lat="44.2116852" lon="10.3589956"><ele>1280.8</ele><time>2026-04-29T15:31:46.41Z</time></trkpt><trkpt lat="44.2118086" lon="10.3590245"><ele>1281.3999999999999</ele><time>2026-04-29T15:31:47.408Z</time></trkpt><trkpt lat="44.2119099" lon="10.3590482"><ele>1282.0</ele><time>2026-04-29T15:31:48.415Z</time></trkpt><trkpt lat="44.2120173" lon="10.359066"><ele>1282.0</ele><time>2026-04-29T15:31:49.412Z</time></trkpt><trkpt lat="44.2120944" lon="10.3590823"><ele>1282.0</ele><time>2026-04-29T15:31:50.41Z</time></trkpt><trkpt lat="44.212257" lon="10.35913"><ele>1282.0</ele><time>2026-04-29T15:31:51.41Z</time></trkpt><trkpt lat="44.212363" lon="10.3591747"><ele>1282.0</ele><time>2026-04-29T15:31:52.405Z</time></trkpt><trkpt lat="44.2124908" lon="10.3592403"><ele>1279.8</ele><time>2026-04-29T15:31:53.416Z</time></trkpt><trkpt lat="44.2125556" lon="10.3592807"><ele>1277.6</ele><time>2026-04-29T15:31:54.411Z</time></trkpt><trkpt lat="44.2126711" lon="10.3593524"><ele>1275.3999999999999</ele><time>2026-04-29T15:31:56.408Z</time></trkpt><trkpt lat="44.2127518" lon="10.3593453"><ele>1273.1999999999998</ele><time>2026-04-29T15:31:58.399Z</time></trkpt><trkpt lat="44.2128234" lon="10.3592498"><ele>1271.0</ele><time>2026-04-29T15:32:00.396Z</time></trkpt><trkpt lat="44.2128723" lon="10.3591506"><ele>1271.0</ele><time>2026-04-29T15:32:02.401Z</time></trkpt><trkpt lat="44.2128624" lon="10.3589584"><ele>1271.0</ele><time>2026-04-29T15:32:04.396Z</time></trkpt><trkpt lat="44.2127968" lon="10.3587772"><ele>1271.0</ele><time>2026-04-29T15:32:06.402Z</time></trkpt><trkpt lat="44.2127507" lon="10.3586622"><ele>1271.0</ele><time>2026-04-29T15:32:07.408Z</time></trkpt><trkpt lat="44.2127108" lon="10.3585627"><ele>1268.3333333333335</ele><time>2026-04-29T15:32:08.406Z</time></trkpt><trkpt lat="44.2126716" lon="10.3584637"><ele>1265.6666666666667</ele><time>2026-04-29T15:32:09.427Z</time></trkpt><trkpt lat="44.2126334" lon="10.3583884"><ele>1263.0</ele><time>2026-04-29T15:32:10.4Z</time></trkpt><trkpt lat="44.2125885" lon="10.3583067"><ele>1260.3333333333333</ele><time>2026-04-29T15:32:11.406Z</time></trkpt><trkpt lat="44.2125597" lon="10.3582201"><ele>1257.6666666666665</ele><time>2026-04-29T15:32:12.411Z</time></trkpt><trkpt lat="44.2124929" lon="10.3581239"><ele>1255.0</ele><time>2026-04-29T15:32:13.41Z</time></trkpt><trkpt lat="44.2124419" lon="10.3580486"><ele>1254.0</ele><time>2026-04-29T15:32:14.4Z</time></trkpt><trkpt lat="44.2123797" lon="10.3579872"><ele>1253.0</ele><time>2026-04-29T15:32:15.407Z</time></trkpt><trkpt lat="44.212322" lon="10.3579445"><ele>1252.0</ele><time>2026-04-29T15:32:16.395Z</time></trkpt><trkpt lat="44.2122646" lon="10.357906"><ele>1251.0</ele><time>2026-04-29T15:32:17.402Z</time></trkpt><trkpt lat="44.2121757" lon="10.357848"><ele>1250.0</ele><time>2026-04-29T15:32:19.399Z</time></trkpt><trkpt lat="44.2120681" lon="10.3577754"><ele>1249.0</ele><time>2026-04-29T15:32:21.403Z</time></trkpt><trkpt lat="44.2119696" lon="10.3577189"><ele>1249.0</ele><time>2026-04-29T15:32:23.405Z</time></trkpt><trkpt lat="44.2118894" lon="10.3576755"><ele>1249.0</ele><time>2026-04-29T15:32:25.411Z</time></trkpt><trkpt lat="44.2118301" lon="10.3576353"><ele>1249.0</ele><time>2026-04-29T15:32:26.397Z</time></trkpt><trkpt lat="44.2117614" lon="10.3575922"><ele>1249.0</ele><time>2026-04-29T15:32:27.407Z</time></trkpt><trkpt lat="44.2116893" lon="10.3575503"><ele>1249.0</ele><time>2026-04-29T15:32:29.401Z</time></trkpt><trkpt lat="44.2115599" lon="10.3574597"><ele>1249.0</ele><time>2026-04-29T15:32:31.405Z</time></trkpt><trkpt lat="44.2114984" lon="10.357411"><ele>1249.0</ele><time>2026-04-29T15:32:32.398Z</time></trkpt><trkpt lat="44.2114368" lon="10.3573675"><ele>1249.0</ele><time>2026-04-29T15:32:33.397Z</time></trkpt><trkpt lat="44.2113621" lon="10.3573101"><ele>1249.0</ele><time>2026-04-29T15:32:34.395Z</time></trkpt><trkpt lat="44.2112922" lon="10.3572473"><ele>1249.0</ele><time>2026-04-29T15:32:35.401Z</time></trkpt><trkpt lat="44.2112256" lon="10.3571889"><ele>1249.0</ele><time>2026-04-29T15:32:36.402Z</time></trkpt><trkpt lat="44.2111426" lon="10.3571184"><ele>1245.0</ele><time>2026-04-29T15:32:37.398Z</time></trkpt><trkpt lat="44.2110647" lon="10.357052"><ele>1241.0</ele><time>2026-04-29T15:32:38.409Z</time></trkpt><trkpt lat="44.2109824" lon="10.356984"><ele>1237.0</ele><time>2026-04-29T15:32:39.401Z</time></trkpt><trkpt lat="44.2109051" lon="10.356926"><ele>1233.0</ele><time>2026-04-29T15:32:40.407Z</time></trkpt><trkpt lat="44.2108385" lon="10.3568859"><ele>1229.0</ele><time>2026-04-29T15:32:41.411Z</time></trkpt><trkpt lat="44.2107195" lon="10.3568711"><ele>1228.0</ele><time>2026-04-29T15:32:43.4Z</time></trkpt><trkpt lat="44.2106021" lon="10.3569605"><ele>1227.0</ele><time>2026-04-29T15:32:45.399Z</time></trkpt><trkpt lat="44.2105392" lon="10.3570319"><ele>1226.0</ele><time>2026-04-29T15:32:46.401Z</time></trkpt><trkpt lat="44.2104846" lon="10.3571124"><ele>1225.0</ele><time>2026-04-29T15:32:47.401Z</time></trkpt><trkpt lat="44.2104202" lon="10.3571719"><ele>1224.0</ele><time>2026-04-29T15:32:48.408Z</time></trkpt><trkpt lat="44.2103577" lon="10.3572234"><ele>1223.0</ele><time>2026-04-29T15:32:49.404Z</time></trkpt><trkpt lat="44.210292" lon="10.3572655"><ele>1223.0</ele><time>2026-04-29T15:32:50.408Z</time></trkpt><trkpt lat="44.2102157" lon="10.3572644"><ele>1223.0</ele><time>2026-04-29T15:32:51.401Z</time></trkpt><trkpt lat="44.2101469" lon="10.3572681"><ele>1223.0</ele><time>2026-04-29T15:32:52.401Z</time></trkpt><trkpt lat="44.2100787" lon="10.3572601"><ele>1223.0</ele><time>2026-04-29T15:32:53.408Z</time></trkpt><trkpt lat="44.2100008" lon="10.3572327"><ele>1223.0</ele><time>2026-04-29T15:32:54.412Z</time></trkpt><trkpt lat="44.2099244" lon="10.3572071"><ele>1223.0</ele><time>2026-04-29T15:32:55.412Z</time></trkpt><trkpt lat="44.2098561" lon="10.3572013"><ele>1223.0</ele><time>2026-04-29T15:32:56.404Z</time></trkpt><trkpt lat="44.2097359" lon="10.3571812"><ele>1223.6666666666667</ele><time>2026-04-29T15:32:58.407Z</time></trkpt><trkpt lat="44.2096728" lon="10.3571779"><ele>1224.3333333333335</ele><time>2026-04-29T15:32:59.407Z</time></trkpt><trkpt lat="44.2095778" lon="10.3571979"><ele>1225.0</ele><time>2026-04-29T15:33:01.417Z</time></trkpt><trkpt lat="44.2094865" lon="10.3572204"><ele>1225.6666666666667</ele><time>2026-04-29T15:33:03.402Z</time></trkpt><trkpt lat="44.2093878" lon="10.3572441"><ele>1226.3333333333333</ele><time>2026-04-29T15:33:05.402Z</time></trkpt><trkpt lat="44.2093003" lon="10.3572582"><ele>1227.0</ele><time>2026-04-29T15:33:07.398Z</time></trkpt><trkpt lat="44.2092216" lon="10.3572635"><ele>1227.0</ele><time>2026-04-29T15:33:09.404Z</time></trkpt><trkpt lat="44.2091377" lon="10.3572235"><ele>1227.0</ele><time>2026-04-29T15:33:11.396Z</time></trkpt><trkpt lat="44.2090914" lon="10.3571599"><ele>1227.0</ele><time>2026-04-29T15:33:13.399Z</time></trkpt><trkpt lat="44.2090495" lon="10.3570923"><ele>1227.0</ele><time>2026-04-29T15:33:15.409Z</time></trkpt><trkpt lat="44.2089992" lon="10.3570133"><ele>1227.0</ele><time>2026-04-29T15:33:18.423Z</time></trkpt><trkpt lat="44.2089945" lon="10.3569208"><ele>1227.0</ele><time>2026-04-29T15:33:22.423Z</time></trkpt><trkpt lat="44.2089388" lon="10.3568332"><ele>1227.0</ele><time>2026-04-29T15:33:25.4Z</time></trkpt><trkpt lat="44.2089055" lon="10.3567158"><ele>1228.5</ele><time>2026-04-29T15:33:28.408Z</time></trkpt><trkpt lat="44.2088421" lon="10.3566668"><ele>1230.0</ele><time>2026-04-29T15:33:30.413Z</time></trkpt><trkpt lat="44.2087816" lon="10.3567133"><ele>1231.5</ele><time>2026-04-29T15:33:32.407Z</time></trkpt><trkpt lat="44.2087112" lon="10.3567723"><ele>1233.0</ele><time>2026-04-29T15:33:35.4Z</time></trkpt><trkpt lat="44.20864" lon="10.3567842"><ele>1234.5</ele><time>2026-04-29T15:33:37.398Z</time></trkpt><trkpt lat="44.2085746" lon="10.3568137"><ele>1236.0</ele><time>2026-04-29T15:33:38.399Z</time></trkpt><trkpt lat="44.2084864" lon="10.3567937"><ele>1236.0</ele><time>2026-04-29T15:33:40.4Z</time></trkpt><trkpt lat="44.2083809" lon="10.3567276"><ele>1236.0</ele><time>2026-04-29T15:33:42.402Z</time></trkpt><trkpt lat="44.2082685" lon="10.3567092"><ele>1236.0</ele><time>2026-04-29T15:33:44.404Z</time></trkpt><trkpt lat="44.208203" lon="10.3566893"><ele>1236.0</ele><time>2026-04-29T15:33:45.418Z</time></trkpt><trkpt lat="44.2080801" lon="10.3566705"><ele>1236.0</ele><time>2026-04-29T15:33:47.401Z</time></trkpt><trkpt lat="44.2080111" lon="10.3567391"><ele>1236.0</ele><time>2026-04-29T15:33:49.401Z</time></trkpt><trkpt lat="44.2079243" lon="10.3567287"><ele>1236.0</ele><time>2026-04-29T15:33:51.398Z</time></trkpt><trkpt lat="44.2078538" lon="10.3567039"><ele>1236.0</ele><time>2026-04-29T15:33:54.402Z</time></trkpt><trkpt lat="44.2077739" lon="10.3567304"><ele>1236.0</ele><time>2026-04-29T15:33:58.406Z</time></trkpt><trkpt lat="44.2077116" lon="10.3567654"><ele>1236.0</ele><time>2026-04-29T15:34:01.421Z</time></trkpt><trkpt lat="44.2076318" lon="10.3568015"><ele>1236.0</ele><time>2026-04-29T15:34:04.403Z</time></trkpt><trkpt lat="44.2075805" lon="10.356869"><ele>1236.0</ele><time>2026-04-29T15:34:07.417Z</time></trkpt><trkpt lat="44.2075236" lon="10.3569437"><ele>1236.0</ele><time>2026-04-29T15:34:11.403Z</time></trkpt><trkpt lat="44.2074267" lon="10.356995"><ele>1236.0</ele><time>2026-04-29T15:34:14.408Z</time></trkpt><trkpt lat="44.2073387" lon="10.3570378"><ele>1236.0</ele><time>2026-04-29T15:34:16.404Z</time></trkpt><trkpt lat="44.2072668" lon="10.3571218"><ele>1236.0</ele><time>2026-04-29T15:34:18.406Z</time></trkpt><trkpt lat="44.2072131" lon="10.3572179"><ele>1236.6666666666667</ele><time>2026-04-29T15:34:20.402Z</time></trkpt><trkpt lat="44.2071557" lon="10.3572853"><ele>1237.3333333333333</ele><time>2026-04-29T15:34:22.424Z</time></trkpt><trkpt lat="44.2070868" lon="10.3573536"><ele>1238.0</ele><time>2026-04-29T15:34:25.414Z</time></trkpt><trkpt lat="44.2070158" lon="10.3574068"><ele>1238.6666666666665</ele><time>2026-04-29T15:34:28.402Z</time></trkpt><trkpt lat="44.206945" lon="10.3574379"><ele>1239.3333333333333</ele><time>2026-04-29T15:34:31.407Z</time></trkpt><trkpt lat="44.2068681" lon="10.3574893"><ele>1240.0</ele><time>2026-04-29T15:34:34.419Z</time></trkpt><trkpt lat="44.2068025" lon="10.357526"><ele>1240.0</ele><time>2026-04-29T15:34:38.402Z</time></trkpt><trkpt lat="44.2067391" lon="10.3575464"><ele>1240.0</ele><time>2026-04-29T15:34:40.415Z</time></trkpt><trkpt lat="44.2066636" lon="10.3575871"><ele>1240.0</ele><time>2026-04-29T15:34:43.426Z</time></trkpt><trkpt lat="44.206587" lon="10.357613"><ele>1240.0</ele><time>2026-04-29T15:34:46.41Z</time></trkpt><trkpt lat="44.2065239" lon="10.3576416"><ele>1240.0</ele><time>2026-04-29T15:34:48.417Z</time></trkpt><trkpt lat="44.2064437" lon="10.3577151"><ele>1240.0</ele><time>2026-04-29T15:34:51.41Z</time></trkpt><trkpt lat="44.2063904" lon="10.3577732"><ele>1240.142857142857</ele><time>2026-04-29T15:34:54.413Z</time></trkpt><trkpt lat="44.2063312" lon="10.3578463"><ele>1240.2857142857142</ele><time>2026-04-29T15:35:01.414Z</time></trkpt><trkpt lat="44.2062902" lon="10.3579408"><ele>1240.4285714285716</ele><time>2026-04-29T15:35:04.405Z</time></trkpt><trkpt lat="44.2062687" lon="10.3580502"><ele>1240.5714285714284</ele><time>2026-04-29T15:35:06.416Z</time></trkpt><trkpt lat="44.2062567" lon="10.3581596"><ele>1240.7142857142856</ele><time>2026-04-29T15:35:08.406Z</time></trkpt><trkpt lat="44.2062287" lon="10.3582412"><ele>1240.857142857143</ele><time>2026-04-29T15:35:10.415Z</time></trkpt><trkpt lat="44.2061794" lon="10.3583005"><ele>1241.0</ele><time>2026-04-29T15:35:13.406Z</time></trkpt><trkpt lat="44.2061225" lon="10.3582351"><ele>1241.0</ele><time>2026-04-29T15:35:18.405Z</time></trkpt><trkpt lat="44.2060596" lon="10.3581728"><ele>1241.0</ele><time>2026-04-29T15:35:21.42Z</time></trkpt><trkpt lat="44.2060096" lon="10.3581115"><ele>1241.0</ele><time>2026-04-29T15:35:23.417Z</time></trkpt><trkpt lat="44.2059537" lon="10.3580298"><ele>1241.0</ele><time>2026-04-29T15:35:26.403Z</time></trkpt><trkpt lat="44.2058976" lon="10.3579846"><ele>1241.0</ele><time>2026-04-29T15:35:29.41Z</time></trkpt><trkpt lat="44.2058396" lon="10.3579454"><ele>1241.0</ele><time>2026-04-29T15:35:32.419Z</time></trkpt><trkpt lat="44.2057633" lon="10.3579574"><ele>1241.0</ele><time>2026-04-29T15:35:36.399Z</time></trkpt><trkpt lat="44.2056981" lon="10.3579761"><ele>1241.0</ele><time>2026-04-29T15:35:40.399Z</time></trkpt><trkpt lat="44.2056176" lon="10.3579607"><ele>1241.0</ele><time>2026-04-29T15:35:46.423Z</time></trkpt><trkpt lat="44.2055366" lon="10.3579607"><ele>1241.0</ele><time>2026-04-29T15:35:49.403Z</time></trkpt><trkpt lat="44.2054581" lon="10.357995"><ele>1241.0</ele><time>2026-04-29T15:35:52.398Z</time></trkpt><trkpt lat="44.2053783" lon="10.3580331"><ele>1241.0</ele><time>2026-04-29T15:35:55.41Z</time></trkpt><trkpt lat="44.2053065" lon="10.3580352"><ele>1241.0</ele><time>2026-04-29T15:35:58.403Z</time></trkpt><trkpt lat="44.2052161" lon="10.3579776"><ele>1239.1666666666667</ele><time>2026-04-29T15:36:01.401Z</time></trkpt><trkpt lat="44.2051238" lon="10.3579328"><ele>1237.3333333333335</ele><time>2026-04-29T15:36:03.419Z</time></trkpt><trkpt lat="44.2050377" lon="10.3579182"><ele>1235.5</ele><time>2026-04-29T15:36:05.408Z</time></trkpt><trkpt lat="44.2049653" lon="10.3579041"><ele>1233.6666666666667</ele><time>2026-04-29T15:36:08.407Z</time></trkpt><trkpt lat="44.204909" lon="10.3578508"><ele>1231.8333333333333</ele><time>2026-04-29T15:36:11.413Z</time></trkpt><trkpt lat="44.2048532" lon="10.35779"><ele>1230.0</ele><time>2026-04-29T15:36:14.414Z</time></trkpt><trkpt lat="44.2047955" lon="10.3577311"><ele>1230.0</ele><time>2026-04-29T15:36:17.408Z</time></trkpt><trkpt lat="44.2047353" lon="10.3576653"><ele>1230.0</ele><time>2026-04-29T15:36:20.407Z</time></trkpt><trkpt lat="44.2046798" lon="10.3575972"><ele>1230.0</ele><time>2026-04-29T15:36:23.396Z</time></trkpt><trkpt lat="44.2046216" lon="10.35753"><ele>1230.0</ele><time>2026-04-29T15:36:26.418Z</time></trkpt><trkpt lat="44.2045632" lon="10.3574912"><ele>1230.0</ele><time>2026-04-29T15:36:29.409Z</time></trkpt><trkpt lat="44.2044998" lon="10.3574588"><ele>1230.0</ele><time>2026-04-29T15:36:32.417Z</time></trkpt><trkpt lat="44.2044198" lon="10.3574441"><ele>1230.0</ele><time>2026-04-29T15:36:36.416Z</time></trkpt><trkpt lat="44.2043442" lon="10.3574098"><ele>1230.0</ele><time>2026-04-29T15:36:39.405Z</time></trkpt><trkpt lat="44.2042561" lon="10.3573891"><ele>1230.0</ele><time>2026-04-29T15:36:42.411Z</time></trkpt><trkpt lat="44.2041759" lon="10.3573802"><ele>1230.0</ele><time>2026-04-29T15:36:45.408Z</time></trkpt><trkpt lat="44.2040973" lon="10.3573831"><ele>1230.0</ele><time>2026-04-29T15:36:48.408Z</time></trkpt><trkpt lat="44.2040242" lon="10.3574167"><ele>1230.0</ele><time>2026-04-29T15:36:51.408Z</time></trkpt><trkpt lat="44.203965" lon="10.3574535"><ele>1230.0</ele><time>2026-04-29T15:36:54.401Z</time></trkpt><trkpt lat="44.2039038" lon="10.3575009"><ele>1229.1666666666667</ele><time>2026-04-29T15:36:58.415Z</time></trkpt><trkpt lat="44.2038174" lon="10.3575247"><ele>1228.3333333333333</ele><time>2026-04-29T15:37:01.417Z</time></trkpt><trkpt lat="44.2037391" lon="10.3575596"><ele>1227.5</ele><time>2026-04-29T15:37:04.404Z</time></trkpt><trkpt lat="44.2036792" lon="10.3576068"><ele>1226.6666666666665</ele><time>2026-04-29T15:37:07.402Z</time></trkpt><trkpt lat="44.2036149" lon="10.3576343"><ele>1225.8333333333333</ele><time>2026-04-29T15:37:10.411Z</time></trkpt><trkpt lat="44.2035416" lon="10.3576874"><ele>1225.0</ele><time>2026-04-29T15:37:13.411Z</time></trkpt><trkpt lat="44.20349" lon="10.3577427"><ele>1225.0</ele><time>2026-04-29T15:37:15.417Z</time></trkpt><trkpt lat="44.2034299" lon="10.3578028"><ele>1225.0</ele><time>2026-04-29T15:37:17.411Z</time></trkpt><trkpt lat="44.2033575" lon="10.3578673"><ele>1225.0</ele><time>2026-04-29T15:37:19.417Z</time></trkpt><trkpt lat="44.2032881" lon="10.3579278"><ele>1225.0</ele><time>2026-04-29T15:37:21.401Z</time></trkpt><trkpt lat="44.2032198" lon="10.3579759"><ele>1225.0</ele><time>2026-04-29T15:37:23.407Z</time></trkpt><trkpt lat="44.2031603" lon="10.3580181"><ele>1225.0</ele><time>2026-04-29T15:37:25.414Z</time></trkpt><trkpt lat="44.2030839" lon="10.3580775"><ele>1225.0</ele><time>2026-04-29T15:37:28.407Z</time></trkpt><trkpt lat="44.2029928" lon="10.3581128"><ele>1225.0</ele><time>2026-04-29T15:37:31.416Z</time></trkpt><trkpt lat="44.2029204" lon="10.3581446"><ele>1225.0</ele><time>2026-04-29T15:37:33.408Z</time></trkpt><trkpt lat="44.2028611" lon="10.3581963"><ele>1225.0</ele><time>2026-04-29T15:37:35.411Z</time></trkpt><trkpt lat="44.2027757" lon="10.35825"><ele>1225.0</ele><time>2026-04-29T15:37:38.415Z</time></trkpt><trkpt lat="44.2027092" lon="10.3582902"><ele>1225.0</ele><time>2026-04-29T15:37:40.411Z</time></trkpt><trkpt lat="44.2026333" lon="10.3583302"><ele>1225.0</ele><time>2026-04-29T15:37:42.41Z</time></trkpt><trkpt lat="44.2025564" lon="10.358359"><ele>1225.0</ele><time>2026-04-29T15:37:44.416Z</time></trkpt><trkpt lat="44.2024826" lon="10.3584035"><ele>1225.0</ele><time>2026-04-29T15:37:46.404Z</time></trkpt><trkpt lat="44.2024086" lon="10.3584364"><ele>1225.0</ele><time>2026-04-29T15:37:48.417Z</time></trkpt><trkpt lat="44.2023353" lon="10.3584753"><ele>1225.0</ele><time>2026-04-29T15:37:50.405Z</time></trkpt><trkpt lat="44.2022693" lon="10.3585184"><ele>1225.0</ele><time>2026-04-29T15:37:52.403Z</time></trkpt><trkpt lat="44.2022178" lon="10.3585787"><ele>1225.142857142857</ele><time>2026-04-29T15:37:54.403Z</time></trkpt><trkpt lat="44.2021861" lon="10.3587034"><ele>1225.2857142857142</ele><time>2026-04-29T15:37:57.401Z</time></trkpt><trkpt lat="44.202184" lon="10.3587924"><ele>1225.4285714285716</ele><time>2026-04-29T15:37:59.411Z</time></trkpt><trkpt lat="44.2022228" lon="10.3588988"><ele>1225.5714285714284</ele><time>2026-04-29T15:38:02.414Z</time></trkpt><trkpt lat="44.2022769" lon="10.3589454"><ele>1225.7142857142858</ele><time>2026-04-29T15:38:04.418Z</time></trkpt><trkpt lat="44.2023338" lon="10.358986"><ele>1225.857142857143</ele><time>2026-04-29T15:38:06.403Z</time></trkpt><trkpt lat="44.2024056" lon="10.3590219"><ele>1226.0</ele><time>2026-04-29T15:38:09.406Z</time></trkpt><trkpt lat="44.2024922" lon="10.3590466"><ele>1226.0</ele><time>2026-04-29T15:38:12.42Z</time></trkpt><trkpt lat="44.2025559" lon="10.359049"><ele>1226.0</ele><time>2026-04-29T15:38:14.423Z</time></trkpt><trkpt lat="44.2026307" lon="10.359031"><ele>1226.0</ele><time>2026-04-29T15:38:16.406Z</time></trkpt><trkpt lat="44.2027153" lon="10.3590123"><ele>1226.0</ele><time>2026-04-29T15:38:18.407Z</time></trkpt><trkpt lat="44.202804" lon="10.3590039"><ele>1226.0</ele><time>2026-04-29T15:38:20.408Z</time></trkpt><trkpt lat="44.2028904" lon="10.359006"><ele>1226.0</ele><time>2026-04-29T15:38:22.415Z</time></trkpt><trkpt lat="44.2029633" lon="10.3590206"><ele>1226.0</ele><time>2026-04-29T15:38:24.401Z</time></trkpt><trkpt lat="44.2030292" lon="10.3590495"><ele>1226.0</ele><time>2026-04-29T15:38:26.406Z</time></trkpt><trkpt lat="44.2030923" lon="10.3590901"><ele>1226.0</ele><time>2026-04-29T15:38:28.408Z</time></trkpt><trkpt lat="44.2031532" lon="10.3591252"><ele>1226.0</ele><time>2026-04-29T15:38:30.406Z</time></trkpt><trkpt lat="44.2032332" lon="10.3591814"><ele>1226.0</ele><time>2026-04-29T15:38:33.413Z</time></trkpt><trkpt lat="44.2032907" lon="10.3592317"><ele>1226.0</ele><time>2026-04-29T15:38:35.421Z</time></trkpt><trkpt lat="44.2033654" lon="10.3592785"><ele>1226.0</ele><time>2026-04-29T15:38:38.411Z</time></trkpt><trkpt lat="44.2034457" lon="10.3593226"><ele>1226.3333333333335</ele><time>2026-04-29T15:38:41.42Z</time></trkpt><trkpt lat="44.2035055" lon="10.3593702"><ele>1226.6666666666667</ele><time>2026-04-29T15:38:43.42Z</time></trkpt><trkpt lat="44.2035827" lon="10.3594322"><ele>1227.0</ele><time>2026-04-29T15:38:46.419Z</time></trkpt><trkpt lat="44.2036536" lon="10.3594536"><ele>1227.3333333333333</ele><time>2026-04-29T15:38:49.408Z</time></trkpt><trkpt lat="44.2037403" lon="10.3594673"><ele>1227.6666666666665</ele><time>2026-04-29T15:38:53.415Z</time></trkpt><trkpt lat="44.2038203" lon="10.3594972"><ele>1228.0</ele><time>2026-04-29T15:38:56.406Z</time></trkpt><trkpt lat="44.2038844" lon="10.359556"><ele>1228.0</ele><time>2026-04-29T15:38:59.417Z</time></trkpt><trkpt lat="44.2039273" lon="10.3596414"><ele>1228.0</ele><time>2026-04-29T15:39:02.405Z</time></trkpt><trkpt lat="44.2039538" lon="10.3597506"><ele>1228.0</ele><time>2026-04-29T15:39:05.419Z</time></trkpt><trkpt lat="44.2039685" lon="10.3598486"><ele>1228.0</ele><time>2026-04-29T15:39:08.417Z</time></trkpt><trkpt lat="44.2039773" lon="10.3599715"><ele>1228.0</ele><time>2026-04-29T15:39:11.403Z</time></trkpt><trkpt lat="44.2039888" lon="10.3600692"><ele>1228.0</ele><time>2026-04-29T15:39:13.407Z</time></trkpt><trkpt lat="44.2040173" lon="10.3601662"><ele>1227.9999999999998</ele><time>2026-04-29T15:39:15.401Z</time></trkpt><trkpt lat="44.204056" lon="10.360261"><ele>1228.0</ele><time>2026-04-29T15:39:17.397Z</time></trkpt><trkpt lat="44.2041049" lon="10.3603392"><ele>1228.0</ele><time>2026-04-29T15:39:19.412Z</time></trkpt><trkpt lat="44.2041612" lon="10.3604115"><ele>1228.0</ele><time>2026-04-29T15:39:21.402Z</time></trkpt><trkpt lat="44.2042146" lon="10.3604795"><ele>1228.0</ele><time>2026-04-29T15:39:23.404Z</time></trkpt><trkpt lat="44.2042672" lon="10.3605364"><ele>1227.9999999999998</ele><time>2026-04-29T15:39:25.401Z</time></trkpt><trkpt lat="44.204316" lon="10.3605981"><ele>1228.0</ele><time>2026-04-29T15:39:27.411Z</time></trkpt><trkpt lat="44.2043779" lon="10.3606878"><ele>1226.5</ele><time>2026-04-29T15:39:30.4Z</time></trkpt><trkpt lat="44.2044526" lon="10.3607481"><ele>1225.0</ele><time>2026-04-29T15:39:33.408Z</time></trkpt><trkpt lat="44.2045287" lon="10.3607963"><ele>1223.5</ele><time>2026-04-29T15:39:36.416Z</time></trkpt><trkpt lat="44.2046049" lon="10.3608428"><ele>1222.0</ele><time>2026-04-29T15:39:39.412Z</time></trkpt><trkpt lat="44.2046821" lon="10.3608618"><ele>1220.5</ele><time>2026-04-29T15:39:42.416Z</time></trkpt><trkpt lat="44.2047544" lon="10.3608863"><ele>1219.0</ele><time>2026-04-29T15:39:45.412Z</time></trkpt><trkpt lat="44.2048194" lon="10.3609257"><ele>1221.6666666666665</ele><time>2026-04-29T15:39:55.401Z</time></trkpt><trkpt lat="44.2048996" lon="10.3609347"><ele>1224.3333333333333</ele><time>2026-04-29T15:39:58.405Z</time></trkpt><trkpt lat="44.2049831" lon="10.360975"><ele>1227.0</ele><time>2026-04-29T15:40:01.402Z</time></trkpt><trkpt lat="44.2050418" lon="10.3610127"><ele>1229.6666666666667</ele><time>2026-04-29T15:40:03.409Z</time></trkpt><trkpt lat="44.2050967" lon="10.3610669"><ele>1232.3333333333335</ele><time>2026-04-29T15:40:05.408Z</time></trkpt><trkpt lat="44.205145" lon="10.3611358"><ele>1235.0</ele><time>2026-04-29T15:40:07.41Z</time></trkpt><trkpt lat="44.2051741" lon="10.361245"><ele>1235.0</ele><time>2026-04-29T15:40:10.402Z</time></trkpt><trkpt lat="44.2051731" lon="10.3613531"><ele>1235.0</ele><time>2026-04-29T15:40:12.4Z</time></trkpt><trkpt lat="44.2051693" lon="10.3614733"><ele>1235.0</ele><time>2026-04-29T15:40:14.401Z</time></trkpt><trkpt lat="44.2051648" lon="10.3616325"><ele>1235.0</ele><time>2026-04-29T15:40:16.415Z</time></trkpt><trkpt lat="44.2051443" lon="10.3617929"><ele>1235.0</ele><time>2026-04-29T15:40:18.399Z</time></trkpt><trkpt lat="44.2050968" lon="10.3619521"><ele>1234.5</ele><time>2026-04-29T15:40:20.412Z</time></trkpt><trkpt lat="44.2050261" lon="10.3620909"><ele>1234.0</ele><time>2026-04-29T15:40:22.406Z</time></trkpt><trkpt lat="44.2049791" lon="10.362155"><ele>1233.5</ele><time>2026-04-29T15:40:23.416Z</time></trkpt><trkpt lat="44.2049361" lon="10.3622271"><ele>1233.0</ele><time>2026-04-29T15:40:24.42Z</time></trkpt><trkpt lat="44.2048827" lon="10.3622934"><ele>1232.5</ele><time>2026-04-29T15:40:25.415Z</time></trkpt><trkpt lat="44.2048426" lon="10.3623699"><ele>1232.0</ele><time>2026-04-29T15:40:26.4Z</time></trkpt><trkpt lat="44.2048029" lon="10.3624528"><ele>1232.5</ele><time>2026-04-29T15:40:27.408Z</time></trkpt><trkpt lat="44.2047687" lon="10.3625486"><ele>1233.0</ele><time>2026-04-29T15:40:28.415Z</time></trkpt><trkpt lat="44.2047586" lon="10.3626512"><ele>1233.5</ele><time>2026-04-29T15:40:29.411Z</time></trkpt><trkpt lat="44.2047571" lon="10.3627559"><ele>1234.0</ele><time>2026-04-29T15:40:30.42Z</time></trkpt><trkpt lat="44.2047673" lon="10.3628626"><ele>1234.5</ele><time>2026-04-29T15:40:31.416Z</time></trkpt><trkpt lat="44.2047933" lon="10.3629633"><ele>1235.0</ele><time>2026-04-29T15:40:32.421Z</time></trkpt><trkpt lat="44.2048295" lon="10.3630504"><ele>1235.0</ele><time>2026-04-29T15:40:33.419Z</time></trkpt><trkpt lat="44.2048755" lon="10.3631506"><ele>1235.0</ele><time>2026-04-29T15:40:34.41Z</time></trkpt><trkpt lat="44.2049092" lon="10.3632464"><ele>1235.0</ele><time>2026-04-29T15:40:35.419Z</time></trkpt><trkpt lat="44.2049303" lon="10.3633434"><ele>1235.0</ele><time>2026-04-29T15:40:36.411Z</time></trkpt><trkpt lat="44.2049407" lon="10.3634427"><ele>1235.0</ele><time>2026-04-29T15:40:37.409Z</time></trkpt><trkpt lat="44.2049307" lon="10.3635475"><ele>1235.0</ele><time>2026-04-29T15:40:38.402Z</time></trkpt><trkpt lat="44.2049054" lon="10.3636429"><ele>1235.0</ele><time>2026-04-29T15:40:39.405Z</time></trkpt><trkpt lat="44.2048603" lon="10.3637256"><ele>1235.0</ele><time>2026-04-29T15:40:40.403Z</time></trkpt><trkpt lat="44.2048002" lon="10.3638005"><ele>1235.0</ele><time>2026-04-29T15:40:41.416Z</time></trkpt><trkpt lat="44.2047296" lon="10.3638484"><ele>1235.0</ele><time>2026-04-29T15:40:42.411Z</time></trkpt><trkpt lat="44.2046561" lon="10.3639073"><ele>1235.0</ele><time>2026-04-29T15:40:43.415Z</time></trkpt><trkpt lat="44.2045865" lon="10.3639635"><ele>1235.0</ele><time>2026-04-29T15:40:44.42Z</time></trkpt><trkpt lat="44.2045182" lon="10.3640313"><ele>1234.0</ele><time>2026-04-29T15:40:45.413Z</time></trkpt><trkpt lat="44.2044518" lon="10.3641016"><ele>1233.0</ele><time>2026-04-29T15:40:46.411Z</time></trkpt><trkpt lat="44.2043837" lon="10.3641718"><ele>1232.0</ele><time>2026-04-29T15:40:47.418Z</time></trkpt><trkpt lat="44.2043105" lon="10.3642288"><ele>1231.0</ele><time>2026-04-29T15:40:48.418Z</time></trkpt><trkpt lat="44.2042287" lon="10.3642643"><ele>1230.0</ele><time>2026-04-29T15:40:49.419Z</time></trkpt><trkpt lat="44.2041411" lon="10.3642469"><ele>1229.0</ele><time>2026-04-29T15:40:50.413Z</time></trkpt><trkpt lat="44.2040566" lon="10.3642037"><ele>1229.6666666666667</ele><time>2026-04-29T15:40:51.419Z</time></trkpt><trkpt lat="44.2039851" lon="10.3641369"><ele>1230.3333333333335</ele><time>2026-04-29T15:40:52.408Z</time></trkpt><trkpt lat="44.2039309" lon="10.3640311"><ele>1231.0</ele><time>2026-04-29T15:40:53.414Z</time></trkpt><trkpt lat="44.2038806" lon="10.3639296"><ele>1231.6666666666667</ele><time>2026-04-29T15:40:54.411Z</time></trkpt><trkpt lat="44.2038272" lon="10.3638366"><ele>1232.3333333333333</ele><time>2026-04-29T15:40:55.403Z</time></trkpt><trkpt lat="44.2037606" lon="10.3637663"><ele>1233.0</ele><time>2026-04-29T15:40:56.404Z</time></trkpt><trkpt lat="44.2036933" lon="10.3636982"><ele>1229.5</ele><time>2026-04-29T15:40:57.408Z</time></trkpt><trkpt lat="44.2036303" lon="10.3636518"><ele>1226.0</ele><time>2026-04-29T15:40:58.409Z</time></trkpt><trkpt lat="44.2035527" lon="10.3636048"><ele>1222.5</ele><time>2026-04-29T15:40:59.403Z</time></trkpt><trkpt lat="44.203468" lon="10.3635681"><ele>1219.0</ele><time>2026-04-29T15:41:00.409Z</time></trkpt><trkpt lat="44.2033765" lon="10.3635272"><ele>1215.5</ele><time>2026-04-29T15:41:01.399Z</time></trkpt><trkpt lat="44.2032774" lon="10.3634879"><ele>1212.0</ele><time>2026-04-29T15:41:02.415Z</time></trkpt><trkpt lat="44.2031747" lon="10.3634588"><ele>1213.5</ele><time>2026-04-29T15:41:03.401Z</time></trkpt><trkpt lat="44.20308" lon="10.3634137"><ele>1215.0</ele><time>2026-04-29T15:41:04.416Z</time></trkpt><trkpt lat="44.2029688" lon="10.3633391"><ele>1216.5</ele><time>2026-04-29T15:41:05.403Z</time></trkpt><trkpt lat="44.2028589" lon="10.363243"><ele>1218.0</ele><time>2026-04-29T15:41:06.407Z</time></trkpt><trkpt lat="44.202754" lon="10.3631531"><ele>1218.0</ele><time>2026-04-29T15:41:07.408Z</time></trkpt><trkpt lat="44.2026353" lon="10.3630628"><ele>1218.0</ele><time>2026-04-29T15:41:08.417Z</time></trkpt><trkpt lat="44.2025166" lon="10.3630165"><ele>1218.0</ele><time>2026-04-29T15:41:09.424Z</time></trkpt><trkpt lat="44.2024012" lon="10.3629658"><ele>1218.0</ele><time>2026-04-29T15:41:10.408Z</time></trkpt><trkpt lat="44.2022926" lon="10.3629207"><ele>1213.0</ele><time>2026-04-29T15:41:11.415Z</time></trkpt><trkpt lat="44.2021931" lon="10.3628844"><ele>1208.0</ele><time>2026-04-29T15:41:12.411Z</time></trkpt><trkpt lat="44.2020942" lon="10.362877"><ele>1203.0</ele><time>2026-04-29T15:41:13.415Z</time></trkpt><trkpt lat="44.201998" lon="10.3628955"><ele>1198.0</ele><time>2026-04-29T15:41:14.416Z</time></trkpt><trkpt lat="44.2019048" lon="10.3629555"><ele>1193.0</ele><time>2026-04-29T15:41:15.413Z</time></trkpt><trkpt lat="44.2018224" lon="10.3630443"><ele>1193.0</ele><time>2026-04-29T15:41:16.418Z</time></trkpt><trkpt lat="44.2017378" lon="10.3631385"><ele>1193.0</ele><time>2026-04-29T15:41:17.413Z</time></trkpt><trkpt lat="44.2016667" lon="10.3632822"><ele>1193.0</ele><time>2026-04-29T15:41:18.418Z</time></trkpt><trkpt lat="44.2015993" lon="10.3634307"><ele>1193.0</ele><time>2026-04-29T15:41:19.416Z</time></trkpt><trkpt lat="44.2015393" lon="10.3635817"><ele>1186.0</ele><time>2026-04-29T15:41:20.414Z</time></trkpt><trkpt lat="44.2014771" lon="10.3637396"><ele>1179.0</ele><time>2026-04-29T15:41:21.406Z</time></trkpt><trkpt lat="44.201407" lon="10.3639019"><ele>1172.0</ele><time>2026-04-29T15:41:22.414Z</time></trkpt><trkpt lat="44.2013243" lon="10.3640586"><ele>1165.0</ele><time>2026-04-29T15:41:23.407Z</time></trkpt><trkpt lat="44.2012378" lon="10.3641949"><ele>1165.0</ele><time>2026-04-29T15:41:24.413Z</time></trkpt><trkpt lat="44.2011558" lon="10.3643155"><ele>1165.0</ele><time>2026-04-29T15:41:25.412Z</time></trkpt><trkpt lat="44.20108" lon="10.364413"><ele>1165.0</ele><time>2026-04-29T15:41:26.419Z</time></trkpt><trkpt lat="44.2010199" lon="10.3645152"><ele>1165.0</ele><time>2026-04-29T15:41:27.412Z</time></trkpt><trkpt lat="44.200989" lon="10.3646258"><ele>1165.0</ele><time>2026-04-29T15:41:28.412Z</time></trkpt><trkpt lat="44.2009697" lon="10.3647615"><ele>1166.6</ele><time>2026-04-29T15:41:29.403Z</time></trkpt><trkpt lat="44.2009626" lon="10.3648965"><ele>1168.2</ele><time>2026-04-29T15:41:30.407Z</time></trkpt><trkpt lat="44.2009473" lon="10.3650252"><ele>1169.8</ele><time>2026-04-29T15:41:31.403Z</time></trkpt><trkpt lat="44.2009039" lon="10.3651775"><ele>1171.4</ele><time>2026-04-29T15:41:32.404Z</time></trkpt><trkpt lat="44.2008404" lon="10.3653212"><ele>1173.0</ele><time>2026-04-29T15:41:33.414Z</time></trkpt><trkpt lat="44.2007634" lon="10.3654611"><ele>1172.0</ele><time>2026-04-29T15:41:34.414Z</time></trkpt><trkpt lat="44.2006755" lon="10.3655834"><ele>1171.0</ele><time>2026-04-29T15:41:35.416Z</time></trkpt><trkpt lat="44.2005811" lon="10.3656706"><ele>1170.0</ele><time>2026-04-29T15:41:36.415Z</time></trkpt><trkpt lat="44.200494" lon="10.3657422"><ele>1169.0</ele><time>2026-04-29T15:41:37.411Z</time></trkpt><trkpt lat="44.2004085" lon="10.3657684"><ele>1168.0</ele><time>2026-04-29T15:41:38.422Z</time></trkpt><trkpt lat="44.2003232" lon="10.3657821"><ele>1164.0</ele><time>2026-04-29T15:41:39.418Z</time></trkpt><trkpt lat="44.2002232" lon="10.3657647"><ele>1160.0</ele><time>2026-04-29T15:41:40.413Z</time></trkpt><trkpt lat="44.2001236" lon="10.365738"><ele>1156.0</ele><time>2026-04-29T15:41:41.408Z</time></trkpt><trkpt lat="44.2000211" lon="10.3657055"><ele>1152.0</ele><time>2026-04-29T15:41:42.42Z</time></trkpt><trkpt lat="44.199922" lon="10.3656573"><ele>1148.0</ele><time>2026-04-29T15:41:43.408Z</time></trkpt><trkpt lat="44.1998309" lon="10.365595"><ele>1144.1666666666667</ele><time>2026-04-29T15:41:44.412Z</time></trkpt><trkpt lat="44.1997556" lon="10.3655199"><ele>1140.3333333333335</ele><time>2026-04-29T15:41:45.407Z</time></trkpt><trkpt lat="44.1996911" lon="10.365452"><ele>1136.5</ele><time>2026-04-29T15:41:46.415Z</time></trkpt><trkpt lat="44.199626" lon="10.3653939"><ele>1132.6666666666667</ele><time>2026-04-29T15:41:47.413Z</time></trkpt><trkpt lat="44.1995544" lon="10.3653777"><ele>1128.8333333333333</ele><time>2026-04-29T15:41:48.417Z</time></trkpt><trkpt lat="44.1994766" lon="10.3653912"><ele>1125.0</ele><time>2026-04-29T15:41:49.415Z</time></trkpt><trkpt lat="44.199395" lon="10.365432"><ele>1125.0</ele><time>2026-04-29T15:41:50.415Z</time></trkpt><trkpt lat="44.1993133" lon="10.3655008"><ele>1125.0</ele><time>2026-04-29T15:41:51.404Z</time></trkpt><trkpt lat="44.1992326" lon="10.3655744"><ele>1125.0</ele><time>2026-04-29T15:41:52.411Z</time></trkpt><trkpt lat="44.1991589" lon="10.3656572"><ele>1125.0</ele><time>2026-04-29T15:41:53.419Z</time></trkpt><trkpt lat="44.1990746" lon="10.365719"><ele>1125.0</ele><time>2026-04-29T15:41:54.418Z</time></trkpt><trkpt lat="44.1989825" lon="10.3657566"><ele>1125.2</ele><time>2026-04-29T15:41:55.413Z</time></trkpt><trkpt lat="44.1988724" lon="10.365752"><ele>1125.4</ele><time>2026-04-29T15:41:56.407Z</time></trkpt><trkpt lat="44.1987763" lon="10.3657294"><ele>1125.6</ele><time>2026-04-29T15:41:57.418Z</time></trkpt><trkpt lat="44.1986763" lon="10.3657143"><ele>1125.8</ele><time>2026-04-29T15:41:58.414Z</time></trkpt><trkpt lat="44.198563" lon="10.3656792"><ele>1126.0</ele><time>2026-04-29T15:41:59.404Z</time></trkpt><trkpt lat="44.1984485" lon="10.3656359"><ele>1126.0</ele><time>2026-04-29T15:42:00.415Z</time></trkpt><trkpt lat="44.1983384" lon="10.365578"><ele>1126.0</ele><time>2026-04-29T15:42:01.412Z</time></trkpt><trkpt lat="44.1982303" lon="10.3655076"><ele>1126.0</ele><time>2026-04-29T15:42:02.415Z</time></trkpt><trkpt lat="44.1981247" lon="10.3654348"><ele>1126.0</ele><time>2026-04-29T15:42:03.415Z</time></trkpt><trkpt lat="44.1980234" lon="10.3653623"><ele>1124.75</ele><time>2026-04-29T15:42:04.419Z</time></trkpt><trkpt lat="44.1979299" lon="10.3652726"><ele>1123.5</ele><time>2026-04-29T15:42:05.412Z</time></trkpt><trkpt lat="44.197836" lon="10.365186"><ele>1122.25</ele><time>2026-04-29T15:42:06.416Z</time></trkpt><trkpt lat="44.197736" lon="10.3650784"><ele>1121.0</ele><time>2026-04-29T15:42:07.418Z</time></trkpt><trkpt lat="44.197636" lon="10.3649828"><ele>1121.0</ele><time>2026-04-29T15:42:08.418Z</time></trkpt><trkpt lat="44.1975641" lon="10.3648756"><ele>1121.0</ele><time>2026-04-29T15:42:09.41Z</time></trkpt><trkpt lat="44.1974949" lon="10.3647537"><ele>1121.0</ele><time>2026-04-29T15:42:10.414Z</time></trkpt><trkpt lat="44.1974534" lon="10.3646168"><ele>1121.0</ele><time>2026-04-29T15:42:11.401Z</time></trkpt><trkpt lat="44.1974129" lon="10.364488"><ele>1121.0</ele><time>2026-04-29T15:42:12.413Z</time></trkpt><trkpt lat="44.1973708" lon="10.3643694"><ele>1119.8</ele><time>2026-04-29T15:42:13.41Z</time></trkpt><trkpt lat="44.1973201" lon="10.3642699"><ele>1118.6</ele><time>2026-04-29T15:42:14.408Z</time></trkpt><trkpt lat="44.1972517" lon="10.3641882"><ele>1117.4</ele><time>2026-04-29T15:42:15.416Z</time></trkpt><trkpt lat="44.1971623" lon="10.3641168"><ele>1116.2</ele><time>2026-04-29T15:42:16.412Z</time></trkpt><trkpt lat="44.1970647" lon="10.364036"><ele>1115.0</ele><time>2026-04-29T15:42:17.408Z</time></trkpt><trkpt lat="44.1969716" lon="10.3639751"><ele>1115.0</ele><time>2026-04-29T15:42:18.405Z</time></trkpt><trkpt lat="44.1968657" lon="10.3639212"><ele>1115.0</ele><time>2026-04-29T15:42:19.416Z</time></trkpt><trkpt lat="44.1967628" lon="10.3638653"><ele>1115.0</ele><time>2026-04-29T15:42:20.401Z</time></trkpt><trkpt lat="44.1966623" lon="10.3638033"><ele>1115.0</ele><time>2026-04-29T15:42:21.407Z</time></trkpt><trkpt lat="44.1965668" lon="10.3637188"><ele>1115.0</ele><time>2026-04-29T15:42:22.408Z</time></trkpt><trkpt lat="44.1964854" lon="10.3635988"><ele>1111.0</ele><time>2026-04-29T15:42:23.422Z</time></trkpt><trkpt lat="44.1964048" lon="10.3634733"><ele>1107.0</ele><time>2026-04-29T15:42:24.408Z</time></trkpt><trkpt lat="44.1963258" lon="10.3633413"><ele>1103.0</ele><time>2026-04-29T15:42:25.414Z</time></trkpt><trkpt lat="44.196256" lon="10.3632046"><ele>1099.0</ele><time>2026-04-29T15:42:26.406Z</time></trkpt><trkpt lat="44.1961958" lon="10.3630592"><ele>1098.75</ele><time>2026-04-29T15:42:27.41Z</time></trkpt><trkpt lat="44.1961232" lon="10.3629252"><ele>1098.5</ele><time>2026-04-29T15:42:28.408Z</time></trkpt><trkpt lat="44.1960349" lon="10.362807"><ele>1098.25</ele><time>2026-04-29T15:42:29.402Z</time></trkpt><trkpt lat="44.1959353" lon="10.362709"><ele>1098.0</ele><time>2026-04-29T15:42:30.407Z</time></trkpt><trkpt lat="44.1958308" lon="10.3626279"><ele>1098.0</ele><time>2026-04-29T15:42:31.404Z</time></trkpt><trkpt lat="44.1957239" lon="10.36255"><ele>1098.0</ele><time>2026-04-29T15:42:32.403Z</time></trkpt><trkpt lat="44.1956165" lon="10.3624723"><ele>1098.0</ele><time>2026-04-29T15:42:33.414Z</time></trkpt><trkpt lat="44.1955064" lon="10.3623889"><ele>1098.0</ele><time>2026-04-29T15:42:34.417Z</time></trkpt><trkpt lat="44.1953977" lon="10.3623002"><ele>1096.0</ele><time>2026-04-29T15:42:35.426Z</time></trkpt><trkpt lat="44.1952829" lon="10.3621913"><ele>1094.0</ele><time>2026-04-29T15:42:36.404Z</time></trkpt><trkpt lat="44.1951748" lon="10.3620657"><ele>1092.0</ele><time>2026-04-29T15:42:37.404Z</time></trkpt><trkpt lat="44.1950649" lon="10.3619447"><ele>1090.0</ele><time>2026-04-29T15:42:38.403Z</time></trkpt><trkpt lat="44.1949783" lon="10.361835"><ele>1090.0</ele><time>2026-04-29T15:42:39.406Z</time></trkpt><trkpt lat="44.1949019" lon="10.3617354"><ele>1090.0</ele><time>2026-04-29T15:42:40.415Z</time></trkpt><trkpt lat="44.1948378" lon="10.3616401"><ele>1090.0</ele><time>2026-04-29T15:42:41.403Z</time></trkpt><trkpt lat="44.1947752" lon="10.3615457"><ele>1090.0</ele><time>2026-04-29T15:42:42.41Z</time></trkpt><trkpt lat="44.1947411" lon="10.3614523"><ele>1090.0</ele><time>2026-04-29T15:42:43.404Z</time></trkpt><trkpt lat="44.194736" lon="10.3613537"><ele>1090.0</ele><time>2026-04-29T15:42:44.41Z</time></trkpt><trkpt lat="44.1947529" lon="10.3612399"><ele>1086.3333333333333</ele><time>2026-04-29T15:42:45.401Z</time></trkpt><trkpt lat="44.1947834" lon="10.3611373"><ele>1082.6666666666665</ele><time>2026-04-29T15:42:46.42Z</time></trkpt><trkpt lat="44.1948139" lon="10.3610519"><ele>1079.0</ele><time>2026-04-29T15:42:47.442Z</time></trkpt><trkpt lat="44.1948034" lon="10.3609619"><ele>1075.3333333333333</ele><time>2026-04-29T15:42:48.428Z</time></trkpt><trkpt lat="44.1947529" lon="10.3608215"><ele>1071.6666666666667</ele><time>2026-04-29T15:42:50.42Z</time></trkpt><trkpt lat="44.1946754" lon="10.3608288"><ele>1068.0</ele><time>2026-04-29T15:42:51.414Z</time></trkpt><trkpt lat="44.194611" lon="10.3608423"><ele>1068.0</ele><time>2026-04-29T15:42:52.405Z</time></trkpt><trkpt lat="44.1945114" lon="10.3609744"><ele>1068.0</ele><time>2026-04-29T15:42:54.411Z</time></trkpt><trkpt lat="44.1944387" lon="10.3610662"><ele>1068.0</ele><time>2026-04-29T15:42:55.412Z</time></trkpt><trkpt lat="44.1943625" lon="10.3611207"><ele>1068.0</ele><time>2026-04-29T15:42:56.408Z</time></trkpt><trkpt lat="44.1942838" lon="10.3612012"><ele>1068.0</ele><time>2026-04-29T15:42:57.418Z</time></trkpt><trkpt lat="44.1942049" lon="10.3612725"><ele>1068.0</ele><time>2026-04-29T15:42:58.426Z</time></trkpt><trkpt lat="44.1941643" lon="10.3613568"><ele>1068.0</ele><time>2026-04-29T15:42:59.407Z</time></trkpt><trkpt lat="44.1941453" lon="10.361462"><ele>1068.0</ele><time>2026-04-29T15:43:00.407Z</time></trkpt><trkpt lat="44.1941654" lon="10.3615698"><ele>1068.0</ele><time>2026-04-29T15:43:01.409Z</time></trkpt><trkpt lat="44.1941834" lon="10.3616718"><ele>1068.0</ele><time>2026-04-29T15:43:02.425Z</time></trkpt><trkpt lat="44.1942284" lon="10.3617714"><ele>1068.0</ele><time>2026-04-29T15:43:03.428Z</time></trkpt><trkpt lat="44.194269" lon="10.3618497"><ele>1067.5</ele><time>2026-04-29T15:43:04.418Z</time></trkpt><trkpt lat="44.1943154" lon="10.3619533"><ele>1067.0</ele><time>2026-04-29T15:43:05.41Z</time></trkpt><trkpt lat="44.1943475" lon="10.3620743"><ele>1066.5</ele><time>2026-04-29T15:43:06.428Z</time></trkpt><trkpt lat="44.1943444" lon="10.362199"><ele>1066.0</ele><time>2026-04-29T15:43:07.406Z</time></trkpt><trkpt lat="44.194341" lon="10.362326"><ele>1065.5</ele><time>2026-04-29T15:43:08.41Z</time></trkpt><trkpt lat="44.1943341" lon="10.3624446"><ele>1065.0</ele><time>2026-04-29T15:43:09.421Z</time></trkpt><trkpt lat="44.1943099" lon="10.3625325"><ele>1065.0</ele><time>2026-04-29T15:43:10.406Z</time></trkpt><trkpt lat="44.1942819" lon="10.3626225"><ele>1065.0</ele><time>2026-04-29T15:43:11.421Z</time></trkpt><trkpt lat="44.1941848" lon="10.3627315"><ele>1065.0</ele><time>2026-04-29T15:43:13.422Z</time></trkpt><trkpt lat="44.1941079" lon="10.3627281"><ele>1065.0</ele><time>2026-04-29T15:43:14.408Z</time></trkpt><trkpt lat="44.1940368" lon="10.3627389"><ele>1065.0</ele><time>2026-04-29T15:43:15.406Z</time></trkpt><trkpt lat="44.1939625" lon="10.3627497"><ele>1065.0</ele><time>2026-04-29T15:43:16.403Z</time></trkpt><trkpt lat="44.1938899" lon="10.3628106"><ele>1059.8</ele><time>2026-04-29T15:43:17.411Z</time></trkpt><trkpt lat="44.1938173" lon="10.3628797"><ele>1054.6</ele><time>2026-04-29T15:43:18.407Z</time></trkpt><trkpt lat="44.1937342" lon="10.3629516"><ele>1049.4</ele><time>2026-04-29T15:43:19.423Z</time></trkpt><trkpt lat="44.1936484" lon="10.3630121"><ele>1044.2</ele><time>2026-04-29T15:43:20.416Z</time></trkpt><trkpt lat="44.1935624" lon="10.3630606"><ele>1039.0</ele><time>2026-04-29T15:43:21.409Z</time></trkpt><trkpt lat="44.1934944" lon="10.3631147"><ele>1039.0</ele><time>2026-04-29T15:43:22.411Z</time></trkpt><trkpt lat="44.1934397" lon="10.3631778"><ele>1039.0</ele><time>2026-04-29T15:43:23.42Z</time></trkpt><trkpt lat="44.1934185" lon="10.3633466"><ele>1039.0</ele><time>2026-04-29T15:43:25.412Z</time></trkpt><trkpt lat="44.1934473" lon="10.3634534"><ele>1039.0</ele><time>2026-04-29T15:43:26.4Z</time></trkpt><trkpt lat="44.1934797" lon="10.3635471"><ele>1039.0</ele><time>2026-04-29T15:43:27.418Z</time></trkpt><trkpt lat="44.1935155" lon="10.3636485"><ele>1039.0</ele><time>2026-04-29T15:43:28.415Z</time></trkpt><trkpt lat="44.1935505" lon="10.3637508"><ele>1038.6000000000001</ele><time>2026-04-29T15:43:29.409Z</time></trkpt><trkpt lat="44.1935795" lon="10.3638732"><ele>1038.2</ele><time>2026-04-29T15:43:30.401Z</time></trkpt><trkpt lat="44.1936039" lon="10.3640008"><ele>1037.8000000000002</ele><time>2026-04-29T15:43:31.4Z</time></trkpt><trkpt lat="44.1936186" lon="10.3641382"><ele>1037.4</ele><time>2026-04-29T15:43:32.407Z</time></trkpt><trkpt lat="44.1936252" lon="10.3642829"><ele>1037.0</ele><time>2026-04-29T15:43:33.412Z</time></trkpt><trkpt lat="44.1936329" lon="10.3644278"><ele>1037.0</ele><time>2026-04-29T15:43:34.4Z</time></trkpt><trkpt lat="44.193639" lon="10.3645728"><ele>1037.0</ele><time>2026-04-29T15:43:35.423Z</time></trkpt><trkpt lat="44.1936425" lon="10.3647257"><ele>1037.0</ele><time>2026-04-29T15:43:36.405Z</time></trkpt><trkpt lat="44.1936538" lon="10.3648565"><ele>1037.0</ele><time>2026-04-29T15:43:37.423Z</time></trkpt><trkpt lat="44.193677" lon="10.3649722"><ele>1037.0</ele><time>2026-04-29T15:43:38.405Z</time></trkpt><trkpt lat="44.1937053" lon="10.365078"><ele>1035.6666666666667</ele><time>2026-04-29T15:43:39.419Z</time></trkpt><trkpt lat="44.1937438" lon="10.3651781"><ele>1034.3333333333335</ele><time>2026-04-29T15:43:40.408Z</time></trkpt><trkpt lat="44.1937915" lon="10.3652736"><ele>1033.0</ele><time>2026-04-29T15:43:41.399Z</time></trkpt><trkpt lat="44.1938377" lon="10.3653692"><ele>1031.6666666666667</ele><time>2026-04-29T15:43:42.403Z</time></trkpt><trkpt lat="44.1938742" lon="10.365476"><ele>1030.3333333333333</ele><time>2026-04-29T15:43:43.424Z</time></trkpt><trkpt lat="44.1939024" lon="10.3655819"><ele>1029.0</ele><time>2026-04-29T15:43:44.4Z</time></trkpt><trkpt lat="44.1939217" lon="10.3656813"><ele>1028.6666666666667</ele><time>2026-04-29T15:43:45.412Z</time></trkpt><trkpt lat="44.1939365" lon="10.3657991"><ele>1028.3333333333333</ele><time>2026-04-29T15:43:46.401Z</time></trkpt><trkpt lat="44.1939541" lon="10.365923"><ele>1028.0</ele><time>2026-04-29T15:43:47.404Z</time></trkpt><trkpt lat="44.1939813" lon="10.3660384"><ele>1027.6666666666665</ele><time>2026-04-29T15:43:48.406Z</time></trkpt><trkpt lat="44.1940072" lon="10.3661489"><ele>1027.3333333333333</ele><time>2026-04-29T15:43:49.412Z</time></trkpt><trkpt lat="44.1940345" lon="10.3662586"><ele>1027.0</ele><time>2026-04-29T15:43:50.401Z</time></trkpt><trkpt lat="44.1940537" lon="10.3663694"><ele>1028.8333333333333</ele><time>2026-04-29T15:43:51.412Z</time></trkpt><trkpt lat="44.194078" lon="10.3664814"><ele>1030.6666666666665</ele><time>2026-04-29T15:43:52.4Z</time></trkpt><trkpt lat="44.1941074" lon="10.3665828"><ele>1032.5</ele><time>2026-04-29T15:43:53.4Z</time></trkpt><trkpt lat="44.1941411" lon="10.3666878"><ele>1034.3333333333333</ele><time>2026-04-29T15:43:54.423Z</time></trkpt><trkpt lat="44.1941788" lon="10.3667962"><ele>1036.1666666666667</ele><time>2026-04-29T15:43:55.407Z</time></trkpt><trkpt lat="44.1942214" lon="10.3669013"><ele>1038.0</ele><time>2026-04-29T15:43:56.402Z</time></trkpt><trkpt lat="44.1942651" lon="10.3670112"><ele>1038.0</ele><time>2026-04-29T15:43:57.417Z</time></trkpt><trkpt lat="44.1943077" lon="10.3671172"><ele>1038.0</ele><time>2026-04-29T15:43:58.406Z</time></trkpt><trkpt lat="44.1943484" lon="10.3672225"><ele>1038.0</ele><time>2026-04-29T15:43:59.423Z</time></trkpt><trkpt lat="44.1943943" lon="10.3673257"><ele>1038.0</ele><time>2026-04-29T15:44:00.4Z</time></trkpt><trkpt lat="44.1944324" lon="10.3674283"><ele>1038.0</ele><time>2026-04-29T15:44:01.403Z</time></trkpt><trkpt lat="44.1944713" lon="10.3675332"><ele>1038.0</ele><time>2026-04-29T15:44:02.412Z</time></trkpt><trkpt lat="44.1945139" lon="10.3676297"><ele>1036.3333333333333</ele><time>2026-04-29T15:44:03.403Z</time></trkpt><trkpt lat="44.1945529" lon="10.3677265"><ele>1034.6666666666667</ele><time>2026-04-29T15:44:04.402Z</time></trkpt><trkpt lat="44.194595" lon="10.3678244"><ele>1033.0</ele><time>2026-04-29T15:44:05.419Z</time></trkpt><trkpt lat="44.1946387" lon="10.3679184"><ele>1031.3333333333335</ele><time>2026-04-29T15:44:06.412Z</time></trkpt><trkpt lat="44.1946675" lon="10.3680229"><ele>1029.6666666666667</ele><time>2026-04-29T15:44:07.417Z</time></trkpt><trkpt lat="44.1946729" lon="10.3681398"><ele>1028.0</ele><time>2026-04-29T15:44:08.422Z</time></trkpt><trkpt lat="44.1946671" lon="10.3682548"><ele>1026.8333333333335</ele><time>2026-04-29T15:44:09.406Z</time></trkpt><trkpt lat="44.1946419" lon="10.3683647"><ele>1025.6666666666667</ele><time>2026-04-29T15:44:10.408Z</time></trkpt><trkpt lat="44.1946153" lon="10.3684661"><ele>1024.5</ele><time>2026-04-29T15:44:11.413Z</time></trkpt><trkpt lat="44.1945827" lon="10.3685642"><ele>1023.3333333333333</ele><time>2026-04-29T15:44:12.406Z</time></trkpt><trkpt lat="44.1945514" lon="10.36866"><ele>1022.1666666666666</ele><time>2026-04-29T15:44:13.44Z</time></trkpt><trkpt lat="44.1945184" lon="10.3687535"><ele>1021.0</ele><time>2026-04-29T15:44:14.413Z</time></trkpt><trkpt lat="44.1944905" lon="10.3688399"><ele>1021.1999999999999</ele><time>2026-04-29T15:44:15.423Z</time></trkpt><trkpt lat="44.1944726" lon="10.3689261"><ele>1021.3999999999999</ele><time>2026-04-29T15:44:16.409Z</time></trkpt><trkpt lat="44.1944483" lon="10.3691"><ele>1021.6</ele><time>2026-04-29T15:44:18.409Z</time></trkpt><trkpt lat="44.1944397" lon="10.3691901"><ele>1021.8</ele><time>2026-04-29T15:44:19.431Z</time></trkpt><trkpt lat="44.1944158" lon="10.3693571"><ele>1022.0</ele><time>2026-04-29T15:44:21.415Z</time></trkpt><trkpt lat="44.194407" lon="10.3695132"><ele>1022.0</ele><time>2026-04-29T15:44:23.413Z</time></trkpt><trkpt lat="44.1943941" lon="10.3696683"><ele>1022.0</ele><time>2026-04-29T15:44:25.419Z</time></trkpt><trkpt lat="44.1943927" lon="10.3698124"><ele>1022.0</ele><time>2026-04-29T15:44:27.406Z</time></trkpt><trkpt lat="44.1944066" lon="10.3699515"><ele>1022.0</ele><time>2026-04-29T15:44:29.418Z</time></trkpt><trkpt lat="44.1944418" lon="10.3701032"><ele>1022.0</ele><time>2026-04-29T15:44:31.412Z</time></trkpt><trkpt lat="44.1944729" lon="10.3702509"><ele>1021.6</ele><time>2026-04-29T15:44:33.418Z</time></trkpt><trkpt lat="44.1945158" lon="10.3703968"><ele>1021.2</ele><time>2026-04-29T15:44:35.416Z</time></trkpt><trkpt lat="44.1945586" lon="10.3705464"><ele>1020.8</ele><time>2026-04-29T15:44:37.414Z</time></trkpt><trkpt lat="44.1946022" lon="10.3706788"><ele>1020.4</ele><time>2026-04-29T15:44:39.423Z</time></trkpt><trkpt lat="44.1946296" lon="10.3707984"><ele>1020.0</ele><time>2026-04-29T15:44:41.406Z</time></trkpt><trkpt lat="44.1946627" lon="10.3709029"><ele>1020.3333333333334</ele><time>2026-04-29T15:44:43.406Z</time></trkpt><trkpt lat="44.1947111" lon="10.3709896"><ele>1020.6666666666667</ele><time>2026-04-29T15:44:45.425Z</time></trkpt><trkpt lat="44.1947398" lon="10.371087"><ele>1021.0</ele><time>2026-04-29T15:44:47.419Z</time></trkpt><trkpt lat="44.1947727" lon="10.3711738"><ele>1021.3333333333334</ele><time>2026-04-29T15:44:49.412Z</time></trkpt><trkpt lat="44.1948156" lon="10.3712791"><ele>1021.6666666666667</ele><time>2026-04-29T15:44:52.418Z</time></trkpt><trkpt lat="44.1948518" lon="10.3713558"><ele>1022.0</ele><time>2026-04-29T15:44:55.414Z</time></trkpt><trkpt lat="44.1949051" lon="10.3714505"><ele>1022.0000000000001</ele><time>2026-04-29T15:44:59.417Z</time></trkpt><trkpt lat="44.1949631" lon="10.3715253"><ele>1022.0</ele><time>2026-04-29T15:45:02.409Z</time></trkpt><trkpt lat="44.1950244" lon="10.3715743"><ele>1022.0</ele><time>2026-04-29T15:45:05.401Z</time></trkpt><trkpt lat="44.1951127" lon="10.3715233"><ele>1022.0</ele><time>2026-04-29T15:45:08.415Z</time></trkpt><trkpt lat="44.1951903" lon="10.3714811"><ele>1022.0000000000001</ele><time>2026-04-29T15:45:10.403Z</time></trkpt><trkpt lat="44.1952812" lon="10.3714232"><ele>1022.0</ele><time>2026-04-29T15:45:12.412Z</time></trkpt><trkpt lat="44.1953915" lon="10.3714288"><ele>1022.0000000000001</ele><time>2026-04-29T15:45:14.409Z</time></trkpt><trkpt lat="44.1955188" lon="10.3714329"><ele>1022.0</ele><time>2026-04-29T15:45:16.41Z</time></trkpt><trkpt lat="44.1955856" lon="10.3714379"><ele>1022.0</ele><time>2026-04-29T15:45:17.402Z</time></trkpt><trkpt lat="44.1956539" lon="10.3714346"><ele>1022.0</ele><time>2026-04-29T15:45:18.416Z</time></trkpt><trkpt lat="44.1957262" lon="10.3714454"><ele>1022.0000000000001</ele><time>2026-04-29T15:45:19.401Z</time></trkpt><trkpt lat="44.1957957" lon="10.371485"><ele>1022.0</ele><time>2026-04-29T15:45:20.414Z</time></trkpt><trkpt lat="44.1958584" lon="10.3715507"><ele>1023.0</ele><time>2026-04-29T15:45:21.407Z</time></trkpt><trkpt lat="44.1959098" lon="10.3716345"><ele>1024.0</ele><time>2026-04-29T15:45:22.416Z</time></trkpt><trkpt lat="44.1959378" lon="10.3717354"><ele>1025.0</ele><time>2026-04-29T15:45:23.422Z</time></trkpt><trkpt lat="44.1959418" lon="10.3718329"><ele>1026.0</ele><time>2026-04-29T15:45:24.41Z</time></trkpt><trkpt lat="44.195934" lon="10.3719238"><ele>1027.0</ele><time>2026-04-29T15:45:25.41Z</time></trkpt><trkpt lat="44.1959058" lon="10.3720089"><ele>1028.0</ele><time>2026-04-29T15:45:26.415Z</time></trkpt><trkpt lat="44.1958536" lon="10.3720759"><ele>1029.0</ele><time>2026-04-29T15:45:27.417Z</time></trkpt><trkpt lat="44.1957981" lon="10.3721444"><ele>1028.1666666666667</ele><time>2026-04-29T15:45:28.415Z</time></trkpt><trkpt lat="44.195741" lon="10.3722185"><ele>1027.3333333333333</ele><time>2026-04-29T15:45:29.415Z</time></trkpt><trkpt lat="44.1956901" lon="10.3722862"><ele>1026.5</ele><time>2026-04-29T15:45:30.411Z</time></trkpt><trkpt lat="44.195647" lon="10.3723651"><ele>1025.6666666666665</ele><time>2026-04-29T15:45:31.418Z</time></trkpt><trkpt lat="44.195607" lon="10.3724906"><ele>1024.8333333333333</ele><time>2026-04-29T15:45:32.416Z</time></trkpt><trkpt lat="44.1955772" lon="10.3726277"><ele>1024.0</ele><time>2026-04-29T15:45:33.414Z</time></trkpt><trkpt lat="44.1955742" lon="10.3727706"><ele>1021.4000000000001</ele><time>2026-04-29T15:45:34.41Z</time></trkpt><trkpt lat="44.1955975" lon="10.372917"><ele>1018.8000000000001</ele><time>2026-04-29T15:45:35.408Z</time></trkpt><trkpt lat="44.1956278" lon="10.37306"><ele>1016.1999999999999</ele><time>2026-04-29T15:45:36.414Z</time></trkpt><trkpt lat="44.1956388" lon="10.3732215"><ele>1013.5999999999999</ele><time>2026-04-29T15:45:37.425Z</time></trkpt><trkpt lat="44.1956296" lon="10.3733827"><ele>1011.0</ele><time>2026-04-29T15:45:38.407Z</time></trkpt><trkpt lat="44.1956012" lon="10.3735345"><ele>1009.0</ele><time>2026-04-29T15:45:39.42Z</time></trkpt><trkpt lat="44.1955518" lon="10.3736874"><ele>1007.0</ele><time>2026-04-29T15:45:40.419Z</time></trkpt><trkpt lat="44.1954994" lon="10.3738292"><ele>1005.0</ele><time>2026-04-29T15:45:41.413Z</time></trkpt><trkpt lat="44.1954431" lon="10.3739744"><ele>1003.0</ele><time>2026-04-29T15:45:42.418Z</time></trkpt><trkpt lat="44.1953813" lon="10.3741184"><ele>1001.25</ele><time>2026-04-29T15:45:43.422Z</time></trkpt><trkpt lat="44.1953143" lon="10.3742576"><ele>999.5</ele><time>2026-04-29T15:45:44.408Z</time></trkpt><trkpt lat="44.1952461" lon="10.3743975"><ele>997.75</ele><time>2026-04-29T15:45:45.417Z</time></trkpt><trkpt lat="44.1951618" lon="10.3745212"><ele>996.0</ele><time>2026-04-29T15:45:46.404Z</time></trkpt><trkpt lat="44.1950707" lon="10.3746276"><ele>994.75</ele><time>2026-04-29T15:45:47.408Z</time></trkpt><trkpt lat="44.1949747" lon="10.3747389"><ele>993.5</ele><time>2026-04-29T15:45:48.416Z</time></trkpt><trkpt lat="44.1948831" lon="10.3748563"><ele>992.25</ele><time>2026-04-29T15:45:49.404Z</time></trkpt><trkpt lat="44.1947824" lon="10.3749659"><ele>991.0</ele><time>2026-04-29T15:45:50.41Z</time></trkpt><trkpt lat="44.1946491" lon="10.3750288"><ele>991.0</ele><time>2026-04-29T15:45:51.413Z</time></trkpt><trkpt lat="44.1945209" lon="10.3750789"><ele>991.0</ele><time>2026-04-29T15:45:52.418Z</time></trkpt><trkpt lat="44.1943808" lon="10.3751103"><ele>991.0</ele><time>2026-04-29T15:45:53.414Z</time></trkpt><trkpt lat="44.1942489" lon="10.3751227"><ele>991.0</ele><time>2026-04-29T15:45:54.407Z</time></trkpt><trkpt lat="44.1941109" lon="10.3751968"><ele>988.25</ele><time>2026-04-29T15:45:55.416Z</time></trkpt><trkpt lat="44.1939903" lon="10.3752684"><ele>985.5</ele><time>2026-04-29T15:45:56.408Z</time></trkpt><trkpt lat="44.1938779" lon="10.3753394"><ele>982.75</ele><time>2026-04-29T15:45:57.42Z</time></trkpt><trkpt lat="44.1937628" lon="10.3753741"><ele>980.0</ele><time>2026-04-29T15:45:58.416Z</time></trkpt><trkpt lat="44.1936416" lon="10.3753734"><ele>980.0</ele><time>2026-04-29T15:45:59.414Z</time></trkpt><trkpt lat="44.1935348" lon="10.3753697"><ele>980.0</ele><time>2026-04-29T15:46:00.413Z</time></trkpt><trkpt lat="44.1934234" lon="10.3753267"><ele>980.0</ele><time>2026-04-29T15:46:01.419Z</time></trkpt><trkpt lat="44.1933052" lon="10.375309"><ele>980.0</ele><time>2026-04-29T15:46:02.414Z</time></trkpt><trkpt lat="44.1931793" lon="10.3753011"><ele>977.5</ele><time>2026-04-29T15:46:03.409Z</time></trkpt><trkpt lat="44.1930566" lon="10.3753151"><ele>975.0</ele><time>2026-04-29T15:46:04.411Z</time></trkpt><trkpt lat="44.1929302" lon="10.3753186"><ele>972.5</ele><time>2026-04-29T15:46:05.405Z</time></trkpt><trkpt lat="44.1927974" lon="10.3753264"><ele>970.0</ele><time>2026-04-29T15:46:06.406Z</time></trkpt><trkpt lat="44.1926629" lon="10.3753391"><ele>970.0</ele><time>2026-04-29T15:46:07.401Z</time></trkpt><trkpt lat="44.1925254" lon="10.3753651"><ele>970.0</ele><time>2026-04-29T15:46:08.407Z</time></trkpt><trkpt lat="44.1923885" lon="10.3754012"><ele>970.0</ele><time>2026-04-29T15:46:09.402Z</time></trkpt><trkpt lat="44.1922528" lon="10.3754492"><ele>970.0</ele><time>2026-04-29T15:46:10.411Z</time></trkpt><trkpt lat="44.1921124" lon="10.3754949"><ele>971.25</ele><time>2026-04-29T15:46:11.399Z</time></trkpt><trkpt lat="44.1919717" lon="10.3755493"><ele>972.5</ele><time>2026-04-29T15:46:12.407Z</time></trkpt><trkpt lat="44.1918284" lon="10.3755983"><ele>973.75</ele><time>2026-04-29T15:46:13.418Z</time></trkpt><trkpt lat="44.1916829" lon="10.3756437"><ele>975.0</ele><time>2026-04-29T15:46:14.404Z</time></trkpt><trkpt lat="44.191538" lon="10.3756932"><ele>971.75</ele><time>2026-04-29T15:46:15.409Z</time></trkpt><trkpt lat="44.1913945" lon="10.3757388"><ele>968.5</ele><time>2026-04-29T15:46:16.411Z</time></trkpt><trkpt lat="44.1912608" lon="10.3757702"><ele>965.25</ele><time>2026-04-29T15:46:17.412Z</time></trkpt><trkpt lat="44.1911345" lon="10.3757811"><ele>962.0</ele><time>2026-04-29T15:46:18.404Z</time></trkpt><trkpt lat="44.1910162" lon="10.3757653"><ele>962.0</ele><time>2026-04-29T15:46:19.41Z</time></trkpt><trkpt lat="44.1909095" lon="10.3757347"><ele>962.0</ele><time>2026-04-29T15:46:20.406Z</time></trkpt><trkpt lat="44.1908184" lon="10.3757131"><ele>962.0</ele><time>2026-04-29T15:46:21.416Z</time></trkpt><trkpt lat="44.190728" lon="10.3757192"><ele>962.0</ele><time>2026-04-29T15:46:22.415Z</time></trkpt><trkpt lat="44.1906425" lon="10.3757528"><ele>962.0</ele><time>2026-04-29T15:46:23.413Z</time></trkpt><trkpt lat="44.1905613" lon="10.3757948"><ele>961.6</ele><time>2026-04-29T15:46:24.411Z</time></trkpt><trkpt lat="44.1904838" lon="10.3758238"><ele>961.2</ele><time>2026-04-29T15:46:25.414Z</time></trkpt><trkpt lat="44.190411" lon="10.3758204"><ele>960.8</ele><time>2026-04-29T15:46:26.411Z</time></trkpt><trkpt lat="44.1902973" lon="10.3757134"><ele>960.4</ele><time>2026-04-29T15:46:28.415Z</time></trkpt><trkpt lat="44.1902521" lon="10.3756221"><ele>960.0</ele><time>2026-04-29T15:46:29.415Z</time></trkpt><trkpt lat="44.1902015" lon="10.3755347"><ele>955.4</ele><time>2026-04-29T15:46:30.409Z</time></trkpt><trkpt lat="44.190138" lon="10.3754464"><ele>950.8</ele><time>2026-04-29T15:46:31.402Z</time></trkpt><trkpt lat="44.1900611" lon="10.3753789"><ele>946.2</ele><time>2026-04-29T15:46:32.411Z</time></trkpt><trkpt lat="44.1899733" lon="10.3753218"><ele>941.6</ele><time>2026-04-29T15:46:33.414Z</time></trkpt><trkpt lat="44.1898764" lon="10.3752731"><ele>937.0</ele><time>2026-04-29T15:46:34.408Z</time></trkpt><trkpt lat="44.1897836" lon="10.3752476"><ele>937.6</ele><time>2026-04-29T15:46:35.408Z</time></trkpt><trkpt lat="44.1896821" lon="10.3752599"><ele>938.2</ele><time>2026-04-29T15:46:36.412Z</time></trkpt><trkpt lat="44.1895814" lon="10.3753067"><ele>938.8</ele><time>2026-04-29T15:46:37.4Z</time></trkpt><trkpt lat="44.1894824" lon="10.3753887"><ele>939.4</ele><time>2026-04-29T15:46:38.404Z</time></trkpt><trkpt lat="44.1893974" lon="10.375508"><ele>940.0</ele><time>2026-04-29T15:46:39.414Z</time></trkpt><trkpt lat="44.1893277" lon="10.3756486"><ele>940.0</ele><time>2026-04-29T15:46:40.396Z</time></trkpt><trkpt lat="44.1892695" lon="10.3757988"><ele>940.0</ele><time>2026-04-29T15:46:41.404Z</time></trkpt><trkpt lat="44.1892083" lon="10.3759601"><ele>940.0</ele><time>2026-04-29T15:46:42.415Z</time></trkpt><trkpt lat="44.1891414" lon="10.3761095"><ele>940.0</ele><time>2026-04-29T15:46:43.41Z</time></trkpt><trkpt lat="44.18908" lon="10.3762551"><ele>941.6666666666666</ele><time>2026-04-29T15:46:44.411Z</time></trkpt><trkpt lat="44.1890297" lon="10.3763804"><ele>943.3333333333333</ele><time>2026-04-29T15:46:45.416Z</time></trkpt><trkpt lat="44.1889808" lon="10.3764948"><ele>945.0</ele><time>2026-04-29T15:46:46.41Z</time></trkpt><trkpt lat="44.1889307" lon="10.376581"><ele>946.6666666666667</ele><time>2026-04-29T15:46:47.41Z</time></trkpt><trkpt lat="44.1888689" lon="10.376634"><ele>948.3333333333334</ele><time>2026-04-29T15:46:48.417Z</time></trkpt><trkpt lat="44.1887938" lon="10.3766394"><ele>950.0</ele><time>2026-04-29T15:46:49.412Z</time></trkpt><trkpt lat="44.1887247" lon="10.376611"><ele>950.0</ele><time>2026-04-29T15:46:50.407Z</time></trkpt><trkpt lat="44.1886635" lon="10.3765521"><ele>950.0</ele><time>2026-04-29T15:46:51.419Z</time></trkpt><trkpt lat="44.1885471" lon="10.3764987"><ele>950.0</ele><time>2026-04-29T15:46:53.407Z</time></trkpt><trkpt lat="44.1884324" lon="10.3764713"><ele>950.0</ele><time>2026-04-29T15:46:55.401Z</time></trkpt><trkpt lat="44.1883648" lon="10.3764567"><ele>950.0</ele><time>2026-04-29T15:47:00.418Z</time></trkpt><trkpt lat="44.1882939" lon="10.3764193"><ele>950.0</ele><time>2026-04-29T15:47:04.407Z</time></trkpt><trkpt lat="44.1882483" lon="10.3763558"><ele>950.0000000000001</ele><time>2026-04-29T15:47:07.398Z</time></trkpt><trkpt lat="44.1882037" lon="10.3762681"><ele>950.0</ele><time>2026-04-29T15:47:11.409Z</time></trkpt><trkpt lat="44.1881542" lon="10.3761989"><ele>950.0</ele><time>2026-04-29T15:47:14.406Z</time></trkpt><trkpt lat="44.1880945" lon="10.3761443"><ele>950.0000000000001</ele><time>2026-04-29T15:47:17.406Z</time></trkpt><trkpt lat="44.1880302" lon="10.3761312"><ele>950.0</ele><time>2026-04-29T15:47:20.418Z</time></trkpt><trkpt lat="44.1879566" lon="10.376172"><ele>950.0</ele><time>2026-04-29T15:47:24.418Z</time></trkpt><trkpt lat="44.1878995" lon="10.3762148"><ele>947.6666666666667</ele><time>2026-04-29T15:47:27.419Z</time></trkpt><trkpt lat="44.1878395" lon="10.3762627"><ele>945.3333333333334</ele><time>2026-04-29T15:47:31.4Z</time></trkpt><trkpt lat="44.1877911" lon="10.3763399"><ele>943.0</ele><time>2026-04-29T15:47:36.404Z</time></trkpt><trkpt lat="44.1877515" lon="10.3764516"><ele>940.6666666666667</ele><time>2026-04-29T15:47:40.409Z</time></trkpt><trkpt lat="44.1877396" lon="10.3765434"><ele>938.3333333333334</ele><time>2026-04-29T15:47:41.412Z</time></trkpt><trkpt lat="44.1877361" lon="10.3767045"><ele>936.0</ele><time>2026-04-29T15:47:43.416Z</time></trkpt><trkpt lat="44.1877452" lon="10.3767941"><ele>936.0</ele><time>2026-04-29T15:47:44.414Z</time></trkpt><trkpt lat="44.1877821" lon="10.376926"><ele>935.9999999999999</ele><time>2026-04-29T15:47:46.415Z</time></trkpt><trkpt lat="44.1878149" lon="10.3770756"><ele>935.9999999999999</ele><time>2026-04-29T15:47:48.428Z</time></trkpt><trkpt lat="44.1878479" lon="10.3772131"><ele>936.0</ele><time>2026-04-29T15:47:50.415Z</time></trkpt><trkpt lat="44.1878705" lon="10.3773226"><ele>936.0</ele><time>2026-04-29T15:47:52.41Z</time></trkpt><trkpt lat="44.1878259" lon="10.3774273"><ele>936.8</ele><time>2026-04-29T15:47:54.406Z</time></trkpt><trkpt lat="44.1877359" lon="10.377463"><ele>937.5999999999999</ele><time>2026-04-29T15:47:56.408Z</time></trkpt><trkpt lat="44.1876343" lon="10.3775111"><ele>938.4</ele><time>2026-04-29T15:47:58.414Z</time></trkpt><trkpt lat="44.1875203" lon="10.3775779"><ele>939.2</ele><time>2026-04-29T15:48:00.407Z</time></trkpt><trkpt lat="44.1874574" lon="10.3776155"><ele>940.0</ele><time>2026-04-29T15:48:01.419Z</time></trkpt><trkpt lat="44.1873887" lon="10.377639"><ele>935.6</ele><time>2026-04-29T15:48:02.408Z</time></trkpt><trkpt lat="44.1872746" lon="10.3776993"><ele>931.2</ele><time>2026-04-29T15:48:04.426Z</time></trkpt><trkpt lat="44.1872125" lon="10.3777142"><ele>926.8</ele><time>2026-04-29T15:48:05.416Z</time></trkpt><trkpt lat="44.1870985" lon="10.377762"><ele>922.4</ele><time>2026-04-29T15:48:07.419Z</time></trkpt><trkpt lat="44.1869684" lon="10.3778221"><ele>918.0</ele><time>2026-04-29T15:48:09.401Z</time></trkpt><trkpt lat="44.1868941" lon="10.3778968"><ele>918.0</ele><time>2026-04-29T15:48:11.414Z</time></trkpt><trkpt lat="44.1868186" lon="10.3779861"><ele>918.0</ele><time>2026-04-29T15:48:13.414Z</time></trkpt><trkpt lat="44.1867449" lon="10.3780514"><ele>918.0</ele><time>2026-04-29T15:48:16.41Z</time></trkpt><trkpt lat="44.1866878" lon="10.3781431"><ele>918.0</ele><time>2026-04-29T15:48:19.411Z</time></trkpt><trkpt lat="44.1867394" lon="10.3782609"><ele>918.0</ele><time>2026-04-29T15:48:22.404Z</time></trkpt><trkpt lat="44.1867849" lon="10.3783287"><ele>918.0</ele><time>2026-04-29T15:48:23.407Z</time></trkpt><trkpt lat="44.1868301" lon="10.3784071"><ele>920.2</ele><time>2026-04-29T15:48:25.405Z</time></trkpt><trkpt lat="44.1868502" lon="10.378517"><ele>922.4</ele><time>2026-04-29T15:48:27.417Z</time></trkpt><trkpt lat="44.1868339" lon="10.3786215"><ele>924.6000000000001</ele><time>2026-04-29T15:48:29.416Z</time></trkpt><trkpt lat="44.1867804" lon="10.3787227"><ele>926.8000000000001</ele><time>2026-04-29T15:48:31.41Z</time></trkpt><trkpt lat="44.1866688" lon="10.3787812"><ele>929.0</ele><time>2026-04-29T15:48:33.413Z</time></trkpt><trkpt lat="44.1865593" lon="10.3788318"><ele>924.3333333333334</ele><time>2026-04-29T15:48:35.423Z</time></trkpt><trkpt lat="44.1865002" lon="10.3788691"><ele>919.6666666666667</ele><time>2026-04-29T15:48:36.423Z</time></trkpt><trkpt lat="44.1864378" lon="10.3789159"><ele>915.0</ele><time>2026-04-29T15:48:38.42Z</time></trkpt><trkpt lat="44.1863657" lon="10.378957"><ele>910.3333333333333</ele><time>2026-04-29T15:48:40.409Z</time></trkpt><trkpt lat="44.1863002" lon="10.3789872"><ele>905.6666666666666</ele><time>2026-04-29T15:48:42.409Z</time></trkpt><trkpt lat="44.1862382" lon="10.3790383"><ele>901.0</ele><time>2026-04-29T15:48:44.416Z</time></trkpt><trkpt lat="44.1861548" lon="10.3791096"><ele>900.9999999999999</ele><time>2026-04-29T15:48:46.416Z</time></trkpt><trkpt lat="44.1860983" lon="10.3791945"><ele>901.0</ele><time>2026-04-29T15:48:48.414Z</time></trkpt><trkpt lat="44.1860227" lon="10.3792807"><ele>901.0</ele><time>2026-04-29T15:48:50.41Z</time></trkpt><trkpt lat="44.1859537" lon="10.3793334"><ele>901.0</ele><time>2026-04-29T15:48:52.402Z</time></trkpt><trkpt lat="44.1859096" lon="10.379409"><ele>900.9999999999999</ele><time>2026-04-29T15:48:54.406Z</time></trkpt><trkpt lat="44.1858587" lon="10.3794827"><ele>901.0</ele><time>2026-04-29T15:48:56.42Z</time></trkpt><trkpt lat="44.1857909" lon="10.379553"><ele>896.25</ele><time>2026-04-29T15:48:58.408Z</time></trkpt><trkpt lat="44.1856698" lon="10.3796254"><ele>891.5</ele><time>2026-04-29T15:49:00.406Z</time></trkpt><trkpt lat="44.185538" lon="10.3796669"><ele>886.75</ele><time>2026-04-29T15:49:02.413Z</time></trkpt><trkpt lat="44.185434" lon="10.3796975"><ele>882.0</ele><time>2026-04-29T15:49:04.418Z</time></trkpt><trkpt lat="44.1853524" lon="10.3797323"><ele>882.0</ele><time>2026-04-29T15:49:06.398Z</time></trkpt><trkpt lat="44.1852757" lon="10.3797125"><ele>882.0</ele><time>2026-04-29T15:49:08.412Z</time></trkpt><trkpt lat="44.1852169" lon="10.3796704"><ele>882.0</ele><time>2026-04-29T15:49:10.409Z</time></trkpt><trkpt lat="44.1851349" lon="10.3796047"><ele>882.0</ele><time>2026-04-29T15:49:13.399Z</time></trkpt><trkpt lat="44.1850736" lon="10.3795462"><ele>882.0</ele><time>2026-04-29T15:49:15.401Z</time></trkpt><trkpt lat="44.1850169" lon="10.3794517"><ele>882.0</ele><time>2026-04-29T15:49:17.4Z</time></trkpt><trkpt lat="44.1849702" lon="10.3793684"><ele>881.7142857142857</ele><time>2026-04-29T15:49:18.407Z</time></trkpt><trkpt lat="44.1849117" lon="10.3793015"><ele>881.4285714285714</ele><time>2026-04-29T15:49:20.424Z</time></trkpt><trkpt lat="44.1848484" lon="10.3792476"><ele>881.1428571428571</ele><time>2026-04-29T15:49:23.403Z</time></trkpt><trkpt lat="44.1847686" lon="10.3792515"><ele>880.8571428571429</ele><time>2026-04-29T15:49:26.403Z</time></trkpt><trkpt lat="44.1847041" lon="10.3792592"><ele>880.5714285714286</ele><time>2026-04-29T15:49:28.419Z</time></trkpt><trkpt lat="44.1846407" lon="10.3792561"><ele>880.2857142857142</ele><time>2026-04-29T15:49:30.41Z</time></trkpt><trkpt lat="44.184552" lon="10.3792772"><ele>880.0</ele><time>2026-04-29T15:49:33.419Z</time></trkpt><trkpt lat="44.1844741" lon="10.379332"><ele>878.1666666666666</ele><time>2026-04-29T15:49:36.404Z</time></trkpt><trkpt lat="44.1844147" lon="10.3794134"><ele>876.3333333333333</ele><time>2026-04-29T15:49:39.426Z</time></trkpt><trkpt lat="44.1843688" lon="10.3794807"><ele>874.5</ele><time>2026-04-29T15:49:41.402Z</time></trkpt><trkpt lat="44.1843154" lon="10.3795473"><ele>872.6666666666667</ele><time>2026-04-29T15:49:43.407Z</time></trkpt><trkpt lat="44.1842917" lon="10.3796607"><ele>870.8333333333334</ele><time>2026-04-29T15:49:46.405Z</time></trkpt><trkpt lat="44.1843258" lon="10.3797776"><ele>869.0</ele><time>2026-04-29T15:49:48.415Z</time></trkpt><trkpt lat="44.1843114" lon="10.3798651"><ele>868.5714285714286</ele><time>2026-04-29T15:49:50.414Z</time></trkpt><trkpt lat="44.1842822" lon="10.3799627"><ele>868.1428571428571</ele><time>2026-04-29T15:49:53.418Z</time></trkpt><trkpt lat="44.1842022" lon="10.3799404"><ele>867.7142857142857</ele><time>2026-04-29T15:49:57.417Z</time></trkpt><trkpt lat="44.1841325" lon="10.3798957"><ele>867.2857142857142</ele><time>2026-04-29T15:50:00.423Z</time></trkpt><trkpt lat="44.1840775" lon="10.3799408"><ele>866.8571428571429</ele><time>2026-04-29T15:50:03.412Z</time></trkpt><trkpt lat="44.1840316" lon="10.3800192"><ele>866.4285714285713</ele><time>2026-04-29T15:50:05.434Z</time></trkpt><trkpt lat="44.1839827" lon="10.3800849"><ele>866.0</ele><time>2026-04-29T15:50:08.409Z</time></trkpt><trkpt lat="44.1839368" lon="10.3800108"><ele>864.6666666666667</ele><time>2026-04-29T15:50:13.419Z</time></trkpt><trkpt lat="44.1838688" lon="10.3799657"><ele>863.3333333333334</ele><time>2026-04-29T15:50:18.409Z</time></trkpt><trkpt lat="44.1838075" lon="10.3798955"><ele>862.0</ele><time>2026-04-29T15:50:20.412Z</time></trkpt><trkpt lat="44.1837232" lon="10.3798126"><ele>860.6666666666667</ele><time>2026-04-29T15:50:22.42Z</time></trkpt><trkpt lat="44.1836597" lon="10.3797663"><ele>859.3333333333334</ele><time>2026-04-29T15:50:23.41Z</time></trkpt><trkpt lat="44.1835848" lon="10.3797179"><ele>858.0</ele><time>2026-04-29T15:50:25.416Z</time></trkpt><trkpt lat="44.1834934" lon="10.3796907"><ele>857.1666666666666</ele><time>2026-04-29T15:50:27.417Z</time></trkpt><trkpt lat="44.1833891" lon="10.3796555"><ele>856.3333333333333</ele><time>2026-04-29T15:50:29.413Z</time></trkpt><trkpt lat="44.1833319" lon="10.3796164"><ele>855.5</ele><time>2026-04-29T15:50:31.416Z</time></trkpt><trkpt lat="44.1832496" lon="10.3795385"><ele>854.6666666666666</ele><time>2026-04-29T15:50:34.41Z</time></trkpt><trkpt lat="44.1831968" lon="10.3794771"><ele>853.8333333333333</ele><time>2026-04-29T15:50:36.404Z</time></trkpt><trkpt lat="44.1831409" lon="10.3793819"><ele>853.0</ele><time>2026-04-29T15:50:39.408Z</time></trkpt><trkpt lat="44.1830784" lon="10.3792889"><ele>851.6666666666666</ele><time>2026-04-29T15:50:41.415Z</time></trkpt><trkpt lat="44.1830345" lon="10.3792233"><ele>850.3333333333333</ele><time>2026-04-29T15:50:43.413Z</time></trkpt><trkpt lat="44.1829919" lon="10.379142"><ele>849.0</ele><time>2026-04-29T15:50:46.409Z</time></trkpt><trkpt lat="44.1829615" lon="10.3790477"><ele>847.6666666666667</ele><time>2026-04-29T15:50:52.413Z</time></trkpt><trkpt lat="44.1828855" lon="10.3789789"><ele>846.3333333333334</ele><time>2026-04-29T15:50:55.405Z</time></trkpt><trkpt lat="44.1828282" lon="10.378915"><ele>845.0</ele><time>2026-04-29T15:50:58.407Z</time></trkpt><trkpt lat="44.1828429" lon="10.3787948"><ele>843.0</ele><time>2026-04-29T15:51:05.422Z</time></trkpt><trkpt lat="44.1828768" lon="10.3787044"><ele>841.0</ele><time>2026-04-29T15:51:07.4Z</time></trkpt><trkpt lat="44.1829126" lon="10.3785953"><ele>839.0</ele><time>2026-04-29T15:51:09.408Z</time></trkpt><trkpt lat="44.1829656" lon="10.3784608"><ele>837.0</ele><time>2026-04-29T15:51:11.408Z</time></trkpt><trkpt lat="44.1830233" lon="10.3783292"><ele>835.0</ele><time>2026-04-29T15:51:13.414Z</time></trkpt><trkpt lat="44.183093" lon="10.3781976"><ele>835.0000000000001</ele><time>2026-04-29T15:51:15.412Z</time></trkpt><trkpt lat="44.1831225" lon="10.3781134"><ele>835.0</ele><time>2026-04-29T15:51:16.403Z</time></trkpt><trkpt lat="44.183154" lon="10.3780292"><ele>835.0</ele><time>2026-04-29T15:51:17.401Z</time></trkpt><trkpt lat="44.1831875" lon="10.3779411"><ele>835.0</ele><time>2026-04-29T15:51:18.415Z</time></trkpt><trkpt lat="44.1832127" lon="10.3778473"><ele>835.0</ele><time>2026-04-29T15:51:19.417Z</time></trkpt><trkpt lat="44.1832419" lon="10.3777521"><ele>835.0000000000001</ele><time>2026-04-29T15:51:20.406Z</time></trkpt><trkpt lat="44.1832708" lon="10.3776526"><ele>835.0</ele><time>2026-04-29T15:51:21.426Z</time></trkpt><trkpt lat="44.1832979" lon="10.3775549"><ele>835.2857142857143</ele><time>2026-04-29T15:51:22.419Z</time></trkpt><trkpt lat="44.1833193" lon="10.3774534"><ele>835.5714285714286</ele><time>2026-04-29T15:51:23.419Z</time></trkpt><trkpt lat="44.1833466" lon="10.3773594"><ele>835.8571428571429</ele><time>2026-04-29T15:51:24.398Z</time></trkpt><trkpt lat="44.1833828" lon="10.3772695"><ele>836.1428571428571</ele><time>2026-04-29T15:51:25.418Z</time></trkpt><trkpt lat="44.1834173" lon="10.377183"><ele>836.4285714285714</ele><time>2026-04-29T15:51:26.416Z</time></trkpt><trkpt lat="44.1834495" lon="10.3770864"><ele>836.7142857142858</ele><time>2026-04-29T15:51:27.408Z</time></trkpt><trkpt lat="44.18348" lon="10.3769944"><ele>837.0</ele><time>2026-04-29T15:51:28.416Z</time></trkpt><trkpt lat="44.1835106" lon="10.3768967"><ele>837.0</ele><time>2026-04-29T15:51:29.415Z</time></trkpt><trkpt lat="44.1835379" lon="10.3767994"><ele>837.0</ele><time>2026-04-29T15:51:30.415Z</time></trkpt><trkpt lat="44.1835489" lon="10.3766923"><ele>837.0</ele><time>2026-04-29T15:51:31.416Z</time></trkpt><trkpt lat="44.1835417" lon="10.3765873"><ele>837.0</ele><time>2026-04-29T15:51:32.399Z</time></trkpt><trkpt lat="44.1835228" lon="10.3764935"><ele>837.0</ele><time>2026-04-29T15:51:33.413Z</time></trkpt><trkpt lat="44.1834918" lon="10.3764116"><ele>837.0</ele><time>2026-04-29T15:51:34.414Z</time></trkpt><trkpt lat="44.1834561" lon="10.3763385"><ele>837.0</ele><time>2026-04-29T15:51:35.419Z</time></trkpt><trkpt lat="44.1834013" lon="10.376204"><ele>836.1666666666666</ele><time>2026-04-29T15:51:37.405Z</time></trkpt><trkpt lat="44.1833497" lon="10.3760809"><ele>835.3333333333333</ele><time>2026-04-29T15:51:39.404Z</time></trkpt><trkpt lat="44.183296" lon="10.3759735"><ele>834.5</ele><time>2026-04-29T15:51:41.418Z</time></trkpt><trkpt lat="44.1832567" lon="10.3758756"><ele>833.6666666666666</ele><time>2026-04-29T15:51:43.404Z</time></trkpt><trkpt lat="44.1832119" lon="10.3757908"><ele>832.8333333333333</ele><time>2026-04-29T15:51:45.411Z</time></trkpt><trkpt lat="44.1831661" lon="10.3756834"><ele>832.0</ele><time>2026-04-29T15:51:48.406Z</time></trkpt><trkpt lat="44.183111" lon="10.3755978"><ele>833.3333333333333</ele><time>2026-04-29T15:51:51.404Z</time></trkpt><trkpt lat="44.1830478" lon="10.3755038"><ele>834.6666666666666</ele><time>2026-04-29T15:51:54.412Z</time></trkpt><trkpt lat="44.1829784" lon="10.3754187"><ele>836.0</ele><time>2026-04-29T15:51:57.413Z</time></trkpt><trkpt lat="44.1829113" lon="10.3753259"><ele>837.3333333333333</ele><time>2026-04-29T15:52:00.408Z</time></trkpt><trkpt lat="44.1828606" lon="10.3752735"><ele>838.6666666666666</ele><time>2026-04-29T15:52:02.405Z</time></trkpt><trkpt lat="44.1827956" lon="10.3751795"><ele>840.0</ele><time>2026-04-29T15:52:05.41Z</time></trkpt><trkpt lat="44.1827321" lon="10.3750848"><ele>840.0</ele><time>2026-04-29T15:52:08.406Z</time></trkpt><trkpt lat="44.182671" lon="10.3749864"><ele>840.0</ele><time>2026-04-29T15:52:11.418Z</time></trkpt><trkpt lat="44.1826153" lon="10.374892"><ele>840.0</ele><time>2026-04-29T15:52:14.415Z</time></trkpt><trkpt lat="44.1825589" lon="10.3748104"><ele>840.0</ele><time>2026-04-29T15:52:17.399Z</time></trkpt><trkpt lat="44.1825141" lon="10.3747245"><ele>840.0</ele><time>2026-04-29T15:52:20.41Z</time></trkpt><trkpt lat="44.1824627" lon="10.3746289"><ele>840.0</ele><time>2026-04-29T15:52:23.415Z</time></trkpt><trkpt lat="44.1824225" lon="10.3745567"><ele>840.5</ele><time>2026-04-29T15:52:25.408Z</time></trkpt><trkpt lat="44.1823661" lon="10.3744723"><ele>841.0</ele><time>2026-04-29T15:52:27.401Z</time></trkpt><trkpt lat="44.1822978" lon="10.3743663"><ele>841.5</ele><time>2026-04-29T15:52:29.415Z</time></trkpt><trkpt lat="44.182199" lon="10.3742737"><ele>842.0</ele><time>2026-04-29T15:52:31.417Z</time></trkpt><trkpt lat="44.182135" lon="10.3742674"><ele>842.5</ele><time>2026-04-29T15:52:32.424Z</time></trkpt><trkpt lat="44.1820669" lon="10.3742934"><ele>843.0</ele><time>2026-04-29T15:52:33.419Z</time></trkpt><trkpt lat="44.1819936" lon="10.3743378"><ele>839.2</ele><time>2026-04-29T15:52:34.42Z</time></trkpt><trkpt lat="44.1819181" lon="10.3743904"><ele>835.4</ele><time>2026-04-29T15:52:35.413Z</time></trkpt><trkpt lat="44.1818351" lon="10.3744465"><ele>831.6</ele><time>2026-04-29T15:52:36.414Z</time></trkpt><trkpt lat="44.1817494" lon="10.3745032"><ele>827.8000000000001</ele><time>2026-04-29T15:52:37.426Z</time></trkpt><trkpt lat="44.1816559" lon="10.374556"><ele>824.0</ele><time>2026-04-29T15:52:38.408Z</time></trkpt><trkpt lat="44.1815606" lon="10.3746143"><ele>820.2</ele><time>2026-04-29T15:52:39.419Z</time></trkpt><trkpt lat="44.1814681" lon="10.3746795"><ele>816.4000000000001</ele><time>2026-04-29T15:52:40.421Z</time></trkpt><trkpt lat="44.1813839" lon="10.3747446"><ele>812.6</ele><time>2026-04-29T15:52:41.412Z</time></trkpt><trkpt lat="44.1813033" lon="10.374811"><ele>808.8</ele><time>2026-04-29T15:52:42.413Z</time></trkpt><trkpt lat="44.1812482" lon="10.3748953"><ele>805.0</ele><time>2026-04-29T15:52:43.402Z</time></trkpt><trkpt lat="44.1812205" lon="10.3750203"><ele>805.0</ele><time>2026-04-29T15:52:44.414Z</time></trkpt><trkpt lat="44.1812113" lon="10.3751362"><ele>805.0</ele><time>2026-04-29T15:52:45.401Z</time></trkpt><trkpt lat="44.1812603" lon="10.375259"><ele>805.0</ele><time>2026-04-29T15:52:46.406Z</time></trkpt><trkpt lat="44.1813128" lon="10.375363"><ele>805.0</ele><time>2026-04-29T15:52:47.403Z</time></trkpt><trkpt lat="44.1813923" lon="10.3754592"><ele>805.0</ele><time>2026-04-29T15:52:48.411Z</time></trkpt><trkpt lat="44.1814663" lon="10.3755677"><ele>807.2</ele><time>2026-04-29T15:52:49.409Z</time></trkpt><trkpt lat="44.1815423" lon="10.3756755"><ele>809.4</ele><time>2026-04-29T15:52:50.406Z</time></trkpt><trkpt lat="44.1816116" lon="10.3757908"><ele>811.5999999999999</ele><time>2026-04-29T15:52:51.414Z</time></trkpt><trkpt lat="44.1816665" lon="10.3759196"><ele>813.8</ele><time>2026-04-29T15:52:52.422Z</time></trkpt><trkpt lat="44.1817091" lon="10.3760668"><ele>816.0</ele><time>2026-04-29T15:52:53.417Z</time></trkpt><trkpt lat="44.1817317" lon="10.3762082"><ele>816.0</ele><time>2026-04-29T15:52:54.404Z</time></trkpt><trkpt lat="44.1817328" lon="10.3763357"><ele>816.0</ele><time>2026-04-29T15:52:55.413Z</time></trkpt><trkpt lat="44.1817052" lon="10.3764463"><ele>816.0</ele><time>2026-04-29T15:52:56.415Z</time></trkpt><trkpt lat="44.1816706" lon="10.3765415"><ele>816.0</ele><time>2026-04-29T15:52:57.409Z</time></trkpt><trkpt lat="44.1815973" lon="10.3765937"><ele>816.0</ele><time>2026-04-29T15:52:58.413Z</time></trkpt><trkpt lat="44.1815204" lon="10.3766277"><ele>816.0</ele><time>2026-04-29T15:52:59.413Z</time></trkpt><trkpt lat="44.1814409" lon="10.3766398"><ele>813.3333333333334</ele><time>2026-04-29T15:53:00.41Z</time></trkpt><trkpt lat="44.1813602" lon="10.3766479"><ele>810.6666666666667</ele><time>2026-04-29T15:53:01.4Z</time></trkpt><trkpt lat="44.1812816" lon="10.3766489"><ele>808.0</ele><time>2026-04-29T15:53:02.411Z</time></trkpt><trkpt lat="44.1812015" lon="10.3766569"><ele>805.3333333333334</ele><time>2026-04-29T15:53:03.423Z</time></trkpt><trkpt lat="44.1811278" lon="10.3766697"><ele>802.6666666666667</ele><time>2026-04-29T15:53:04.406Z</time></trkpt><trkpt lat="44.1810589" lon="10.3766793"><ele>800.0</ele><time>2026-04-29T15:53:05.408Z</time></trkpt><trkpt lat="44.1809684" lon="10.3767109"><ele>800.0</ele><time>2026-04-29T15:53:07.412Z</time></trkpt><trkpt lat="44.1809445" lon="10.3766062"><ele>800.0</ele><time>2026-04-29T15:53:12.407Z</time></trkpt><trkpt lat="44.1809985" lon="10.3765131"><ele>800.0</ele><time>2026-04-29T15:53:14.405Z</time></trkpt><trkpt lat="44.181078" lon="10.3764041"><ele>800.0</ele><time>2026-04-29T15:53:16.4Z</time></trkpt><trkpt lat="44.1811685" lon="10.3763346"><ele>800.0</ele><time>2026-04-29T15:53:18.399Z</time></trkpt><trkpt lat="44.1812762" lon="10.376288"><ele>799.2857142857143</ele><time>2026-04-29T15:53:20.398Z</time></trkpt><trkpt lat="44.1813565" lon="10.376284"><ele>798.5714285714286</ele><time>2026-04-29T15:53:22.414Z</time></trkpt><trkpt lat="44.181417" lon="10.376242"><ele>797.8571428571429</ele><time>2026-04-29T15:53:24.402Z</time></trkpt><trkpt lat="44.1814165" lon="10.3761533"><ele>797.1428571428571</ele><time>2026-04-29T15:53:26.417Z</time></trkpt><trkpt lat="44.1813769" lon="10.3760755"><ele>796.4285714285714</ele><time>2026-04-29T15:53:28.423Z</time></trkpt><trkpt lat="44.1813171" lon="10.3760189"><ele>795.7142857142858</ele><time>2026-04-29T15:53:30.41Z</time></trkpt><trkpt lat="44.1812593" lon="10.3759571"><ele>795.0</ele><time>2026-04-29T15:53:32.416Z</time></trkpt><trkpt lat="44.1811978" lon="10.3758868"><ele>795.0</ele><time>2026-04-29T15:53:34.41Z</time></trkpt><trkpt lat="44.1811348" lon="10.3758094"><ele>795.0</ele><time>2026-04-29T15:53:36.43Z</time></trkpt><trkpt lat="44.1810639" lon="10.3757342"><ele>795.0</ele><time>2026-04-29T15:53:38.417Z</time></trkpt><trkpt lat="44.1809943" lon="10.3756631"><ele>795.0</ele><time>2026-04-29T15:53:40.408Z</time></trkpt><trkpt lat="44.180932" lon="10.3755809"><ele>795.0</ele><time>2026-04-29T15:53:42.4Z</time></trkpt><trkpt lat="44.1808587" lon="10.3755094"><ele>795.0</ele><time>2026-04-29T15:53:44.415Z</time></trkpt><trkpt lat="44.1807946" lon="10.3754626"><ele>796.6666666666666</ele><time>2026-04-29T15:53:46.406Z</time></trkpt><trkpt lat="44.1807273" lon="10.3754472"><ele>798.3333333333333</ele><time>2026-04-29T15:53:56.416Z</time></trkpt><trkpt lat="44.1806495" lon="10.375439"><ele>800.0</ele><time>2026-04-29T15:53:59.412Z</time></trkpt><trkpt lat="44.1805735" lon="10.3754255"><ele>801.6666666666666</ele><time>2026-04-29T15:54:02.415Z</time></trkpt><trkpt lat="44.180493" lon="10.3754098"><ele>803.3333333333333</ele><time>2026-04-29T15:54:05.416Z</time></trkpt><trkpt lat="44.1804843" lon="10.3752615"><ele>805.0</ele><time>2026-04-29T15:54:08.405Z</time></trkpt><trkpt lat="44.1804833" lon="10.3751218"><ele>802.1666666666666</ele><time>2026-04-29T15:54:10.42Z</time></trkpt><trkpt lat="44.180476" lon="10.375004"><ele>799.3333333333333</ele><time>2026-04-29T15:54:12.413Z</time></trkpt><trkpt lat="44.1804944" lon="10.3748722"><ele>796.5</ele><time>2026-04-29T15:54:14.404Z</time></trkpt><trkpt lat="44.1805078" lon="10.3747855"><ele>793.6666666666667</ele><time>2026-04-29T15:54:15.421Z</time></trkpt><trkpt lat="44.180539" lon="10.3746176"><ele>790.8333333333334</ele><time>2026-04-29T15:54:17.414Z</time></trkpt><trkpt lat="44.1805534" lon="10.3745115"><ele>788.0</ele><time>2026-04-29T15:54:19.417Z</time></trkpt><trkpt lat="44.1805094" lon="10.3744097"><ele>788.0</ele><time>2026-04-29T15:54:23.409Z</time></trkpt><trkpt lat="44.1804523" lon="10.3743695"><ele>788.0</ele><time>2026-04-29T15:54:25.422Z</time></trkpt><trkpt lat="44.1803713" lon="10.3743188"><ele>788.0</ele><time>2026-04-29T15:54:28.404Z</time></trkpt><trkpt lat="44.180306" lon="10.3742723"><ele>788.0</ele><time>2026-04-29T15:54:31.418Z</time></trkpt><trkpt lat="44.180255" lon="10.3742145"><ele>788.0</ele><time>2026-04-29T15:54:34.434Z</time></trkpt><trkpt lat="44.1801992" lon="10.3741568"><ele>788.0</ele><time>2026-04-29T15:54:37.405Z</time></trkpt><trkpt lat="44.1801392" lon="10.3741007"><ele>788.0</ele><time>2026-04-29T15:54:40.401Z</time></trkpt><trkpt lat="44.1800781" lon="10.37405"><ele>788.0000000000001</ele><time>2026-04-29T15:54:43.399Z</time></trkpt><trkpt lat="44.1800265" lon="10.3739983"><ele>788.0</ele><time>2026-04-29T15:54:45.398Z</time></trkpt><trkpt lat="44.1799516" lon="10.3739628"><ele>788.0</ele><time>2026-04-29T15:54:47.404Z</time></trkpt><trkpt lat="44.1798684" lon="10.3739532"><ele>788.0</ele><time>2026-04-29T15:54:49.403Z</time></trkpt><trkpt lat="44.1797914" lon="10.3739907"><ele>788.0000000000001</ele><time>2026-04-29T15:54:51.402Z</time></trkpt><trkpt lat="44.1797164" lon="10.3740721"><ele>788.0</ele><time>2026-04-29T15:54:53.403Z</time></trkpt><trkpt lat="44.1796519" lon="10.3741935"><ele>788.5000000000001</ele><time>2026-04-29T15:54:55.401Z</time></trkpt><trkpt lat="44.1796074" lon="10.3742908"><ele>789.0</ele><time>2026-04-29T15:54:57.398Z</time></trkpt><trkpt lat="44.1795684" lon="10.3743601"><ele>789.5</ele><time>2026-04-29T15:54:59.397Z</time></trkpt><trkpt lat="44.1795046" lon="10.3743826"><ele>790.0</ele><time>2026-04-29T15:55:04.402Z</time></trkpt><trkpt lat="44.1794082" lon="10.3743988"><ele>790.5000000000001</ele><time>2026-04-29T15:55:08.416Z</time></trkpt><trkpt lat="44.1793323" lon="10.3743893"><ele>791.0</ele><time>2026-04-29T15:55:10.398Z</time></trkpt><trkpt lat="44.1792668" lon="10.3743833"><ele>791.0</ele><time>2026-04-29T15:55:12.399Z</time></trkpt><trkpt lat="44.1791951" lon="10.3743875"><ele>791.0</ele><time>2026-04-29T15:55:15.412Z</time></trkpt><trkpt lat="44.1791316" lon="10.3743941"><ele>791.0</ele><time>2026-04-29T15:55:18.41Z</time></trkpt><trkpt lat="44.1790544" lon="10.3743789"><ele>791.0</ele><time>2026-04-29T15:55:22.402Z</time></trkpt><trkpt lat="44.178971" lon="10.3743718"><ele>791.0</ele><time>2026-04-29T15:55:26.411Z</time></trkpt><trkpt lat="44.1789072" lon="10.3743499"><ele>791.0</ele><time>2026-04-29T15:55:30.4Z</time></trkpt><trkpt lat="44.1788465" lon="10.37429"><ele>791.0</ele><time>2026-04-29T15:55:34.41Z</time></trkpt><trkpt lat="44.1787892" lon="10.3742171"><ele>791.0</ele><time>2026-04-29T15:55:39.409Z</time></trkpt><trkpt lat="44.1787383" lon="10.3741456"><ele>791.0</ele><time>2026-04-29T15:55:42.414Z</time></trkpt><trkpt lat="44.1786839" lon="10.3740817"><ele>791.0</ele><time>2026-04-29T15:55:44.402Z</time></trkpt><trkpt lat="44.1786265" lon="10.374039"><ele>791.0</ele><time>2026-04-29T15:55:47.418Z</time></trkpt><trkpt lat="44.1785606" lon="10.3739418"><ele>791.0</ele><time>2026-04-29T15:55:50.404Z</time></trkpt><trkpt lat="44.1785228" lon="10.3738637"><ele>791.0</ele><time>2026-04-29T15:55:52.408Z</time></trkpt><trkpt lat="44.1784906" lon="10.3737722"><ele>791.0</ele><time>2026-04-29T15:55:54.441Z</time></trkpt><trkpt lat="44.1784622" lon="10.373656"><ele>791.0000000000001</ele><time>2026-04-29T15:55:56.414Z</time></trkpt><trkpt lat="44.178438" lon="10.3735262"><ele>791.0</ele><time>2026-04-29T15:55:58.415Z</time></trkpt><trkpt lat="44.1784276" lon="10.373408"><ele>791.0</ele><time>2026-04-29T15:56:00.41Z</time></trkpt><trkpt lat="44.1783915" lon="10.3733255"><ele>791.0</ele><time>2026-04-29T15:56:02.417Z</time></trkpt><trkpt lat="44.1783235" lon="10.3732859"><ele>791.0000000000001</ele><time>2026-04-29T15:56:05.417Z</time></trkpt><trkpt lat="44.1782554" lon="10.3732737"><ele>791.0</ele><time>2026-04-29T15:56:09.403Z</time></trkpt><trkpt lat="44.1781927" lon="10.3732482"><ele>788.6666666666667</ele><time>2026-04-29T15:56:13.425Z</time></trkpt><trkpt lat="44.1781161" lon="10.3732344"><ele>786.3333333333334</ele><time>2026-04-29T15:56:18.416Z</time></trkpt><trkpt lat="44.1780413" lon="10.3732199"><ele>784.0</ele><time>2026-04-29T15:56:23.433Z</time></trkpt><trkpt lat="44.1779711" lon="10.3731882"><ele>781.6666666666667</ele><time>2026-04-29T15:56:28.41Z</time></trkpt><trkpt lat="44.1779014" lon="10.3731579"><ele>779.3333333333334</ele><time>2026-04-29T15:56:33.414Z</time></trkpt><trkpt lat="44.1778153" lon="10.3731332"><ele>777.0</ele><time>2026-04-29T15:56:36.401Z</time></trkpt><trkpt lat="44.1777439" lon="10.3731015"><ele>777.0</ele><time>2026-04-29T15:56:38.417Z</time></trkpt><trkpt lat="44.1776786" lon="10.3730483"><ele>777.0</ele><time>2026-04-29T15:56:40.412Z</time></trkpt><trkpt lat="44.177611" lon="10.3730209"><ele>777.0</ele><time>2026-04-29T15:56:41.426Z</time></trkpt><trkpt lat="44.1774915" lon="10.3730144"><ele>777.0</ele><time>2026-04-29T15:56:43.412Z</time></trkpt><trkpt lat="44.1773985" lon="10.3730273"><ele>777.0</ele><time>2026-04-29T15:56:45.421Z</time></trkpt><trkpt lat="44.177321" lon="10.3730042"><ele>777.0</ele><time>2026-04-29T15:56:48.397Z</time></trkpt><trkpt lat="44.1772665" lon="10.3729478"><ele>778.1666666666666</ele><time>2026-04-29T15:56:53.402Z</time></trkpt><trkpt lat="44.1772099" lon="10.3729067"><ele>779.3333333333333</ele><time>2026-04-29T15:56:57.417Z</time></trkpt><trkpt lat="44.1771456" lon="10.372892"><ele>780.5</ele><time>2026-04-29T15:57:00.428Z</time></trkpt><trkpt lat="44.1770639" lon="10.3728949"><ele>781.6666666666666</ele><time>2026-04-29T15:57:04.407Z</time></trkpt><trkpt lat="44.1769843" lon="10.3728745"><ele>782.8333333333333</ele><time>2026-04-29T15:57:08.414Z</time></trkpt><trkpt lat="44.1769242" lon="10.3728252"><ele>784.0</ele><time>2026-04-29T15:57:11.408Z</time></trkpt><trkpt lat="44.1768415" lon="10.3727811"><ele>783.9999999999999</ele><time>2026-04-29T15:57:14.411Z</time></trkpt><trkpt lat="44.1767759" lon="10.3727256"><ele>784.0</ele><time>2026-04-29T15:57:16.413Z</time></trkpt><trkpt lat="44.1766878" lon="10.3726474"><ele>784.0</ele><time>2026-04-29T15:57:18.406Z</time></trkpt><trkpt lat="44.1766195" lon="10.3725819"><ele>784.0</ele><time>2026-04-29T15:57:19.405Z</time></trkpt><trkpt lat="44.1765493" lon="10.372524"><ele>783.9999999999999</ele><time>2026-04-29T15:57:21.412Z</time></trkpt><trkpt lat="44.1764856" lon="10.3725038"><ele>784.0</ele><time>2026-04-29T15:57:24.405Z</time></trkpt><trkpt lat="44.1763723" lon="10.3723914"><ele>784.0</ele><time>2026-04-29T15:58:20.407Z</time></trkpt><trkpt lat="44.1763349" lon="10.3723086"><ele>784.0</ele><time>2026-04-29T15:58:23.411Z</time></trkpt><trkpt lat="44.1762813" lon="10.3722515"><ele>784.0</ele><time>2026-04-29T15:58:26.41Z</time></trkpt><trkpt lat="44.1762054" lon="10.372266"><ele>784.0</ele><time>2026-04-29T15:58:31.401Z</time></trkpt><trkpt lat="44.1761288" lon="10.3722631"><ele>784.0</ele><time>2026-04-29T15:58:34.412Z</time></trkpt><trkpt lat="44.1760527" lon="10.37223"><ele>784.0</ele><time>2026-04-29T15:58:37.399Z</time></trkpt><trkpt lat="44.1760129" lon="10.3721503"><ele>784.0</ele><time>2026-04-29T15:58:40.397Z</time></trkpt><trkpt lat="44.1759602" lon="10.3720536"><ele>783.9999999999999</ele><time>2026-04-29T15:58:43.408Z</time></trkpt><trkpt lat="44.1758837" lon="10.372004"><ele>784.0</ele><time>2026-04-29T15:58:45.42Z</time></trkpt><trkpt lat="44.1758194" lon="10.3719809"><ele>784.0</ele><time>2026-04-29T15:58:47.399Z</time></trkpt><trkpt lat="44.1757477" lon="10.3719693"><ele>784.0</ele><time>2026-04-29T15:58:50.412Z</time></trkpt><trkpt lat="44.1756615" lon="10.3719493"><ele>783.9999999999999</ele><time>2026-04-29T15:58:53.408Z</time></trkpt><trkpt lat="44.1755804" lon="10.371905"><ele>784.0</ele><time>2026-04-29T15:58:55.408Z</time></trkpt><trkpt lat="44.175455" lon="10.3718563"><ele>780.6</ele><time>2026-04-29T15:58:57.398Z</time></trkpt><trkpt lat="44.175336" lon="10.3718087"><ele>777.2</ele><time>2026-04-29T15:58:59.411Z</time></trkpt><trkpt lat="44.1752251" lon="10.3717914"><ele>773.8000000000001</ele><time>2026-04-29T15:59:01.412Z</time></trkpt><trkpt lat="44.1751604" lon="10.3717674"><ele>770.4000000000001</ele><time>2026-04-29T15:59:02.41Z</time></trkpt><trkpt lat="44.1750989" lon="10.3717158"><ele>767.0</ele><time>2026-04-29T15:59:04.411Z</time></trkpt><trkpt lat="44.1750368" lon="10.3716304"><ele>767.0</ele><time>2026-04-29T15:59:06.399Z</time></trkpt><trkpt lat="44.1749826" lon="10.3715378"><ele>767.0</ele><time>2026-04-29T15:59:08.401Z</time></trkpt><trkpt lat="44.1749456" lon="10.3714616"><ele>767.0</ele><time>2026-04-29T15:59:10.401Z</time></trkpt><trkpt lat="44.174976" lon="10.3713527"><ele>767.0</ele><time>2026-04-29T15:59:13.41Z</time></trkpt><trkpt lat="44.1749722" lon="10.3712555"><ele>767.0</ele><time>2026-04-29T15:59:16.401Z</time></trkpt><trkpt lat="44.1748936" lon="10.3712286"><ele>767.0</ele><time>2026-04-29T15:59:40.408Z</time></trkpt><trkpt lat="44.174831" lon="10.3712577"><ele>766.7142857142858</ele><time>2026-04-29T15:59:45.415Z</time></trkpt><trkpt lat="44.1747736" lon="10.3713095"><ele>766.4285714285714</ele><time>2026-04-29T15:59:50.403Z</time></trkpt><trkpt lat="44.1747206" lon="10.3713676"><ele>766.1428571428571</ele><time>2026-04-29T15:59:54.413Z</time></trkpt><trkpt lat="44.174663" lon="10.3714378"><ele>765.8571428571429</ele><time>2026-04-29T15:59:58.406Z</time></trkpt><trkpt lat="44.1746032" lon="10.3714975"><ele>765.5714285714286</ele><time>2026-04-29T16:00:01.409Z</time></trkpt><trkpt lat="44.1745281" lon="10.3715501"><ele>765.2857142857143</ele><time>2026-04-29T16:00:03.434Z</time></trkpt><trkpt lat="44.1744514" lon="10.371578"><ele>765.0</ele><time>2026-04-29T16:00:05.403Z</time></trkpt><trkpt lat="44.174371" lon="10.371628"><ele>763.2</ele><time>2026-04-29T16:00:07.411Z</time></trkpt><trkpt lat="44.1743214" lon="10.3716853"><ele>761.4</ele><time>2026-04-29T16:00:08.401Z</time></trkpt><trkpt lat="44.1742477" lon="10.3717263"><ele>759.5999999999999</ele><time>2026-04-29T16:00:10.411Z</time></trkpt><trkpt lat="44.1741302" lon="10.3717633"><ele>757.8</ele><time>2026-04-29T16:00:12.418Z</time></trkpt><trkpt lat="44.1740098" lon="10.3718129"><ele>756.0</ele><time>2026-04-29T16:00:14.409Z</time></trkpt><trkpt lat="44.1739129" lon="10.371874"><ele>753.1999999999999</ele><time>2026-04-29T16:00:16.414Z</time></trkpt><trkpt lat="44.1738526" lon="10.3719182"><ele>750.4</ele><time>2026-04-29T16:00:17.41Z</time></trkpt><trkpt lat="44.1738019" lon="10.3719717"><ele>747.6</ele><time>2026-04-29T16:00:18.416Z</time></trkpt><trkpt lat="44.1737146" lon="10.3720346"><ele>744.8</ele><time>2026-04-29T16:00:20.408Z</time></trkpt><trkpt lat="44.1736118" lon="10.3720503"><ele>742.0</ele><time>2026-04-29T16:00:22.416Z</time></trkpt><trkpt lat="44.1734972" lon="10.3720851"><ele>742.0</ele><time>2026-04-29T16:00:24.416Z</time></trkpt><trkpt lat="44.173428" lon="10.3720989"><ele>742.0</ele><time>2026-04-29T16:00:25.416Z</time></trkpt><trkpt lat="44.1733537" lon="10.3720947"><ele>742.0</ele><time>2026-04-29T16:00:26.4Z</time></trkpt><trkpt lat="44.1732279" lon="10.372083"><ele>742.0</ele><time>2026-04-29T16:00:28.402Z</time></trkpt><trkpt lat="44.1731121" lon="10.3720354"><ele>742.0</ele><time>2026-04-29T16:00:30.42Z</time></trkpt><trkpt lat="44.1730068" lon="10.3719883"><ele>739.0</ele><time>2026-04-29T16:00:32.421Z</time></trkpt><trkpt lat="44.1729404" lon="10.3718875"><ele>736.0</ele><time>2026-04-29T16:00:34.409Z</time></trkpt><trkpt lat="44.1728728" lon="10.3718806"><ele>733.0</ele><time>2026-04-29T16:00:35.424Z</time></trkpt><trkpt lat="44.1727956" lon="10.3718544"><ele>730.0</ele><time>2026-04-29T16:00:37.413Z</time></trkpt><trkpt lat="44.1727335" lon="10.3718381"><ele>727.0</ele><time>2026-04-29T16:00:38.412Z</time></trkpt><trkpt lat="44.1726538" lon="10.3717919"><ele>724.0</ele><time>2026-04-29T16:00:40.413Z</time></trkpt><trkpt lat="44.172558" lon="10.3717339"><ele>724.0</ele><time>2026-04-29T16:00:42.421Z</time></trkpt><trkpt lat="44.1724704" lon="10.3716652"><ele>724.0</ele><time>2026-04-29T16:00:44.412Z</time></trkpt><trkpt lat="44.172371" lon="10.3716321"><ele>724.0</ele><time>2026-04-29T16:00:46.411Z</time></trkpt><trkpt lat="44.1723193" lon="10.3715818"><ele>724.0</ele><time>2026-04-29T16:00:48.406Z</time></trkpt><trkpt lat="44.1722778" lon="10.3714677"><ele>724.0</ele><time>2026-04-29T16:00:51.406Z</time></trkpt><trkpt lat="44.1723097" lon="10.3713883"><ele>724.0</ele><time>2026-04-29T16:00:54.412Z</time></trkpt><trkpt lat="44.1723582" lon="10.3713115"><ele>724.1666666666667</ele><time>2026-04-29T16:00:56.402Z</time></trkpt><trkpt lat="44.1723993" lon="10.3711948"><ele>724.3333333333334</ele><time>2026-04-29T16:00:59.405Z</time></trkpt><trkpt lat="44.1723778" lon="10.371108"><ele>724.5</ele><time>2026-04-29T16:01:01.41Z</time></trkpt><trkpt lat="44.1723012" lon="10.3710801"><ele>724.6666666666666</ele><time>2026-04-29T16:01:04.409Z</time></trkpt><trkpt lat="44.1722299" lon="10.3711007"><ele>724.8333333333333</ele><time>2026-04-29T16:01:08.405Z</time></trkpt><trkpt lat="44.1721611" lon="10.3711167"><ele>725.0</ele><time>2026-04-29T16:01:13.429Z</time></trkpt><trkpt lat="44.1720876" lon="10.3711284"><ele>725.0</ele><time>2026-04-29T16:01:17.414Z</time></trkpt><trkpt lat="44.1720206" lon="10.3711291"><ele>725.0</ele><time>2026-04-29T16:01:21.414Z</time></trkpt><trkpt lat="44.1719555" lon="10.3711721"><ele>725.0</ele><time>2026-04-29T16:01:25.42Z</time></trkpt><trkpt lat="44.1718838" lon="10.3711986"><ele>725.0</ele><time>2026-04-29T16:01:29.407Z</time></trkpt><trkpt lat="44.171818" lon="10.3711977"><ele>725.0</ele><time>2026-04-29T16:01:32.423Z</time></trkpt><trkpt lat="44.1717248" lon="10.3711392"><ele>725.0</ele><time>2026-04-29T16:01:35.418Z</time></trkpt><trkpt lat="44.1716628" lon="10.3710958"><ele>725.0</ele><time>2026-04-29T16:01:36.413Z</time></trkpt><trkpt lat="44.1715986" lon="10.3709479"><ele>725.0</ele><time>2026-04-29T16:01:38.413Z</time></trkpt><trkpt lat="44.1715461" lon="10.3708329"><ele>725.0</ele><time>2026-04-29T16:01:40.414Z</time></trkpt><trkpt lat="44.1714785" lon="10.3707403"><ele>725.0</ele><time>2026-04-29T16:01:42.403Z</time></trkpt><trkpt lat="44.1714046" lon="10.370733"><ele>725.0</ele><time>2026-04-29T16:01:44.404Z</time></trkpt><trkpt lat="44.1713441" lon="10.3708279"><ele>723.4</ele><time>2026-04-29T16:01:46.42Z</time></trkpt><trkpt lat="44.1712825" lon="10.3709307"><ele>721.8</ele><time>2026-04-29T16:01:48.415Z</time></trkpt><trkpt lat="44.1712364" lon="10.3710344"><ele>720.2</ele><time>2026-04-29T16:01:50.398Z</time></trkpt><trkpt lat="44.1711951" lon="10.3711702"><ele>718.6</ele><time>2026-04-29T16:01:52.41Z</time></trkpt><trkpt lat="44.1711645" lon="10.3712567"><ele>717.0</ele><time>2026-04-29T16:01:53.407Z</time></trkpt><trkpt lat="44.1711331" lon="10.3714117"><ele>715.0</ele><time>2026-04-29T16:01:55.413Z</time></trkpt><trkpt lat="44.171113" lon="10.3714959"><ele>713.0</ele><time>2026-04-29T16:01:56.414Z</time></trkpt><trkpt lat="44.1710993" lon="10.3716463"><ele>711.0</ele><time>2026-04-29T16:01:58.408Z</time></trkpt><trkpt lat="44.1711015" lon="10.3717517"><ele>709.0</ele><time>2026-04-29T16:02:00.405Z</time></trkpt><trkpt lat="44.1711166" lon="10.3718778"><ele>707.0</ele><time>2026-04-29T16:02:03.402Z</time></trkpt><trkpt lat="44.1711127" lon="10.3719709"><ele>705.0</ele><time>2026-04-29T16:02:05.407Z</time></trkpt><trkpt lat="44.1710612" lon="10.3720609"><ele>705.0</ele><time>2026-04-29T16:02:07.407Z</time></trkpt><trkpt lat="44.1709722" lon="10.3720944"><ele>705.0</ele><time>2026-04-29T16:02:09.406Z</time></trkpt><trkpt lat="44.170897" lon="10.3720801"><ele>705.0</ele><time>2026-04-29T16:02:10.429Z</time></trkpt><trkpt lat="44.1707852" lon="10.3720359"><ele>705.0</ele><time>2026-04-29T16:02:12.416Z</time></trkpt><trkpt lat="44.1707238" lon="10.3719871"><ele>705.0</ele><time>2026-04-29T16:02:13.419Z</time></trkpt><trkpt lat="44.1706644" lon="10.3719508"><ele>705.0</ele><time>2026-04-29T16:02:14.404Z</time></trkpt><trkpt lat="44.1705762" lon="10.3718862"><ele>702.8</ele><time>2026-04-29T16:02:15.41Z</time></trkpt><trkpt lat="44.1704906" lon="10.3718303"><ele>700.6</ele><time>2026-04-29T16:02:16.415Z</time></trkpt><trkpt lat="44.1704102" lon="10.3717947"><ele>698.4000000000001</ele><time>2026-04-29T16:02:17.412Z</time></trkpt><trkpt lat="44.1703283" lon="10.3717603"><ele>696.2</ele><time>2026-04-29T16:02:18.408Z</time></trkpt><trkpt lat="44.1702497" lon="10.3717367"><ele>694.0</ele><time>2026-04-29T16:02:19.417Z</time></trkpt><trkpt lat="44.1701099" lon="10.3717587"><ele>694.0</ele><time>2026-04-29T16:02:21.406Z</time></trkpt><trkpt lat="44.1700457" lon="10.371755"><ele>694.0</ele><time>2026-04-29T16:02:22.412Z</time></trkpt><trkpt lat="44.1699718" lon="10.3717841"><ele>694.0</ele><time>2026-04-29T16:02:23.409Z</time></trkpt><trkpt lat="44.1699017" lon="10.3718199"><ele>694.0</ele><time>2026-04-29T16:02:24.403Z</time></trkpt><trkpt lat="44.1698363" lon="10.3718549"><ele>694.0</ele><time>2026-04-29T16:02:25.408Z</time></trkpt><trkpt lat="44.169779" lon="10.3718951"><ele>694.0</ele><time>2026-04-29T16:02:26.401Z</time></trkpt><trkpt lat="44.1697291" lon="10.3719908"><ele>694.0</ele><time>2026-04-29T16:02:28.416Z</time></trkpt><trkpt lat="44.1697357" lon="10.3720951"><ele>692.1666666666667</ele><time>2026-04-29T16:02:30.411Z</time></trkpt><trkpt lat="44.1698047" lon="10.3721591"><ele>690.3333333333334</ele><time>2026-04-29T16:02:32.403Z</time></trkpt><trkpt lat="44.1698796" lon="10.3722189"><ele>688.5</ele><time>2026-04-29T16:02:34.414Z</time></trkpt><trkpt lat="44.1699481" lon="10.3722897"><ele>686.6666666666666</ele><time>2026-04-29T16:02:36.403Z</time></trkpt><trkpt lat="44.1699508" lon="10.3723954"><ele>684.8333333333333</ele><time>2026-04-29T16:02:38.401Z</time></trkpt><trkpt lat="44.1698775" lon="10.3724422"><ele>683.0</ele><time>2026-04-29T16:02:39.402Z</time></trkpt><trkpt lat="44.1697701" lon="10.3724671"><ele>681.1666666666666</ele><time>2026-04-29T16:02:41.418Z</time></trkpt><trkpt lat="44.1696963" lon="10.372458"><ele>679.3333333333333</ele><time>2026-04-29T16:02:42.409Z</time></trkpt><trkpt lat="44.1696322" lon="10.3724689"><ele>677.5</ele><time>2026-04-29T16:02:43.406Z</time></trkpt><trkpt lat="44.1695629" lon="10.3724728"><ele>675.6666666666666</ele><time>2026-04-29T16:02:44.427Z</time></trkpt><trkpt lat="44.1694488" lon="10.3724414"><ele>673.8333333333334</ele><time>2026-04-29T16:02:46.404Z</time></trkpt><trkpt lat="44.1693546" lon="10.3723865"><ele>672.0</ele><time>2026-04-29T16:02:48.412Z</time></trkpt><trkpt lat="44.1692895" lon="10.3723738"><ele>672.0</ele><time>2026-04-29T16:02:50.407Z</time></trkpt><trkpt lat="44.1692295" lon="10.3724278"><ele>672.0</ele><time>2026-04-29T16:03:01.415Z</time></trkpt><trkpt lat="44.169215" lon="10.3725589"><ele>672.0</ele><time>2026-04-29T16:03:03.409Z</time></trkpt><trkpt lat="44.1692255" lon="10.3726939"><ele>672.0</ele><time>2026-04-29T16:03:05.41Z</time></trkpt><trkpt lat="44.1692478" lon="10.3727809"><ele>672.0</ele><time>2026-04-29T16:03:06.429Z</time></trkpt><trkpt lat="44.169315" lon="10.3728851"><ele>672.0</ele><time>2026-04-29T16:03:08.405Z</time></trkpt><trkpt lat="44.1693941" lon="10.3729911"><ele>670.0</ele><time>2026-04-29T16:03:10.405Z</time></trkpt><trkpt lat="44.16948" lon="10.3730803"><ele>668.0</ele><time>2026-04-29T16:03:12.425Z</time></trkpt><trkpt lat="44.1695443" lon="10.3731288"><ele>666.0</ele><time>2026-04-29T16:03:14.402Z</time></trkpt><trkpt lat="44.1695082" lon="10.373222"><ele>664.0</ele><time>2026-04-29T16:03:17.41Z</time></trkpt><trkpt lat="44.1694143" lon="10.3732417"><ele>662.0</ele><time>2026-04-29T16:03:19.406Z</time></trkpt><trkpt lat="44.1693481" lon="10.3732575"><ele>660.0</ele><time>2026-04-29T16:03:20.42Z</time></trkpt><trkpt lat="44.1692826" lon="10.3732779"><ele>660.0</ele><time>2026-04-29T16:03:21.419Z</time></trkpt><trkpt lat="44.1691966" lon="10.3732787"><ele>660.0</ele><time>2026-04-29T16:03:22.402Z</time></trkpt><trkpt lat="44.1691208" lon="10.3732746"><ele>660.0</ele><time>2026-04-29T16:03:23.404Z</time></trkpt><trkpt lat="44.1690432" lon="10.3732855"><ele>660.0</ele><time>2026-04-29T16:03:24.404Z</time></trkpt><trkpt lat="44.1689704" lon="10.3732799"><ele>660.0</ele><time>2026-04-29T16:03:25.412Z</time></trkpt><trkpt lat="44.1688925" lon="10.3732889"><ele>660.0</ele><time>2026-04-29T16:03:26.417Z</time></trkpt><trkpt lat="44.1688087" lon="10.3732916"><ele>659.0000000000001</ele><time>2026-04-29T16:03:27.407Z</time></trkpt><trkpt lat="44.1687303" lon="10.3733264"><ele>658.0</ele><time>2026-04-29T16:03:28.415Z</time></trkpt><trkpt lat="44.1686553" lon="10.3733524"><ele>657.0</ele><time>2026-04-29T16:03:29.412Z</time></trkpt><trkpt lat="44.1685885" lon="10.3733848"><ele>656.0</ele><time>2026-04-29T16:03:30.415Z</time></trkpt><trkpt lat="44.1685175" lon="10.3734221"><ele>655.0</ele><time>2026-04-29T16:03:31.411Z</time></trkpt><trkpt lat="44.168461" lon="10.3734751"><ele>654.0000000000001</ele><time>2026-04-29T16:03:32.402Z</time></trkpt><trkpt lat="44.1683999" lon="10.3735194"><ele>653.0</ele><time>2026-04-29T16:03:33.4Z</time></trkpt><trkpt lat="44.1682938" lon="10.3735387"><ele>652.0</ele><time>2026-04-29T16:03:35.403Z</time></trkpt><trkpt lat="44.168189" lon="10.3734632"><ele>651.0</ele><time>2026-04-29T16:03:37.406Z</time></trkpt><trkpt lat="44.1681422" lon="10.3733994"><ele>650.0</ele><time>2026-04-29T16:03:38.409Z</time></trkpt><trkpt lat="44.1680896" lon="10.3733327"><ele>649.0</ele><time>2026-04-29T16:03:39.417Z</time></trkpt><trkpt lat="44.1680381" lon="10.3732468"><ele>648.0</ele><time>2026-04-29T16:03:40.403Z</time></trkpt><trkpt lat="44.1679855" lon="10.3731554"><ele>647.0</ele><time>2026-04-29T16:03:41.417Z</time></trkpt><trkpt lat="44.1679417" lon="10.3730695"><ele>647.0</ele><time>2026-04-29T16:03:42.414Z</time></trkpt><trkpt lat="44.1679013" lon="10.3729983"><ele>647.0</ele><time>2026-04-29T16:03:43.406Z</time></trkpt><trkpt lat="44.1678261" lon="10.3729296"><ele>647.0</ele><time>2026-04-29T16:03:45.436Z</time></trkpt><trkpt lat="44.1677616" lon="10.3729391"><ele>647.0</ele><time>2026-04-29T16:03:47.415Z</time></trkpt><trkpt lat="44.1677029" lon="10.3730129"><ele>647.0</ele><time>2026-04-29T16:03:49.408Z</time></trkpt><trkpt lat="44.1675911" lon="10.3730849"><ele>647.0</ele><time>2026-04-29T16:03:51.416Z</time></trkpt><trkpt lat="44.1675331" lon="10.3731306"><ele>647.0</ele><time>2026-04-29T16:03:52.403Z</time></trkpt><trkpt lat="44.1674571" lon="10.3731638"><ele>647.0</ele><time>2026-04-29T16:03:53.415Z</time></trkpt><trkpt lat="44.1673783" lon="10.3732058"><ele>647.0</ele><time>2026-04-29T16:03:54.411Z</time></trkpt><trkpt lat="44.1672899" lon="10.3732499"><ele>647.0</ele><time>2026-04-29T16:03:55.412Z</time></trkpt><trkpt lat="44.1671984" lon="10.3732825"><ele>647.0</ele><time>2026-04-29T16:03:56.409Z</time></trkpt><trkpt lat="44.1671005" lon="10.3733112"><ele>646.2</ele><time>2026-04-29T16:03:57.411Z</time></trkpt><trkpt lat="44.1669976" lon="10.3733423"><ele>645.4000000000001</ele><time>2026-04-29T16:03:58.416Z</time></trkpt><trkpt lat="44.1668933" lon="10.3733732"><ele>644.5999999999999</ele><time>2026-04-29T16:03:59.414Z</time></trkpt><trkpt lat="44.1667884" lon="10.3733986"><ele>643.8</ele><time>2026-04-29T16:04:00.419Z</time></trkpt><trkpt lat="44.1667021" lon="10.3734276"><ele>643.0</ele><time>2026-04-29T16:04:01.411Z</time></trkpt><trkpt lat="44.1666384" lon="10.3734708"><ele>643.0</ele><time>2026-04-29T16:04:02.414Z</time></trkpt><trkpt lat="44.16659" lon="10.3736016"><ele>643.0</ele><time>2026-04-29T16:04:04.419Z</time></trkpt><trkpt lat="44.1665741" lon="10.3737848"><ele>643.0</ele><time>2026-04-29T16:04:06.421Z</time></trkpt><trkpt lat="44.1665728" lon="10.3738873"><ele>643.0</ele><time>2026-04-29T16:04:07.416Z</time></trkpt><trkpt lat="44.1665767" lon="10.3739805"><ele>643.0</ele><time>2026-04-29T16:04:08.415Z</time></trkpt><trkpt lat="44.1665603" lon="10.3741345"><ele>640.6</ele><time>2026-04-29T16:04:10.409Z</time></trkpt><trkpt lat="44.1664642" lon="10.374212"><ele>638.1999999999999</ele><time>2026-04-29T16:04:12.416Z</time></trkpt><trkpt lat="44.1663988" lon="10.3742251"><ele>635.8</ele><time>2026-04-29T16:04:13.412Z</time></trkpt><trkpt lat="44.1662754" lon="10.3742513"><ele>633.4</ele><time>2026-04-29T16:04:15.417Z</time></trkpt><trkpt lat="44.1661509" lon="10.3742737"><ele>631.0</ele><time>2026-04-29T16:04:17.414Z</time></trkpt><trkpt lat="44.1660245" lon="10.3742914"><ele>631.0</ele><time>2026-04-29T16:04:19.404Z</time></trkpt><trkpt lat="44.1658928" lon="10.374307"><ele>631.0</ele><time>2026-04-29T16:04:21.406Z</time></trkpt><trkpt lat="44.165829" lon="10.3743208"><ele>631.0</ele><time>2026-04-29T16:04:22.4Z</time></trkpt><trkpt lat="44.1657024" lon="10.3743346"><ele>631.0</ele><time>2026-04-29T16:04:24.412Z</time></trkpt><trkpt lat="44.1656289" lon="10.3743145"><ele>631.0</ele><time>2026-04-29T16:04:26.412Z</time></trkpt><trkpt lat="44.1655688" lon="10.3743446"><ele>630.8</ele><time>2026-04-29T16:04:30.411Z</time></trkpt><trkpt lat="44.1655611" lon="10.3744382"><ele>630.6</ele><time>2026-04-29T16:04:33.401Z</time></trkpt><trkpt lat="44.1655597" lon="10.3745395"><ele>630.4</ele><time>2026-04-29T16:04:35.396Z</time></trkpt><trkpt lat="44.1655676" lon="10.3746846"><ele>630.2</ele><time>2026-04-29T16:04:37.431Z</time></trkpt><trkpt lat="44.1655603" lon="10.3748401"><ele>630.0</ele><time>2026-04-29T16:04:39.404Z</time></trkpt><trkpt lat="44.1655648" lon="10.3749919"><ele>629.8</ele><time>2026-04-29T16:04:41.409Z</time></trkpt><trkpt lat="44.1655786" lon="10.3751111"><ele>629.6</ele><time>2026-04-29T16:04:43.399Z</time></trkpt><trkpt lat="44.1656032" lon="10.3752444"><ele>629.4</ele><time>2026-04-29T16:04:45.404Z</time></trkpt><trkpt lat="44.1656358" lon="10.3754028"><ele>629.2</ele><time>2026-04-29T16:04:47.406Z</time></trkpt><trkpt lat="44.165681" lon="10.3755866"><ele>629.0</ele><time>2026-04-29T16:04:49.408Z</time></trkpt><trkpt lat="44.1657243" lon="10.3756804"><ele>627.5</ele><time>2026-04-29T16:04:50.405Z</time></trkpt><trkpt lat="44.1657781" lon="10.3757748"><ele>626.0</ele><time>2026-04-29T16:04:51.402Z</time></trkpt><trkpt lat="44.165839" lon="10.3758675"><ele>624.5</ele><time>2026-04-29T16:04:52.402Z</time></trkpt><trkpt lat="44.1658972" lon="10.3759509"><ele>623.0</ele><time>2026-04-29T16:04:53.43Z</time></trkpt><trkpt lat="44.1659432" lon="10.3760165"><ele>621.5</ele><time>2026-04-29T16:04:54.404Z</time></trkpt><trkpt lat="44.1660217" lon="10.3761442"><ele>620.0</ele><time>2026-04-29T16:04:56.419Z</time></trkpt><trkpt lat="44.1659627" lon="10.376317"><ele>617.8</ele><time>2026-04-29T16:04:58.431Z</time></trkpt><trkpt lat="44.1658969" lon="10.3763834"><ele>615.6</ele><time>2026-04-29T16:04:59.402Z</time></trkpt><trkpt lat="44.1658303" lon="10.3764524"><ele>613.4</ele><time>2026-04-29T16:05:00.42Z</time></trkpt><trkpt lat="44.1657563" lon="10.3765455"><ele>611.2</ele><time>2026-04-29T16:05:01.412Z</time></trkpt><trkpt lat="44.1656881" lon="10.3766484"><ele>609.0</ele><time>2026-04-29T16:05:02.414Z</time></trkpt><trkpt lat="44.1656175" lon="10.376768"><ele>609.0</ele><time>2026-04-29T16:05:03.41Z</time></trkpt><trkpt lat="44.1655351" lon="10.3768818"><ele>609.0</ele><time>2026-04-29T16:05:04.421Z</time></trkpt><trkpt lat="44.1654438" lon="10.3769771"><ele>609.0</ele><time>2026-04-29T16:05:05.409Z</time></trkpt><trkpt lat="44.165358" lon="10.37707"><ele>609.0</ele><time>2026-04-29T16:05:06.414Z</time></trkpt><trkpt lat="44.1652603" lon="10.3771605"><ele>606.5</ele><time>2026-04-29T16:05:07.413Z</time></trkpt><trkpt lat="44.1651647" lon="10.3772561"><ele>604.0</ele><time>2026-04-29T16:05:08.422Z</time></trkpt><trkpt lat="44.1650687" lon="10.3773658"><ele>601.5</ele><time>2026-04-29T16:05:09.413Z</time></trkpt><trkpt lat="44.1649711" lon="10.3774711"><ele>599.0</ele><time>2026-04-29T16:05:10.415Z</time></trkpt><trkpt lat="44.1648718" lon="10.3775752"><ele>599.2</ele><time>2026-04-29T16:05:11.407Z</time></trkpt><trkpt lat="44.1647876" lon="10.3776709"><ele>599.4</ele><time>2026-04-29T16:05:12.416Z</time></trkpt><trkpt lat="44.1647008" lon="10.3777714"><ele>599.6</ele><time>2026-04-29T16:05:13.418Z</time></trkpt><trkpt lat="44.1646147" lon="10.3778624"><ele>599.8</ele><time>2026-04-29T16:05:14.403Z</time></trkpt><trkpt lat="44.1645379" lon="10.377945"><ele>600.0</ele><time>2026-04-29T16:05:15.417Z</time></trkpt><trkpt lat="44.1644607" lon="10.3780454"><ele>597.5</ele><time>2026-04-29T16:05:16.41Z</time></trkpt><trkpt lat="44.1643953" lon="10.3781698"><ele>595.0</ele><time>2026-04-29T16:05:17.417Z</time></trkpt><trkpt lat="44.1643385" lon="10.3783093"><ele>592.5</ele><time>2026-04-29T16:05:18.408Z</time></trkpt><trkpt lat="44.164291" lon="10.3784632"><ele>590.0</ele><time>2026-04-29T16:05:19.408Z</time></trkpt><trkpt lat="44.1642565" lon="10.378626"><ele>590.0</ele><time>2026-04-29T16:05:20.412Z</time></trkpt><trkpt lat="44.1642403" lon="10.3787966"><ele>590.0</ele><time>2026-04-29T16:05:21.409Z</time></trkpt><trkpt lat="44.1642465" lon="10.3789646"><ele>590.0</ele><time>2026-04-29T16:05:22.417Z</time></trkpt><trkpt lat="44.1642632" lon="10.3791311"><ele>590.0</ele><time>2026-04-29T16:05:23.411Z</time></trkpt><trkpt lat="44.1642865" lon="10.3792918"><ele>589.5</ele><time>2026-04-29T16:05:24.418Z</time></trkpt><trkpt lat="44.164315" lon="10.3794296"><ele>589.0</ele><time>2026-04-29T16:05:25.412Z</time></trkpt><trkpt lat="44.1643494" lon="10.3795309"><ele>588.5</ele><time>2026-04-29T16:05:26.399Z</time></trkpt><trkpt lat="44.1643862" lon="10.3796278"><ele>588.0</ele><time>2026-04-29T16:05:27.414Z</time></trkpt><trkpt lat="44.1644273" lon="10.3797174"><ele>587.5</ele><time>2026-04-29T16:05:28.413Z</time></trkpt><trkpt lat="44.164468" lon="10.3798064"><ele>587.0</ele><time>2026-04-29T16:05:29.418Z</time></trkpt><trkpt lat="44.164506" lon="10.3799009"><ele>586.1666666666666</ele><time>2026-04-29T16:05:30.412Z</time></trkpt><trkpt lat="44.1645456" lon="10.379989"><ele>585.3333333333333</ele><time>2026-04-29T16:05:31.41Z</time></trkpt><trkpt lat="44.1645895" lon="10.38008"><ele>584.5</ele><time>2026-04-29T16:05:32.412Z</time></trkpt><trkpt lat="44.1646347" lon="10.3801719"><ele>583.6666666666666</ele><time>2026-04-29T16:05:33.404Z</time></trkpt><trkpt lat="44.1646831" lon="10.3802649"><ele>582.8333333333334</ele><time>2026-04-29T16:05:34.41Z</time></trkpt><trkpt lat="44.1647213" lon="10.3803548"><ele>582.0</ele><time>2026-04-29T16:05:35.411Z</time></trkpt><trkpt lat="44.1647514" lon="10.3804408"><ele>580.6666666666666</ele><time>2026-04-29T16:05:36.414Z</time></trkpt><trkpt lat="44.1647687" lon="10.3805311"><ele>579.3333333333334</ele><time>2026-04-29T16:05:37.417Z</time></trkpt><trkpt lat="44.164772" lon="10.3806427"><ele>578.0</ele><time>2026-04-29T16:05:38.41Z</time></trkpt><trkpt lat="44.1647714" lon="10.3807514"><ele>576.6666666666667</ele><time>2026-04-29T16:05:39.412Z</time></trkpt><trkpt lat="44.1647705" lon="10.3808491"><ele>575.3333333333334</ele><time>2026-04-29T16:05:40.408Z</time></trkpt><trkpt lat="44.1647637" lon="10.3810059"><ele>574.0</ele><time>2026-04-29T16:05:42.411Z</time></trkpt><trkpt lat="44.1647041" lon="10.3811298"><ele>574.0</ele><time>2026-04-29T16:05:44.406Z</time></trkpt><trkpt lat="44.1646467" lon="10.3811659"><ele>574.0</ele><time>2026-04-29T16:05:45.415Z</time></trkpt><trkpt lat="44.1645747" lon="10.3811901"><ele>574.0</ele><time>2026-04-29T16:05:46.407Z</time></trkpt><trkpt lat="44.1644935" lon="10.3812046"><ele>574.0</ele><time>2026-04-29T16:05:47.412Z</time></trkpt><trkpt lat="44.1644107" lon="10.3812201"><ele>574.0</ele><time>2026-04-29T16:05:48.426Z</time></trkpt><trkpt lat="44.1643389" lon="10.3812405"><ele>574.0</ele><time>2026-04-29T16:05:49.407Z</time></trkpt><trkpt lat="44.1642748" lon="10.3812791"><ele>574.0</ele><time>2026-04-29T16:05:50.41Z</time></trkpt><trkpt lat="44.1642204" lon="10.3813438"><ele>572.0</ele><time>2026-04-29T16:05:51.414Z</time></trkpt><trkpt lat="44.1641716" lon="10.3814343"><ele>570.0</ele><time>2026-04-29T16:05:52.419Z</time></trkpt><trkpt lat="44.1641305" lon="10.3815282"><ele>568.0</ele><time>2026-04-29T16:05:53.412Z</time></trkpt><trkpt lat="44.1640917" lon="10.3816067"><ele>566.0</ele><time>2026-04-29T16:05:54.41Z</time></trkpt><trkpt lat="44.164051" lon="10.3817611"><ele>564.0</ele><time>2026-04-29T16:05:56.405Z</time></trkpt><trkpt lat="44.1640989" lon="10.381929"><ele>564.0</ele><time>2026-04-29T16:05:58.41Z</time></trkpt><trkpt lat="44.1641399" lon="10.3820083"><ele>564.0</ele><time>2026-04-29T16:05:59.407Z</time></trkpt><trkpt lat="44.1641909" lon="10.3821374"><ele>564.0</ele><time>2026-04-29T16:06:01.411Z</time></trkpt><trkpt lat="44.164153" lon="10.382238"><ele>564.0</ele><time>2026-04-29T16:06:03.397Z</time></trkpt><trkpt lat="44.1640605" lon="10.3822284"><ele>564.0</ele><time>2026-04-29T16:06:05.412Z</time></trkpt><trkpt lat="44.1639912" lon="10.3821028"><ele>563.0</ele><time>2026-04-29T16:06:07.406Z</time></trkpt><trkpt lat="44.1639599" lon="10.3820215"><ele>562.0</ele><time>2026-04-29T16:06:08.408Z</time></trkpt><trkpt lat="44.1639141" lon="10.3819475"><ele>561.0</ele><time>2026-04-29T16:06:09.401Z</time></trkpt><trkpt lat="44.1638552" lon="10.3818998"><ele>560.0</ele><time>2026-04-29T16:06:10.404Z</time></trkpt><trkpt lat="44.1637807" lon="10.3818823"><ele>559.0</ele><time>2026-04-29T16:06:11.397Z</time></trkpt><trkpt lat="44.1637021" lon="10.381887"><ele>558.0</ele><time>2026-04-29T16:06:12.398Z</time></trkpt><trkpt lat="44.1636238" lon="10.381899"><ele>557.0</ele><time>2026-04-29T16:06:13.398Z</time></trkpt><trkpt lat="44.1635546" lon="10.3819194"><ele>557.0</ele><time>2026-04-29T16:06:14.399Z</time></trkpt><trkpt lat="44.1634629" lon="10.3820218"><ele>557.0</ele><time>2026-04-29T16:06:16.405Z</time></trkpt><trkpt lat="44.1634368" lon="10.3821917"><ele>557.0</ele><time>2026-04-29T16:06:18.398Z</time></trkpt><trkpt lat="44.1634723" lon="10.3823049"><ele>557.0</ele><time>2026-04-29T16:06:19.4Z</time></trkpt><trkpt lat="44.163506" lon="10.3824247"><ele>557.0</ele><time>2026-04-29T16:06:20.412Z</time></trkpt><trkpt lat="44.1635379" lon="10.3825538"><ele>555.5</ele><time>2026-04-29T16:06:21.402Z</time></trkpt><trkpt lat="44.1635621" lon="10.3826828"><ele>554.0</ele><time>2026-04-29T16:06:22.407Z</time></trkpt><trkpt lat="44.1635854" lon="10.3828066"><ele>552.5</ele><time>2026-04-29T16:06:23.404Z</time></trkpt><trkpt lat="44.1636061" lon="10.3829229"><ele>551.0</ele><time>2026-04-29T16:06:24.408Z</time></trkpt><trkpt lat="44.1636146" lon="10.3830138"><ele>549.5</ele><time>2026-04-29T16:06:25.414Z</time></trkpt><trkpt lat="44.163619" lon="10.38311"><ele>548.0</ele><time>2026-04-29T16:06:26.402Z</time></trkpt><trkpt lat="44.1636057" lon="10.3832819"><ele>548.3333333333333</ele><time>2026-04-29T16:06:28.415Z</time></trkpt><trkpt lat="44.163497" lon="10.3833573"><ele>548.6666666666666</ele><time>2026-04-29T16:06:30.405Z</time></trkpt><trkpt lat="44.1634373" lon="10.3833994"><ele>549.0</ele><time>2026-04-29T16:06:31.409Z</time></trkpt><trkpt lat="44.1633717" lon="10.3834389"><ele>549.3333333333334</ele><time>2026-04-29T16:06:32.409Z</time></trkpt><trkpt lat="44.1633052" lon="10.3834781"><ele>549.6666666666667</ele><time>2026-04-29T16:06:33.402Z</time></trkpt><trkpt lat="44.1632414" lon="10.3835193"><ele>550.0</ele><time>2026-04-29T16:06:34.411Z</time></trkpt><trkpt lat="44.1631765" lon="10.3835664"><ele>550.0</ele><time>2026-04-29T16:06:35.414Z</time></trkpt><trkpt lat="44.1631138" lon="10.3836212"><ele>550.0</ele><time>2026-04-29T16:06:36.404Z</time></trkpt><trkpt lat="44.1630575" lon="10.3836907"><ele>550.0</ele><time>2026-04-29T16:06:37.418Z</time></trkpt><trkpt lat="44.1630151" lon="10.3837773"><ele>550.0</ele><time>2026-04-29T16:06:38.404Z</time></trkpt><trkpt lat="44.1629927" lon="10.3838836"><ele>550.0</ele><time>2026-04-29T16:06:39.42Z</time></trkpt><trkpt lat="44.1629912" lon="10.3839871"><ele>550.0</ele><time>2026-04-29T16:06:40.406Z</time></trkpt><trkpt lat="44.1630118" lon="10.3840967"><ele>548.1666666666667</ele><time>2026-04-29T16:06:41.406Z</time></trkpt><trkpt lat="44.1630489" lon="10.384199"><ele>546.3333333333334</ele><time>2026-04-29T16:06:42.414Z</time></trkpt><trkpt lat="44.1630933" lon="10.3843001"><ele>544.5</ele><time>2026-04-29T16:06:43.405Z</time></trkpt><trkpt lat="44.163125" lon="10.3843997"><ele>542.6666666666666</ele><time>2026-04-29T16:06:44.404Z</time></trkpt><trkpt lat="44.1631476" lon="10.3845146"><ele>540.8333333333333</ele><time>2026-04-29T16:06:45.405Z</time></trkpt><trkpt lat="44.1631625" lon="10.3846377"><ele>539.0</ele><time>2026-04-29T16:06:46.418Z</time></trkpt><trkpt lat="44.163157" lon="10.3847537"><ele>537.4</ele><time>2026-04-29T16:06:47.402Z</time></trkpt><trkpt lat="44.1631354" lon="10.3848786"><ele>535.8</ele><time>2026-04-29T16:06:48.428Z</time></trkpt><trkpt lat="44.1631021" lon="10.3850078"><ele>534.2</ele><time>2026-04-29T16:06:49.435Z</time></trkpt><trkpt lat="44.1630696" lon="10.3851432"><ele>532.6</ele><time>2026-04-29T16:06:50.41Z</time></trkpt><trkpt lat="44.1630326" lon="10.3852814"><ele>531.0</ele><time>2026-04-29T16:06:51.406Z</time></trkpt><trkpt lat="44.1630027" lon="10.3854245"><ele>529.0</ele><time>2026-04-29T16:06:52.407Z</time></trkpt><trkpt lat="44.1629778" lon="10.3855739"><ele>527.0</ele><time>2026-04-29T16:06:53.406Z</time></trkpt><trkpt lat="44.1629555" lon="10.3857094"><ele>525.0</ele><time>2026-04-29T16:06:54.406Z</time></trkpt><trkpt lat="44.1629402" lon="10.3858296"><ele>523.0</ele><time>2026-04-29T16:06:55.424Z</time></trkpt><trkpt lat="44.1629246" lon="10.3859323"><ele>521.0</ele><time>2026-04-29T16:06:56.398Z</time></trkpt><trkpt lat="44.1629077" lon="10.3860327"><ele>519.0</ele><time>2026-04-29T16:06:57.402Z</time></trkpt><trkpt lat="44.1628723" lon="10.3861261"><ele>519.0</ele><time>2026-04-29T16:06:58.397Z</time></trkpt><trkpt lat="44.1628233" lon="10.386206"><ele>519.0</ele><time>2026-04-29T16:06:59.41Z</time></trkpt><trkpt lat="44.1627692" lon="10.3862828"><ele>519.0</ele><time>2026-04-29T16:07:00.408Z</time></trkpt><trkpt lat="44.162724" lon="10.3863466"><ele>519.0</ele><time>2026-04-29T16:07:01.403Z</time></trkpt><trkpt lat="44.1626689" lon="10.3864818"><ele>519.0</ele><time>2026-04-29T16:07:03.418Z</time></trkpt><trkpt lat="44.1626845" lon="10.3866614"><ele>517.8333333333334</ele><time>2026-04-29T16:07:05.413Z</time></trkpt><trkpt lat="44.1627072" lon="10.3867648"><ele>516.6666666666666</ele><time>2026-04-29T16:07:06.406Z</time></trkpt><trkpt lat="44.1627241" lon="10.3868757"><ele>515.5</ele><time>2026-04-29T16:07:07.415Z</time></trkpt><trkpt lat="44.1627386" lon="10.3869806"><ele>514.3333333333333</ele><time>2026-04-29T16:07:08.409Z</time></trkpt><trkpt lat="44.1627628" lon="10.3870864"><ele>513.1666666666666</ele><time>2026-04-29T16:07:09.411Z</time></trkpt><trkpt lat="44.1628113" lon="10.3871731"><ele>512.0</ele><time>2026-04-29T16:07:10.406Z</time></trkpt><trkpt lat="44.1628666" lon="10.3872324"><ele>510.8333333333333</ele><time>2026-04-29T16:07:11.403Z</time></trkpt><trkpt lat="44.1629445" lon="10.3872755"><ele>509.66666666666663</ele><time>2026-04-29T16:07:12.406Z</time></trkpt><trkpt lat="44.1630227" lon="10.3872962"><ele>508.5</ele><time>2026-04-29T16:07:13.401Z</time></trkpt><trkpt lat="44.1630982" lon="10.3873056"><ele>507.33333333333337</ele><time>2026-04-29T16:07:14.409Z</time></trkpt><trkpt lat="44.1631669" lon="10.3873087"><ele>506.1666666666667</ele><time>2026-04-29T16:07:15.408Z</time></trkpt><trkpt lat="44.1632758" lon="10.3873423"><ele>505.0</ele><time>2026-04-29T16:07:17.412Z</time></trkpt><trkpt lat="44.1633339" lon="10.3874687"><ele>504.4</ele><time>2026-04-29T16:07:19.404Z</time></trkpt><trkpt lat="44.1633276" lon="10.3875616"><ele>503.8</ele><time>2026-04-29T16:07:20.407Z</time></trkpt><trkpt lat="44.1633178" lon="10.3877288"><ele>503.20000000000005</ele><time>2026-04-29T16:07:22.414Z</time></trkpt><trkpt lat="44.1633158" lon="10.3878846"><ele>502.6</ele><time>2026-04-29T16:07:24.416Z</time></trkpt><trkpt lat="44.1633104" lon="10.3880212"><ele>502.0</ele><time>2026-04-29T16:07:26.408Z</time></trkpt><trkpt lat="44.1633066" lon="10.3881515"><ele>502.99999999999994</ele><time>2026-04-29T16:07:28.399Z</time></trkpt><trkpt lat="44.1632844" lon="10.3882577"><ele>504.0</ele><time>2026-04-29T16:07:30.41Z</time></trkpt><trkpt lat="44.1632486" lon="10.3883336"><ele>504.99999999999994</ele><time>2026-04-29T16:07:33.41Z</time></trkpt><trkpt lat="44.1631979" lon="10.3883957"><ele>505.99999999999994</ele><time>2026-04-29T16:07:37.41Z</time></trkpt><trkpt lat="44.1631485" lon="10.3884611"><ele>507.0</ele><time>2026-04-29T16:07:41.409Z</time></trkpt><trkpt lat="44.1630953" lon="10.3885111"><ele>507.99999999999994</ele><time>2026-04-29T16:07:45.412Z</time></trkpt><trkpt lat="44.1630283" lon="10.3885244"><ele>508.99999999999994</ele><time>2026-04-29T16:07:49.402Z</time></trkpt><trkpt lat="44.1629593" lon="10.388527"><ele>510.71428571428567</ele><time>2026-04-29T16:07:53.402Z</time></trkpt><trkpt lat="44.1628905" lon="10.3885086"><ele>512.4285714285714</ele><time>2026-04-29T16:07:57.415Z</time></trkpt><trkpt lat="44.1628196" lon="10.3885077"><ele>514.1428571428571</ele><time>2026-04-29T16:08:01.405Z</time></trkpt><trkpt lat="44.1627471" lon="10.3885049"><ele>515.8571428571429</ele><time>2026-04-29T16:08:05.412Z</time></trkpt><trkpt lat="44.1626756" lon="10.3884838"><ele>517.5714285714286</ele><time>2026-04-29T16:08:09.411Z</time></trkpt><trkpt lat="44.162604" lon="10.3884715"><ele>519.2857142857142</ele><time>2026-04-29T16:08:13.408Z</time></trkpt><trkpt lat="44.162534" lon="10.3884499"><ele>521.0</ele><time>2026-04-29T16:08:17.414Z</time></trkpt><trkpt lat="44.1624688" lon="10.3884084"><ele>521.0</ele><time>2026-04-29T16:08:21.405Z</time></trkpt><trkpt lat="44.1624043" lon="10.3883837"><ele>521.0</ele><time>2026-04-29T16:08:25.412Z</time></trkpt><trkpt lat="44.1623431" lon="10.3883214"><ele>521.0</ele><time>2026-04-29T16:08:29.405Z</time></trkpt><trkpt lat="44.1622696" lon="10.3882747"><ele>521.0</ele><time>2026-04-29T16:08:33.411Z</time></trkpt><trkpt lat="44.1621969" lon="10.388247"><ele>521.0</ele><time>2026-04-29T16:08:37.409Z</time></trkpt><trkpt lat="44.1621345" lon="10.3882053"><ele>521.0</ele><time>2026-04-29T16:08:41.414Z</time></trkpt><trkpt lat="44.1620679" lon="10.3881608"><ele>521.0</ele><time>2026-04-29T16:08:45.411Z</time></trkpt><trkpt lat="44.1620037" lon="10.3881136"><ele>520.2857142857142</ele><time>2026-04-29T16:08:49.412Z</time></trkpt><trkpt lat="44.1619383" lon="10.3880672"><ele>519.5714285714286</ele><time>2026-04-29T16:08:53.41Z</time></trkpt><trkpt lat="44.1618787" lon="10.3880082"><ele>518.8571428571429</ele><time>2026-04-29T16:08:57.44Z</time></trkpt><trkpt lat="44.1618203" lon="10.3879442"><ele>518.1428571428571</ele><time>2026-04-29T16:09:01.413Z</time></trkpt><trkpt lat="44.1617585" lon="10.3878866"><ele>517.4285714285714</ele><time>2026-04-29T16:09:05.41Z</time></trkpt><trkpt lat="44.1616938" lon="10.3878422"><ele>516.7142857142857</ele><time>2026-04-29T16:09:09.411Z</time></trkpt><trkpt lat="44.1616303" lon="10.3878107"><ele>516.0</ele><time>2026-04-29T16:09:13.408Z</time></trkpt><trkpt lat="44.1615648" lon="10.3878465"><ele>515.4285714285713</ele><time>2026-04-29T16:09:17.415Z</time></trkpt><trkpt lat="44.1615133" lon="10.3879231"><ele>514.8571428571429</ele><time>2026-04-29T16:09:21.4Z</time></trkpt><trkpt lat="44.1614642" lon="10.3880077"><ele>514.2857142857142</ele><time>2026-04-29T16:09:25.41Z</time></trkpt><trkpt lat="44.1614215" lon="10.3880995"><ele>513.7142857142857</ele><time>2026-04-29T16:09:29.433Z</time></trkpt><trkpt lat="44.1613866" lon="10.3881974"><ele>513.1428571428571</ele><time>2026-04-29T16:09:33.406Z</time></trkpt><trkpt lat="44.1613552" lon="10.3882813"><ele>512.5714285714286</ele><time>2026-04-29T16:09:36.412Z</time></trkpt><trkpt lat="44.1613046" lon="10.3883464"><ele>512.0</ele><time>2026-04-29T16:09:39.4Z</time></trkpt><trkpt lat="44.1612378" lon="10.3883748"><ele>514.3333333333333</ele><time>2026-04-29T16:09:42.399Z</time></trkpt><trkpt lat="44.1611589" lon="10.3883991"><ele>516.6666666666666</ele><time>2026-04-29T16:09:46.41Z</time></trkpt><trkpt lat="44.1610878" lon="10.3884127"><ele>519.0</ele><time>2026-04-29T16:09:49.405Z</time></trkpt><trkpt lat="44.1610147" lon="10.3884288"><ele>521.3333333333334</ele><time>2026-04-29T16:09:52.4Z</time></trkpt><trkpt lat="44.1609354" lon="10.3884556"><ele>523.6666666666667</ele><time>2026-04-29T16:09:55.408Z</time></trkpt><trkpt lat="44.1608514" lon="10.3884882"><ele>526.0</ele><time>2026-04-29T16:09:58.399Z</time></trkpt><trkpt lat="44.1607654" lon="10.3885103"><ele>526.1666666666667</ele><time>2026-04-29T16:10:01.401Z</time></trkpt><trkpt lat="44.1606839" lon="10.3885397"><ele>526.3333333333334</ele><time>2026-04-29T16:10:04.397Z</time></trkpt><trkpt lat="44.1606039" lon="10.3885602"><ele>526.5</ele><time>2026-04-29T16:10:07.404Z</time></trkpt><trkpt lat="44.1605261" lon="10.3885779"><ele>526.6666666666666</ele><time>2026-04-29T16:10:10.405Z</time></trkpt><trkpt lat="44.1604488" lon="10.3885819"><ele>526.8333333333333</ele><time>2026-04-29T16:10:13.408Z</time></trkpt><trkpt lat="44.1603698" lon="10.3885505"><ele>527.0</ele><time>2026-04-29T16:10:16.398Z</time></trkpt><trkpt lat="44.1602929" lon="10.3885339"><ele>527.0</ele><time>2026-04-29T16:10:19.423Z</time></trkpt><trkpt lat="44.1602327" lon="10.3885635"><ele>527.0</ele><time>2026-04-29T16:10:27.407Z</time></trkpt><trkpt lat="44.1602363" lon="10.3886681"><ele>527.0</ele><time>2026-04-29T16:10:32.405Z</time></trkpt><trkpt lat="44.1602593" lon="10.3887768"><ele>527.0</ele><time>2026-04-29T16:10:35.42Z</time></trkpt><trkpt lat="44.1602869" lon="10.388893"><ele>527.0</ele><time>2026-04-29T16:10:38.41Z</time></trkpt><trkpt lat="44.1603244" lon="10.3890131"><ele>527.0</ele><time>2026-04-29T16:10:41.402Z</time></trkpt><trkpt lat="44.1603486" lon="10.3890942"><ele>527.1666666666666</ele><time>2026-04-29T16:10:43.397Z</time></trkpt><trkpt lat="44.1603682" lon="10.389179"><ele>527.3333333333333</ele><time>2026-04-29T16:10:45.415Z</time></trkpt><trkpt lat="44.1603889" lon="10.389263"><ele>527.5</ele><time>2026-04-29T16:10:47.405Z</time></trkpt><trkpt lat="44.1604266" lon="10.389383"><ele>527.6666666666666</ele><time>2026-04-29T16:10:50.406Z</time></trkpt><trkpt lat="44.1604548" lon="10.3895078"><ele>527.8333333333334</ele><time>2026-04-29T16:10:53.415Z</time></trkpt><trkpt lat="44.1604708" lon="10.3895948"><ele>528.0</ele><time>2026-04-29T16:10:55.405Z</time></trkpt><trkpt lat="44.1605027" lon="10.3897183"><ele>527.7142857142857</ele><time>2026-04-29T16:10:58.412Z</time></trkpt><trkpt lat="44.160525" lon="10.3898033"><ele>527.4285714285714</ele><time>2026-04-29T16:11:00.41Z</time></trkpt><trkpt lat="44.1605487" lon="10.3898873"><ele>527.1428571428571</ele><time>2026-04-29T16:11:02.41Z</time></trkpt><trkpt lat="44.1605732" lon="10.3899723"><ele>526.8571428571429</ele><time>2026-04-29T16:11:04.402Z</time></trkpt><trkpt lat="44.1605972" lon="10.3900611"><ele>526.5714285714286</ele><time>2026-04-29T16:11:06.409Z</time></trkpt><trkpt lat="44.1606152" lon="10.3901525"><ele>526.2857142857142</ele><time>2026-04-29T16:11:08.402Z</time></trkpt><trkpt lat="44.1606379" lon="10.3902406"><ele>526.0</ele><time>2026-04-29T16:11:10.407Z</time></trkpt><trkpt lat="44.1606605" lon="10.390328"><ele>526.0</ele><time>2026-04-29T16:11:12.412Z</time></trkpt><trkpt lat="44.1606784" lon="10.3904183"><ele>526.0</ele><time>2026-04-29T16:11:14.406Z</time></trkpt><trkpt lat="44.1606979" lon="10.3905105"><ele>526.0</ele><time>2026-04-29T16:11:16.41Z</time></trkpt><trkpt lat="44.1607202" lon="10.3906023"><ele>526.0</ele><time>2026-04-29T16:11:18.408Z</time></trkpt><trkpt lat="44.1607431" lon="10.3906904"><ele>526.0</ele><time>2026-04-29T16:11:20.411Z</time></trkpt><trkpt lat="44.1607686" lon="10.3907779"><ele>526.0</ele><time>2026-04-29T16:11:22.407Z</time></trkpt><trkpt lat="44.1607947" lon="10.390862"><ele>526.0</ele><time>2026-04-29T16:11:24.413Z</time></trkpt><trkpt lat="44.1608191" lon="10.3909538"><ele>526.2857142857142</ele><time>2026-04-29T16:11:26.42Z</time></trkpt><trkpt lat="44.1608403" lon="10.3910441"><ele>526.5714285714286</ele><time>2026-04-29T16:11:28.412Z</time></trkpt><trkpt lat="44.1608604" lon="10.391137"><ele>526.8571428571429</ele><time>2026-04-29T16:11:30.401Z</time></trkpt><trkpt lat="44.1608843" lon="10.3912235"><ele>527.1428571428571</ele><time>2026-04-29T16:11:32.406Z</time></trkpt><trkpt lat="44.1609081" lon="10.3913114"><ele>527.4285714285714</ele><time>2026-04-29T16:11:34.406Z</time></trkpt><trkpt lat="44.1609425" lon="10.3914368"><ele>527.7142857142857</ele><time>2026-04-29T16:11:37.41Z</time></trkpt><trkpt lat="44.1609681" lon="10.3915309"><ele>528.0</ele><time>2026-04-29T16:11:39.408Z</time></trkpt><trkpt lat="44.1609886" lon="10.3916277"><ele>528.0</ele><time>2026-04-29T16:11:41.405Z</time></trkpt><trkpt lat="44.1610108" lon="10.3917196"><ele>528.0</ele><time>2026-04-29T16:11:43.42Z</time></trkpt><trkpt lat="44.1610343" lon="10.3918108"><ele>528.0</ele><time>2026-04-29T16:11:45.408Z</time></trkpt><trkpt lat="44.1610604" lon="10.3919073"><ele>528.0</ele><time>2026-04-29T16:11:47.419Z</time></trkpt><trkpt lat="44.1610894" lon="10.3920035"><ele>528.0</ele><time>2026-04-29T16:11:49.407Z</time></trkpt><trkpt lat="44.1611137" lon="10.3920905"><ele>528.0</ele><time>2026-04-29T16:11:51.406Z</time></trkpt><trkpt lat="44.1611376" lon="10.3921776"><ele>528.0</ele><time>2026-04-29T16:11:53.409Z</time></trkpt><trkpt lat="44.1611602" lon="10.3922695"><ele>528.1428571428571</ele><time>2026-04-29T16:11:55.419Z</time></trkpt><trkpt lat="44.1611845" lon="10.3923598"><ele>528.2857142857143</ele><time>2026-04-29T16:11:57.412Z</time></trkpt><trkpt lat="44.1612068" lon="10.3924487"><ele>528.4285714285714</ele><time>2026-04-29T16:11:59.408Z</time></trkpt><trkpt lat="44.161228" lon="10.3925394"><ele>528.5714285714286</ele><time>2026-04-29T16:12:01.41Z</time></trkpt><trkpt lat="44.1612481" lon="10.3926303"><ele>528.7142857142857</ele><time>2026-04-29T16:12:03.417Z</time></trkpt><trkpt lat="44.1612673" lon="10.3927226"><ele>528.8571428571429</ele><time>2026-04-29T16:12:05.411Z</time></trkpt><trkpt lat="44.1612889" lon="10.3928089"><ele>529.0</ele><time>2026-04-29T16:12:07.408Z</time></trkpt><trkpt lat="44.1613112" lon="10.3928995"><ele>529.0</ele><time>2026-04-29T16:12:09.405Z</time></trkpt><trkpt lat="44.1613312" lon="10.3929943"><ele>529.0</ele><time>2026-04-29T16:12:11.409Z</time></trkpt><trkpt lat="44.1613569" lon="10.3930864"><ele>529.0</ele><time>2026-04-29T16:12:13.411Z</time></trkpt><trkpt lat="44.1613811" lon="10.3931775"><ele>529.0</ele><time>2026-04-29T16:12:15.408Z</time></trkpt><trkpt lat="44.161404" lon="10.3932678"><ele>529.0</ele><time>2026-04-29T16:12:17.417Z</time></trkpt><trkpt lat="44.161426" lon="10.3933585"><ele>529.0</ele><time>2026-04-29T16:12:19.399Z</time></trkpt><trkpt lat="44.1614515" lon="10.3934487"><ele>529.0</ele><time>2026-04-29T16:12:21.397Z</time></trkpt><trkpt lat="44.161477" lon="10.3935392"><ele>528.1428571428571</ele><time>2026-04-29T16:12:23.412Z</time></trkpt><trkpt lat="44.1614969" lon="10.3936317"><ele>527.2857142857142</ele><time>2026-04-29T16:12:25.419Z</time></trkpt><trkpt lat="44.1615165" lon="10.393725"><ele>526.4285714285713</ele><time>2026-04-29T16:12:27.413Z</time></trkpt><trkpt lat="44.1615368" lon="10.3938201"><ele>525.5714285714286</ele><time>2026-04-29T16:12:29.407Z</time></trkpt><trkpt lat="44.1615615" lon="10.3939146"><ele>524.7142857142857</ele><time>2026-04-29T16:12:31.406Z</time></trkpt><trkpt lat="44.1615857" lon="10.3940092"><ele>523.8571428571428</ele><time>2026-04-29T16:12:33.402Z</time></trkpt><trkpt lat="44.1616116" lon="10.3941007"><ele>523.0</ele><time>2026-04-29T16:12:35.416Z</time></trkpt><trkpt lat="44.1616375" lon="10.3941916"><ele>524.7142857142857</ele><time>2026-04-29T16:12:37.409Z</time></trkpt><trkpt lat="44.1616541" lon="10.394283"><ele>526.4285714285714</ele><time>2026-04-29T16:12:39.409Z</time></trkpt><trkpt lat="44.1616761" lon="10.3943737"><ele>528.1428571428571</ele><time>2026-04-29T16:12:41.406Z</time></trkpt><trkpt lat="44.1616978" lon="10.3944635"><ele>529.8571428571429</ele><time>2026-04-29T16:12:43.41Z</time></trkpt><trkpt lat="44.1617224" lon="10.3945501"><ele>531.5714285714286</ele><time>2026-04-29T16:12:45.418Z</time></trkpt><trkpt lat="44.1617484" lon="10.3946361"><ele>533.2857142857142</ele><time>2026-04-29T16:12:47.425Z</time></trkpt><trkpt lat="44.1617779" lon="10.3947203"><ele>535.0</ele><time>2026-04-29T16:12:49.413Z</time></trkpt><trkpt lat="44.1618041" lon="10.3948097"><ele>535.0</ele><time>2026-04-29T16:12:51.413Z</time></trkpt><trkpt lat="44.1618306" lon="10.3949007"><ele>535.0</ele><time>2026-04-29T16:12:53.404Z</time></trkpt><trkpt lat="44.1618566" lon="10.394994"><ele>535.0</ele><time>2026-04-29T16:12:55.408Z</time></trkpt><trkpt lat="44.1618764" lon="10.3950891"><ele>535.0</ele><time>2026-04-29T16:12:57.41Z</time></trkpt><trkpt lat="44.1618896" lon="10.3951898"><ele>535.0</ele><time>2026-04-29T16:12:59.414Z</time></trkpt><trkpt lat="44.1619118" lon="10.3952921"><ele>535.0</ele><time>2026-04-29T16:13:01.413Z</time></trkpt><trkpt lat="44.161922" lon="10.3954049"><ele>535.0</ele><time>2026-04-29T16:13:03.412Z</time></trkpt><trkpt lat="44.1619075" lon="10.3955182"><ele>534.8333333333334</ele><time>2026-04-29T16:13:05.413Z</time></trkpt><trkpt lat="44.1618671" lon="10.3956252"><ele>534.6666666666667</ele><time>2026-04-29T16:13:07.41Z</time></trkpt><trkpt lat="44.1618024" lon="10.3957051"><ele>534.5</ele><time>2026-04-29T16:13:09.413Z</time></trkpt><trkpt lat="44.1617281" lon="10.3957518"><ele>534.3333333333334</ele><time>2026-04-29T16:13:11.411Z</time></trkpt><trkpt lat="44.1616576" lon="10.3957913"><ele>534.1666666666666</ele><time>2026-04-29T16:13:13.408Z</time></trkpt><trkpt lat="44.1615909" lon="10.3958234"><ele>534.0</ele><time>2026-04-29T16:13:15.404Z</time></trkpt><trkpt lat="44.1615268" lon="10.3958409"><ele>534.6666666666666</ele><time>2026-04-29T16:13:17.424Z</time></trkpt><trkpt lat="44.1614572" lon="10.3958388"><ele>535.3333333333334</ele><time>2026-04-29T16:13:19.41Z</time></trkpt><trkpt lat="44.1613898" lon="10.3958311"><ele>536.0</ele><time>2026-04-29T16:13:21.407Z</time></trkpt><trkpt lat="44.1613156" lon="10.3957901"><ele>536.6666666666667</ele><time>2026-04-29T16:13:24.409Z</time></trkpt><trkpt lat="44.1612463" lon="10.3957462"><ele>537.3333333333334</ele><time>2026-04-29T16:13:27.407Z</time></trkpt><trkpt lat="44.1611703" lon="10.3957031"><ele>538.0</ele><time>2026-04-29T16:13:30.415Z</time></trkpt><trkpt lat="44.1610929" lon="10.3956673"><ele>538.0</ele><time>2026-04-29T16:13:33.408Z</time></trkpt><trkpt lat="44.1610195" lon="10.3956236"><ele>538.0</ele><time>2026-04-29T16:13:36.405Z</time></trkpt><trkpt lat="44.1609493" lon="10.3955818"><ele>538.0</ele><time>2026-04-29T16:13:39.404Z</time></trkpt><trkpt lat="44.160875" lon="10.3955417"><ele>538.0</ele><time>2026-04-29T16:13:42.4Z</time></trkpt><trkpt lat="44.160801" lon="10.3955036"><ele>538.0</ele><time>2026-04-29T16:13:45.412Z</time></trkpt><trkpt lat="44.1607254" lon="10.3954631"><ele>538.0</ele><time>2026-04-29T16:13:48.421Z</time></trkpt><trkpt lat="44.1606491" lon="10.3954255"><ele>538.0</ele><time>2026-04-29T16:13:51.405Z</time></trkpt><trkpt lat="44.1605715" lon="10.3954091"><ele>538.0</ele><time>2026-04-29T16:13:54.398Z</time></trkpt><trkpt lat="44.1604886" lon="10.3954229"><ele>538.0</ele><time>2026-04-29T16:13:57.398Z</time></trkpt><trkpt lat="44.1604088" lon="10.395459"><ele>538.0</ele><time>2026-04-29T16:14:00.401Z</time></trkpt><trkpt lat="44.1603368" lon="10.3955175"><ele>538.0</ele><time>2026-04-29T16:14:03.413Z</time></trkpt><trkpt lat="44.1602752" lon="10.3955864"><ele>538.0</ele><time>2026-04-29T16:14:06.404Z</time></trkpt><trkpt lat="44.1602277" lon="10.395676"><ele>538.0</ele><time>2026-04-29T16:14:09.412Z</time></trkpt><trkpt lat="44.1601879" lon="10.3957707"><ele>538.0</ele><time>2026-04-29T16:14:12.414Z</time></trkpt><trkpt lat="44.160151" lon="10.3958744"><ele>538.0</ele><time>2026-04-29T16:14:15.408Z</time></trkpt><trkpt lat="44.1601143" lon="10.3959742"><ele>538.0</ele><time>2026-04-29T16:14:18.41Z</time></trkpt><trkpt lat="44.1600749" lon="10.3960713"><ele>538.0</ele><time>2026-04-29T16:14:21.411Z</time></trkpt><trkpt lat="44.1600337" lon="10.3961673"><ele>538.0</ele><time>2026-04-29T16:14:24.402Z</time></trkpt><trkpt lat="44.160005" lon="10.3962526"><ele>538.6666666666667</ele><time>2026-04-29T16:14:27.413Z</time></trkpt><trkpt lat="44.1599687" lon="10.3963564"><ele>539.3333333333334</ele><time>2026-04-29T16:14:30.416Z</time></trkpt><trkpt lat="44.1599274" lon="10.3964572"><ele>540.0</ele><time>2026-04-29T16:14:33.42Z</time></trkpt><trkpt lat="44.1598849" lon="10.3965445"><ele>540.6666666666666</ele><time>2026-04-29T16:14:36.401Z</time></trkpt><trkpt lat="44.1598514" lon="10.3966389"><ele>541.3333333333333</ele><time>2026-04-29T16:14:39.409Z</time></trkpt><trkpt lat="44.1598166" lon="10.3967355"><ele>542.0</ele><time>2026-04-29T16:14:42.406Z</time></trkpt><trkpt lat="44.1597817" lon="10.3968279"><ele>542.0</ele><time>2026-04-29T16:14:45.411Z</time></trkpt><trkpt lat="44.1597421" lon="10.3969275"><ele>542.0</ele><time>2026-04-29T16:14:48.412Z</time></trkpt><trkpt lat="44.1597119" lon="10.3970247"><ele>542.0</ele><time>2026-04-29T16:14:51.408Z</time></trkpt><trkpt lat="44.1596863" lon="10.3971324"><ele>542.0</ele><time>2026-04-29T16:14:54.416Z</time></trkpt><trkpt lat="44.1596506" lon="10.3972304"><ele>542.0</ele><time>2026-04-29T16:14:57.414Z</time></trkpt><trkpt lat="44.1596204" lon="10.3973286"><ele>542.0</ele><time>2026-04-29T16:15:00.412Z</time></trkpt><trkpt lat="44.1595894" lon="10.3974291"><ele>542.5</ele><time>2026-04-29T16:15:03.4Z</time></trkpt><trkpt lat="44.1595567" lon="10.3975268"><ele>543.0</ele><time>2026-04-29T16:15:06.414Z</time></trkpt><trkpt lat="44.1595398" lon="10.397629"><ele>543.5</ele><time>2026-04-29T16:15:09.405Z</time></trkpt><trkpt lat="44.1595405" lon="10.3977423"><ele>544.0</ele><time>2026-04-29T16:15:12.405Z</time></trkpt><trkpt lat="44.1595521" lon="10.3978581"><ele>544.5</ele><time>2026-04-29T16:15:15.416Z</time></trkpt><trkpt lat="44.15956" lon="10.3979709"><ele>545.0</ele><time>2026-04-29T16:15:18.42Z</time></trkpt><trkpt lat="44.1595706" lon="10.3980723"><ele>545.1666666666666</ele><time>2026-04-29T16:15:21.406Z</time></trkpt><trkpt lat="44.15958" lon="10.3981746"><ele>545.3333333333333</ele><time>2026-04-29T16:15:24.414Z</time></trkpt><trkpt lat="44.1595898" lon="10.3982815"><ele>545.5</ele><time>2026-04-29T16:15:27.415Z</time></trkpt><trkpt lat="44.1596092" lon="10.3983951"><ele>545.6666666666666</ele><time>2026-04-29T16:15:30.424Z</time></trkpt><trkpt lat="44.1596517" lon="10.3985075"><ele>545.8333333333334</ele><time>2026-04-29T16:15:33.399Z</time></trkpt><trkpt lat="44.1597027" lon="10.3986138"><ele>546.0</ele><time>2026-04-29T16:15:36.416Z</time></trkpt><trkpt lat="44.1597513" lon="10.3987196"><ele>546.0</ele><time>2026-04-29T16:15:39.413Z</time></trkpt><trkpt lat="44.1597994" lon="10.3988283"><ele>546.0</ele><time>2026-04-29T16:15:42.406Z</time></trkpt><trkpt lat="44.159847" lon="10.39894"><ele>546.0</ele><time>2026-04-29T16:15:45.405Z</time></trkpt><trkpt lat="44.1599007" lon="10.3990447"><ele>546.0</ele><time>2026-04-29T16:15:48.41Z</time></trkpt><trkpt lat="44.1599532" lon="10.3991534"><ele>546.0</ele><time>2026-04-29T16:15:51.418Z</time></trkpt><trkpt lat="44.1599879" lon="10.3992271"><ele>546.0</ele><time>2026-04-29T16:15:53.411Z</time></trkpt><trkpt lat="44.1600242" lon="10.3993008"><ele>546.0</ele><time>2026-04-29T16:15:55.417Z</time></trkpt><trkpt lat="44.1600645" lon="10.39937"><ele>546.0</ele><time>2026-04-29T16:15:57.41Z</time></trkpt><trkpt lat="44.1601092" lon="10.3994346"><ele>546.0</ele><time>2026-04-29T16:15:59.419Z</time></trkpt><trkpt lat="44.1601824" lon="10.3995135"><ele>546.0</ele><time>2026-04-29T16:16:02.402Z</time></trkpt><trkpt lat="44.1602568" lon="10.3995544"><ele>546.0</ele><time>2026-04-29T16:16:05.412Z</time></trkpt><trkpt lat="44.1603416" lon="10.3995906"><ele>546.0</ele><time>2026-04-29T16:16:08.412Z</time></trkpt><trkpt lat="44.1604039" lon="10.3996201"><ele>546.0</ele><time>2026-04-29T16:16:10.421Z</time></trkpt><trkpt lat="44.1604883" lon="10.3996593"><ele>546.0</ele><time>2026-04-29T16:16:13.404Z</time></trkpt><trkpt lat="44.1605777" lon="10.3996819"><ele>546.0</ele><time>2026-04-29T16:16:16.412Z</time></trkpt><trkpt lat="44.1606703" lon="10.3996957"><ele>546.0</ele><time>2026-04-29T16:16:19.41Z</time></trkpt><trkpt lat="44.1607631" lon="10.3997067"><ele>546.0</ele><time>2026-04-29T16:16:22.414Z</time></trkpt><trkpt lat="44.1608569" lon="10.3997024"><ele>546.2857142857143</ele><time>2026-04-29T16:16:25.416Z</time></trkpt><trkpt lat="44.1609216" lon="10.3996946"><ele>546.5714285714286</ele><time>2026-04-29T16:16:27.409Z</time></trkpt><trkpt lat="44.1609897" lon="10.3996787"><ele>546.8571428571429</ele><time>2026-04-29T16:16:29.41Z</time></trkpt><trkpt lat="44.1610554" lon="10.3996604"><ele>547.1428571428571</ele><time>2026-04-29T16:16:31.409Z</time></trkpt><trkpt lat="44.1611496" lon="10.3996478"><ele>547.4285714285714</ele><time>2026-04-29T16:16:34.425Z</time></trkpt><trkpt lat="44.1612162" lon="10.3996362"><ele>547.7142857142858</ele><time>2026-04-29T16:16:36.409Z</time></trkpt><trkpt lat="44.1612798" lon="10.3996202"><ele>548.0</ele><time>2026-04-29T16:16:38.405Z</time></trkpt><trkpt lat="44.161346" lon="10.3996019"><ele>549.4285714285714</ele><time>2026-04-29T16:16:40.402Z</time></trkpt><trkpt lat="44.1614108" lon="10.3995767"><ele>550.8571428571429</ele><time>2026-04-29T16:16:42.398Z</time></trkpt><trkpt lat="44.1614787" lon="10.3995547"><ele>552.2857142857142</ele><time>2026-04-29T16:16:44.398Z</time></trkpt><trkpt lat="44.1615457" lon="10.3995328"><ele>553.7142857142858</ele><time>2026-04-29T16:16:46.412Z</time></trkpt><trkpt lat="44.1616133" lon="10.3995288"><ele>555.1428571428571</ele><time>2026-04-29T16:16:48.408Z</time></trkpt><trkpt lat="44.1616819" lon="10.3995223"><ele>556.5714285714286</ele><time>2026-04-29T16:16:50.407Z</time></trkpt><trkpt lat="44.1617555" lon="10.3995237"><ele>558.0</ele><time>2026-04-29T16:16:52.41Z</time></trkpt><trkpt lat="44.1618195" lon="10.3995437"><ele>558.8571428571428</ele><time>2026-04-29T16:16:54.417Z</time></trkpt><trkpt lat="44.1618809" lon="10.3995755"><ele>559.7142857142857</ele><time>2026-04-29T16:16:56.414Z</time></trkpt><trkpt lat="44.1619368" lon="10.3996274"><ele>560.5714285714286</ele><time>2026-04-29T16:16:58.401Z</time></trkpt><trkpt lat="44.1619856" lon="10.3996895"><ele>561.4285714285713</ele><time>2026-04-29T16:17:00.417Z</time></trkpt><trkpt lat="44.1620284" lon="10.3997579"><ele>562.2857142857142</ele><time>2026-04-29T16:17:02.41Z</time></trkpt><trkpt lat="44.1620718" lon="10.399826"><ele>563.1428571428571</ele><time>2026-04-29T16:17:04.409Z</time></trkpt><trkpt lat="44.1621158" lon="10.3998902"><ele>564.0</ele><time>2026-04-29T16:17:06.412Z</time></trkpt><trkpt lat="44.1621639" lon="10.3999546"><ele>565.0</ele><time>2026-04-29T16:17:08.41Z</time></trkpt><trkpt lat="44.1622094" lon="10.4000208"><ele>566.0</ele><time>2026-04-29T16:17:10.414Z</time></trkpt><trkpt lat="44.162253" lon="10.40009"><ele>567.0</ele><time>2026-04-29T16:17:12.414Z</time></trkpt><trkpt lat="44.162298" lon="10.4001545"><ele>568.0</ele><time>2026-04-29T16:17:14.403Z</time></trkpt><trkpt lat="44.1623436" lon="10.4002182"><ele>569.0</ele><time>2026-04-29T16:17:16.416Z</time></trkpt><trkpt lat="44.1623958" lon="10.4003273"><ele>570.0</ele><time>2026-04-29T16:17:19.402Z</time></trkpt><trkpt lat="44.162411" lon="10.4004133"><ele>571.0</ele><time>2026-04-29T16:17:21.413Z</time></trkpt><trkpt lat="44.1624067" lon="10.4005013"><ele>571.0</ele><time>2026-04-29T16:17:23.41Z</time></trkpt><trkpt lat="44.1623658" lon="10.4006164"><ele>571.0</ele><time>2026-04-29T16:17:26.409Z</time></trkpt><trkpt lat="44.16232" lon="10.4006876"><ele>571.0</ele><time>2026-04-29T16:17:28.398Z</time></trkpt><trkpt lat="44.1622626" lon="10.400735"><ele>571.0</ele><time>2026-04-29T16:17:30.419Z</time></trkpt><trkpt lat="44.1621966" lon="10.400763"><ele>571.0</ele><time>2026-04-29T16:17:32.419Z</time></trkpt><trkpt lat="44.162135" lon="10.4008016"><ele>571.0</ele><time>2026-04-29T16:17:34.413Z</time></trkpt><trkpt lat="44.1620752" lon="10.400833"><ele>571.0</ele><time>2026-04-29T16:17:36.406Z</time></trkpt><trkpt lat="44.1620137" lon="10.4008598"><ele>568.7142857142858</ele><time>2026-04-29T16:17:38.413Z</time></trkpt><trkpt lat="44.1619486" lon="10.4008869"><ele>566.4285714285714</ele><time>2026-04-29T16:17:40.41Z</time></trkpt><trkpt lat="44.1618862" lon="10.4009248"><ele>564.1428571428571</ele><time>2026-04-29T16:17:42.413Z</time></trkpt><trkpt lat="44.1618302" lon="10.4009743"><ele>561.8571428571429</ele><time>2026-04-29T16:17:44.408Z</time></trkpt><trkpt lat="44.1617752" lon="10.4010296"><ele>559.5714285714286</ele><time>2026-04-29T16:17:46.397Z</time></trkpt><trkpt lat="44.1617286" lon="10.4010933"><ele>557.2857142857143</ele><time>2026-04-29T16:17:48.411Z</time></trkpt><trkpt lat="44.1616878" lon="10.4011673"><ele>555.0</ele><time>2026-04-29T16:17:50.421Z</time></trkpt><trkpt lat="44.1616514" lon="10.401245"><ele>555.0000000000001</ele><time>2026-04-29T16:17:52.409Z</time></trkpt><trkpt lat="44.161618" lon="10.4013244"><ele>555.0</ele><time>2026-04-29T16:17:54.403Z</time></trkpt><trkpt lat="44.161588" lon="10.4014045"><ele>555.0</ele><time>2026-04-29T16:17:56.416Z</time></trkpt><trkpt lat="44.1615646" lon="10.4014895"><ele>555.0</ele><time>2026-04-29T16:17:58.404Z</time></trkpt><trkpt lat="44.1615257" lon="10.4016104"><ele>555.0</ele><time>2026-04-29T16:18:01.414Z</time></trkpt><trkpt lat="44.161498" lon="10.4016939"><ele>555.0000000000001</ele><time>2026-04-29T16:18:03.41Z</time></trkpt><trkpt lat="44.1614652" lon="10.4017718"><ele>555.0</ele><time>2026-04-29T16:18:05.416Z</time></trkpt><trkpt lat="44.1614326" lon="10.4018474"><ele>554.0000000000001</ele><time>2026-04-29T16:18:07.404Z</time></trkpt><trkpt lat="44.1613919" lon="10.4019202"><ele>553.0</ele><time>2026-04-29T16:18:09.406Z</time></trkpt><trkpt lat="44.1613488" lon="10.4019871"><ele>552.0</ele><time>2026-04-29T16:18:11.417Z</time></trkpt><trkpt lat="44.1613032" lon="10.402052"><ele>551.0</ele><time>2026-04-29T16:18:13.397Z</time></trkpt><trkpt lat="44.1612533" lon="10.4021113"><ele>550.0</ele><time>2026-04-29T16:18:15.407Z</time></trkpt><trkpt lat="44.1611834" lon="10.4021983"><ele>549.0000000000001</ele><time>2026-04-29T16:18:18.417Z</time></trkpt><trkpt lat="44.1611114" lon="10.4022801"><ele>548.0</ele><time>2026-04-29T16:18:21.404Z</time></trkpt><trkpt lat="44.1610596" lon="10.4023325"><ele>547.5</ele><time>2026-04-29T16:18:23.412Z</time></trkpt><trkpt lat="44.1609924" lon="10.4024203"><ele>547.0</ele><time>2026-04-29T16:18:26.414Z</time></trkpt><trkpt lat="44.1609252" lon="10.402505"><ele>546.5</ele><time>2026-04-29T16:18:29.412Z</time></trkpt><trkpt lat="44.1608594" lon="10.4025901"><ele>546.0</ele><time>2026-04-29T16:18:32.417Z</time></trkpt><trkpt lat="44.1607883" lon="10.4026738"><ele>545.5</ele><time>2026-04-29T16:18:35.405Z</time></trkpt><trkpt lat="44.160742" lon="10.4027351"><ele>545.0</ele><time>2026-04-29T16:18:37.409Z</time></trkpt><trkpt lat="44.1606973" lon="10.4027969"><ele>545.0</ele><time>2026-04-29T16:18:39.4Z</time></trkpt><trkpt lat="44.1606549" lon="10.4028624"><ele>545.0</ele><time>2026-04-29T16:18:41.406Z</time></trkpt><trkpt lat="44.1606081" lon="10.4029329"><ele>545.0</ele><time>2026-04-29T16:18:43.416Z</time></trkpt><trkpt lat="44.1605642" lon="10.4030016"><ele>545.0</ele><time>2026-04-29T16:18:45.409Z</time></trkpt><trkpt lat="44.1605212" lon="10.4030688"><ele>545.0</ele><time>2026-04-29T16:18:47.409Z</time></trkpt><trkpt lat="44.1604778" lon="10.4031351"><ele>545.0</ele><time>2026-04-29T16:18:49.417Z</time></trkpt><trkpt lat="44.1604212" lon="10.403227"><ele>545.0</ele><time>2026-04-29T16:18:52.414Z</time></trkpt><trkpt lat="44.1603568" lon="10.4033113"><ele>547.8571428571429</ele><time>2026-04-29T16:18:55.402Z</time></trkpt><trkpt lat="44.1603002" lon="10.403355"><ele>550.7142857142858</ele><time>2026-04-29T16:18:57.411Z</time></trkpt><trkpt lat="44.1602383" lon="10.4033835"><ele>553.5714285714286</ele><time>2026-04-29T16:18:59.416Z</time></trkpt><trkpt lat="44.1601697" lon="10.4033997"><ele>556.4285714285714</ele><time>2026-04-29T16:19:01.411Z</time></trkpt><trkpt lat="44.1600989" lon="10.403414"><ele>559.2857142857142</ele><time>2026-04-29T16:19:03.408Z</time></trkpt><trkpt lat="44.16003" lon="10.4034283"><ele>562.1428571428571</ele><time>2026-04-29T16:19:05.41Z</time></trkpt><trkpt lat="44.1599648" lon="10.4034444"><ele>565.0</ele><time>2026-04-29T16:19:07.41Z</time></trkpt><trkpt lat="44.1598947" lon="10.4034582"><ele>562.8571428571428</ele><time>2026-04-29T16:19:09.412Z</time></trkpt><trkpt lat="44.1598262" lon="10.4034723"><ele>560.7142857142857</ele><time>2026-04-29T16:19:11.413Z</time></trkpt><trkpt lat="44.1597556" lon="10.403485"><ele>558.5714285714286</ele><time>2026-04-29T16:19:13.41Z</time></trkpt><trkpt lat="44.1596889" lon="10.4035043"><ele>556.4285714285713</ele><time>2026-04-29T16:19:15.404Z</time></trkpt><trkpt lat="44.1596264" lon="10.4035266"><ele>554.2857142857142</ele><time>2026-04-29T16:19:17.424Z</time></trkpt><trkpt lat="44.1595648" lon="10.4035529"><ele>552.1428571428571</ele><time>2026-04-29T16:19:19.4Z</time></trkpt><trkpt lat="44.1595032" lon="10.4035951"><ele>550.0</ele><time>2026-04-29T16:19:21.414Z</time></trkpt><trkpt lat="44.1594437" lon="10.4036442"><ele>550.0</ele><time>2026-04-29T16:19:23.409Z</time></trkpt><trkpt lat="44.1593842" lon="10.4036996"><ele>550.0</ele><time>2026-04-29T16:19:25.41Z</time></trkpt><trkpt lat="44.1593311" lon="10.4037627"><ele>550.0</ele><time>2026-04-29T16:19:27.4Z</time></trkpt><trkpt lat="44.1592887" lon="10.4038397"><ele>550.0</ele><time>2026-04-29T16:19:29.404Z</time></trkpt><trkpt lat="44.1592443" lon="10.4039133"><ele>550.0</ele><time>2026-04-29T16:19:31.412Z</time></trkpt><trkpt lat="44.1592042" lon="10.4039875"><ele>550.0</ele><time>2026-04-29T16:19:33.414Z</time></trkpt><trkpt lat="44.1591647" lon="10.4040576"><ele>550.0</ele><time>2026-04-29T16:19:35.408Z</time></trkpt><trkpt lat="44.1591109" lon="10.4041649"><ele>550.0</ele><time>2026-04-29T16:19:38.406Z</time></trkpt><trkpt lat="44.1590719" lon="10.4042399"><ele>550.0</ele><time>2026-04-29T16:19:40.409Z</time></trkpt><trkpt lat="44.1590273" lon="10.4043178"><ele>550.0</ele><time>2026-04-29T16:19:42.414Z</time></trkpt><trkpt lat="44.15898" lon="10.4043965"><ele>550.0</ele><time>2026-04-29T16:19:44.408Z</time></trkpt><trkpt lat="44.1589331" lon="10.4044725"><ele>550.0</ele><time>2026-04-29T16:19:46.408Z</time></trkpt><trkpt lat="44.1588912" lon="10.4045504"><ele>550.0</ele><time>2026-04-29T16:19:48.412Z</time></trkpt><trkpt lat="44.1588474" lon="10.4046342"><ele>550.0</ele><time>2026-04-29T16:19:50.403Z</time></trkpt><trkpt lat="44.1587972" lon="10.4047172"><ele>550.4285714285714</ele><time>2026-04-29T16:19:52.398Z</time></trkpt><trkpt lat="44.1587453" lon="10.4048004"><ele>550.8571428571429</ele><time>2026-04-29T16:19:54.41Z</time></trkpt><trkpt lat="44.158702" lon="10.4048856"><ele>551.2857142857142</ele><time>2026-04-29T16:19:56.416Z</time></trkpt><trkpt lat="44.1586614" lon="10.4049743"><ele>551.7142857142858</ele><time>2026-04-29T16:19:58.411Z</time></trkpt><trkpt lat="44.1586175" lon="10.4050545"><ele>552.1428571428571</ele><time>2026-04-29T16:20:00.41Z</time></trkpt><trkpt lat="44.1585727" lon="10.4051309"><ele>552.5714285714286</ele><time>2026-04-29T16:20:02.413Z</time></trkpt><trkpt lat="44.1585303" lon="10.4052074"><ele>553.0</ele><time>2026-04-29T16:20:04.398Z</time></trkpt><trkpt lat="44.1584887" lon="10.4052841"><ele>553.0</ele><time>2026-04-29T16:20:06.414Z</time></trkpt><trkpt lat="44.1584488" lon="10.4053629"><ele>553.0</ele><time>2026-04-29T16:20:08.414Z</time></trkpt><trkpt lat="44.1584123" lon="10.405449"><ele>553.0</ele><time>2026-04-29T16:20:10.415Z</time></trkpt><trkpt lat="44.1583872" lon="10.4055442"><ele>553.0</ele><time>2026-04-29T16:20:12.413Z</time></trkpt><trkpt lat="44.1583686" lon="10.4056427"><ele>553.0</ele><time>2026-04-29T16:20:14.412Z</time></trkpt><trkpt lat="44.1583547" lon="10.4057485"><ele>553.0</ele><time>2026-04-29T16:20:16.411Z</time></trkpt><trkpt lat="44.1583429" lon="10.4058572"><ele>553.0</ele><time>2026-04-29T16:20:18.427Z</time></trkpt><trkpt lat="44.1583408" lon="10.4059598"><ele>553.2857142857143</ele><time>2026-04-29T16:20:20.41Z</time></trkpt><trkpt lat="44.1583449" lon="10.4060505"><ele>553.5714285714286</ele><time>2026-04-29T16:20:22.41Z</time></trkpt><trkpt lat="44.1583661" lon="10.4061403"><ele>553.8571428571429</ele><time>2026-04-29T16:20:24.413Z</time></trkpt><trkpt lat="44.1583945" lon="10.4062316"><ele>554.1428571428571</ele><time>2026-04-29T16:20:26.41Z</time></trkpt><trkpt lat="44.1584234" lon="10.4063222"><ele>554.4285714285714</ele><time>2026-04-29T16:20:28.412Z</time></trkpt><trkpt lat="44.1584593" lon="10.4064084"><ele>554.7142857142858</ele><time>2026-04-29T16:20:30.414Z</time></trkpt><trkpt lat="44.1584914" lon="10.4064999"><ele>555.0</ele><time>2026-04-29T16:20:32.412Z</time></trkpt><trkpt lat="44.1585235" lon="10.4065856"><ele>555.0000000000001</ele><time>2026-04-29T16:20:34.409Z</time></trkpt><trkpt lat="44.1585551" lon="10.406665"><ele>555.0</ele><time>2026-04-29T16:20:36.413Z</time></trkpt><trkpt lat="44.1585922" lon="10.4067525"><ele>555.0</ele><time>2026-04-29T16:20:38.417Z</time></trkpt><trkpt lat="44.1586256" lon="10.4068459"><ele>555.0</ele><time>2026-04-29T16:20:40.414Z</time></trkpt><trkpt lat="44.1586625" lon="10.4069395"><ele>555.0</ele><time>2026-04-29T16:20:42.403Z</time></trkpt><trkpt lat="44.1586964" lon="10.4070245"><ele>555.0000000000001</ele><time>2026-04-29T16:20:44.405Z</time></trkpt><trkpt lat="44.1587321" lon="10.4071141"><ele>555.0</ele><time>2026-04-29T16:20:46.411Z</time></trkpt><trkpt lat="44.1587636" lon="10.4072094"><ele>554.0000000000001</ele><time>2026-04-29T16:20:48.417Z</time></trkpt><trkpt lat="44.1587995" lon="10.4072982"><ele>553.0</ele><time>2026-04-29T16:20:50.404Z</time></trkpt><trkpt lat="44.1588367" lon="10.4073876"><ele>552.0</ele><time>2026-04-29T16:20:52.398Z</time></trkpt><trkpt lat="44.1588744" lon="10.4074751"><ele>551.0</ele><time>2026-04-29T16:20:54.411Z</time></trkpt><trkpt lat="44.1589165" lon="10.4075559"><ele>550.0</ele><time>2026-04-29T16:20:56.407Z</time></trkpt><trkpt lat="44.1589599" lon="10.4076371"><ele>549.0000000000001</ele><time>2026-04-29T16:20:58.406Z</time></trkpt><trkpt lat="44.1589992" lon="10.4077176"><ele>548.0</ele><time>2026-04-29T16:21:00.412Z</time></trkpt><trkpt lat="44.1590457" lon="10.4077949"><ele>551.3333333333333</ele><time>2026-04-29T16:21:02.446Z</time></trkpt><trkpt lat="44.1590926" lon="10.4078578"><ele>554.6666666666666</ele><time>2026-04-29T16:21:04.415Z</time></trkpt><trkpt lat="44.1591652" lon="10.4079512"><ele>558.0</ele><time>2026-04-29T16:21:07.405Z</time></trkpt><trkpt lat="44.1592219" lon="10.4080155"><ele>561.3333333333334</ele><time>2026-04-29T16:21:09.405Z</time></trkpt><trkpt lat="44.1592736" lon="10.4080814"><ele>564.6666666666667</ele><time>2026-04-29T16:21:11.402Z</time></trkpt><trkpt lat="44.1593287" lon="10.408146"><ele>568.0</ele><time>2026-04-29T16:21:13.406Z</time></trkpt><trkpt lat="44.1593757" lon="10.4082199"><ele>568.0</ele><time>2026-04-29T16:21:15.403Z</time></trkpt><trkpt lat="44.1594129" lon="10.4083099"><ele>568.0</ele><time>2026-04-29T16:21:17.409Z</time></trkpt><trkpt lat="44.1594435" lon="10.4084007"><ele>568.0</ele><time>2026-04-29T16:21:19.4Z</time></trkpt><trkpt lat="44.1594444" lon="10.4084937"><ele>568.0</ele><time>2026-04-29T16:21:21.416Z</time></trkpt><trkpt lat="44.1594151" lon="10.4085822"><ele>568.0</ele><time>2026-04-29T16:21:23.411Z</time></trkpt><trkpt lat="44.1593675" lon="10.4086451"><ele>568.0</ele><time>2026-04-29T16:21:25.416Z</time></trkpt><trkpt lat="44.1592855" lon="10.4087151"><ele>568.0</ele><time>2026-04-29T16:21:28.419Z</time></trkpt><trkpt lat="44.159197" lon="10.4087519"><ele>568.0</ele><time>2026-04-29T16:21:31.41Z</time></trkpt><trkpt lat="44.159112" lon="10.4087456"><ele>568.0</ele><time>2026-04-29T16:21:34.423Z</time></trkpt><trkpt lat="44.1590404" lon="10.4087305"><ele>568.0</ele><time>2026-04-29T16:21:37.415Z</time></trkpt><trkpt lat="44.1589666" lon="10.4087146"><ele>568.0</ele><time>2026-04-29T16:21:40.404Z</time></trkpt><trkpt lat="44.1588911" lon="10.4087109"><ele>568.0</ele><time>2026-04-29T16:21:43.412Z</time></trkpt><trkpt lat="44.1588182" lon="10.4087032"><ele>568.0</ele><time>2026-04-29T16:21:46.407Z</time></trkpt><trkpt lat="44.1587445" lon="10.40868"><ele>568.0</ele><time>2026-04-29T16:21:49.408Z</time></trkpt><trkpt lat="44.1586736" lon="10.4086419"><ele>568.0</ele><time>2026-04-29T16:21:52.41Z</time></trkpt><trkpt lat="44.1586027" lon="10.408606"><ele>568.0</ele><time>2026-04-29T16:21:55.413Z</time></trkpt><trkpt lat="44.1585324" lon="10.4085667"><ele>568.0</ele><time>2026-04-29T16:21:58.405Z</time></trkpt><trkpt lat="44.1584612" lon="10.4085156"><ele>568.0</ele><time>2026-04-29T16:22:01.399Z</time></trkpt><trkpt lat="44.1583881" lon="10.408487"><ele>568.0</ele><time>2026-04-29T16:22:04.411Z</time></trkpt><trkpt lat="44.1583183" lon="10.4084554"><ele>568.0</ele><time>2026-04-29T16:22:07.408Z</time></trkpt><trkpt lat="44.1582581" lon="10.4084271"><ele>568.0</ele><time>2026-04-29T16:22:10.415Z</time></trkpt><trkpt lat="44.1581912" lon="10.4084023"><ele>568.0</ele><time>2026-04-29T16:22:14.409Z</time></trkpt><trkpt lat="44.1581205" lon="10.4083829"><ele>568.0</ele><time>2026-04-29T16:22:18.405Z</time></trkpt><trkpt lat="44.1580422" lon="10.4083713"><ele>568.0</ele><time>2026-04-29T16:22:22.399Z</time></trkpt><trkpt lat="44.1579656" lon="10.4083668"><ele>568.0</ele><time>2026-04-29T16:22:26.401Z</time></trkpt><trkpt lat="44.1578918" lon="10.4083843"><ele>568.0</ele><time>2026-04-29T16:22:30.409Z</time></trkpt><trkpt lat="44.1578172" lon="10.4084072"><ele>566.5</ele><time>2026-04-29T16:22:34.409Z</time></trkpt><trkpt lat="44.157746" lon="10.4084505"><ele>565.0</ele><time>2026-04-29T16:22:38.407Z</time></trkpt><trkpt lat="44.1576828" lon="10.4085068"><ele>563.5</ele><time>2026-04-29T16:22:42.414Z</time></trkpt><trkpt lat="44.1576265" lon="10.4085732"><ele>562.0</ele><time>2026-04-29T16:22:46.412Z</time></trkpt><trkpt lat="44.1575757" lon="10.4086469"><ele>560.5</ele><time>2026-04-29T16:22:50.408Z</time></trkpt><trkpt lat="44.1575303" lon="10.4087272"><ele>559.0</ele><time>2026-04-29T16:22:54.399Z</time></trkpt><trkpt lat="44.1574897" lon="10.4088181"><ele>558.8333333333334</ele><time>2026-04-29T16:22:58.409Z</time></trkpt><trkpt lat="44.1574552" lon="10.408914"><ele>558.6666666666667</ele><time>2026-04-29T16:23:02.416Z</time></trkpt><trkpt lat="44.1574282" lon="10.4090168"><ele>558.5</ele><time>2026-04-29T16:23:06.419Z</time></trkpt><trkpt lat="44.1574077" lon="10.4090999"><ele>558.3333333333334</ele><time>2026-04-29T16:23:09.418Z</time></trkpt><trkpt lat="44.1573764" lon="10.409205"><ele>558.1666666666666</ele><time>2026-04-29T16:23:13.403Z</time></trkpt><trkpt lat="44.1573541" lon="10.4093074"><ele>558.0</ele><time>2026-04-29T16:23:17.414Z</time></trkpt><trkpt lat="44.1573297" lon="10.4094081"><ele>558.0</ele><time>2026-04-29T16:23:21.404Z</time></trkpt><trkpt lat="44.1573051" lon="10.4095124"><ele>558.0</ele><time>2026-04-29T16:23:25.406Z</time></trkpt><trkpt lat="44.1572812" lon="10.409616"><ele>558.0</ele><time>2026-04-29T16:23:29.403Z</time></trkpt><trkpt lat="44.1572566" lon="10.4097245"><ele>558.0</ele><time>2026-04-29T16:23:33.414Z</time></trkpt><trkpt lat="44.1572278" lon="10.4098229"><ele>558.0</ele><time>2026-04-29T16:23:37.408Z</time></trkpt><trkpt lat="44.157209" lon="10.4099256"><ele>558.0</ele><time>2026-04-29T16:23:41.41Z</time></trkpt><trkpt lat="44.1571886" lon="10.4100256"><ele>559.9999999999999</ele><time>2026-04-29T16:23:45.403Z</time></trkpt><trkpt lat="44.1571624" lon="10.4101239"><ele>562.0</ele><time>2026-04-29T16:23:49.413Z</time></trkpt><trkpt lat="44.1571303" lon="10.4102208"><ele>564.0</ele><time>2026-04-29T16:23:53.408Z</time></trkpt><trkpt lat="44.1570861" lon="10.4103087"><ele>566.0</ele><time>2026-04-29T16:23:57.411Z</time></trkpt><trkpt lat="44.1570394" lon="10.4103888"><ele>568.0</ele><time>2026-04-29T16:24:01.401Z</time></trkpt><trkpt lat="44.1569844" lon="10.4104509"><ele>569.9999999999999</ele><time>2026-04-29T16:24:05.413Z</time></trkpt><trkpt lat="44.1569192" lon="10.4105002"><ele>572.0</ele><time>2026-04-29T16:24:09.411Z</time></trkpt><trkpt lat="44.1568524" lon="10.4105281"><ele>572.3333333333333</ele><time>2026-04-29T16:24:13.418Z</time></trkpt><trkpt lat="44.1567783" lon="10.4105637"><ele>572.6666666666666</ele><time>2026-04-29T16:24:17.417Z</time></trkpt><trkpt lat="44.1567117" lon="10.4105772"><ele>573.0</ele><time>2026-04-29T16:24:19.405Z</time></trkpt><trkpt lat="44.1566186" lon="10.4106052"><ele>573.3333333333334</ele><time>2026-04-29T16:24:21.406Z</time></trkpt><trkpt lat="44.1565173" lon="10.4106507"><ele>573.6666666666667</ele><time>2026-04-29T16:24:23.413Z</time></trkpt><trkpt lat="44.1564597" lon="10.4106872"><ele>574.0</ele><time>2026-04-29T16:24:24.408Z</time></trkpt><trkpt lat="44.1563934" lon="10.4107141"><ele>574.0</ele><time>2026-04-29T16:24:25.408Z</time></trkpt><trkpt lat="44.1563196" lon="10.4107415"><ele>574.0</ele><time>2026-04-29T16:24:26.407Z</time></trkpt><trkpt lat="44.156249" lon="10.4107762"><ele>574.0</ele><time>2026-04-29T16:24:27.411Z</time></trkpt><trkpt lat="44.156168" lon="10.4108178"><ele>574.0</ele><time>2026-04-29T16:24:28.411Z</time></trkpt><trkpt lat="44.1560837" lon="10.4108513"><ele>574.0</ele><time>2026-04-29T16:24:29.401Z</time></trkpt><trkpt lat="44.1559931" lon="10.4108819"><ele>574.0</ele><time>2026-04-29T16:24:30.419Z</time></trkpt><trkpt lat="44.1558984" lon="10.410912"><ele>574.0</ele><time>2026-04-29T16:24:31.409Z</time></trkpt><trkpt lat="44.155797" lon="10.410945"><ele>574.0</ele><time>2026-04-29T16:24:32.413Z</time></trkpt><trkpt lat="44.1556944" lon="10.4109733"><ele>574.0</ele><time>2026-04-29T16:24:33.411Z</time></trkpt><trkpt lat="44.1555897" lon="10.4110029"><ele>574.0</ele><time>2026-04-29T16:24:34.413Z</time></trkpt><trkpt lat="44.1554794" lon="10.4110252"><ele>574.0</ele><time>2026-04-29T16:24:35.423Z</time></trkpt><trkpt lat="44.1553664" lon="10.4110425"><ele>572.25</ele><time>2026-04-29T16:24:36.432Z</time></trkpt><trkpt lat="44.1552506" lon="10.4110563"><ele>570.5</ele><time>2026-04-29T16:24:37.413Z</time></trkpt><trkpt lat="44.1551366" lon="10.4110693"><ele>568.75</ele><time>2026-04-29T16:24:38.415Z</time></trkpt><trkpt lat="44.1550173" lon="10.4110834"><ele>567.0</ele><time>2026-04-29T16:24:39.41Z</time></trkpt><trkpt lat="44.1548969" lon="10.4110878"><ele>565.75</ele><time>2026-04-29T16:24:40.412Z</time></trkpt><trkpt lat="44.1547739" lon="10.4110951"><ele>564.5</ele><time>2026-04-29T16:24:41.41Z</time></trkpt><trkpt lat="44.1546503" lon="10.4111051"><ele>563.25</ele><time>2026-04-29T16:24:42.423Z</time></trkpt><trkpt lat="44.1545268" lon="10.411118"><ele>562.0</ele><time>2026-04-29T16:24:43.418Z</time></trkpt><trkpt lat="44.1543991" lon="10.4111321"><ele>562.0</ele><time>2026-04-29T16:24:44.413Z</time></trkpt><trkpt lat="44.1542706" lon="10.4111516"><ele>562.0</ele><time>2026-04-29T16:24:45.421Z</time></trkpt><trkpt lat="44.1541429" lon="10.4111795"><ele>562.0</ele><time>2026-04-29T16:24:46.411Z</time></trkpt><trkpt lat="44.1540142" lon="10.411208"><ele>562.0</ele><time>2026-04-29T16:24:47.415Z</time></trkpt><trkpt lat="44.153885" lon="10.4112376"><ele>558.75</ele><time>2026-04-29T16:24:48.411Z</time></trkpt><trkpt lat="44.1537626" lon="10.4112667"><ele>555.5</ele><time>2026-04-29T16:24:49.41Z</time></trkpt><trkpt lat="44.1536468" lon="10.4112835"><ele>552.25</ele><time>2026-04-29T16:24:50.409Z</time></trkpt><trkpt lat="44.153524" lon="10.4112651"><ele>549.0</ele><time>2026-04-29T16:24:51.41Z</time></trkpt><trkpt lat="44.1534016" lon="10.4112324"><ele>549.0</ele><time>2026-04-29T16:24:52.413Z</time></trkpt><trkpt lat="44.1532794" lon="10.4111924"><ele>549.0</ele><time>2026-04-29T16:24:53.404Z</time></trkpt><trkpt lat="44.1531546" lon="10.4111509"><ele>549.0</ele><time>2026-04-29T16:24:54.403Z</time></trkpt><trkpt lat="44.1530389" lon="10.4110985"><ele>549.0</ele><time>2026-04-29T16:24:55.408Z</time></trkpt><trkpt lat="44.1529342" lon="10.4110434"><ele>547.4</ele><time>2026-04-29T16:24:56.41Z</time></trkpt><trkpt lat="44.1528392" lon="10.4110097"><ele>545.8</ele><time>2026-04-29T16:24:57.414Z</time></trkpt><trkpt lat="44.1527403" lon="10.4110002"><ele>544.2</ele><time>2026-04-29T16:24:58.406Z</time></trkpt><trkpt lat="44.1526396" lon="10.411022"><ele>542.6</ele><time>2026-04-29T16:24:59.404Z</time></trkpt><trkpt lat="44.1525433" lon="10.411071"><ele>541.0</ele><time>2026-04-29T16:25:00.403Z</time></trkpt><trkpt lat="44.1524423" lon="10.4111258"><ele>540.75</ele><time>2026-04-29T16:25:01.401Z</time></trkpt><trkpt lat="44.1523391" lon="10.4111851"><ele>540.5</ele><time>2026-04-29T16:25:02.402Z</time></trkpt><trkpt lat="44.1522338" lon="10.4112547"><ele>540.25</ele><time>2026-04-29T16:25:03.412Z</time></trkpt><trkpt lat="44.1521285" lon="10.4113325"><ele>540.0</ele><time>2026-04-29T16:25:04.416Z</time></trkpt><trkpt lat="44.1520227" lon="10.4114057"><ele>540.0</ele><time>2026-04-29T16:25:05.41Z</time></trkpt><trkpt lat="44.1519166" lon="10.4114819"><ele>540.0</ele><time>2026-04-29T16:25:06.41Z</time></trkpt><trkpt lat="44.1518127" lon="10.4115515"><ele>540.0</ele><time>2026-04-29T16:25:07.414Z</time></trkpt><trkpt lat="44.1517123" lon="10.4115957"><ele>540.0</ele><time>2026-04-29T16:25:08.418Z</time></trkpt><trkpt lat="44.1516205" lon="10.4116133"><ele>540.0</ele><time>2026-04-29T16:25:09.405Z</time></trkpt><trkpt lat="44.151536" lon="10.4116221"><ele>538.5</ele><time>2026-04-29T16:25:10.406Z</time></trkpt><trkpt lat="44.1514562" lon="10.4116333"><ele>537.0</ele><time>2026-04-29T16:25:11.408Z</time></trkpt><trkpt lat="44.1513817" lon="10.4116472"><ele>535.5</ele><time>2026-04-29T16:25:12.408Z</time></trkpt><trkpt lat="44.1513179" lon="10.4116563"><ele>534.0</ele><time>2026-04-29T16:25:13.409Z</time></trkpt><trkpt lat="44.1512019" lon="10.4116782"><ele>532.5</ele><time>2026-04-29T16:25:15.411Z</time></trkpt><trkpt lat="44.1510903" lon="10.4117007"><ele>531.0</ele><time>2026-04-29T16:25:17.412Z</time></trkpt><trkpt lat="44.1509976" lon="10.4117208"><ele>531.0</ele><time>2026-04-29T16:25:19.411Z</time></trkpt><trkpt lat="44.1509331" lon="10.4117628"><ele>531.0</ele><time>2026-04-29T16:25:21.399Z</time></trkpt><trkpt lat="44.1509321" lon="10.4118673"><ele>531.0</ele><time>2026-04-29T16:25:24.402Z</time></trkpt><trkpt lat="44.1509863" lon="10.411913"><ele>531.0</ele><time>2026-04-29T16:25:27.4Z</time></trkpt><trkpt lat="44.1510611" lon="10.411953"><ele>531.0</ele><time>2026-04-29T16:25:30.398Z</time></trkpt><trkpt lat="44.1510771" lon="10.4120659"><ele>531.0</ele><time>2026-04-29T16:25:33.405Z</time></trkpt><trkpt lat="44.1510112" lon="10.4120939"><ele>531.0</ele><time>2026-04-29T16:25:37.421Z</time></trkpt><trkpt lat="44.1509331" lon="10.4121006"><ele>531.0</ele><time>2026-04-29T16:25:40.413Z</time></trkpt><trkpt lat="44.1508458" lon="10.4121197"><ele>531.0</ele><time>2026-04-29T16:25:43.414Z</time></trkpt><trkpt lat="44.1507972" lon="10.4122036"><ele>531.0</ele><time>2026-04-29T16:25:46.409Z</time></trkpt><trkpt lat="44.1507839" lon="10.4122943"><ele>531.0</ele><time>2026-04-29T16:25:49.41Z</time></trkpt><trkpt lat="44.1507661" lon="10.4124092"><ele>531.0</ele><time>2026-04-29T16:25:53.409Z</time></trkpt><trkpt lat="44.1507534" lon="10.4125081"><ele>531.0</ele><time>2026-04-29T16:25:57.403Z</time></trkpt><trkpt lat="44.1508133" lon="10.4125623"><ele>546.0</ele><time>2026-04-29T16:27:36.413Z</time></trkpt></trkseg></trk></gpx>